<?xml version="1.0" encoding="UTF-8"?>
<gpx version="1.1" creator="naviread 0.3" xmlns:xsi="http://www.w3.org/2001/XMLSchema-instance" xmlns="http://www.topografix.com/GPX/1/1" xsi:schemaLocation="http://www.topografix.com/GPX/1/1 http://www.topografix.com/GPX/1/1/gpx.xsd">
<metadata>
<bounds minlat="0.0000000" minlon="0.1048576" maxlat="46.4628096" maxlon="8.7218400"/>
</metadata>
<wpt lat="46.1792256" lon="8.7042696">
<ele>299.000000</ele>
<time>2018-08-11T16:11:54Z</time>
<name>Push Log Point 1</name>
</wpt>
<wpt lat="46.4106784" lon="8.1508512">
<ele>1193.000000</ele>
<time>2018-08-14T09:08:53Z</time>
<name>Push Log Point 2</name>
</wpt>
<wpt lat="46.3955488" lon="8.1467184">
<ele>1328.000000</ele>
<time>2018-08-14T11:26:55Z</time>
<name>Push Log Point 3</name>
</wpt>
<wpt lat="46.3864448" lon="8.1331512">
<ele>1287.000000</ele>
<time>2018-08-14T11:57:51Z</time>
<name>Push Log Point 4</name>
</wpt>
<wpt lat="46.3862816" lon="8.1329440">
<ele>1287.000000</ele>
<time>2018-08-14T11:58:17Z</time>
<name>Push Log Point 5</name>
</wpt>
<wpt lat="46.3862944" lon="8.1329568">
<ele>1288.000000</ele>
<time>2018-08-14T11:58:19Z</time>
<name>Push Log Point 6</name>
</wpt>
<wpt lat="46.3855808" lon="8.1300096">
<ele>1251.000000</ele>
<time>2018-08-14T12:11:08Z</time>
<name>Push Log Point 7</name>
</wpt>
<wpt lat="46.3855520" lon="8.1300592">
<ele>1251.000000</ele>
<time>2018-08-14T12:11:11Z</time>
<name>Push Log Point 8</name>
</wpt>
<wpt lat="46.3855360" lon="8.1300992">
<ele>1252.000000</ele>
<time>2018-08-14T12:11:13Z</time>
<name>Push Log Point 9</name>
</wpt>
<wpt lat="46.3841056" lon="8.1264680">
<ele>1247.000000</ele>
<time>2018-08-14T12:37:31Z</time>
<name>Push Log Point 10</name>
</wpt>
<wpt lat="46.3968384" lon="8.1317288">
<ele>1184.000000</ele>
<time>2018-08-14T14:02:30Z</time>
<name>Push Log Point 11</name>
</wpt>
<wpt lat="46.4146272" lon="8.0716496">
<ele>2405.000000</ele>
<time>2018-08-15T09:48:36Z</time>
<name>Push Log Point 12</name>
</wpt>
<wpt lat="46.4146336" lon="8.0716648">
<ele>2405.000000</ele>
<time>2018-08-15T09:48:39Z</time>
<name>Push Log Point 13</name>
</wpt>
<wpt lat="46.4146432" lon="8.0716648">
<ele>2405.000000</ele>
<time>2018-08-15T09:48:40Z</time>
<name>Push Log Point 14</name>
</wpt>
<wpt lat="46.4293472" lon="8.0828272">
<ele>2379.000000</ele>
<time>2018-08-15T11:05:58Z</time>
<name>Push Log Point 15</name>
</wpt>
<wpt lat="46.4293216" lon="8.0828336">
<ele>2379.000000</ele>
<time>2018-08-15T11:06:00Z</time>
<name>Push Log Point 16</name>
</wpt>
<wpt lat="46.4293408" lon="8.0828760">
<ele>2379.000000</ele>
<time>2018-08-15T11:06:03Z</time>
<name>Push Log Point 17</name>
</wpt>
<trk>
<name>Track 1</name>
<number>1</number>
<trkseg>
<trkpt lat="46.1546368" lon="8.6113280">
<ele>636.000000</ele>
<time>2018-08-11T15:47:02Z</time>
</trkpt>
<trkpt lat="46.1546400" lon="8.6113440">
<ele>636.000000</ele>
<time>2018-08-11T15:47:03Z</time>
</trkpt>
<trkpt lat="46.1546336" lon="8.6113192">
<ele>633.000000</ele>
<time>2018-08-11T15:47:16Z</time>
</trkpt>
<trkpt lat="46.1571936" lon="8.6158008">
<ele>632.000000</ele>
<time>2018-08-11T15:48:35Z</time>
</trkpt>
<trkpt lat="46.1572960" lon="8.6160384">
<ele>632.000000</ele>
<time>2018-08-11T15:48:38Z</time>
</trkpt>
<trkpt lat="46.1574592" lon="8.6169144">
<ele>632.000000</ele>
<time>2018-08-11T15:48:47Z</time>
</trkpt>
<trkpt lat="46.1574368" lon="8.6173360">
<ele>632.000000</ele>
<time>2018-08-11T15:48:51Z</time>
</trkpt>
<trkpt lat="46.1575168" lon="8.6181496">
<ele>631.000000</ele>
<time>2018-08-11T15:48:58Z</time>
</trkpt>
<trkpt lat="46.1575168" lon="8.6184152">
<ele>631.000000</ele>
<time>2018-08-11T15:49:00Z</time>
</trkpt>
</trkseg>
</trk>
<trk>
<name>Track 2</name>
<number>2</number>
<trkseg>
<trkpt lat="46.1790464" lon="8.7041480">
<ele>311.000000</ele>
<time>2018-08-11T16:10:59Z</time>
</trkpt>
<trkpt lat="46.1790272" lon="8.7041624">
<ele>309.000000</ele>
<time>2018-08-11T16:11:00Z</time>
</trkpt>
<trkpt lat="46.1790176" lon="8.7042424">
<ele>306.000000</ele>
<time>2018-08-11T16:11:10Z</time>
</trkpt>
<trkpt lat="46.1789888" lon="8.7042776">
<ele>303.000000</ele>
<time>2018-08-11T16:11:20Z</time>
</trkpt>
<trkpt lat="46.1791104" lon="8.7043008">
<ele>301.000000</ele>
<time>2018-08-11T16:11:30Z</time>
</trkpt>
<trkpt lat="46.1791456" lon="8.7043712">
<ele>302.000000</ele>
<time>2018-08-11T16:11:40Z</time>
</trkpt>
<trkpt lat="46.1792032" lon="8.7043760">
<ele>301.000000</ele>
<time>2018-08-11T16:11:50Z</time>
</trkpt>
<trkpt lat="46.1792256" lon="8.7042696">
<ele>299.000000</ele>
<time>2018-08-11T16:11:54Z</time>
</trkpt>
<trkpt lat="46.1793248" lon="8.7043400">
<ele>298.000000</ele>
<time>2018-08-11T16:12:04Z</time>
</trkpt>
<trkpt lat="46.1794656" lon="8.7043312">
<ele>295.000000</ele>
<time>2018-08-11T16:12:14Z</time>
</trkpt>
<trkpt lat="46.1795680" lon="8.7044008">
<ele>294.000000</ele>
<time>2018-08-11T16:12:24Z</time>
</trkpt>
<trkpt lat="46.1795936" lon="8.7046128">
<ele>293.000000</ele>
<time>2018-08-11T16:12:34Z</time>
</trkpt>
<trkpt lat="46.1795872" lon="8.7047912">
<ele>289.000000</ele>
<time>2018-08-11T16:12:44Z</time>
</trkpt>
<trkpt lat="46.1796096" lon="8.7049464">
<ele>288.000000</ele>
<time>2018-08-11T16:12:54Z</time>
</trkpt>
<trkpt lat="46.1796384" lon="8.7051056">
<ele>286.000000</ele>
<time>2018-08-11T16:13:04Z</time>
</trkpt>
<trkpt lat="46.1796832" lon="8.7053144">
<ele>286.000000</ele>
<time>2018-08-11T16:13:14Z</time>
</trkpt>
<trkpt lat="46.1797344" lon="8.7055200">
<ele>284.000000</ele>
<time>2018-08-11T16:13:24Z</time>
</trkpt>
<trkpt lat="46.1797824" lon="8.7056472">
<ele>282.000000</ele>
<time>2018-08-11T16:13:34Z</time>
</trkpt>
<trkpt lat="46.1797920" lon="8.7058496">
<ele>281.000000</ele>
<time>2018-08-11T16:13:44Z</time>
</trkpt>
<trkpt lat="46.1799520" lon="8.7059632">
<ele>280.000000</ele>
<time>2018-08-11T16:13:54Z</time>
</trkpt>
<trkpt lat="46.1800960" lon="8.7060192">
<ele>279.000000</ele>
<time>2018-08-11T16:14:04Z</time>
</trkpt>
<trkpt lat="46.1802560" lon="8.7060264">
<ele>278.000000</ele>
<time>2018-08-11T16:14:14Z</time>
</trkpt>
<trkpt lat="46.1803904" lon="8.7060368">
<ele>281.000000</ele>
<time>2018-08-11T16:14:24Z</time>
</trkpt>
<trkpt lat="46.1804896" lon="8.7060728">
<ele>280.000000</ele>
<time>2018-08-11T16:14:34Z</time>
</trkpt>
<trkpt lat="46.1805312" lon="8.7061712">
<ele>277.000000</ele>
<time>2018-08-11T16:14:44Z</time>
</trkpt>
<trkpt lat="46.1805696" lon="8.7063696">
<ele>275.000000</ele>
<time>2018-08-11T16:14:54Z</time>
</trkpt>
<trkpt lat="46.1806176" lon="8.7065792">
<ele>274.000000</ele>
<time>2018-08-11T16:15:04Z</time>
</trkpt>
<trkpt lat="46.1806496" lon="8.7067376">
<ele>274.000000</ele>
<time>2018-08-11T16:15:14Z</time>
</trkpt>
<trkpt lat="46.1806656" lon="8.7069160">
<ele>272.000000</ele>
<time>2018-08-11T16:15:24Z</time>
</trkpt>
<trkpt lat="46.1806752" lon="8.7071184">
<ele>270.000000</ele>
<time>2018-08-11T16:15:34Z</time>
</trkpt>
<trkpt lat="46.1807360" lon="8.7072384">
<ele>268.000000</ele>
<time>2018-08-11T16:15:44Z</time>
</trkpt>
<trkpt lat="46.1808000" lon="8.7074992">
<ele>269.000000</ele>
<time>2018-08-11T16:15:51Z</time>
</trkpt>
<trkpt lat="46.1808288" lon="8.7076648">
<ele>271.000000</ele>
<time>2018-08-11T16:16:01Z</time>
</trkpt>
<trkpt lat="46.1807904" lon="8.7078848">
<ele>271.000000</ele>
<time>2018-08-11T16:16:11Z</time>
</trkpt>
<trkpt lat="46.1808288" lon="8.7080120">
<ele>272.000000</ele>
<time>2018-08-11T16:16:21Z</time>
</trkpt>
<trkpt lat="46.1808448" lon="8.7082640">
<ele>273.000000</ele>
<time>2018-08-11T16:16:31Z</time>
</trkpt>
<trkpt lat="46.1808896" lon="8.7083944">
<ele>272.000000</ele>
<time>2018-08-11T16:16:41Z</time>
</trkpt>
<trkpt lat="46.1809152" lon="8.7085784">
<ele>272.000000</ele>
<time>2018-08-11T16:16:51Z</time>
</trkpt>
<trkpt lat="46.1809152" lon="8.7087656">
<ele>272.000000</ele>
<time>2018-08-11T16:17:01Z</time>
</trkpt>
<trkpt lat="46.1809600" lon="8.7088944">
<ele>271.000000</ele>
<time>2018-08-11T16:17:11Z</time>
</trkpt>
<trkpt lat="46.1809888" lon="8.7090680">
<ele>270.000000</ele>
<time>2018-08-11T16:17:21Z</time>
</trkpt>
<trkpt lat="46.1810336" lon="8.7092184">
<ele>270.000000</ele>
<time>2018-08-11T16:17:31Z</time>
</trkpt>
<trkpt lat="46.1809952" lon="8.7093960">
<ele>269.000000</ele>
<time>2018-08-11T16:17:41Z</time>
</trkpt>
<trkpt lat="46.1810272" lon="8.7095344">
<ele>268.000000</ele>
<time>2018-08-11T16:17:51Z</time>
</trkpt>
<trkpt lat="46.1810784" lon="8.7097760">
<ele>267.000000</ele>
<time>2018-08-11T16:18:01Z</time>
</trkpt>
<trkpt lat="46.1810368" lon="8.7099384">
<ele>265.000000</ele>
<time>2018-08-11T16:18:11Z</time>
</trkpt>
<trkpt lat="46.1810112" lon="8.7100928">
<ele>263.000000</ele>
<time>2018-08-11T16:18:21Z</time>
</trkpt>
<trkpt lat="46.1810272" lon="8.7102832">
<ele>262.000000</ele>
<time>2018-08-11T16:18:31Z</time>
</trkpt>
<trkpt lat="46.1810880" lon="8.7104200">
<ele>261.000000</ele>
<time>2018-08-11T16:18:41Z</time>
</trkpt>
<trkpt lat="46.1810560" lon="8.7105944">
<ele>260.000000</ele>
<time>2018-08-11T16:18:51Z</time>
</trkpt>
<trkpt lat="46.1811136" lon="8.7106984">
<ele>259.000000</ele>
<time>2018-08-11T16:19:01Z</time>
</trkpt>
<trkpt lat="46.1811424" lon="8.7109376">
<ele>259.000000</ele>
<time>2018-08-11T16:19:11Z</time>
</trkpt>
<trkpt lat="46.1812256" lon="8.7111040">
<ele>259.000000</ele>
<time>2018-08-11T16:19:21Z</time>
</trkpt>
<trkpt lat="46.1812320" lon="8.7112944">
<ele>258.000000</ele>
<time>2018-08-11T16:19:31Z</time>
</trkpt>
<trkpt lat="46.1813152" lon="8.7114856">
<ele>258.000000</ele>
<time>2018-08-11T16:19:41Z</time>
</trkpt>
<trkpt lat="46.1812768" lon="8.7116728">
<ele>259.000000</ele>
<time>2018-08-11T16:19:51Z</time>
</trkpt>
<trkpt lat="46.1813056" lon="8.7118400">
<ele>259.000000</ele>
<time>2018-08-11T16:20:01Z</time>
</trkpt>
<trkpt lat="46.1813312" lon="8.7120208">
<ele>258.000000</ele>
<time>2018-08-11T16:20:11Z</time>
</trkpt>
<trkpt lat="46.1813344" lon="8.7121448">
<ele>256.000000</ele>
<time>2018-08-11T16:20:21Z</time>
</trkpt>
<trkpt lat="46.1813728" lon="8.7123432">
<ele>256.000000</ele>
<time>2018-08-11T16:20:31Z</time>
</trkpt>
<trkpt lat="46.1813920" lon="8.7125512">
<ele>255.000000</ele>
<time>2018-08-11T16:20:41Z</time>
</trkpt>
<trkpt lat="46.1814432" lon="8.7126872">
<ele>254.000000</ele>
<time>2018-08-11T16:20:51Z</time>
</trkpt>
<trkpt lat="46.1814752" lon="8.7128592">
<ele>254.000000</ele>
<time>2018-08-11T16:21:01Z</time>
</trkpt>
<trkpt lat="46.1815008" lon="8.7130280">
<ele>253.000000</ele>
<time>2018-08-11T16:21:11Z</time>
</trkpt>
<trkpt lat="46.1815296" lon="8.7132176">
<ele>253.000000</ele>
<time>2018-08-11T16:21:21Z</time>
</trkpt>
<trkpt lat="46.1815904" lon="8.7133760">
<ele>253.000000</ele>
<time>2018-08-11T16:21:31Z</time>
</trkpt>
<trkpt lat="46.1815648" lon="8.7136384">
<ele>253.000000</ele>
<time>2018-08-11T16:21:41Z</time>
</trkpt>
<trkpt lat="46.1815616" lon="8.7138512">
<ele>253.000000</ele>
<time>2018-08-11T16:21:51Z</time>
</trkpt>
<trkpt lat="46.1816224" lon="8.7139624">
<ele>253.000000</ele>
<time>2018-08-11T16:22:01Z</time>
</trkpt>
<trkpt lat="46.1816096" lon="8.7141608">
<ele>254.000000</ele>
<time>2018-08-11T16:22:11Z</time>
</trkpt>
<trkpt lat="46.1816224" lon="8.7143360">
<ele>253.000000</ele>
<time>2018-08-11T16:22:21Z</time>
</trkpt>
<trkpt lat="46.1815808" lon="8.7145080">
<ele>253.000000</ele>
<time>2018-08-11T16:22:31Z</time>
</trkpt>
<trkpt lat="46.1815680" lon="8.7147080">
<ele>251.000000</ele>
<time>2018-08-11T16:22:41Z</time>
</trkpt>
<trkpt lat="46.1815232" lon="8.7149696">
<ele>251.000000</ele>
<time>2018-08-11T16:22:48Z</time>
</trkpt>
<trkpt lat="46.1815328" lon="8.7151632">
<ele>252.000000</ele>
<time>2018-08-11T16:22:58Z</time>
</trkpt>
<trkpt lat="46.1815072" lon="8.7153280">
<ele>252.000000</ele>
<time>2018-08-11T16:23:08Z</time>
</trkpt>
<trkpt lat="46.1815200" lon="8.7154744">
<ele>252.000000</ele>
<time>2018-08-11T16:23:18Z</time>
</trkpt>
<trkpt lat="46.1815808" lon="8.7156128">
<ele>251.000000</ele>
<time>2018-08-11T16:23:28Z</time>
</trkpt>
<trkpt lat="46.1816192" lon="8.7157432">
<ele>251.000000</ele>
<time>2018-08-11T16:23:38Z</time>
</trkpt>
<trkpt lat="46.1815552" lon="8.7158944">
<ele>251.000000</ele>
<time>2018-08-11T16:23:48Z</time>
</trkpt>
<trkpt lat="46.1815680" lon="8.7161080">
<ele>250.000000</ele>
<time>2018-08-11T16:23:58Z</time>
</trkpt>
<trkpt lat="46.1816224" lon="8.7162848">
<ele>251.000000</ele>
<time>2018-08-11T16:24:08Z</time>
</trkpt>
<trkpt lat="46.1816128" lon="8.7164384">
<ele>250.000000</ele>
<time>2018-08-11T16:24:18Z</time>
</trkpt>
<trkpt lat="46.1814912" lon="8.7164896">
<ele>249.000000</ele>
<time>2018-08-11T16:24:28Z</time>
</trkpt>
<trkpt lat="46.1814880" lon="8.7167016">
<ele>247.000000</ele>
<time>2018-08-11T16:24:38Z</time>
</trkpt>
<trkpt lat="46.1815200" lon="8.7168712">
<ele>248.000000</ele>
<time>2018-08-11T16:24:48Z</time>
</trkpt>
<trkpt lat="46.1815136" lon="8.7170992">
<ele>246.000000</ele>
<time>2018-08-11T16:24:58Z</time>
</trkpt>
<trkpt lat="46.1814656" lon="8.7173480">
<ele>245.000000</ele>
<time>2018-08-11T16:25:08Z</time>
</trkpt>
<trkpt lat="46.1815040" lon="8.7175024">
<ele>244.000000</ele>
<time>2018-08-11T16:25:18Z</time>
</trkpt>
<trkpt lat="46.1815328" lon="8.7175248">
<ele>243.000000</ele>
<time>2018-08-11T16:25:28Z</time>
</trkpt>
<trkpt lat="46.1815264" lon="8.7177808">
<ele>244.000000</ele>
<time>2018-08-11T16:25:38Z</time>
</trkpt>
<trkpt lat="46.1814944" lon="8.7179976">
<ele>243.000000</ele>
<time>2018-08-11T16:25:48Z</time>
</trkpt>
<trkpt lat="46.1815136" lon="8.7181976">
<ele>243.000000</ele>
<time>2018-08-11T16:25:58Z</time>
</trkpt>
<trkpt lat="46.1815296" lon="8.7183848">
<ele>243.000000</ele>
<time>2018-08-11T16:26:08Z</time>
</trkpt>
<trkpt lat="46.1815008" lon="8.7186128">
<ele>243.000000</ele>
<time>2018-08-11T16:26:18Z</time>
</trkpt>
<trkpt lat="46.1815296" lon="8.7187640">
<ele>242.000000</ele>
<time>2018-08-11T16:26:28Z</time>
</trkpt>
<trkpt lat="46.1815232" lon="8.7189472">
<ele>242.000000</ele>
<time>2018-08-11T16:26:38Z</time>
</trkpt>
<trkpt lat="46.1815232" lon="8.7191728">
<ele>240.000000</ele>
<time>2018-08-11T16:26:48Z</time>
</trkpt>
<trkpt lat="46.1815200" lon="8.7194112">
<ele>240.000000</ele>
<time>2018-08-11T16:26:58Z</time>
</trkpt>
<trkpt lat="46.1815552" lon="8.7195352">
<ele>241.000000</ele>
<time>2018-08-11T16:27:08Z</time>
</trkpt>
<trkpt lat="46.1815392" lon="8.7198000">
<ele>241.000000</ele>
<time>2018-08-11T16:27:18Z</time>
</trkpt>
<trkpt lat="46.1815648" lon="8.7199680">
<ele>241.000000</ele>
<time>2018-08-11T16:27:28Z</time>
</trkpt>
<trkpt lat="46.1815392" lon="8.7201496">
<ele>240.000000</ele>
<time>2018-08-11T16:27:38Z</time>
</trkpt>
<trkpt lat="46.1815040" lon="8.7201312">
<ele>240.000000</ele>
<time>2018-08-11T16:27:48Z</time>
</trkpt>
<trkpt lat="46.1813504" lon="8.7200944">
<ele>240.000000</ele>
<time>2018-08-11T16:27:58Z</time>
</trkpt>
<trkpt lat="46.1812320" lon="8.7201128">
<ele>241.000000</ele>
<time>2018-08-11T16:28:08Z</time>
</trkpt>
<trkpt lat="46.1810656" lon="8.7201792">
<ele>241.000000</ele>
<time>2018-08-11T16:28:18Z</time>
</trkpt>
<trkpt lat="46.1809600" lon="8.7201544">
<ele>240.000000</ele>
<time>2018-08-11T16:28:28Z</time>
</trkpt>
<trkpt lat="46.1808576" lon="8.7202312">
<ele>241.000000</ele>
<time>2018-08-11T16:28:38Z</time>
</trkpt>
<trkpt lat="46.1807488" lon="8.7202016">
<ele>241.000000</ele>
<time>2018-08-11T16:28:48Z</time>
</trkpt>
<trkpt lat="46.1806976" lon="8.7202464">
<ele>241.000000</ele>
<time>2018-08-11T16:28:58Z</time>
</trkpt>
<trkpt lat="46.1806176" lon="8.7204984">
<ele>241.000000</ele>
<time>2018-08-11T16:29:05Z</time>
</trkpt>
<trkpt lat="46.1806464" lon="8.7207032">
<ele>241.000000</ele>
<time>2018-08-11T16:29:15Z</time>
</trkpt>
<trkpt lat="46.1805888" lon="8.7208592">
<ele>241.000000</ele>
<time>2018-08-11T16:29:25Z</time>
</trkpt>
<trkpt lat="46.1805088" lon="8.7209824">
<ele>240.000000</ele>
<time>2018-08-11T16:29:35Z</time>
</trkpt>
<trkpt lat="46.1804192" lon="8.7208744">
<ele>240.000000</ele>
<time>2018-08-11T16:29:45Z</time>
</trkpt>
<trkpt lat="46.1804672" lon="8.7208296">
<ele>240.000000</ele>
<time>2018-08-11T16:29:55Z</time>
</trkpt>
<trkpt lat="46.1803776" lon="8.7209128">
<ele>240.000000</ele>
<time>2018-08-11T16:30:05Z</time>
</trkpt>
<trkpt lat="46.1802784" lon="8.7211096">
<ele>239.000000</ele>
<time>2018-08-11T16:30:15Z</time>
</trkpt>
<trkpt lat="46.1802688" lon="8.7212784">
<ele>240.000000</ele>
<time>2018-08-11T16:30:25Z</time>
</trkpt>
<trkpt lat="46.1802400" lon="8.7214944">
<ele>239.000000</ele>
<time>2018-08-11T16:30:35Z</time>
</trkpt>
<trkpt lat="46.1802112" lon="8.7215792">
<ele>239.000000</ele>
<time>2018-08-11T16:31:17Z</time>
</trkpt>
<trkpt lat="46.1801952" lon="8.7215616">
<ele>239.000000</ele>
<time>2018-08-11T16:31:31Z</time>
</trkpt>
<trkpt lat="46.1802336" lon="8.7216128">
<ele>239.000000</ele>
<time>2018-08-11T16:32:37Z</time>
</trkpt>
<trkpt lat="46.1802336" lon="8.7216152">
<ele>239.000000</ele>
<time>2018-08-11T16:32:53Z</time>
</trkpt>
<trkpt lat="46.1803008" lon="8.7215432">
<ele>240.000000</ele>
<time>2018-08-11T16:33:03Z</time>
</trkpt>
<trkpt lat="46.1803904" lon="8.7214840">
<ele>242.000000</ele>
<time>2018-08-11T16:33:13Z</time>
</trkpt>
<trkpt lat="46.1803680" lon="8.7214744">
<ele>240.000000</ele>
<time>2018-08-11T16:35:45Z</time>
</trkpt>
<trkpt lat="46.1802976" lon="8.7214864">
<ele>240.000000</ele>
<time>2018-08-11T16:35:55Z</time>
</trkpt>
<trkpt lat="46.1802592" lon="8.7213560">
<ele>240.000000</ele>
<time>2018-08-11T16:36:05Z</time>
</trkpt>
<trkpt lat="46.1802528" lon="8.7213192">
<ele>241.000000</ele>
<time>2018-08-11T16:36:16Z</time>
</trkpt>
<trkpt lat="46.1802496" lon="8.7213192">
<ele>241.000000</ele>
<time>2018-08-11T16:38:17Z</time>
</trkpt>
<trkpt lat="46.1802528" lon="8.7213096">
<ele>241.000000</ele>
<time>2018-08-11T16:44:42Z</time>
</trkpt>
<trkpt lat="46.1802144" lon="8.7213784">
<ele>241.000000</ele>
<time>2018-08-11T16:45:39Z</time>
</trkpt>
<trkpt lat="46.1802304" lon="8.7215328">
<ele>242.000000</ele>
<time>2018-08-11T16:45:49Z</time>
</trkpt>
<trkpt lat="46.1802048" lon="8.7215480">
<ele>242.000000</ele>
<time>2018-08-11T16:45:59Z</time>
</trkpt>
<trkpt lat="46.1801760" lon="8.7216464">
<ele>241.000000</ele>
<time>2018-08-11T16:46:09Z</time>
</trkpt>
<trkpt lat="46.1801056" lon="8.7217976">
<ele>240.000000</ele>
<time>2018-08-11T16:46:19Z</time>
</trkpt>
<trkpt lat="46.1800736" lon="8.7218400">
<ele>241.000000</ele>
<time>2018-08-11T16:46:29Z</time>
</trkpt>
<trkpt lat="46.1801408" lon="8.7217472">
<ele>244.000000</ele>
<time>2018-08-11T16:46:39Z</time>
</trkpt>
<trkpt lat="46.1801920" lon="8.7216112">
<ele>247.000000</ele>
<time>2018-08-11T16:46:49Z</time>
</trkpt>
<trkpt lat="46.1801376" lon="8.7215064">
<ele>245.000000</ele>
<time>2018-08-11T16:46:59Z</time>
</trkpt>
<trkpt lat="46.1801248" lon="8.7214816">
<ele>242.000000</ele>
<time>2018-08-11T16:47:14Z</time>
</trkpt>
<trkpt lat="46.1802016" lon="8.7214616">
<ele>243.000000</ele>
<time>2018-08-11T16:47:24Z</time>
</trkpt>
<trkpt lat="46.1801792" lon="8.7213560">
<ele>242.000000</ele>
<time>2018-08-11T16:47:39Z</time>
</trkpt>
<trkpt lat="46.1801952" lon="8.7213544">
<ele>239.000000</ele>
<time>2018-08-11T16:48:16Z</time>
</trkpt>
<trkpt lat="46.1801888" lon="8.7213544">
<ele>239.000000</ele>
<time>2018-08-11T16:49:23Z</time>
</trkpt>
<trkpt lat="46.1801760" lon="8.7213608">
<ele>239.000000</ele>
<time>2018-08-11T16:49:34Z</time>
</trkpt>
<trkpt lat="46.1801920" lon="8.7213720">
<ele>240.000000</ele>
<time>2018-08-11T16:49:45Z</time>
</trkpt>
<trkpt lat="46.1802048" lon="8.7213632">
<ele>241.000000</ele>
<time>2018-08-11T16:49:58Z</time>
</trkpt>
<trkpt lat="46.1801952" lon="8.7213784">
<ele>242.000000</ele>
<time>2018-08-11T16:50:18Z</time>
</trkpt>
</trkseg>
</trk>
<trk>
<name>Track 3</name>
<number>3</number>
<trkseg>
<trkpt lat="46.4628096" lon="8.2339144">
<ele>1320.000000</ele>
<time>2018-08-13T13:33:20Z</time>
</trkpt>
<trkpt lat="46.4627424" lon="8.2338760">
<ele>1320.000000</ele>
<time>2018-08-13T13:33:21Z</time>
</trkpt>
<trkpt lat="46.4625472" lon="8.2337712">
<ele>1319.000000</ele>
<time>2018-08-13T13:33:25Z</time>
</trkpt>
<trkpt lat="46.4624544" lon="8.2336552">
<ele>1325.000000</ele>
<time>2018-08-13T13:34:11Z</time>
</trkpt>
<trkpt lat="46.4622528" lon="8.2335376">
<ele>1325.000000</ele>
<time>2018-08-13T13:34:18Z</time>
</trkpt>
<trkpt lat="46.4620896" lon="8.2334312">
<ele>1325.000000</ele>
<time>2018-08-13T13:34:21Z</time>
</trkpt>
<trkpt lat="46.4618784" lon="8.2332728">
<ele>1326.000000</ele>
<time>2018-08-13T13:34:24Z</time>
</trkpt>
<trkpt lat="46.4617152" lon="8.2331360">
<ele>1326.000000</ele>
<time>2018-08-13T13:34:26Z</time>
</trkpt>
<trkpt lat="46.4615488" lon="8.2329744">
<ele>1326.000000</ele>
<time>2018-08-13T13:34:28Z</time>
</trkpt>
<trkpt lat="46.4613824" lon="8.2327776">
<ele>1327.000000</ele>
<time>2018-08-13T13:34:30Z</time>
</trkpt>
<trkpt lat="46.4612192" lon="8.2325560">
<ele>1327.000000</ele>
<time>2018-08-13T13:34:32Z</time>
</trkpt>
<trkpt lat="46.4610496" lon="8.2323264">
<ele>1327.000000</ele>
<time>2018-08-13T13:34:34Z</time>
</trkpt>
<trkpt lat="46.4608512" lon="8.2320992">
<ele>1326.000000</ele>
<time>2018-08-13T13:34:36Z</time>
</trkpt>
<trkpt lat="46.4606240" lon="8.2318808">
<ele>1326.000000</ele>
<time>2018-08-13T13:34:38Z</time>
</trkpt>
<trkpt lat="46.4603744" lon="8.2316912">
<ele>1327.000000</ele>
<time>2018-08-13T13:34:40Z</time>
</trkpt>
<trkpt lat="46.4601088" lon="8.2315280">
<ele>1326.000000</ele>
<time>2018-08-13T13:34:42Z</time>
</trkpt>
<trkpt lat="46.4598656" lon="8.2313592">
<ele>1327.000000</ele>
<time>2018-08-13T13:34:44Z</time>
</trkpt>
<trkpt lat="46.4596320" lon="8.2311680">
<ele>1327.000000</ele>
<time>2018-08-13T13:34:46Z</time>
</trkpt>
<trkpt lat="46.4594272" lon="8.2309512">
<ele>1327.000000</ele>
<time>2018-08-13T13:34:48Z</time>
</trkpt>
<trkpt lat="46.4592512" lon="8.2308352">
<ele>1315.000000</ele>
<time>2018-08-13T13:34:50Z</time>
</trkpt>
<trkpt lat="46.4590976" lon="8.2305896">
<ele>1313.000000</ele>
<time>2018-08-13T13:34:52Z</time>
</trkpt>
<trkpt lat="46.4589344" lon="8.2303336">
<ele>1312.000000</ele>
<time>2018-08-13T13:34:54Z</time>
</trkpt>
<trkpt lat="46.4587104" lon="8.2300280">
<ele>1312.000000</ele>
<time>2018-08-13T13:34:56Z</time>
</trkpt>
<trkpt lat="46.4585376" lon="8.2298056">
<ele>1309.000000</ele>
<time>2018-08-13T13:34:58Z</time>
</trkpt>
<trkpt lat="46.4583200" lon="8.2295824">
<ele>1308.000000</ele>
<time>2018-08-13T13:35:00Z</time>
</trkpt>
<trkpt lat="46.4580768" lon="8.2293640">
<ele>1308.000000</ele>
<time>2018-08-13T13:35:02Z</time>
</trkpt>
<trkpt lat="46.4578528" lon="8.2291632">
<ele>1308.000000</ele>
<time>2018-08-13T13:35:04Z</time>
</trkpt>
<trkpt lat="46.4576256" lon="8.2289512">
<ele>1307.000000</ele>
<time>2018-08-13T13:35:06Z</time>
</trkpt>
<trkpt lat="46.4573984" lon="8.2286960">
<ele>1308.000000</ele>
<time>2018-08-13T13:35:08Z</time>
</trkpt>
<trkpt lat="46.4571968" lon="8.2284080">
<ele>1308.000000</ele>
<time>2018-08-13T13:35:10Z</time>
</trkpt>
<trkpt lat="46.4570048" lon="8.2280800">
<ele>1308.000000</ele>
<time>2018-08-13T13:35:12Z</time>
</trkpt>
<trkpt lat="46.4568224" lon="8.2277040">
<ele>1309.000000</ele>
<time>2018-08-13T13:35:14Z</time>
</trkpt>
<trkpt lat="46.4566816" lon="8.2273328">
<ele>1307.000000</ele>
<time>2018-08-13T13:35:16Z</time>
</trkpt>
<trkpt lat="46.4565536" lon="8.2269544">
<ele>1306.000000</ele>
<time>2018-08-13T13:35:18Z</time>
</trkpt>
<trkpt lat="46.4564256" lon="8.2265776">
<ele>1305.000000</ele>
<time>2018-08-13T13:35:20Z</time>
</trkpt>
<trkpt lat="46.4562912" lon="8.2262056">
<ele>1305.000000</ele>
<time>2018-08-13T13:35:22Z</time>
</trkpt>
<trkpt lat="46.4561600" lon="8.2258312">
<ele>1304.000000</ele>
<time>2018-08-13T13:35:24Z</time>
</trkpt>
<trkpt lat="46.4560320" lon="8.2254632">
<ele>1304.000000</ele>
<time>2018-08-13T13:35:26Z</time>
</trkpt>
<trkpt lat="46.4559104" lon="8.2250928">
<ele>1303.000000</ele>
<time>2018-08-13T13:35:28Z</time>
</trkpt>
<trkpt lat="46.4557888" lon="8.2247064">
<ele>1301.000000</ele>
<time>2018-08-13T13:35:30Z</time>
</trkpt>
<trkpt lat="46.4557152" lon="8.2243168">
<ele>1300.000000</ele>
<time>2018-08-13T13:35:32Z</time>
</trkpt>
<trkpt lat="46.4556736" lon="8.2239064">
<ele>1300.000000</ele>
<time>2018-08-13T13:35:34Z</time>
</trkpt>
<trkpt lat="46.4556736" lon="8.2234896">
<ele>1298.000000</ele>
<time>2018-08-13T13:35:36Z</time>
</trkpt>
<trkpt lat="46.4556832" lon="8.2230728">
<ele>1297.000000</ele>
<time>2018-08-13T13:35:38Z</time>
</trkpt>
<trkpt lat="46.4556992" lon="8.2226480">
<ele>1296.000000</ele>
<time>2018-08-13T13:35:40Z</time>
</trkpt>
<trkpt lat="46.4557184" lon="8.2222192">
<ele>1296.000000</ele>
<time>2018-08-13T13:35:42Z</time>
</trkpt>
<trkpt lat="46.4557280" lon="8.2218064">
<ele>1296.000000</ele>
<time>2018-08-13T13:35:44Z</time>
</trkpt>
<trkpt lat="46.4557184" lon="8.2214240">
<ele>1295.000000</ele>
<time>2018-08-13T13:35:46Z</time>
</trkpt>
<trkpt lat="46.4556736" lon="8.2210200">
<ele>1296.000000</ele>
<time>2018-08-13T13:35:48Z</time>
</trkpt>
<trkpt lat="46.4556192" lon="8.2206784">
<ele>1296.000000</ele>
<time>2018-08-13T13:35:50Z</time>
</trkpt>
<trkpt lat="46.4555520" lon="8.2204096">
<ele>1292.000000</ele>
<time>2018-08-13T13:35:52Z</time>
</trkpt>
<trkpt lat="46.4554592" lon="8.2201344">
<ele>1289.000000</ele>
<time>2018-08-13T13:35:54Z</time>
</trkpt>
<trkpt lat="46.4553600" lon="8.2199232">
<ele>1285.000000</ele>
<time>2018-08-13T13:35:56Z</time>
</trkpt>
<trkpt lat="46.4551936" lon="8.2196672">
<ele>1277.000000</ele>
<time>2018-08-13T13:35:59Z</time>
</trkpt>
<trkpt lat="46.4550528" lon="8.2194680">
<ele>1276.000000</ele>
<time>2018-08-13T13:36:01Z</time>
</trkpt>
<trkpt lat="46.4549056" lon="8.2192648">
<ele>1276.000000</ele>
<time>2018-08-13T13:36:03Z</time>
</trkpt>
<trkpt lat="46.4547616" lon="8.2190744">
<ele>1275.000000</ele>
<time>2018-08-13T13:36:05Z</time>
</trkpt>
<trkpt lat="46.4546080" lon="8.2188976">
<ele>1273.000000</ele>
<time>2018-08-13T13:36:07Z</time>
</trkpt>
<trkpt lat="46.4544480" lon="8.2187176">
<ele>1273.000000</ele>
<time>2018-08-13T13:36:09Z</time>
</trkpt>
<trkpt lat="46.4542592" lon="8.2185392">
<ele>1275.000000</ele>
<time>2018-08-13T13:36:11Z</time>
</trkpt>
<trkpt lat="46.4540544" lon="8.2183896">
<ele>1276.000000</ele>
<time>2018-08-13T13:36:13Z</time>
</trkpt>
<trkpt lat="46.4538240" lon="8.2182328">
<ele>1277.000000</ele>
<time>2018-08-13T13:36:15Z</time>
</trkpt>
<trkpt lat="46.4535904" lon="8.2180880">
<ele>1279.000000</ele>
<time>2018-08-13T13:36:17Z</time>
</trkpt>
<trkpt lat="46.4533472" lon="8.2179368">
<ele>1280.000000</ele>
<time>2018-08-13T13:36:19Z</time>
</trkpt>
<trkpt lat="46.4531200" lon="8.2178008">
<ele>1279.000000</ele>
<time>2018-08-13T13:36:21Z</time>
</trkpt>
<trkpt lat="46.4529184" lon="8.2176272">
<ele>1279.000000</ele>
<time>2018-08-13T13:36:23Z</time>
</trkpt>
<trkpt lat="46.4527328" lon="8.2174200">
<ele>1279.000000</ele>
<time>2018-08-13T13:36:25Z</time>
</trkpt>
<trkpt lat="46.4525248" lon="8.2171408">
<ele>1279.000000</ele>
<time>2018-08-13T13:36:27Z</time>
</trkpt>
<trkpt lat="46.4523520" lon="8.2168464">
<ele>1278.000000</ele>
<time>2018-08-13T13:36:29Z</time>
</trkpt>
<trkpt lat="46.4522144" lon="8.2165192">
<ele>1277.000000</ele>
<time>2018-08-13T13:36:31Z</time>
</trkpt>
<trkpt lat="46.4520736" lon="8.2161672">
<ele>1277.000000</ele>
<time>2018-08-13T13:36:33Z</time>
</trkpt>
<trkpt lat="46.4519424" lon="8.2158240">
<ele>1277.000000</ele>
<time>2018-08-13T13:36:35Z</time>
</trkpt>
<trkpt lat="46.4517888" lon="8.2154624">
<ele>1278.000000</ele>
<time>2018-08-13T13:36:37Z</time>
</trkpt>
<trkpt lat="46.4516512" lon="8.2151176">
<ele>1278.000000</ele>
<time>2018-08-13T13:36:39Z</time>
</trkpt>
<trkpt lat="46.4515104" lon="8.2147776">
<ele>1278.000000</ele>
<time>2018-08-13T13:36:41Z</time>
</trkpt>
<trkpt lat="46.4513632" lon="8.2144240">
<ele>1277.000000</ele>
<time>2018-08-13T13:36:43Z</time>
</trkpt>
<trkpt lat="46.4512224" lon="8.2140776">
<ele>1278.000000</ele>
<time>2018-08-13T13:36:45Z</time>
</trkpt>
<trkpt lat="46.4510656" lon="8.2137168">
<ele>1279.000000</ele>
<time>2018-08-13T13:36:47Z</time>
</trkpt>
<trkpt lat="46.4509152" lon="8.2133696">
<ele>1280.000000</ele>
<time>2018-08-13T13:36:49Z</time>
</trkpt>
<trkpt lat="46.4507712" lon="8.2130192">
<ele>1282.000000</ele>
<time>2018-08-13T13:36:51Z</time>
</trkpt>
<trkpt lat="46.4506144" lon="8.2126608">
<ele>1283.000000</ele>
<time>2018-08-13T13:36:53Z</time>
</trkpt>
<trkpt lat="46.4504544" lon="8.2122992">
<ele>1284.000000</ele>
<time>2018-08-13T13:36:55Z</time>
</trkpt>
<trkpt lat="46.4502976" lon="8.2119360">
<ele>1285.000000</ele>
<time>2018-08-13T13:36:57Z</time>
</trkpt>
<trkpt lat="46.4501376" lon="8.2115856">
<ele>1286.000000</ele>
<time>2018-08-13T13:36:59Z</time>
</trkpt>
<trkpt lat="46.4499808" lon="8.2112824">
<ele>1285.000000</ele>
<time>2018-08-13T13:37:01Z</time>
</trkpt>
<trkpt lat="46.4498144" lon="8.2110128">
<ele>1284.000000</ele>
<time>2018-08-13T13:37:03Z</time>
</trkpt>
<trkpt lat="46.4496192" lon="8.2107728">
<ele>1282.000000</ele>
<time>2018-08-13T13:37:05Z</time>
</trkpt>
<trkpt lat="46.4493952" lon="8.2105360">
<ele>1282.000000</ele>
<time>2018-08-13T13:37:07Z</time>
</trkpt>
<trkpt lat="46.4491456" lon="8.2103344">
<ele>1282.000000</ele>
<time>2018-08-13T13:37:09Z</time>
</trkpt>
<trkpt lat="46.4488672" lon="8.2101384">
<ele>1282.000000</ele>
<time>2018-08-13T13:37:11Z</time>
</trkpt>
<trkpt lat="46.4487008" lon="8.2100128">
<ele>1282.000000</ele>
<time>2018-08-13T13:37:12Z</time>
</trkpt>
<trkpt lat="46.4484352" lon="8.2098528">
<ele>1281.000000</ele>
<time>2018-08-13T13:37:14Z</time>
</trkpt>
<trkpt lat="46.4481856" lon="8.2096888">
<ele>1280.000000</ele>
<time>2018-08-13T13:37:16Z</time>
</trkpt>
<trkpt lat="46.4479488" lon="8.2095416">
<ele>1279.000000</ele>
<time>2018-08-13T13:37:18Z</time>
</trkpt>
<trkpt lat="46.4453120" lon="8.2061760">
<ele>1226.000000</ele>
<time>2018-08-13T13:37:52Z</time>
</trkpt>
<trkpt lat="46.4451040" lon="8.2057232">
<ele>1248.000000</ele>
<time>2018-08-13T13:37:54Z</time>
</trkpt>
<trkpt lat="46.4449984" lon="8.2054480">
<ele>1252.000000</ele>
<time>2018-08-13T13:37:57Z</time>
</trkpt>
<trkpt lat="46.4448928" lon="8.2051928">
<ele>1259.000000</ele>
<time>2018-08-13T13:38:01Z</time>
</trkpt>
<trkpt lat="46.4448576" lon="8.2050880">
<ele>1262.000000</ele>
<time>2018-08-13T13:38:36Z</time>
</trkpt>
<trkpt lat="46.4447264" lon="8.2048376">
<ele>1262.000000</ele>
<time>2018-08-13T13:38:43Z</time>
</trkpt>
<trkpt lat="46.4446112" lon="8.2046296">
<ele>1262.000000</ele>
<time>2018-08-13T13:38:46Z</time>
</trkpt>
<trkpt lat="46.4444480" lon="8.2043744">
<ele>1262.000000</ele>
<time>2018-08-13T13:38:49Z</time>
</trkpt>
<trkpt lat="46.4443008" lon="8.2042000">
<ele>1262.000000</ele>
<time>2018-08-13T13:38:51Z</time>
</trkpt>
<trkpt lat="46.4441184" lon="8.2040424">
<ele>1262.000000</ele>
<time>2018-08-13T13:38:53Z</time>
</trkpt>
<trkpt lat="46.4438976" lon="8.2039064">
<ele>1263.000000</ele>
<time>2018-08-13T13:38:55Z</time>
</trkpt>
<trkpt lat="46.4436224" lon="8.2038008">
<ele>1263.000000</ele>
<time>2018-08-13T13:38:57Z</time>
</trkpt>
<trkpt lat="46.4433248" lon="8.2037592">
<ele>1264.000000</ele>
<time>2018-08-13T13:38:59Z</time>
</trkpt>
<trkpt lat="46.4430432" lon="8.2038032">
<ele>1265.000000</ele>
<time>2018-08-13T13:39:01Z</time>
</trkpt>
<trkpt lat="46.4427616" lon="8.2038616">
<ele>1266.000000</ele>
<time>2018-08-13T13:39:03Z</time>
</trkpt>
<trkpt lat="46.4424768" lon="8.2038840">
<ele>1266.000000</ele>
<time>2018-08-13T13:39:05Z</time>
</trkpt>
<trkpt lat="46.4422080" lon="8.2038496">
<ele>1266.000000</ele>
<time>2018-08-13T13:39:07Z</time>
</trkpt>
<trkpt lat="46.4419616" lon="8.2037584">
<ele>1266.000000</ele>
<time>2018-08-13T13:39:09Z</time>
</trkpt>
<trkpt lat="46.4417312" lon="8.2035608">
<ele>1267.000000</ele>
<time>2018-08-13T13:39:11Z</time>
</trkpt>
<trkpt lat="46.4415008" lon="8.2033160">
<ele>1267.000000</ele>
<time>2018-08-13T13:39:13Z</time>
</trkpt>
<trkpt lat="46.4412768" lon="8.2030480">
<ele>1266.000000</ele>
<time>2018-08-13T13:39:15Z</time>
</trkpt>
<trkpt lat="46.4410752" lon="8.2027648">
<ele>1266.000000</ele>
<time>2018-08-13T13:39:17Z</time>
</trkpt>
<trkpt lat="46.4408928" lon="8.2024776">
<ele>1265.000000</ele>
<time>2018-08-13T13:39:19Z</time>
</trkpt>
<trkpt lat="46.4407200" lon="8.2021984">
<ele>1263.000000</ele>
<time>2018-08-13T13:39:21Z</time>
</trkpt>
<trkpt lat="46.4405376" lon="8.2018928">
<ele>1262.000000</ele>
<time>2018-08-13T13:39:23Z</time>
</trkpt>
<trkpt lat="46.4403392" lon="8.2015744">
<ele>1262.000000</ele>
<time>2018-08-13T13:39:25Z</time>
</trkpt>
<trkpt lat="46.4401536" lon="8.2012688">
<ele>1262.000000</ele>
<time>2018-08-13T13:39:27Z</time>
</trkpt>
<trkpt lat="46.4399680" lon="8.2009928">
<ele>1261.000000</ele>
<time>2018-08-13T13:39:29Z</time>
</trkpt>
<trkpt lat="46.4397440" lon="8.2007344">
<ele>1262.000000</ele>
<time>2018-08-13T13:39:31Z</time>
</trkpt>
<trkpt lat="46.4395072" lon="8.2004816">
<ele>1264.000000</ele>
<time>2018-08-13T13:39:33Z</time>
</trkpt>
<trkpt lat="46.4392992" lon="8.2002728">
<ele>1265.000000</ele>
<time>2018-08-13T13:39:35Z</time>
</trkpt>
<trkpt lat="46.4390816" lon="8.2000072">
<ele>1266.000000</ele>
<time>2018-08-13T13:39:37Z</time>
</trkpt>
<trkpt lat="46.4388800" lon="8.1997280">
<ele>1266.000000</ele>
<time>2018-08-13T13:39:39Z</time>
</trkpt>
<trkpt lat="46.4386752" lon="8.1994264">
<ele>1265.000000</ele>
<time>2018-08-13T13:39:41Z</time>
</trkpt>
<trkpt lat="46.4384832" lon="8.1991488">
<ele>1261.000000</ele>
<time>2018-08-13T13:39:43Z</time>
</trkpt>
<trkpt lat="46.4383136" lon="8.1988048">
<ele>1259.000000</ele>
<time>2018-08-13T13:39:45Z</time>
</trkpt>
<trkpt lat="46.4381664" lon="8.1984328">
<ele>1259.000000</ele>
<time>2018-08-13T13:39:47Z</time>
</trkpt>
<trkpt lat="46.4380416" lon="8.1980592">
<ele>1257.000000</ele>
<time>2018-08-13T13:39:49Z</time>
</trkpt>
<trkpt lat="46.4379200" lon="8.1976824">
<ele>1256.000000</ele>
<time>2018-08-13T13:39:51Z</time>
</trkpt>
<trkpt lat="46.4377888" lon="8.1972944">
<ele>1255.000000</ele>
<time>2018-08-13T13:39:53Z</time>
</trkpt>
<trkpt lat="46.4376672" lon="8.1968896">
<ele>1255.000000</ele>
<time>2018-08-13T13:39:55Z</time>
</trkpt>
<trkpt lat="46.4375840" lon="8.1964896">
<ele>1255.000000</ele>
<time>2018-08-13T13:39:57Z</time>
</trkpt>
<trkpt lat="46.4375008" lon="8.1960744">
<ele>1255.000000</ele>
<time>2018-08-13T13:39:59Z</time>
</trkpt>
<trkpt lat="46.4374304" lon="8.1956640">
<ele>1255.000000</ele>
<time>2018-08-13T13:40:01Z</time>
</trkpt>
<trkpt lat="46.4373408" lon="8.1952528">
<ele>1255.000000</ele>
<time>2018-08-13T13:40:03Z</time>
</trkpt>
<trkpt lat="46.4372448" lon="8.1948632">
<ele>1255.000000</ele>
<time>2018-08-13T13:40:05Z</time>
</trkpt>
<trkpt lat="46.4371232" lon="8.1945032">
<ele>1253.000000</ele>
<time>2018-08-13T13:40:07Z</time>
</trkpt>
<trkpt lat="46.4361472" lon="8.1930936">
<ele>1246.000000</ele>
<time>2018-08-13T13:40:18Z</time>
</trkpt>
<trkpt lat="46.4359296" lon="8.1927976">
<ele>1244.000000</ele>
<time>2018-08-13T13:40:20Z</time>
</trkpt>
<trkpt lat="46.4357760" lon="8.1925232">
<ele>1243.000000</ele>
<time>2018-08-13T13:40:22Z</time>
</trkpt>
<trkpt lat="46.4356640" lon="8.1922400">
<ele>1241.000000</ele>
<time>2018-08-13T13:40:24Z</time>
</trkpt>
<trkpt lat="46.4356032" lon="8.1919664">
<ele>1241.000000</ele>
<time>2018-08-13T13:40:26Z</time>
</trkpt>
<trkpt lat="46.4355712" lon="8.1915872">
<ele>1239.000000</ele>
<time>2018-08-13T13:40:29Z</time>
</trkpt>
<trkpt lat="46.4355232" lon="8.1913280">
<ele>1240.000000</ele>
<time>2018-08-13T13:40:31Z</time>
</trkpt>
<trkpt lat="46.4354720" lon="8.1910584">
<ele>1239.000000</ele>
<time>2018-08-13T13:40:33Z</time>
</trkpt>
<trkpt lat="46.4354464" lon="8.1907952">
<ele>1239.000000</ele>
<time>2018-08-13T13:40:35Z</time>
</trkpt>
<trkpt lat="46.4354048" lon="8.1904896">
<ele>1240.000000</ele>
<time>2018-08-13T13:40:38Z</time>
</trkpt>
<trkpt lat="46.4353952" lon="8.1902008">
<ele>1242.000000</ele>
<time>2018-08-13T13:40:43Z</time>
</trkpt>
<trkpt lat="46.4354240" lon="8.1901824">
<ele>1242.000000</ele>
<time>2018-08-13T13:41:30Z</time>
</trkpt>
<trkpt lat="46.4354144" lon="8.1899080">
<ele>1242.000000</ele>
<time>2018-08-13T13:41:37Z</time>
</trkpt>
<trkpt lat="46.4353664" lon="8.1895912">
<ele>1243.000000</ele>
<time>2018-08-13T13:41:41Z</time>
</trkpt>
<trkpt lat="46.4352800" lon="8.1892864">
<ele>1243.000000</ele>
<time>2018-08-13T13:41:44Z</time>
</trkpt>
<trkpt lat="46.4351296" lon="8.1889808">
<ele>1244.000000</ele>
<time>2018-08-13T13:41:47Z</time>
</trkpt>
<trkpt lat="46.4350048" lon="8.1887600">
<ele>1244.000000</ele>
<time>2018-08-13T13:41:49Z</time>
</trkpt>
<trkpt lat="46.4348800" lon="8.1885296">
<ele>1245.000000</ele>
<time>2018-08-13T13:41:51Z</time>
</trkpt>
<trkpt lat="46.4347488" lon="8.1882896">
<ele>1246.000000</ele>
<time>2018-08-13T13:41:53Z</time>
</trkpt>
<trkpt lat="46.4345984" lon="8.1880624">
<ele>1248.000000</ele>
<time>2018-08-13T13:41:55Z</time>
</trkpt>
<trkpt lat="46.4344096" lon="8.1878976">
<ele>1248.000000</ele>
<time>2018-08-13T13:41:57Z</time>
</trkpt>
<trkpt lat="46.4342144" lon="8.1877568">
<ele>1249.000000</ele>
<time>2018-08-13T13:41:59Z</time>
</trkpt>
<trkpt lat="46.4340320" lon="8.1876184">
<ele>1249.000000</ele>
<time>2018-08-13T13:42:01Z</time>
</trkpt>
<trkpt lat="46.4338784" lon="8.1874424">
<ele>1250.000000</ele>
<time>2018-08-13T13:42:03Z</time>
</trkpt>
<trkpt lat="46.4337600" lon="8.1872176">
<ele>1251.000000</ele>
<time>2018-08-13T13:42:05Z</time>
</trkpt>
<trkpt lat="46.4336544" lon="8.1869248">
<ele>1255.000000</ele>
<time>2018-08-13T13:42:07Z</time>
</trkpt>
<trkpt lat="46.4335904" lon="8.1866528">
<ele>1255.000000</ele>
<time>2018-08-13T13:42:09Z</time>
</trkpt>
<trkpt lat="46.4335264" lon="8.1863776">
<ele>1256.000000</ele>
<time>2018-08-13T13:42:11Z</time>
</trkpt>
<trkpt lat="46.4334560" lon="8.1861096">
<ele>1257.000000</ele>
<time>2018-08-13T13:42:13Z</time>
</trkpt>
<trkpt lat="46.4333888" lon="8.1858352">
<ele>1258.000000</ele>
<time>2018-08-13T13:42:15Z</time>
</trkpt>
<trkpt lat="46.4333184" lon="8.1855632">
<ele>1259.000000</ele>
<time>2018-08-13T13:42:17Z</time>
</trkpt>
<trkpt lat="46.4332512" lon="8.1852944">
<ele>1260.000000</ele>
<time>2018-08-13T13:42:19Z</time>
</trkpt>
<trkpt lat="46.4331680" lon="8.1850392">
<ele>1260.000000</ele>
<time>2018-08-13T13:42:21Z</time>
</trkpt>
<trkpt lat="46.4330720" lon="8.1848232">
<ele>1260.000000</ele>
<time>2018-08-13T13:42:23Z</time>
</trkpt>
<trkpt lat="46.4328800" lon="8.1845560">
<ele>1258.000000</ele>
<time>2018-08-13T13:42:26Z</time>
</trkpt>
<trkpt lat="46.4327424" lon="8.1843912">
<ele>1259.000000</ele>
<time>2018-08-13T13:42:28Z</time>
</trkpt>
<trkpt lat="46.4325824" lon="8.1842264">
<ele>1258.000000</ele>
<time>2018-08-13T13:42:30Z</time>
</trkpt>
<trkpt lat="46.4324352" lon="8.1840592">
<ele>1257.000000</ele>
<time>2018-08-13T13:42:32Z</time>
</trkpt>
<trkpt lat="46.4322816" lon="8.1838760">
<ele>1257.000000</ele>
<time>2018-08-13T13:42:34Z</time>
</trkpt>
<trkpt lat="46.4321312" lon="8.1836752">
<ele>1257.000000</ele>
<time>2018-08-13T13:42:36Z</time>
</trkpt>
<trkpt lat="46.4320032" lon="8.1834640">
<ele>1257.000000</ele>
<time>2018-08-13T13:42:38Z</time>
</trkpt>
<trkpt lat="46.4318624" lon="8.1832336">
<ele>1257.000000</ele>
<time>2018-08-13T13:42:40Z</time>
</trkpt>
<trkpt lat="46.4317056" lon="8.1829344">
<ele>1257.000000</ele>
<time>2018-08-13T13:42:42Z</time>
</trkpt>
<trkpt lat="46.4315232" lon="8.1825760">
<ele>1258.000000</ele>
<time>2018-08-13T13:42:44Z</time>
</trkpt>
<trkpt lat="46.4313536" lon="8.1822128">
<ele>1258.000000</ele>
<time>2018-08-13T13:42:46Z</time>
</trkpt>
<trkpt lat="46.4312160" lon="8.1818432">
<ele>1258.000000</ele>
<time>2018-08-13T13:42:48Z</time>
</trkpt>
<trkpt lat="46.4310592" lon="8.1814880">
<ele>1258.000000</ele>
<time>2018-08-13T13:42:50Z</time>
</trkpt>
<trkpt lat="46.4308576" lon="8.1811648">
<ele>1258.000000</ele>
<time>2018-08-13T13:42:52Z</time>
</trkpt>
<trkpt lat="46.4306464" lon="8.1808440">
<ele>1258.000000</ele>
<time>2018-08-13T13:42:54Z</time>
</trkpt>
<trkpt lat="46.4304192" lon="8.1805408">
<ele>1258.000000</ele>
<time>2018-08-13T13:42:56Z</time>
</trkpt>
<trkpt lat="46.4301920" lon="8.1802480">
<ele>1259.000000</ele>
<time>2018-08-13T13:42:58Z</time>
</trkpt>
<trkpt lat="46.4299648" lon="8.1799504">
<ele>1258.000000</ele>
<time>2018-08-13T13:43:00Z</time>
</trkpt>
<trkpt lat="46.4297280" lon="8.1796448">
<ele>1258.000000</ele>
<time>2018-08-13T13:43:02Z</time>
</trkpt>
<trkpt lat="46.4294944" lon="8.1793776">
<ele>1258.000000</ele>
<time>2018-08-13T13:43:04Z</time>
</trkpt>
<trkpt lat="46.4292288" lon="8.1791648">
<ele>1257.000000</ele>
<time>2018-08-13T13:43:06Z</time>
</trkpt>
<trkpt lat="46.4289600" lon="8.1789496">
<ele>1255.000000</ele>
<time>2018-08-13T13:43:08Z</time>
</trkpt>
<trkpt lat="46.4287200" lon="8.1787144">
<ele>1255.000000</ele>
<time>2018-08-13T13:43:10Z</time>
</trkpt>
<trkpt lat="46.4285024" lon="8.1784560">
<ele>1255.000000</ele>
<time>2018-08-13T13:43:12Z</time>
</trkpt>
<trkpt lat="46.4282720" lon="8.1781480">
<ele>1255.000000</ele>
<time>2018-08-13T13:43:14Z</time>
</trkpt>
<trkpt lat="46.4280448" lon="8.1778328">
<ele>1254.000000</ele>
<time>2018-08-13T13:43:16Z</time>
</trkpt>
<trkpt lat="46.4278112" lon="8.1775224">
<ele>1253.000000</ele>
<time>2018-08-13T13:43:18Z</time>
</trkpt>
<trkpt lat="46.4276000" lon="8.1772232">
<ele>1253.000000</ele>
<time>2018-08-13T13:43:20Z</time>
</trkpt>
<trkpt lat="46.4273952" lon="8.1769072">
<ele>1252.000000</ele>
<time>2018-08-13T13:43:22Z</time>
</trkpt>
<trkpt lat="46.4272032" lon="8.1765840">
<ele>1250.000000</ele>
<time>2018-08-13T13:43:24Z</time>
</trkpt>
<trkpt lat="46.4270240" lon="8.1762584">
<ele>1249.000000</ele>
<time>2018-08-13T13:43:26Z</time>
</trkpt>
<trkpt lat="46.4268192" lon="8.1758976">
<ele>1248.000000</ele>
<time>2018-08-13T13:43:28Z</time>
</trkpt>
<trkpt lat="46.4266176" lon="8.1755448">
<ele>1247.000000</ele>
<time>2018-08-13T13:43:30Z</time>
</trkpt>
<trkpt lat="46.4264288" lon="8.1752112">
<ele>1246.000000</ele>
<time>2018-08-13T13:43:32Z</time>
</trkpt>
<trkpt lat="46.4262464" lon="8.1748912">
<ele>1244.000000</ele>
<time>2018-08-13T13:43:34Z</time>
</trkpt>
<trkpt lat="46.4260064" lon="8.1746416">
<ele>1244.000000</ele>
<time>2018-08-13T13:43:36Z</time>
</trkpt>
<trkpt lat="46.4257696" lon="8.1744144">
<ele>1244.000000</ele>
<time>2018-08-13T13:43:38Z</time>
</trkpt>
<trkpt lat="46.4255168" lon="8.1741760">
<ele>1244.000000</ele>
<time>2018-08-13T13:43:40Z</time>
</trkpt>
<trkpt lat="46.4252736" lon="8.1739248">
<ele>1243.000000</ele>
<time>2018-08-13T13:43:42Z</time>
</trkpt>
<trkpt lat="46.4250400" lon="8.1736528">
<ele>1241.000000</ele>
<time>2018-08-13T13:43:44Z</time>
</trkpt>
<trkpt lat="46.4248160" lon="8.1733776">
<ele>1239.000000</ele>
<time>2018-08-13T13:43:46Z</time>
</trkpt>
<trkpt lat="46.4245888" lon="8.1730976">
<ele>1238.000000</ele>
<time>2018-08-13T13:43:48Z</time>
</trkpt>
<trkpt lat="46.4243648" lon="8.1728296">
<ele>1238.000000</ele>
<time>2018-08-13T13:43:50Z</time>
</trkpt>
<trkpt lat="46.4241376" lon="8.1725512">
<ele>1237.000000</ele>
<time>2018-08-13T13:43:52Z</time>
</trkpt>
<trkpt lat="46.4239200" lon="8.1723064">
<ele>1240.000000</ele>
<time>2018-08-13T13:43:54Z</time>
</trkpt>
<trkpt lat="46.4237056" lon="8.1720344">
<ele>1239.000000</ele>
<time>2018-08-13T13:43:56Z</time>
</trkpt>
<trkpt lat="46.4234688" lon="8.1717360">
<ele>1239.000000</ele>
<time>2018-08-13T13:43:58Z</time>
</trkpt>
<trkpt lat="46.4232544" lon="8.1714208">
<ele>1239.000000</ele>
<time>2018-08-13T13:44:00Z</time>
</trkpt>
<trkpt lat="46.4230560" lon="8.1710928">
<ele>1238.000000</ele>
<time>2018-08-13T13:44:02Z</time>
</trkpt>
<trkpt lat="46.4228576" lon="8.1707592">
<ele>1238.000000</ele>
<time>2018-08-13T13:44:04Z</time>
</trkpt>
<trkpt lat="46.4226528" lon="8.1704352">
<ele>1237.000000</ele>
<time>2018-08-13T13:44:06Z</time>
</trkpt>
<trkpt lat="46.4224384" lon="8.1701496">
<ele>1237.000000</ele>
<time>2018-08-13T13:44:08Z</time>
</trkpt>
<trkpt lat="46.4221920" lon="8.1698872">
<ele>1236.000000</ele>
<time>2018-08-13T13:44:10Z</time>
</trkpt>
<trkpt lat="46.4219296" lon="8.1696760">
<ele>1236.000000</ele>
<time>2018-08-13T13:44:12Z</time>
</trkpt>
<trkpt lat="46.4216608" lon="8.1694912">
<ele>1237.000000</ele>
<time>2018-08-13T13:44:14Z</time>
</trkpt>
<trkpt lat="46.4213952" lon="8.1692912">
<ele>1237.000000</ele>
<time>2018-08-13T13:44:16Z</time>
</trkpt>
<trkpt lat="46.4211200" lon="8.1690848">
<ele>1236.000000</ele>
<time>2018-08-13T13:44:18Z</time>
</trkpt>
<trkpt lat="46.4208480" lon="8.1688944">
<ele>1237.000000</ele>
<time>2018-08-13T13:44:20Z</time>
</trkpt>
<trkpt lat="46.4205984" lon="8.1686832">
<ele>1236.000000</ele>
<time>2018-08-13T13:44:22Z</time>
</trkpt>
<trkpt lat="46.4203616" lon="8.1684208">
<ele>1236.000000</ele>
<time>2018-08-13T13:44:24Z</time>
</trkpt>
<trkpt lat="46.4201408" lon="8.1681296">
<ele>1236.000000</ele>
<time>2018-08-13T13:44:26Z</time>
</trkpt>
<trkpt lat="46.4199136" lon="8.1678160">
<ele>1235.000000</ele>
<time>2018-08-13T13:44:28Z</time>
</trkpt>
<trkpt lat="46.4197632" lon="8.1674816">
<ele>1234.000000</ele>
<time>2018-08-13T13:44:30Z</time>
</trkpt>
<trkpt lat="46.4196448" lon="8.1671208">
<ele>1233.000000</ele>
<time>2018-08-13T13:44:32Z</time>
</trkpt>
<trkpt lat="46.4195328" lon="8.1667144">
<ele>1233.000000</ele>
<time>2018-08-13T13:44:34Z</time>
</trkpt>
<trkpt lat="46.4194112" lon="8.1663048">
<ele>1232.000000</ele>
<time>2018-08-13T13:44:36Z</time>
</trkpt>
<trkpt lat="46.4192512" lon="8.1659240">
<ele>1232.000000</ele>
<time>2018-08-13T13:44:38Z</time>
</trkpt>
<trkpt lat="46.4190560" lon="8.1655944">
<ele>1231.000000</ele>
<time>2018-08-13T13:44:40Z</time>
</trkpt>
<trkpt lat="46.4188448" lon="8.1653168">
<ele>1230.000000</ele>
<time>2018-08-13T13:44:42Z</time>
</trkpt>
<trkpt lat="46.4186176" lon="8.1650184">
<ele>1229.000000</ele>
<time>2018-08-13T13:44:44Z</time>
</trkpt>
<trkpt lat="46.4184032" lon="8.1647240">
<ele>1229.000000</ele>
<time>2018-08-13T13:44:46Z</time>
</trkpt>
<trkpt lat="46.4181760" lon="8.1644256">
<ele>1228.000000</ele>
<time>2018-08-13T13:44:48Z</time>
</trkpt>
<trkpt lat="46.4179584" lon="8.1641312">
<ele>1228.000000</ele>
<time>2018-08-13T13:44:50Z</time>
</trkpt>
<trkpt lat="46.4177728" lon="8.1638240">
<ele>1226.000000</ele>
<time>2018-08-13T13:44:52Z</time>
</trkpt>
<trkpt lat="46.4175872" lon="8.1634912">
<ele>1226.000000</ele>
<time>2018-08-13T13:44:54Z</time>
</trkpt>
<trkpt lat="46.4174080" lon="8.1631632">
<ele>1226.000000</ele>
<time>2018-08-13T13:44:56Z</time>
</trkpt>
<trkpt lat="46.4172352" lon="8.1628312">
<ele>1225.000000</ele>
<time>2018-08-13T13:44:58Z</time>
</trkpt>
<trkpt lat="46.4170848" lon="8.1625016">
<ele>1224.000000</ele>
<time>2018-08-13T13:45:00Z</time>
</trkpt>
<trkpt lat="46.4169120" lon="8.1621464">
<ele>1223.000000</ele>
<time>2018-08-13T13:45:02Z</time>
</trkpt>
<trkpt lat="46.4167648" lon="8.1618096">
<ele>1222.000000</ele>
<time>2018-08-13T13:45:04Z</time>
</trkpt>
<trkpt lat="46.4165984" lon="8.1615048">
<ele>1221.000000</ele>
<time>2018-08-13T13:45:06Z</time>
</trkpt>
<trkpt lat="46.4164384" lon="8.1611976">
<ele>1220.000000</ele>
<time>2018-08-13T13:45:08Z</time>
</trkpt>
<trkpt lat="46.4162720" lon="8.1608912">
<ele>1219.000000</ele>
<time>2018-08-13T13:45:10Z</time>
</trkpt>
<trkpt lat="46.4161216" lon="8.1605760">
<ele>1219.000000</ele>
<time>2018-08-13T13:45:12Z</time>
</trkpt>
<trkpt lat="46.4159648" lon="8.1602408">
<ele>1218.000000</ele>
<time>2018-08-13T13:45:14Z</time>
</trkpt>
<trkpt lat="46.4158048" lon="8.1599296">
<ele>1218.000000</ele>
<time>2018-08-13T13:45:16Z</time>
</trkpt>
<trkpt lat="46.4156416" lon="8.1596128">
<ele>1217.000000</ele>
<time>2018-08-13T13:45:18Z</time>
</trkpt>
<trkpt lat="46.4154432" lon="8.1593648">
<ele>1216.000000</ele>
<time>2018-08-13T13:45:20Z</time>
</trkpt>
<trkpt lat="46.4152512" lon="8.1591328">
<ele>1216.000000</ele>
<time>2018-08-13T13:45:22Z</time>
</trkpt>
<trkpt lat="46.4150432" lon="8.1589640">
<ele>1216.000000</ele>
<time>2018-08-13T13:45:24Z</time>
</trkpt>
<trkpt lat="46.4148032" lon="8.1587896">
<ele>1217.000000</ele>
<time>2018-08-13T13:45:26Z</time>
</trkpt>
<trkpt lat="46.4146464" lon="8.1586096">
<ele>1217.000000</ele>
<time>2018-08-13T13:45:28Z</time>
</trkpt>
<trkpt lat="46.4144960" lon="8.1583824">
<ele>1217.000000</ele>
<time>2018-08-13T13:45:30Z</time>
</trkpt>
<trkpt lat="46.4143104" lon="8.1581384">
<ele>1216.000000</ele>
<time>2018-08-13T13:45:32Z</time>
</trkpt>
<trkpt lat="46.4141760" lon="8.1578864">
<ele>1214.000000</ele>
<time>2018-08-13T13:45:34Z</time>
</trkpt>
<trkpt lat="46.4140128" lon="8.1576064">
<ele>1212.000000</ele>
<time>2018-08-13T13:45:36Z</time>
</trkpt>
<trkpt lat="46.4138336" lon="8.1573448">
<ele>1213.000000</ele>
<time>2018-08-13T13:45:38Z</time>
</trkpt>
<trkpt lat="46.4136608" lon="8.1570800">
<ele>1212.000000</ele>
<time>2018-08-13T13:45:40Z</time>
</trkpt>
<trkpt lat="46.4134976" lon="8.1567904">
<ele>1212.000000</ele>
<time>2018-08-13T13:45:42Z</time>
</trkpt>
<trkpt lat="46.4133696" lon="8.1564928">
<ele>1212.000000</ele>
<time>2018-08-13T13:45:44Z</time>
</trkpt>
<trkpt lat="46.4132512" lon="8.1561568">
<ele>1213.000000</ele>
<time>2018-08-13T13:45:46Z</time>
</trkpt>
<trkpt lat="46.4131552" lon="8.1558136">
<ele>1214.000000</ele>
<time>2018-08-13T13:45:48Z</time>
</trkpt>
<trkpt lat="46.4130816" lon="8.1554640">
<ele>1214.000000</ele>
<time>2018-08-13T13:45:50Z</time>
</trkpt>
<trkpt lat="46.4129952" lon="8.1551400">
<ele>1213.000000</ele>
<time>2018-08-13T13:45:52Z</time>
</trkpt>
<trkpt lat="46.4128928" lon="8.1548624">
<ele>1214.000000</ele>
<time>2018-08-13T13:45:54Z</time>
</trkpt>
<trkpt lat="46.4127840" lon="8.1545856">
<ele>1214.000000</ele>
<time>2018-08-13T13:45:56Z</time>
</trkpt>
<trkpt lat="46.4126816" lon="8.1543344">
<ele>1215.000000</ele>
<time>2018-08-13T13:45:58Z</time>
</trkpt>
<trkpt lat="46.4125856" lon="8.1540712">
<ele>1216.000000</ele>
<time>2018-08-13T13:46:00Z</time>
</trkpt>
<trkpt lat="46.4125088" lon="8.1537944">
<ele>1216.000000</ele>
<time>2018-08-13T13:46:02Z</time>
</trkpt>
<trkpt lat="46.4124768" lon="8.1534792">
<ele>1215.000000</ele>
<time>2018-08-13T13:46:04Z</time>
</trkpt>
<trkpt lat="46.4123904" lon="8.1532208">
<ele>1214.000000</ele>
<time>2018-08-13T13:46:06Z</time>
</trkpt>
<trkpt lat="46.4123008" lon="8.1529672">
<ele>1214.000000</ele>
<time>2018-08-13T13:46:08Z</time>
</trkpt>
<trkpt lat="46.4121888" lon="8.1527592">
<ele>1214.000000</ele>
<time>2018-08-13T13:46:10Z</time>
</trkpt>
<trkpt lat="46.4120128" lon="8.1525008">
<ele>1213.000000</ele>
<time>2018-08-13T13:46:13Z</time>
</trkpt>
<trkpt lat="46.4118464" lon="8.1522824">
<ele>1212.000000</ele>
<time>2018-08-13T13:46:16Z</time>
</trkpt>
<trkpt lat="46.4117024" lon="8.1520752">
<ele>1211.000000</ele>
<time>2018-08-13T13:46:20Z</time>
</trkpt>
<trkpt lat="46.4115872" lon="8.1519640">
<ele>1211.000000</ele>
<time>2018-08-13T13:46:55Z</time>
</trkpt>
<trkpt lat="46.4115840" lon="8.1519664">
<ele>1211.000000</ele>
<time>2018-08-13T13:47:07Z</time>
</trkpt>
<trkpt lat="46.4114976" lon="8.1519192">
<ele>1211.000000</ele>
<time>2018-08-13T13:47:17Z</time>
</trkpt>
<trkpt lat="46.4114944" lon="8.1518248">
<ele>1211.000000</ele>
<time>2018-08-13T13:47:27Z</time>
</trkpt>
<trkpt lat="46.4114048" lon="8.1515728">
<ele>1211.000000</ele>
<time>2018-08-13T13:47:33Z</time>
</trkpt>
<trkpt lat="46.4112544" lon="8.1513040">
<ele>1211.000000</ele>
<time>2018-08-13T13:47:37Z</time>
</trkpt>
<trkpt lat="46.4111136" lon="8.1510448">
<ele>1211.000000</ele>
<time>2018-08-13T13:47:40Z</time>
</trkpt>
<trkpt lat="46.4109760" lon="8.1507712">
<ele>1211.000000</ele>
<time>2018-08-13T13:47:43Z</time>
</trkpt>
<trkpt lat="46.4108768" lon="8.1505568">
<ele>1211.000000</ele>
<time>2018-08-13T13:47:45Z</time>
</trkpt>
<trkpt lat="46.4107712" lon="8.1503384">
<ele>1211.000000</ele>
<time>2018-08-13T13:47:47Z</time>
</trkpt>
<trkpt lat="46.4105984" lon="8.1500288">
<ele>1211.000000</ele>
<time>2018-08-13T13:47:50Z</time>
</trkpt>
<trkpt lat="46.4104704" lon="8.1498376">
<ele>1211.000000</ele>
<time>2018-08-13T13:47:52Z</time>
</trkpt>
<trkpt lat="46.4103008" lon="8.1496808">
<ele>1210.000000</ele>
<time>2018-08-13T13:47:54Z</time>
</trkpt>
<trkpt lat="46.4101024" lon="8.1495496">
<ele>1210.000000</ele>
<time>2018-08-13T13:47:56Z</time>
</trkpt>
<trkpt lat="46.4099008" lon="8.1494360">
<ele>1209.000000</ele>
<time>2018-08-13T13:47:58Z</time>
</trkpt>
<trkpt lat="46.4096992" lon="8.1493064">
<ele>1210.000000</ele>
<time>2018-08-13T13:48:00Z</time>
</trkpt>
<trkpt lat="46.4094976" lon="8.1491792">
<ele>1210.000000</ele>
<time>2018-08-13T13:48:02Z</time>
</trkpt>
<trkpt lat="46.4093536" lon="8.1490128">
<ele>1209.000000</ele>
<time>2018-08-13T13:48:04Z</time>
</trkpt>
<trkpt lat="46.4092032" lon="8.1488432">
<ele>1210.000000</ele>
<time>2018-08-13T13:48:06Z</time>
</trkpt>
</trkseg>
</trk>
<trk>
<name>Track 4</name>
<number>4</number>
<trkseg>
<trkpt lat="46.4035072" lon="8.1334248">
<ele>1061.000000</ele>
<time>2018-08-14T08:47:37Z</time>
</trkpt>
<trkpt lat="46.4035136" lon="8.1334208">
<ele>1063.000000</ele>
<time>2018-08-14T08:47:39Z</time>
</trkpt>
<trkpt lat="46.4034624" lon="8.1332672">
<ele>1062.000000</ele>
<time>2018-08-14T08:47:49Z</time>
</trkpt>
<trkpt lat="46.4034208" lon="8.1331776">
<ele>1054.000000</ele>
<time>2018-08-14T08:47:59Z</time>
</trkpt>
<trkpt lat="46.4034272" lon="8.1330792">
<ele>1052.000000</ele>
<time>2018-08-14T08:48:11Z</time>
</trkpt>
<trkpt lat="46.4033248" lon="8.1329632">
<ele>1052.000000</ele>
<time>2018-08-14T08:48:21Z</time>
</trkpt>
<trkpt lat="46.4032160" lon="8.1329368">
<ele>1053.000000</ele>
<time>2018-08-14T08:48:31Z</time>
</trkpt>
<trkpt lat="46.4030752" lon="8.1330192">
<ele>1054.000000</ele>
<time>2018-08-14T08:48:41Z</time>
</trkpt>
<trkpt lat="46.4029888" lon="8.1329744">
<ele>1054.000000</ele>
<time>2018-08-14T08:48:51Z</time>
</trkpt>
<trkpt lat="46.4028800" lon="8.1329304">
<ele>1055.000000</ele>
<time>2018-08-14T08:49:01Z</time>
</trkpt>
<trkpt lat="46.4027488" lon="8.1329176">
<ele>1057.000000</ele>
<time>2018-08-14T08:49:11Z</time>
</trkpt>
<trkpt lat="46.4026944" lon="8.1327760">
<ele>1058.000000</ele>
<time>2018-08-14T08:49:21Z</time>
</trkpt>
<trkpt lat="46.4027904" lon="8.1326296">
<ele>1059.000000</ele>
<time>2018-08-14T08:49:31Z</time>
</trkpt>
<trkpt lat="46.4029472" lon="8.1326272">
<ele>1060.000000</ele>
<time>2018-08-14T08:49:41Z</time>
</trkpt>
<trkpt lat="46.4029984" lon="8.1325912">
<ele>1061.000000</ele>
<time>2018-08-14T08:49:51Z</time>
</trkpt>
<trkpt lat="46.4030048" lon="8.1325944">
<ele>1061.000000</ele>
<time>2018-08-14T08:50:16Z</time>
</trkpt>
<trkpt lat="46.4030080" lon="8.1326128">
<ele>1061.000000</ele>
<time>2018-08-14T08:50:47Z</time>
</trkpt>
<trkpt lat="46.4030112" lon="8.1326560">
<ele>1061.000000</ele>
<time>2018-08-14T08:50:57Z</time>
</trkpt>
<trkpt lat="46.4030144" lon="8.1327360">
<ele>1061.000000</ele>
<time>2018-08-14T08:51:46Z</time>
</trkpt>
<trkpt lat="46.4030176" lon="8.1328056">
<ele>1061.000000</ele>
<time>2018-08-14T08:51:57Z</time>
</trkpt>
<trkpt lat="46.4030272" lon="8.1328760">
<ele>1061.000000</ele>
<time>2018-08-14T08:52:07Z</time>
</trkpt>
<trkpt lat="46.4030272" lon="8.1328760">
<ele>1062.000000</ele>
<time>2018-08-14T08:52:23Z</time>
</trkpt>
<trkpt lat="46.4030272" lon="8.1328648">
<ele>1062.000000</ele>
<time>2018-08-14T08:52:38Z</time>
</trkpt>
<trkpt lat="46.4029824" lon="8.1328144">
<ele>1051.000000</ele>
<time>2018-08-14T08:53:16Z</time>
</trkpt>
<trkpt lat="46.4031648" lon="8.1327960">
<ele>1042.000000</ele>
<time>2018-08-14T08:53:53Z</time>
</trkpt>
<trkpt lat="46.4030240" lon="8.1330696">
<ele>1054.000000</ele>
<time>2018-08-14T08:54:18Z</time>
</trkpt>
<trkpt lat="46.4031456" lon="8.1328432">
<ele>1059.000000</ele>
<time>2018-08-14T08:54:28Z</time>
</trkpt>
<trkpt lat="46.4031680" lon="8.1327728">
<ele>1061.000000</ele>
<time>2018-08-14T08:54:42Z</time>
</trkpt>
<trkpt lat="46.4030528" lon="8.1326872">
<ele>1060.000000</ele>
<time>2018-08-14T08:55:19Z</time>
</trkpt>
<trkpt lat="46.4030656" lon="8.1326832">
<ele>1060.000000</ele>
<time>2018-08-14T08:55:52Z</time>
</trkpt>
<trkpt lat="46.4030688" lon="8.1326608">
<ele>1060.000000</ele>
<time>2018-08-14T08:56:02Z</time>
</trkpt>
<trkpt lat="46.4030880" lon="8.1325960">
<ele>1060.000000</ele>
<time>2018-08-14T08:56:40Z</time>
</trkpt>
<trkpt lat="46.4031616" lon="8.1325600">
<ele>1060.000000</ele>
<time>2018-08-14T08:56:50Z</time>
</trkpt>
<trkpt lat="46.4033056" lon="8.1325864">
<ele>1061.000000</ele>
<time>2018-08-14T08:57:00Z</time>
</trkpt>
<trkpt lat="46.4033760" lon="8.1325080">
<ele>1061.000000</ele>
<time>2018-08-14T08:57:10Z</time>
</trkpt>
<trkpt lat="46.4033440" lon="8.1324664">
<ele>1061.000000</ele>
<time>2018-08-14T08:57:20Z</time>
</trkpt>
<trkpt lat="46.4033024" lon="8.1325064">
<ele>1061.000000</ele>
<time>2018-08-14T08:57:30Z</time>
</trkpt>
<trkpt lat="46.4033024" lon="8.1325080">
<ele>1062.000000</ele>
<time>2018-08-14T08:57:46Z</time>
</trkpt>
<trkpt lat="46.4032544" lon="8.1325376">
<ele>1062.000000</ele>
<time>2018-08-14T08:57:56Z</time>
</trkpt>
<trkpt lat="46.4032672" lon="8.1325608">
<ele>1062.000000</ele>
<time>2018-08-14T08:58:06Z</time>
</trkpt>
<trkpt lat="46.4033216" lon="8.1325064">
<ele>1062.000000</ele>
<time>2018-08-14T08:59:01Z</time>
</trkpt>
<trkpt lat="46.4033760" lon="8.1324952">
<ele>1062.000000</ele>
<time>2018-08-14T08:59:11Z</time>
</trkpt>
<trkpt lat="46.4035872" lon="8.1324600">
<ele>1061.000000</ele>
<time>2018-08-14T08:59:18Z</time>
</trkpt>
<trkpt lat="46.4037792" lon="8.1324288">
<ele>1060.000000</ele>
<time>2018-08-14T08:59:22Z</time>
</trkpt>
<trkpt lat="46.4040288" lon="8.1324352">
<ele>1061.000000</ele>
<time>2018-08-14T08:59:27Z</time>
</trkpt>
<trkpt lat="46.4042016" lon="8.1325160">
<ele>1060.000000</ele>
<time>2018-08-14T08:59:29Z</time>
</trkpt>
<trkpt lat="46.4044000" lon="8.1325800">
<ele>1060.000000</ele>
<time>2018-08-14T08:59:31Z</time>
</trkpt>
<trkpt lat="46.4045920" lon="8.1326784">
<ele>1060.000000</ele>
<time>2018-08-14T08:59:33Z</time>
</trkpt>
<trkpt lat="46.4047776" lon="8.1328112">
<ele>1060.000000</ele>
<time>2018-08-14T08:59:35Z</time>
</trkpt>
<trkpt lat="46.4050176" lon="8.1328984">
<ele>1060.000000</ele>
<time>2018-08-14T08:59:37Z</time>
</trkpt>
<trkpt lat="46.4052000" lon="8.1330760">
<ele>1060.000000</ele>
<time>2018-08-14T08:59:39Z</time>
</trkpt>
<trkpt lat="46.4053792" lon="8.1332560">
<ele>1060.000000</ele>
<time>2018-08-14T08:59:41Z</time>
</trkpt>
<trkpt lat="46.4055552" lon="8.1334512">
<ele>1060.000000</ele>
<time>2018-08-14T08:59:43Z</time>
</trkpt>
<trkpt lat="46.4057312" lon="8.1336376">
<ele>1060.000000</ele>
<time>2018-08-14T08:59:45Z</time>
</trkpt>
<trkpt lat="46.4058880" lon="8.1338328">
<ele>1060.000000</ele>
<time>2018-08-14T08:59:47Z</time>
</trkpt>
<trkpt lat="46.4060640" lon="8.1340224">
<ele>1060.000000</ele>
<time>2018-08-14T08:59:49Z</time>
</trkpt>
<trkpt lat="46.4062400" lon="8.1342232">
<ele>1059.000000</ele>
<time>2018-08-14T08:59:51Z</time>
</trkpt>
<trkpt lat="46.4064192" lon="8.1344168">
<ele>1059.000000</ele>
<time>2018-08-14T08:59:53Z</time>
</trkpt>
<trkpt lat="46.4065920" lon="8.1345928">
<ele>1058.000000</ele>
<time>2018-08-14T08:59:55Z</time>
</trkpt>
<trkpt lat="46.4067648" lon="8.1347784">
<ele>1058.000000</ele>
<time>2018-08-14T08:59:57Z</time>
</trkpt>
<trkpt lat="46.4068960" lon="8.1349784">
<ele>1058.000000</ele>
<time>2018-08-14T08:59:59Z</time>
</trkpt>
<trkpt lat="46.4070624" lon="8.1351432">
<ele>1058.000000</ele>
<time>2018-08-14T09:00:01Z</time>
</trkpt>
<trkpt lat="46.4072736" lon="8.1353824">
<ele>1057.000000</ele>
<time>2018-08-14T09:00:04Z</time>
</trkpt>
<trkpt lat="46.4074336" lon="8.1355384">
<ele>1057.000000</ele>
<time>2018-08-14T09:00:06Z</time>
</trkpt>
<trkpt lat="46.4076256" lon="8.1356080">
<ele>1057.000000</ele>
<time>2018-08-14T09:00:08Z</time>
</trkpt>
<trkpt lat="46.4078592" lon="8.1358080">
<ele>1060.000000</ele>
<time>2018-08-14T09:00:11Z</time>
</trkpt>
<trkpt lat="46.4079616" lon="8.1360264">
<ele>1062.000000</ele>
<time>2018-08-14T09:00:13Z</time>
</trkpt>
<trkpt lat="46.4080928" lon="8.1363360">
<ele>1062.000000</ele>
<time>2018-08-14T09:00:16Z</time>
</trkpt>
<trkpt lat="46.4081760" lon="8.1366848">
<ele>1062.000000</ele>
<time>2018-08-14T09:00:19Z</time>
</trkpt>
<trkpt lat="46.4082304" lon="8.1370112">
<ele>1061.000000</ele>
<time>2018-08-14T09:00:22Z</time>
</trkpt>
<trkpt lat="46.4082688" lon="8.1372816">
<ele>1060.000000</ele>
<time>2018-08-14T09:00:25Z</time>
</trkpt>
<trkpt lat="46.4083104" lon="8.1375544">
<ele>1059.000000</ele>
<time>2018-08-14T09:00:29Z</time>
</trkpt>
<trkpt lat="46.4083584" lon="8.1378544">
<ele>1058.000000</ele>
<time>2018-08-14T09:00:35Z</time>
</trkpt>
<trkpt lat="46.4084192" lon="8.1381376">
<ele>1057.000000</ele>
<time>2018-08-14T09:00:42Z</time>
</trkpt>
<trkpt lat="46.4084704" lon="8.1383848">
<ele>1057.000000</ele>
<time>2018-08-14T09:00:50Z</time>
</trkpt>
<trkpt lat="46.4085184" lon="8.1386880">
<ele>1056.000000</ele>
<time>2018-08-14T09:00:58Z</time>
</trkpt>
<trkpt lat="46.4084992" lon="8.1389624">
<ele>1055.000000</ele>
<time>2018-08-14T09:01:02Z</time>
</trkpt>
<trkpt lat="46.4084384" lon="8.1392344">
<ele>1054.000000</ele>
<time>2018-08-14T09:01:06Z</time>
</trkpt>
<trkpt lat="46.4083488" lon="8.1394680">
<ele>1054.000000</ele>
<time>2018-08-14T09:01:09Z</time>
</trkpt>
<trkpt lat="46.4082336" lon="8.1396736">
<ele>1054.000000</ele>
<time>2018-08-14T09:01:12Z</time>
</trkpt>
<trkpt lat="46.4080928" lon="8.1398384">
<ele>1054.000000</ele>
<time>2018-08-14T09:01:15Z</time>
</trkpt>
<trkpt lat="46.4079232" lon="8.1399576">
<ele>1054.000000</ele>
<time>2018-08-14T09:01:18Z</time>
</trkpt>
<trkpt lat="46.4077408" lon="8.1400096">
<ele>1053.000000</ele>
<time>2018-08-14T09:01:21Z</time>
</trkpt>
<trkpt lat="46.4075456" lon="8.1400264">
<ele>1053.000000</ele>
<time>2018-08-14T09:01:24Z</time>
</trkpt>
<trkpt lat="46.4073664" lon="8.1399432">
<ele>1053.000000</ele>
<time>2018-08-14T09:01:27Z</time>
</trkpt>
<trkpt lat="46.4072000" lon="8.1398328">
<ele>1053.000000</ele>
<time>2018-08-14T09:01:30Z</time>
</trkpt>
<trkpt lat="46.4070080" lon="8.1396936">
<ele>1053.000000</ele>
<time>2018-08-14T09:01:33Z</time>
</trkpt>
<trkpt lat="46.4068352" lon="8.1395744">
<ele>1053.000000</ele>
<time>2018-08-14T09:01:36Z</time>
</trkpt>
<trkpt lat="46.4066880" lon="8.1393928">
<ele>1053.000000</ele>
<time>2018-08-14T09:01:40Z</time>
</trkpt>
<trkpt lat="46.4065792" lon="8.1391592">
<ele>1055.000000</ele>
<time>2018-08-14T09:01:43Z</time>
</trkpt>
<trkpt lat="46.4064928" lon="8.1389096">
<ele>1058.000000</ele>
<time>2018-08-14T09:01:46Z</time>
</trkpt>
<trkpt lat="46.4064224" lon="8.1386168">
<ele>1061.000000</ele>
<time>2018-08-14T09:01:50Z</time>
</trkpt>
<trkpt lat="46.4063104" lon="8.1383656">
<ele>1064.000000</ele>
<time>2018-08-14T09:01:54Z</time>
</trkpt>
<trkpt lat="46.4061856" lon="8.1381800">
<ele>1067.000000</ele>
<time>2018-08-14T09:01:57Z</time>
</trkpt>
<trkpt lat="46.4059712" lon="8.1379832">
<ele>1069.000000</ele>
<time>2018-08-14T09:02:00Z</time>
</trkpt>
<trkpt lat="46.4057280" lon="8.1378120">
<ele>1072.000000</ele>
<time>2018-08-14T09:02:03Z</time>
</trkpt>
<trkpt lat="46.4055840" lon="8.1376496">
<ele>1073.000000</ele>
<time>2018-08-14T09:02:05Z</time>
</trkpt>
<trkpt lat="46.4052992" lon="8.1375296">
<ele>1074.000000</ele>
<time>2018-08-14T09:02:08Z</time>
</trkpt>
<trkpt lat="46.4050144" lon="8.1374480">
<ele>1073.000000</ele>
<time>2018-08-14T09:02:11Z</time>
</trkpt>
<trkpt lat="46.4047936" lon="8.1373880">
<ele>1073.000000</ele>
<time>2018-08-14T09:02:14Z</time>
</trkpt>
<trkpt lat="46.4045760" lon="8.1373392">
<ele>1072.000000</ele>
<time>2018-08-14T09:02:16Z</time>
</trkpt>
<trkpt lat="46.4038304" lon="8.1377432">
<ele>1072.000000</ele>
<time>2018-08-14T09:02:26Z</time>
</trkpt>
<trkpt lat="46.4037632" lon="8.1380560">
<ele>1072.000000</ele>
<time>2018-08-14T09:02:29Z</time>
</trkpt>
<trkpt lat="46.4037664" lon="8.1383896">
<ele>1072.000000</ele>
<time>2018-08-14T09:02:33Z</time>
</trkpt>
<trkpt lat="46.4037984" lon="8.1386768">
<ele>1073.000000</ele>
<time>2018-08-14T09:02:36Z</time>
</trkpt>
<trkpt lat="46.4037888" lon="8.1389712">
<ele>1073.000000</ele>
<time>2018-08-14T09:02:39Z</time>
</trkpt>
<trkpt lat="46.4037216" lon="8.1392728">
<ele>1074.000000</ele>
<time>2018-08-14T09:02:42Z</time>
</trkpt>
<trkpt lat="46.4035808" lon="8.1394312">
<ele>1077.000000</ele>
<time>2018-08-14T09:02:46Z</time>
</trkpt>
<trkpt lat="46.4034016" lon="8.1395360">
<ele>1078.000000</ele>
<time>2018-08-14T09:02:49Z</time>
</trkpt>
<trkpt lat="46.4032512" lon="8.1399232">
<ele>1079.000000</ele>
<time>2018-08-14T09:02:55Z</time>
</trkpt>
<trkpt lat="46.4033344" lon="8.1402352">
<ele>1079.000000</ele>
<time>2018-08-14T09:02:58Z</time>
</trkpt>
<trkpt lat="46.4034336" lon="8.1405784">
<ele>1079.000000</ele>
<time>2018-08-14T09:03:00Z</time>
</trkpt>
<trkpt lat="46.4034720" lon="8.1408512">
<ele>1078.000000</ele>
<time>2018-08-14T09:03:01Z</time>
</trkpt>
<trkpt lat="46.4035680" lon="8.1411560">
<ele>1078.000000</ele>
<time>2018-08-14T09:03:03Z</time>
</trkpt>
<trkpt lat="46.4036864" lon="8.1414776">
<ele>1078.000000</ele>
<time>2018-08-14T09:03:06Z</time>
</trkpt>
<trkpt lat="46.4038304" lon="8.1416960">
<ele>1078.000000</ele>
<time>2018-08-14T09:03:09Z</time>
</trkpt>
<trkpt lat="46.4039808" lon="8.1418360">
<ele>1079.000000</ele>
<time>2018-08-14T09:03:11Z</time>
</trkpt>
<trkpt lat="46.4041760" lon="8.1420616">
<ele>1080.000000</ele>
<time>2018-08-14T09:03:14Z</time>
</trkpt>
<trkpt lat="46.4043488" lon="8.1422976">
<ele>1081.000000</ele>
<time>2018-08-14T09:03:17Z</time>
</trkpt>
<trkpt lat="46.4045216" lon="8.1425408">
<ele>1082.000000</ele>
<time>2018-08-14T09:03:20Z</time>
</trkpt>
<trkpt lat="46.4046752" lon="8.1428032">
<ele>1084.000000</ele>
<time>2018-08-14T09:03:23Z</time>
</trkpt>
<trkpt lat="46.4047744" lon="8.1431200">
<ele>1087.000000</ele>
<time>2018-08-14T09:03:26Z</time>
</trkpt>
<trkpt lat="46.4049440" lon="8.1432944">
<ele>1088.000000</ele>
<time>2018-08-14T09:03:29Z</time>
</trkpt>
<trkpt lat="46.4051520" lon="8.1434632">
<ele>1089.000000</ele>
<time>2018-08-14T09:03:32Z</time>
</trkpt>
<trkpt lat="46.4053184" lon="8.1436592">
<ele>1090.000000</ele>
<time>2018-08-14T09:03:35Z</time>
</trkpt>
<trkpt lat="46.4054912" lon="8.1438760">
<ele>1091.000000</ele>
<time>2018-08-14T09:03:38Z</time>
</trkpt>
<trkpt lat="46.4055488" lon="8.1441576">
<ele>1094.000000</ele>
<time>2018-08-14T09:03:41Z</time>
</trkpt>
<trkpt lat="46.4057248" lon="8.1443440">
<ele>1095.000000</ele>
<time>2018-08-14T09:03:44Z</time>
</trkpt>
<trkpt lat="46.4058720" lon="8.1446432">
<ele>1097.000000</ele>
<time>2018-08-14T09:03:47Z</time>
</trkpt>
<trkpt lat="46.4060288" lon="8.1449128">
<ele>1099.000000</ele>
<time>2018-08-14T09:03:50Z</time>
</trkpt>
<trkpt lat="46.4062272" lon="8.1450928">
<ele>1100.000000</ele>
<time>2018-08-14T09:03:53Z</time>
</trkpt>
<trkpt lat="46.4064384" lon="8.1452576">
<ele>1101.000000</ele>
<time>2018-08-14T09:03:56Z</time>
</trkpt>
<trkpt lat="46.4066400" lon="8.1454096">
<ele>1102.000000</ele>
<time>2018-08-14T09:03:59Z</time>
</trkpt>
<trkpt lat="46.4068480" lon="8.1455776">
<ele>1104.000000</ele>
<time>2018-08-14T09:04:02Z</time>
</trkpt>
<trkpt lat="46.4071040" lon="8.1457144">
<ele>1105.000000</ele>
<time>2018-08-14T09:04:05Z</time>
</trkpt>
<trkpt lat="46.4073280" lon="8.1459008">
<ele>1106.000000</ele>
<time>2018-08-14T09:04:08Z</time>
</trkpt>
<trkpt lat="46.4074912" lon="8.1460408">
<ele>1107.000000</ele>
<time>2018-08-14T09:04:10Z</time>
</trkpt>
<trkpt lat="46.4075424" lon="8.1463112">
<ele>1109.000000</ele>
<time>2018-08-14T09:04:12Z</time>
</trkpt>
<trkpt lat="46.4077376" lon="8.1464464">
<ele>1109.000000</ele>
<time>2018-08-14T09:04:14Z</time>
</trkpt>
<trkpt lat="46.4078976" lon="8.1465776">
<ele>1110.000000</ele>
<time>2018-08-14T09:04:16Z</time>
</trkpt>
<trkpt lat="46.4080608" lon="8.1467200">
<ele>1111.000000</ele>
<time>2018-08-14T09:04:18Z</time>
</trkpt>
<trkpt lat="46.4082304" lon="8.1469128">
<ele>1112.000000</ele>
<time>2018-08-14T09:04:20Z</time>
</trkpt>
<trkpt lat="46.4084064" lon="8.1470840">
<ele>1114.000000</ele>
<time>2018-08-14T09:04:22Z</time>
</trkpt>
<trkpt lat="46.4085664" lon="8.1472448">
<ele>1115.000000</ele>
<time>2018-08-14T09:04:24Z</time>
</trkpt>
<trkpt lat="46.4087264" lon="8.1474608">
<ele>1117.000000</ele>
<time>2018-08-14T09:04:26Z</time>
</trkpt>
<trkpt lat="46.4087904" lon="8.1477792">
<ele>1119.000000</ele>
<time>2018-08-14T09:04:28Z</time>
</trkpt>
<trkpt lat="46.4088512" lon="8.1480936">
<ele>1122.000000</ele>
<time>2018-08-14T09:04:30Z</time>
</trkpt>
<trkpt lat="46.4089152" lon="8.1483944">
<ele>1125.000000</ele>
<time>2018-08-14T09:04:32Z</time>
</trkpt>
<trkpt lat="46.4090688" lon="8.1485776">
<ele>1127.000000</ele>
<time>2018-08-14T09:04:34Z</time>
</trkpt>
<trkpt lat="46.4092224" lon="8.1487424">
<ele>1129.000000</ele>
<time>2018-08-14T09:04:36Z</time>
</trkpt>
<trkpt lat="46.4093984" lon="8.1490280">
<ele>1132.000000</ele>
<time>2018-08-14T09:04:39Z</time>
</trkpt>
<trkpt lat="46.4095360" lon="8.1491912">
<ele>1133.000000</ele>
<time>2018-08-14T09:04:41Z</time>
</trkpt>
<trkpt lat="46.4096832" lon="8.1493312">
<ele>1134.000000</ele>
<time>2018-08-14T09:04:43Z</time>
</trkpt>
<trkpt lat="46.4098400" lon="8.1494464">
<ele>1135.000000</ele>
<time>2018-08-14T09:04:45Z</time>
</trkpt>
<trkpt lat="46.4100608" lon="8.1496232">
<ele>1138.000000</ele>
<time>2018-08-14T09:04:48Z</time>
</trkpt>
<trkpt lat="46.4102208" lon="8.1497632">
<ele>1138.000000</ele>
<time>2018-08-14T09:04:50Z</time>
</trkpt>
<trkpt lat="46.4103776" lon="8.1499144">
<ele>1140.000000</ele>
<time>2018-08-14T09:04:52Z</time>
</trkpt>
<trkpt lat="46.4104704" lon="8.1501424">
<ele>1142.000000</ele>
<time>2018-08-14T09:04:54Z</time>
</trkpt>
<trkpt lat="46.4106048" lon="8.1503392">
<ele>1144.000000</ele>
<time>2018-08-14T09:04:56Z</time>
</trkpt>
<trkpt lat="46.4107392" lon="8.1505392">
<ele>1147.000000</ele>
<time>2018-08-14T09:04:58Z</time>
</trkpt>
<trkpt lat="46.4109120" lon="8.1507328">
<ele>1150.000000</ele>
<time>2018-08-14T09:05:00Z</time>
</trkpt>
<trkpt lat="46.4110272" lon="8.1509272">
<ele>1152.000000</ele>
<time>2018-08-14T09:05:02Z</time>
</trkpt>
<trkpt lat="46.4111360" lon="8.1511328">
<ele>1154.000000</ele>
<time>2018-08-14T09:05:04Z</time>
</trkpt>
<trkpt lat="46.4112928" lon="8.1514248">
<ele>1155.000000</ele>
<time>2018-08-14T09:05:07Z</time>
</trkpt>
<trkpt lat="46.4114272" lon="8.1516832">
<ele>1158.000000</ele>
<time>2018-08-14T09:05:10Z</time>
</trkpt>
<trkpt lat="46.4115552" lon="8.1519168">
<ele>1160.000000</ele>
<time>2018-08-14T09:05:13Z</time>
</trkpt>
<trkpt lat="46.4116768" lon="8.1521160">
<ele>1161.000000</ele>
<time>2018-08-14T09:05:17Z</time>
</trkpt>
<trkpt lat="46.4118432" lon="8.1522024">
<ele>1162.000000</ele>
<time>2018-08-14T09:05:27Z</time>
</trkpt>
<trkpt lat="46.4118880" lon="8.1521712">
<ele>1165.000000</ele>
<time>2018-08-14T09:05:37Z</time>
</trkpt>
<trkpt lat="46.4118592" lon="8.1521760">
<ele>1167.000000</ele>
<time>2018-08-14T09:05:47Z</time>
</trkpt>
<trkpt lat="46.4118848" lon="8.1521648">
<ele>1167.000000</ele>
<time>2018-08-14T09:06:05Z</time>
</trkpt>
<trkpt lat="46.4117888" lon="8.1521024">
<ele>1167.000000</ele>
<time>2018-08-14T09:06:15Z</time>
</trkpt>
<trkpt lat="46.4117888" lon="8.1520640">
<ele>1168.000000</ele>
<time>2018-08-14T09:06:28Z</time>
</trkpt>
<trkpt lat="46.4117728" lon="8.1520528">
<ele>1167.000000</ele>
<time>2018-08-14T09:06:43Z</time>
</trkpt>
<trkpt lat="46.4116832" lon="8.1521088">
<ele>1169.000000</ele>
<time>2018-08-14T09:06:53Z</time>
</trkpt>
<trkpt lat="46.4116064" lon="8.1521264">
<ele>1170.000000</ele>
<time>2018-08-14T09:07:03Z</time>
</trkpt>
<trkpt lat="46.4115328" lon="8.1520952">
<ele>1171.000000</ele>
<time>2018-08-14T09:07:13Z</time>
</trkpt>
<trkpt lat="46.4114368" lon="8.1519528">
<ele>1172.000000</ele>
<time>2018-08-14T09:07:23Z</time>
</trkpt>
<trkpt lat="46.4113312" lon="8.1518592">
<ele>1174.000000</ele>
<time>2018-08-14T09:07:33Z</time>
</trkpt>
<trkpt lat="46.4112544" lon="8.1518640">
<ele>1178.000000</ele>
<time>2018-08-14T09:07:43Z</time>
</trkpt>
<trkpt lat="46.4111712" lon="8.1517248">
<ele>1181.000000</ele>
<time>2018-08-14T09:07:53Z</time>
</trkpt>
<trkpt lat="46.4110880" lon="8.1515608">
<ele>1183.000000</ele>
<time>2018-08-14T09:08:03Z</time>
</trkpt>
<trkpt lat="46.4110080" lon="8.1513728">
<ele>1186.000000</ele>
<time>2018-08-14T09:08:13Z</time>
</trkpt>
<trkpt lat="46.4109184" lon="8.1512392">
<ele>1187.000000</ele>
<time>2018-08-14T09:08:23Z</time>
</trkpt>
<trkpt lat="46.4107904" lon="8.1511032">
<ele>1192.000000</ele>
<time>2018-08-14T09:08:33Z</time>
</trkpt>
<trkpt lat="46.4107200" lon="8.1509912">
<ele>1191.000000</ele>
<time>2018-08-14T09:08:43Z</time>
</trkpt>
<trkpt lat="46.4106784" lon="8.1508512">
<ele>1193.000000</ele>
<time>2018-08-14T09:08:53Z</time>
</trkpt>
<trkpt lat="46.4106240" lon="8.1507776">
<ele>1192.000000</ele>
<time>2018-08-14T09:09:01Z</time>
</trkpt>
<trkpt lat="46.4105376" lon="8.1506576">
<ele>1192.000000</ele>
<time>2018-08-14T09:09:12Z</time>
</trkpt>
<trkpt lat="46.4104736" lon="8.1506464">
<ele>1180.000000</ele>
<time>2018-08-14T09:09:33Z</time>
</trkpt>
<trkpt lat="46.4101568" lon="8.1509912">
<ele>1185.000000</ele>
<time>2018-08-14T09:09:39Z</time>
</trkpt>
<trkpt lat="46.4103168" lon="8.1508344">
<ele>1187.000000</ele>
<time>2018-08-14T09:09:41Z</time>
</trkpt>
<trkpt lat="46.4104320" lon="8.1508800">
<ele>1190.000000</ele>
<time>2018-08-14T09:09:51Z</time>
</trkpt>
<trkpt lat="46.4104256" lon="8.1509960">
<ele>1189.000000</ele>
<time>2018-08-14T09:10:01Z</time>
</trkpt>
<trkpt lat="46.4104608" lon="8.1510160">
<ele>1188.000000</ele>
<time>2018-08-14T09:10:11Z</time>
</trkpt>
<trkpt lat="46.4104544" lon="8.1510080">
<ele>1188.000000</ele>
<time>2018-08-14T09:10:48Z</time>
</trkpt>
<trkpt lat="46.4104352" lon="8.1510760">
<ele>1188.000000</ele>
<time>2018-08-14T09:11:17Z</time>
</trkpt>
<trkpt lat="46.4103968" lon="8.1511568">
<ele>1188.000000</ele>
<time>2018-08-14T09:11:27Z</time>
</trkpt>
<trkpt lat="46.4103168" lon="8.1512896">
<ele>1188.000000</ele>
<time>2018-08-14T09:11:37Z</time>
</trkpt>
<trkpt lat="46.4102560" lon="8.1514400">
<ele>1188.000000</ele>
<time>2018-08-14T09:11:47Z</time>
</trkpt>
<trkpt lat="46.4101920" lon="8.1516072">
<ele>1188.000000</ele>
<time>2018-08-14T09:11:57Z</time>
</trkpt>
<trkpt lat="46.4101472" lon="8.1517184">
<ele>1188.000000</ele>
<time>2018-08-14T09:12:07Z</time>
</trkpt>
<trkpt lat="46.4100640" lon="8.1518584">
<ele>1189.000000</ele>
<time>2018-08-14T09:12:17Z</time>
</trkpt>
<trkpt lat="46.4099808" lon="8.1519840">
<ele>1189.000000</ele>
<time>2018-08-14T09:12:27Z</time>
</trkpt>
<trkpt lat="46.4099808" lon="8.1519864">
<ele>1189.000000</ele>
<time>2018-08-14T09:12:43Z</time>
</trkpt>
<trkpt lat="46.4099488" lon="8.1520616">
<ele>1189.000000</ele>
<time>2018-08-14T09:12:53Z</time>
</trkpt>
<trkpt lat="46.4099552" lon="8.1520544">
<ele>1188.000000</ele>
<time>2018-08-14T09:13:13Z</time>
</trkpt>
<trkpt lat="46.4099360" lon="8.1521000">
<ele>1188.000000</ele>
<time>2018-08-14T09:13:23Z</time>
</trkpt>
<trkpt lat="46.4099456" lon="8.1521376">
<ele>1188.000000</ele>
<time>2018-08-14T09:13:33Z</time>
</trkpt>
<trkpt lat="46.4099392" lon="8.1521800">
<ele>1188.000000</ele>
<time>2018-08-14T09:13:43Z</time>
</trkpt>
<trkpt lat="46.4098976" lon="8.1522560">
<ele>1188.000000</ele>
<time>2018-08-14T09:14:06Z</time>
</trkpt>
<trkpt lat="46.4098880" lon="8.1523064">
<ele>1188.000000</ele>
<time>2018-08-14T09:14:42Z</time>
</trkpt>
<trkpt lat="46.4098432" lon="8.1523832">
<ele>1188.000000</ele>
<time>2018-08-14T09:14:52Z</time>
</trkpt>
<trkpt lat="46.4097600" lon="8.1525096">
<ele>1188.000000</ele>
<time>2018-08-14T09:15:02Z</time>
</trkpt>
<trkpt lat="46.4097472" lon="8.1525328">
<ele>1188.000000</ele>
<time>2018-08-14T09:15:43Z</time>
</trkpt>
<trkpt lat="46.4096992" lon="8.1526176">
<ele>1188.000000</ele>
<time>2018-08-14T09:15:53Z</time>
</trkpt>
<trkpt lat="46.4096256" lon="8.1527592">
<ele>1188.000000</ele>
<time>2018-08-14T09:16:03Z</time>
</trkpt>
<trkpt lat="46.4095680" lon="8.1528528">
<ele>1189.000000</ele>
<time>2018-08-14T09:16:34Z</time>
</trkpt>
<trkpt lat="46.4095296" lon="8.1529624">
<ele>1189.000000</ele>
<time>2018-08-14T09:16:44Z</time>
</trkpt>
<trkpt lat="46.4094656" lon="8.1530912">
<ele>1189.000000</ele>
<time>2018-08-14T09:16:54Z</time>
</trkpt>
<trkpt lat="46.4093824" lon="8.1532408">
<ele>1189.000000</ele>
<time>2018-08-14T09:17:04Z</time>
</trkpt>
<trkpt lat="46.4093504" lon="8.1533512">
<ele>1189.000000</ele>
<time>2018-08-14T09:17:14Z</time>
</trkpt>
<trkpt lat="46.4093216" lon="8.1534616">
<ele>1188.000000</ele>
<time>2018-08-14T09:17:24Z</time>
</trkpt>
<trkpt lat="46.4093280" lon="8.1535176">
<ele>1189.000000</ele>
<time>2018-08-14T09:17:34Z</time>
</trkpt>
<trkpt lat="46.4092864" lon="8.1536512">
<ele>1191.000000</ele>
<time>2018-08-14T09:17:44Z</time>
</trkpt>
<trkpt lat="46.4092224" lon="8.1537848">
<ele>1192.000000</ele>
<time>2018-08-14T09:17:54Z</time>
</trkpt>
<trkpt lat="46.4091680" lon="8.1538984">
<ele>1192.000000</ele>
<time>2018-08-14T09:18:04Z</time>
</trkpt>
<trkpt lat="46.4091616" lon="8.1539832">
<ele>1193.000000</ele>
<time>2018-08-14T09:18:14Z</time>
</trkpt>
<trkpt lat="46.4091264" lon="8.1540240">
<ele>1193.000000</ele>
<time>2018-08-14T09:18:24Z</time>
</trkpt>
<trkpt lat="46.4091008" lon="8.1539632">
<ele>1195.000000</ele>
<time>2018-08-14T09:18:34Z</time>
</trkpt>
<trkpt lat="46.4090816" lon="8.1539328">
<ele>1196.000000</ele>
<time>2018-08-14T09:19:03Z</time>
</trkpt>
<trkpt lat="46.4090560" lon="8.1539056">
<ele>1196.000000</ele>
<time>2018-08-14T09:19:16Z</time>
</trkpt>
<trkpt lat="46.4090560" lon="8.1539080">
<ele>1196.000000</ele>
<time>2018-08-14T09:19:26Z</time>
</trkpt>
<trkpt lat="46.4090464" lon="8.1539080">
<ele>1196.000000</ele>
<time>2018-08-14T09:19:48Z</time>
</trkpt>
<trkpt lat="46.4090016" lon="8.1539192">
<ele>1196.000000</ele>
<time>2018-08-14T09:19:58Z</time>
</trkpt>
<trkpt lat="46.4090080" lon="8.1540544">
<ele>1196.000000</ele>
<time>2018-08-14T09:20:08Z</time>
</trkpt>
<trkpt lat="46.4090496" lon="8.1541744">
<ele>1196.000000</ele>
<time>2018-08-14T09:20:18Z</time>
</trkpt>
<trkpt lat="46.4090624" lon="8.1542016">
<ele>1196.000000</ele>
<time>2018-08-14T09:21:11Z</time>
</trkpt>
<trkpt lat="46.4090624" lon="8.1541976">
<ele>1197.000000</ele>
<time>2018-08-14T09:21:21Z</time>
</trkpt>
<trkpt lat="46.4090624" lon="8.1541960">
<ele>1197.000000</ele>
<time>2018-08-14T09:21:32Z</time>
</trkpt>
<trkpt lat="46.4090656" lon="8.1542976">
<ele>1199.000000</ele>
<time>2018-08-14T09:21:42Z</time>
</trkpt>
<trkpt lat="46.4091008" lon="8.1543696">
<ele>1203.000000</ele>
<time>2018-08-14T09:21:52Z</time>
</trkpt>
<trkpt lat="46.4091200" lon="8.1544008">
<ele>1205.000000</ele>
<time>2018-08-14T09:22:03Z</time>
</trkpt>
<trkpt lat="46.4091136" lon="8.1544648">
<ele>1202.000000</ele>
<time>2018-08-14T09:22:14Z</time>
</trkpt>
<trkpt lat="46.4091072" lon="8.1545248">
<ele>1202.000000</ele>
<time>2018-08-14T09:22:24Z</time>
</trkpt>
<trkpt lat="46.4091328" lon="8.1544992">
<ele>1202.000000</ele>
<time>2018-08-14T09:22:59Z</time>
</trkpt>
<trkpt lat="46.4091488" lon="8.1545056">
<ele>1202.000000</ele>
<time>2018-08-14T09:23:09Z</time>
</trkpt>
<trkpt lat="46.4091072" lon="8.1545648">
<ele>1202.000000</ele>
<time>2018-08-14T09:23:20Z</time>
</trkpt>
<trkpt lat="46.4091200" lon="8.1545592">
<ele>1202.000000</ele>
<time>2018-08-14T09:23:30Z</time>
</trkpt>
<trkpt lat="46.4091488" lon="8.1546496">
<ele>1202.000000</ele>
<time>2018-08-14T09:23:40Z</time>
</trkpt>
<trkpt lat="46.4092064" lon="8.1548512">
<ele>1203.000000</ele>
<time>2018-08-14T09:23:50Z</time>
</trkpt>
<trkpt lat="46.4093280" lon="8.1548192">
<ele>1203.000000</ele>
<time>2018-08-14T09:24:00Z</time>
</trkpt>
<trkpt lat="46.4094080" lon="8.1548952">
<ele>1203.000000</ele>
<time>2018-08-14T09:24:10Z</time>
</trkpt>
<trkpt lat="46.4094272" lon="8.1549928">
<ele>1203.000000</ele>
<time>2018-08-14T09:24:20Z</time>
</trkpt>
<trkpt lat="46.4093856" lon="8.1551096">
<ele>1203.000000</ele>
<time>2018-08-14T09:24:30Z</time>
</trkpt>
<trkpt lat="46.4093120" lon="8.1551472">
<ele>1203.000000</ele>
<time>2018-08-14T09:24:40Z</time>
</trkpt>
<trkpt lat="46.4092096" lon="8.1551424">
<ele>1203.000000</ele>
<time>2018-08-14T09:24:50Z</time>
</trkpt>
<trkpt lat="46.4091008" lon="8.1550400">
<ele>1204.000000</ele>
<time>2018-08-14T09:25:00Z</time>
</trkpt>
<trkpt lat="46.4090048" lon="8.1549600">
<ele>1205.000000</ele>
<time>2018-08-14T09:25:10Z</time>
</trkpt>
<trkpt lat="46.4089120" lon="8.1548888">
<ele>1206.000000</ele>
<time>2018-08-14T09:25:20Z</time>
</trkpt>
<trkpt lat="46.4088096" lon="8.1548664">
<ele>1205.000000</ele>
<time>2018-08-14T09:25:30Z</time>
</trkpt>
<trkpt lat="46.4087232" lon="8.1547696">
<ele>1206.000000</ele>
<time>2018-08-14T09:25:40Z</time>
</trkpt>
<trkpt lat="46.4086432" lon="8.1546544">
<ele>1206.000000</ele>
<time>2018-08-14T09:25:50Z</time>
</trkpt>
<trkpt lat="46.4085696" lon="8.1545632">
<ele>1206.000000</ele>
<time>2018-08-14T09:26:00Z</time>
</trkpt>
<trkpt lat="46.4084800" lon="8.1545112">
<ele>1205.000000</ele>
<time>2018-08-14T09:26:10Z</time>
</trkpt>
<trkpt lat="46.4083968" lon="8.1544512">
<ele>1203.000000</ele>
<time>2018-08-14T09:26:20Z</time>
</trkpt>
<trkpt lat="46.4082944" lon="8.1543296">
<ele>1203.000000</ele>
<time>2018-08-14T09:26:30Z</time>
</trkpt>
<trkpt lat="46.4081920" lon="8.1542224">
<ele>1204.000000</ele>
<time>2018-08-14T09:26:40Z</time>
</trkpt>
<trkpt lat="46.4080896" lon="8.1540816">
<ele>1206.000000</ele>
<time>2018-08-14T09:26:50Z</time>
</trkpt>
<trkpt lat="46.4080096" lon="8.1540496">
<ele>1203.000000</ele>
<time>2018-08-14T09:27:00Z</time>
</trkpt>
<trkpt lat="46.4078976" lon="8.1539928">
<ele>1202.000000</ele>
<time>2018-08-14T09:27:10Z</time>
</trkpt>
<trkpt lat="46.4077760" lon="8.1539816">
<ele>1201.000000</ele>
<time>2018-08-14T09:27:20Z</time>
</trkpt>
<trkpt lat="46.4076448" lon="8.1539408">
<ele>1203.000000</ele>
<time>2018-08-14T09:27:30Z</time>
</trkpt>
<trkpt lat="46.4076000" lon="8.1540664">
<ele>1203.000000</ele>
<time>2018-08-14T09:27:41Z</time>
</trkpt>
<trkpt lat="46.4074592" lon="8.1541296">
<ele>1204.000000</ele>
<time>2018-08-14T09:27:51Z</time>
</trkpt>
<trkpt lat="46.4073056" lon="8.1541744">
<ele>1204.000000</ele>
<time>2018-08-14T09:28:01Z</time>
</trkpt>
<trkpt lat="46.4072032" lon="8.1541128">
<ele>1204.000000</ele>
<time>2018-08-14T09:28:11Z</time>
</trkpt>
<trkpt lat="46.4070496" lon="8.1541040">
<ele>1205.000000</ele>
<time>2018-08-14T09:28:21Z</time>
</trkpt>
<trkpt lat="46.4069248" lon="8.1543128">
<ele>1204.000000</ele>
<time>2018-08-14T09:28:29Z</time>
</trkpt>
<trkpt lat="46.4068832" lon="8.1544864">
<ele>1202.000000</ele>
<time>2018-08-14T09:28:40Z</time>
</trkpt>
<trkpt lat="46.4068608" lon="8.1546480">
<ele>1202.000000</ele>
<time>2018-08-14T09:28:49Z</time>
</trkpt>
<trkpt lat="46.4069888" lon="8.1546608">
<ele>1203.000000</ele>
<time>2018-08-14T09:29:00Z</time>
</trkpt>
<trkpt lat="46.4071680" lon="8.1546248">
<ele>1204.000000</ele>
<time>2018-08-14T09:29:08Z</time>
</trkpt>
<trkpt lat="46.4072128" lon="8.1546008">
<ele>1202.000000</ele>
<time>2018-08-14T09:29:18Z</time>
</trkpt>
<trkpt lat="46.4072864" lon="8.1546592">
<ele>1203.000000</ele>
<time>2018-08-14T09:29:28Z</time>
</trkpt>
<trkpt lat="46.4074144" lon="8.1546880">
<ele>1202.000000</ele>
<time>2018-08-14T09:29:38Z</time>
</trkpt>
<trkpt lat="46.4074240" lon="8.1547840">
<ele>1203.000000</ele>
<time>2018-08-14T09:29:48Z</time>
</trkpt>
<trkpt lat="46.4075232" lon="8.1548576">
<ele>1205.000000</ele>
<time>2018-08-14T09:29:58Z</time>
</trkpt>
<trkpt lat="46.4076320" lon="8.1548680">
<ele>1206.000000</ele>
<time>2018-08-14T09:30:08Z</time>
</trkpt>
<trkpt lat="46.4077376" lon="8.1548480">
<ele>1206.000000</ele>
<time>2018-08-14T09:30:18Z</time>
</trkpt>
<trkpt lat="46.4078112" lon="8.1548880">
<ele>1206.000000</ele>
<time>2018-08-14T09:30:28Z</time>
</trkpt>
<trkpt lat="46.4079712" lon="8.1548864">
<ele>1205.000000</ele>
<time>2018-08-14T09:30:38Z</time>
</trkpt>
<trkpt lat="46.4079904" lon="8.1549976">
<ele>1206.000000</ele>
<time>2018-08-14T09:30:48Z</time>
</trkpt>
<trkpt lat="46.4080992" lon="8.1550696">
<ele>1207.000000</ele>
<time>2018-08-14T09:30:58Z</time>
</trkpt>
<trkpt lat="46.4081216" lon="8.1550872">
<ele>1208.000000</ele>
<time>2018-08-14T09:31:10Z</time>
</trkpt>
<trkpt lat="46.4081152" lon="8.1550872">
<ele>1209.000000</ele>
<time>2018-08-14T09:31:35Z</time>
</trkpt>
<trkpt lat="46.4082176" lon="8.1551544">
<ele>1209.000000</ele>
<time>2018-08-14T09:31:45Z</time>
</trkpt>
<trkpt lat="46.4083360" lon="8.1552344">
<ele>1209.000000</ele>
<time>2018-08-14T09:31:55Z</time>
</trkpt>
<trkpt lat="46.4083936" lon="8.1554280">
<ele>1211.000000</ele>
<time>2018-08-14T09:32:05Z</time>
</trkpt>
<trkpt lat="46.4085184" lon="8.1554144">
<ele>1212.000000</ele>
<time>2018-08-14T09:32:15Z</time>
</trkpt>
<trkpt lat="46.4085856" lon="8.1554544">
<ele>1212.000000</ele>
<time>2018-08-14T09:32:25Z</time>
</trkpt>
<trkpt lat="46.4086624" lon="8.1555376">
<ele>1213.000000</ele>
<time>2018-08-14T09:32:35Z</time>
</trkpt>
<trkpt lat="46.4088352" lon="8.1555368">
<ele>1213.000000</ele>
<time>2018-08-14T09:32:45Z</time>
</trkpt>
<trkpt lat="46.4089152" lon="8.1556160">
<ele>1213.000000</ele>
<time>2018-08-14T09:32:55Z</time>
</trkpt>
<trkpt lat="46.4090400" lon="8.1556560">
<ele>1212.000000</ele>
<time>2018-08-14T09:33:05Z</time>
</trkpt>
<trkpt lat="46.4089888" lon="8.1557000">
<ele>1213.000000</ele>
<time>2018-08-14T09:33:16Z</time>
</trkpt>
<trkpt lat="46.4091488" lon="8.1557176">
<ele>1213.000000</ele>
<time>2018-08-14T09:33:26Z</time>
</trkpt>
<trkpt lat="46.4092416" lon="8.1558160">
<ele>1213.000000</ele>
<time>2018-08-14T09:33:36Z</time>
</trkpt>
<trkpt lat="46.4093216" lon="8.1559096">
<ele>1213.000000</ele>
<time>2018-08-14T09:33:46Z</time>
</trkpt>
<trkpt lat="46.4093792" lon="8.1560328">
<ele>1213.000000</ele>
<time>2018-08-14T09:33:56Z</time>
</trkpt>
<trkpt lat="46.4094272" lon="8.1560840">
<ele>1213.000000</ele>
<time>2018-08-14T09:34:11Z</time>
</trkpt>
<trkpt lat="46.4094496" lon="8.1561840">
<ele>1213.000000</ele>
<time>2018-08-14T09:34:21Z</time>
</trkpt>
<trkpt lat="46.4094976" lon="8.1563080">
<ele>1213.000000</ele>
<time>2018-08-14T09:34:31Z</time>
</trkpt>
<trkpt lat="46.4095200" lon="8.1564760">
<ele>1214.000000</ele>
<time>2018-08-14T09:34:41Z</time>
</trkpt>
<trkpt lat="46.4095872" lon="8.1565512">
<ele>1214.000000</ele>
<time>2018-08-14T09:34:51Z</time>
</trkpt>
<trkpt lat="46.4096416" lon="8.1566832">
<ele>1215.000000</ele>
<time>2018-08-14T09:35:01Z</time>
</trkpt>
<trkpt lat="46.4096800" lon="8.1567232">
<ele>1216.000000</ele>
<time>2018-08-14T09:35:11Z</time>
</trkpt>
<trkpt lat="46.4096832" lon="8.1567584">
<ele>1217.000000</ele>
<time>2018-08-14T09:38:14Z</time>
</trkpt>
<trkpt lat="46.4096800" lon="8.1568416">
<ele>1217.000000</ele>
<time>2018-08-14T09:38:24Z</time>
</trkpt>
<trkpt lat="46.4096576" lon="8.1569880">
<ele>1217.000000</ele>
<time>2018-08-14T09:38:34Z</time>
</trkpt>
<trkpt lat="46.4096512" lon="8.1571248">
<ele>1219.000000</ele>
<time>2018-08-14T09:38:44Z</time>
</trkpt>
<trkpt lat="46.4096480" lon="8.1572448">
<ele>1221.000000</ele>
<time>2018-08-14T09:38:54Z</time>
</trkpt>
<trkpt lat="46.4096768" lon="8.1573808">
<ele>1222.000000</ele>
<time>2018-08-14T09:39:04Z</time>
</trkpt>
<trkpt lat="46.4096832" lon="8.1574784">
<ele>1223.000000</ele>
<time>2018-08-14T09:39:14Z</time>
</trkpt>
<trkpt lat="46.4096672" lon="8.1574928">
<ele>1223.000000</ele>
<time>2018-08-14T09:39:25Z</time>
</trkpt>
<trkpt lat="46.4096672" lon="8.1574896">
<ele>1224.000000</ele>
<time>2018-08-14T09:39:38Z</time>
</trkpt>
<trkpt lat="46.4096704" lon="8.1574840">
<ele>1224.000000</ele>
<time>2018-08-14T09:39:53Z</time>
</trkpt>
<trkpt lat="46.4096832" lon="8.1574792">
<ele>1224.000000</ele>
<time>2018-08-14T09:40:06Z</time>
</trkpt>
<trkpt lat="46.4096832" lon="8.1574832">
<ele>1224.000000</ele>
<time>2018-08-14T09:40:31Z</time>
</trkpt>
<trkpt lat="46.4096192" lon="8.1575464">
<ele>1224.000000</ele>
<time>2018-08-14T09:40:41Z</time>
</trkpt>
<trkpt lat="46.4096160" lon="8.1575464">
<ele>1224.000000</ele>
<time>2018-08-14T09:40:52Z</time>
</trkpt>
<trkpt lat="46.4095488" lon="8.1575832">
<ele>1224.000000</ele>
<time>2018-08-14T09:41:02Z</time>
</trkpt>
<trkpt lat="46.4094848" lon="8.1576640">
<ele>1226.000000</ele>
<time>2018-08-14T09:41:12Z</time>
</trkpt>
<trkpt lat="46.4094112" lon="8.1576912">
<ele>1228.000000</ele>
<time>2018-08-14T09:41:22Z</time>
</trkpt>
<trkpt lat="46.4093088" lon="8.1577352">
<ele>1230.000000</ele>
<time>2018-08-14T09:41:32Z</time>
</trkpt>
<trkpt lat="46.4092320" lon="8.1577400">
<ele>1231.000000</ele>
<time>2018-08-14T09:41:49Z</time>
</trkpt>
<trkpt lat="46.4091648" lon="8.1577400">
<ele>1231.000000</ele>
<time>2018-08-14T09:41:59Z</time>
</trkpt>
<trkpt lat="46.4090720" lon="8.1577376">
<ele>1233.000000</ele>
<time>2018-08-14T09:42:09Z</time>
</trkpt>
<trkpt lat="46.4089760" lon="8.1577280">
<ele>1235.000000</ele>
<time>2018-08-14T09:42:19Z</time>
</trkpt>
<trkpt lat="46.4088896" lon="8.1576928">
<ele>1238.000000</ele>
<time>2018-08-14T09:42:29Z</time>
</trkpt>
<trkpt lat="46.4088128" lon="8.1576976">
<ele>1240.000000</ele>
<time>2018-08-14T09:42:39Z</time>
</trkpt>
<trkpt lat="46.4087744" lon="8.1576416">
<ele>1241.000000</ele>
<time>2018-08-14T09:42:49Z</time>
</trkpt>
<trkpt lat="46.4087488" lon="8.1575944">
<ele>1239.000000</ele>
<time>2018-08-14T09:42:59Z</time>
</trkpt>
<trkpt lat="46.4087936" lon="8.1576344">
<ele>1239.000000</ele>
<time>2018-08-14T09:43:09Z</time>
</trkpt>
<trkpt lat="46.4087776" lon="8.1578344">
<ele>1240.000000</ele>
<time>2018-08-14T09:43:52Z</time>
</trkpt>
<trkpt lat="46.4086752" lon="8.1578064">
<ele>1240.000000</ele>
<time>2018-08-14T09:44:02Z</time>
</trkpt>
<trkpt lat="46.4085632" lon="8.1577728">
<ele>1240.000000</ele>
<time>2018-08-14T09:44:12Z</time>
</trkpt>
<trkpt lat="46.4085184" lon="8.1577376">
<ele>1240.000000</ele>
<time>2018-08-14T09:44:22Z</time>
</trkpt>
<trkpt lat="46.4084672" lon="8.1576976">
<ele>1241.000000</ele>
<time>2018-08-14T09:44:32Z</time>
</trkpt>
<trkpt lat="46.4083872" lon="8.1577024">
<ele>1240.000000</ele>
<time>2018-08-14T09:44:42Z</time>
</trkpt>
<trkpt lat="46.4083264" lon="8.1576760">
<ele>1240.000000</ele>
<time>2018-08-14T09:44:52Z</time>
</trkpt>
<trkpt lat="46.4081600" lon="8.1576376">
<ele>1241.000000</ele>
<time>2018-08-14T09:45:02Z</time>
</trkpt>
<trkpt lat="46.4081152" lon="8.1576776">
<ele>1242.000000</ele>
<time>2018-08-14T09:45:24Z</time>
</trkpt>
<trkpt lat="46.4081088" lon="8.1576688">
<ele>1242.000000</ele>
<time>2018-08-14T09:45:53Z</time>
</trkpt>
<trkpt lat="46.4081376" lon="8.1576760">
<ele>1242.000000</ele>
<time>2018-08-14T09:46:06Z</time>
</trkpt>
<trkpt lat="46.4081376" lon="8.1576816">
<ele>1242.000000</ele>
<time>2018-08-14T09:46:23Z</time>
</trkpt>
<trkpt lat="46.4080480" lon="8.1576864">
<ele>1242.000000</ele>
<time>2018-08-14T09:46:33Z</time>
</trkpt>
<trkpt lat="46.4079424" lon="8.1574496">
<ele>1242.000000</ele>
<time>2018-08-14T09:46:43Z</time>
</trkpt>
<trkpt lat="46.4078560" lon="8.1574032">
<ele>1241.000000</ele>
<time>2018-08-14T09:46:53Z</time>
</trkpt>
<trkpt lat="46.4077568" lon="8.1574944">
<ele>1242.000000</ele>
<time>2018-08-14T09:47:03Z</time>
</trkpt>
<trkpt lat="46.4077536" lon="8.1573880">
<ele>1241.000000</ele>
<time>2018-08-14T09:47:13Z</time>
</trkpt>
<trkpt lat="46.4076768" lon="8.1572344">
<ele>1241.000000</ele>
<time>2018-08-14T09:47:23Z</time>
</trkpt>
<trkpt lat="46.4075424" lon="8.1572472">
<ele>1240.000000</ele>
<time>2018-08-14T09:47:34Z</time>
</trkpt>
<trkpt lat="46.4075008" lon="8.1575096">
<ele>1240.000000</ele>
<time>2018-08-14T09:47:43Z</time>
</trkpt>
<trkpt lat="46.4074560" lon="8.1574344">
<ele>1240.000000</ele>
<time>2018-08-14T09:47:53Z</time>
</trkpt>
<trkpt lat="46.4072736" lon="8.1574992">
<ele>1241.000000</ele>
<time>2018-08-14T09:48:03Z</time>
</trkpt>
<trkpt lat="46.4074144" lon="8.1577264">
<ele>1241.000000</ele>
<time>2018-08-14T09:48:14Z</time>
</trkpt>
<trkpt lat="46.4075648" lon="8.1577224">
<ele>1240.000000</ele>
<time>2018-08-14T09:48:24Z</time>
</trkpt>
<trkpt lat="46.4074208" lon="8.1576544">
<ele>1240.000000</ele>
<time>2018-08-14T09:48:34Z</time>
</trkpt>
<trkpt lat="46.4072864" lon="8.1577240">
<ele>1240.000000</ele>
<time>2018-08-14T09:48:44Z</time>
</trkpt>
<trkpt lat="46.4073280" lon="8.1578048">
<ele>1240.000000</ele>
<time>2018-08-14T09:48:54Z</time>
</trkpt>
<trkpt lat="46.4073280" lon="8.1578344">
<ele>1240.000000</ele>
<time>2018-08-14T09:49:04Z</time>
</trkpt>
<trkpt lat="46.4072832" lon="8.1579224">
<ele>1240.000000</ele>
<time>2018-08-14T09:49:14Z</time>
</trkpt>
<trkpt lat="46.4073536" lon="8.1578800">
<ele>1240.000000</ele>
<time>2018-08-14T09:49:26Z</time>
</trkpt>
<trkpt lat="46.4073664" lon="8.1578472">
<ele>1240.000000</ele>
<time>2018-08-14T09:49:36Z</time>
</trkpt>
<trkpt lat="46.4073728" lon="8.1578712">
<ele>1240.000000</ele>
<time>2018-08-14T09:49:46Z</time>
</trkpt>
<trkpt lat="46.4072544" lon="8.1579424">
<ele>1240.000000</ele>
<time>2018-08-14T09:49:56Z</time>
</trkpt>
<trkpt lat="46.4071392" lon="8.1579400">
<ele>1240.000000</ele>
<time>2018-08-14T09:50:06Z</time>
</trkpt>
<trkpt lat="46.4071776" lon="8.1580296">
<ele>1240.000000</ele>
<time>2018-08-14T09:50:53Z</time>
</trkpt>
<trkpt lat="46.4071616" lon="8.1580744">
<ele>1240.000000</ele>
<time>2018-08-14T09:51:19Z</time>
</trkpt>
<trkpt lat="46.4071392" lon="8.1580928">
<ele>1240.000000</ele>
<time>2018-08-14T09:51:31Z</time>
</trkpt>
<trkpt lat="46.4070592" lon="8.1581056">
<ele>1240.000000</ele>
<time>2018-08-14T09:51:41Z</time>
</trkpt>
<trkpt lat="46.4070624" lon="8.1580928">
<ele>1240.000000</ele>
<time>2018-08-14T09:51:51Z</time>
</trkpt>
<trkpt lat="46.4070784" lon="8.1582144">
<ele>1240.000000</ele>
<time>2018-08-14T09:52:01Z</time>
</trkpt>
<trkpt lat="46.4070400" lon="8.1583792">
<ele>1240.000000</ele>
<time>2018-08-14T09:52:11Z</time>
</trkpt>
<trkpt lat="46.4070848" lon="8.1584288">
<ele>1240.000000</ele>
<time>2018-08-14T09:52:21Z</time>
</trkpt>
<trkpt lat="46.4071072" lon="8.1584264">
<ele>1241.000000</ele>
<time>2018-08-14T09:52:37Z</time>
</trkpt>
<trkpt lat="46.4071584" lon="8.1584760">
<ele>1241.000000</ele>
<time>2018-08-14T09:52:47Z</time>
</trkpt>
<trkpt lat="46.4071424" lon="8.1584800">
<ele>1241.000000</ele>
<time>2018-08-14T09:53:03Z</time>
</trkpt>
<trkpt lat="46.4071392" lon="8.1584776">
<ele>1241.000000</ele>
<time>2018-08-14T09:53:49Z</time>
</trkpt>
<trkpt lat="46.4071392" lon="8.1584848">
<ele>1241.000000</ele>
<time>2018-08-14T09:54:00Z</time>
</trkpt>
<trkpt lat="46.4071296" lon="8.1584960">
<ele>1241.000000</ele>
<time>2018-08-14T09:54:31Z</time>
</trkpt>
<trkpt lat="46.4071616" lon="8.1585624">
<ele>1241.000000</ele>
<time>2018-08-14T09:54:41Z</time>
</trkpt>
<trkpt lat="46.4071584" lon="8.1587408">
<ele>1241.000000</ele>
<time>2018-08-14T09:54:51Z</time>
</trkpt>
<trkpt lat="46.4071456" lon="8.1588328">
<ele>1241.000000</ele>
<time>2018-08-14T09:55:01Z</time>
</trkpt>
<trkpt lat="46.4071360" lon="8.1588408">
<ele>1241.000000</ele>
<time>2018-08-14T09:55:11Z</time>
</trkpt>
<trkpt lat="46.4070080" lon="8.1587960">
<ele>1242.000000</ele>
<time>2018-08-14T09:55:22Z</time>
</trkpt>
<trkpt lat="46.4070016" lon="8.1588448">
<ele>1243.000000</ele>
<time>2018-08-14T09:55:33Z</time>
</trkpt>
<trkpt lat="46.4068288" lon="8.1588080">
<ele>1244.000000</ele>
<time>2018-08-14T09:55:43Z</time>
</trkpt>
<trkpt lat="46.4067616" lon="8.1589616">
<ele>1245.000000</ele>
<time>2018-08-14T09:55:53Z</time>
</trkpt>
<trkpt lat="46.4066848" lon="8.1587696">
<ele>1247.000000</ele>
<time>2018-08-14T09:56:03Z</time>
</trkpt>
<trkpt lat="46.4067392" lon="8.1588944">
<ele>1249.000000</ele>
<time>2018-08-14T09:56:13Z</time>
</trkpt>
<trkpt lat="46.4069376" lon="8.1590112">
<ele>1252.000000</ele>
<time>2018-08-14T09:56:22Z</time>
</trkpt>
<trkpt lat="46.4069440" lon="8.1590592">
<ele>1255.000000</ele>
<time>2018-08-14T09:56:33Z</time>
</trkpt>
<trkpt lat="46.4069216" lon="8.1591528">
<ele>1257.000000</ele>
<time>2018-08-14T09:56:43Z</time>
</trkpt>
<trkpt lat="46.4067488" lon="8.1591040">
<ele>1257.000000</ele>
<time>2018-08-14T09:56:47Z</time>
</trkpt>
<trkpt lat="46.4067776" lon="8.1592696">
<ele>1259.000000</ele>
<time>2018-08-14T09:56:58Z</time>
</trkpt>
<trkpt lat="46.4069664" lon="8.1593600">
<ele>1261.000000</ele>
<time>2018-08-14T09:57:04Z</time>
</trkpt>
<trkpt lat="46.4068448" lon="8.1591760">
<ele>1264.000000</ele>
<time>2018-08-14T09:57:12Z</time>
</trkpt>
<trkpt lat="46.4067104" lon="8.1591616">
<ele>1267.000000</ele>
<time>2018-08-14T09:57:41Z</time>
</trkpt>
<trkpt lat="46.4067040" lon="8.1591648">
<ele>1267.000000</ele>
<time>2018-08-14T09:57:59Z</time>
</trkpt>
<trkpt lat="46.4066368" lon="8.1592664">
<ele>1267.000000</ele>
<time>2018-08-14T09:58:09Z</time>
</trkpt>
<trkpt lat="46.4065632" lon="8.1593736">
<ele>1267.000000</ele>
<time>2018-08-14T09:58:19Z</time>
</trkpt>
<trkpt lat="46.4065536" lon="8.1594544">
<ele>1268.000000</ele>
<time>2018-08-14T09:58:29Z</time>
</trkpt>
<trkpt lat="46.4065408" lon="8.1594512">
<ele>1268.000000</ele>
<time>2018-08-14T09:58:41Z</time>
</trkpt>
<trkpt lat="46.4065600" lon="8.1595768">
<ele>1268.000000</ele>
<time>2018-08-14T09:58:51Z</time>
</trkpt>
<trkpt lat="46.4064288" lon="8.1596392">
<ele>1268.000000</ele>
<time>2018-08-14T09:59:01Z</time>
</trkpt>
<trkpt lat="46.4062496" lon="8.1595632">
<ele>1268.000000</ele>
<time>2018-08-14T09:59:11Z</time>
</trkpt>
<trkpt lat="46.4061056" lon="8.1596104">
<ele>1268.000000</ele>
<time>2018-08-14T09:59:21Z</time>
</trkpt>
<trkpt lat="46.4061472" lon="8.1597440">
<ele>1269.000000</ele>
<time>2018-08-14T09:59:31Z</time>
</trkpt>
<trkpt lat="46.4062432" lon="8.1598552">
<ele>1269.000000</ele>
<time>2018-08-14T09:59:41Z</time>
</trkpt>
<trkpt lat="46.4064288" lon="8.1599528">
<ele>1269.000000</ele>
<time>2018-08-14T09:59:51Z</time>
</trkpt>
<trkpt lat="46.4066240" lon="8.1600336">
<ele>1269.000000</ele>
<time>2018-08-14T10:00:00Z</time>
</trkpt>
<trkpt lat="46.4066208" lon="8.1599352">
<ele>1269.000000</ele>
<time>2018-08-14T10:00:10Z</time>
</trkpt>
<trkpt lat="46.4064128" lon="8.1599400">
<ele>1269.000000</ele>
<time>2018-08-14T10:00:17Z</time>
</trkpt>
<trkpt lat="46.4062880" lon="8.1599744">
<ele>1269.000000</ele>
<time>2018-08-14T10:00:27Z</time>
</trkpt>
<trkpt lat="46.4060864" lon="8.1599728">
<ele>1270.000000</ele>
<time>2018-08-14T10:00:34Z</time>
</trkpt>
<trkpt lat="46.4059648" lon="8.1599944">
<ele>1270.000000</ele>
<time>2018-08-14T10:00:44Z</time>
</trkpt>
<trkpt lat="46.4058784" lon="8.1601312">
<ele>1270.000000</ele>
<time>2018-08-14T10:00:54Z</time>
</trkpt>
<trkpt lat="46.4059040" lon="8.1600672">
<ele>1271.000000</ele>
<time>2018-08-14T10:01:29Z</time>
</trkpt>
<trkpt lat="46.4058528" lon="8.1600912">
<ele>1271.000000</ele>
<time>2018-08-14T10:01:39Z</time>
</trkpt>
<trkpt lat="46.4057856" lon="8.1600832">
<ele>1271.000000</ele>
<time>2018-08-14T10:01:49Z</time>
</trkpt>
<trkpt lat="46.4058368" lon="8.1601048">
<ele>1271.000000</ele>
<time>2018-08-14T10:02:08Z</time>
</trkpt>
<trkpt lat="46.4058080" lon="8.1601528">
<ele>1271.000000</ele>
<time>2018-08-14T10:02:19Z</time>
</trkpt>
<trkpt lat="46.4057120" lon="8.1601696">
<ele>1271.000000</ele>
<time>2018-08-14T10:02:29Z</time>
</trkpt>
<trkpt lat="46.4056480" lon="8.1601792">
<ele>1271.000000</ele>
<time>2018-08-14T10:02:46Z</time>
</trkpt>
<trkpt lat="46.4055904" lon="8.1601480">
<ele>1271.000000</ele>
<time>2018-08-14T10:02:56Z</time>
</trkpt>
<trkpt lat="46.4055680" lon="8.1601880">
<ele>1271.000000</ele>
<time>2018-08-14T10:03:06Z</time>
</trkpt>
<trkpt lat="46.4055712" lon="8.1601960">
<ele>1271.000000</ele>
<time>2018-08-14T10:03:35Z</time>
</trkpt>
<trkpt lat="46.4055488" lon="8.1602976">
<ele>1271.000000</ele>
<time>2018-08-14T10:03:45Z</time>
</trkpt>
<trkpt lat="46.4055104" lon="8.1603896">
<ele>1272.000000</ele>
<time>2018-08-14T10:04:06Z</time>
</trkpt>
<trkpt lat="46.4055200" lon="8.1603744">
<ele>1272.000000</ele>
<time>2018-08-14T10:04:50Z</time>
</trkpt>
<trkpt lat="46.4054592" lon="8.1604376">
<ele>1272.000000</ele>
<time>2018-08-14T10:05:00Z</time>
</trkpt>
<trkpt lat="46.4054848" lon="8.1605416">
<ele>1272.000000</ele>
<time>2018-08-14T10:05:10Z</time>
</trkpt>
<trkpt lat="46.4053952" lon="8.1606224">
<ele>1272.000000</ele>
<time>2018-08-14T10:05:20Z</time>
</trkpt>
<trkpt lat="46.4052512" lon="8.1606512">
<ele>1272.000000</ele>
<time>2018-08-14T10:05:30Z</time>
</trkpt>
<trkpt lat="46.4053312" lon="8.1606296">
<ele>1272.000000</ele>
<time>2018-08-14T10:05:42Z</time>
</trkpt>
<trkpt lat="46.4053568" lon="8.1605880">
<ele>1272.000000</ele>
<time>2018-08-14T10:05:52Z</time>
</trkpt>
<trkpt lat="46.4052160" lon="8.1604480">
<ele>1272.000000</ele>
<time>2018-08-14T10:06:02Z</time>
</trkpt>
<trkpt lat="46.4052032" lon="8.1604168">
<ele>1272.000000</ele>
<time>2018-08-14T10:06:40Z</time>
</trkpt>
<trkpt lat="46.4051712" lon="8.1604728">
<ele>1272.000000</ele>
<time>2018-08-14T10:06:50Z</time>
</trkpt>
<trkpt lat="46.4051616" lon="8.1605376">
<ele>1272.000000</ele>
<time>2018-08-14T10:07:14Z</time>
</trkpt>
<trkpt lat="46.4052032" lon="8.1605224">
<ele>1273.000000</ele>
<time>2018-08-14T10:07:25Z</time>
</trkpt>
<trkpt lat="46.4051936" lon="8.1605576">
<ele>1273.000000</ele>
<time>2018-08-14T10:08:06Z</time>
</trkpt>
<trkpt lat="46.4052576" lon="8.1607424">
<ele>1273.000000</ele>
<time>2018-08-14T10:08:16Z</time>
</trkpt>
<trkpt lat="46.4053920" lon="8.1607096">
<ele>1273.000000</ele>
<time>2018-08-14T10:08:49Z</time>
</trkpt>
<trkpt lat="46.4053920" lon="8.1607448">
<ele>1273.000000</ele>
<time>2018-08-14T10:10:34Z</time>
</trkpt>
<trkpt lat="46.4053920" lon="8.1607560">
<ele>1273.000000</ele>
<time>2018-08-14T10:11:05Z</time>
</trkpt>
<trkpt lat="46.4053024" lon="8.1606912">
<ele>1273.000000</ele>
<time>2018-08-14T10:11:15Z</time>
</trkpt>
<trkpt lat="46.4051328" lon="8.1604960">
<ele>1273.000000</ele>
<time>2018-08-14T10:11:21Z</time>
</trkpt>
<trkpt lat="46.4051008" lon="8.1603496">
<ele>1273.000000</ele>
<time>2018-08-14T10:11:31Z</time>
</trkpt>
<trkpt lat="46.4050176" lon="8.1602720">
<ele>1273.000000</ele>
<time>2018-08-14T10:11:41Z</time>
</trkpt>
<trkpt lat="46.4049536" lon="8.1600608">
<ele>1273.000000</ele>
<time>2018-08-14T10:11:51Z</time>
</trkpt>
<trkpt lat="46.4048960" lon="8.1600296">
<ele>1274.000000</ele>
<time>2018-08-14T10:12:01Z</time>
</trkpt>
<trkpt lat="46.4048448" lon="8.1599000">
<ele>1274.000000</ele>
<time>2018-08-14T10:12:11Z</time>
</trkpt>
<trkpt lat="46.4047424" lon="8.1596912">
<ele>1274.000000</ele>
<time>2018-08-14T10:12:21Z</time>
</trkpt>
<trkpt lat="46.4047424" lon="8.1595832">
<ele>1275.000000</ele>
<time>2018-08-14T10:12:31Z</time>
</trkpt>
<trkpt lat="46.4047424" lon="8.1594208">
<ele>1275.000000</ele>
<time>2018-08-14T10:12:41Z</time>
</trkpt>
<trkpt lat="46.4047168" lon="8.1592928">
<ele>1275.000000</ele>
<time>2018-08-14T10:12:51Z</time>
</trkpt>
<trkpt lat="46.4046912" lon="8.1591848">
<ele>1276.000000</ele>
<time>2018-08-14T10:13:01Z</time>
</trkpt>
<trkpt lat="46.4045952" lon="8.1590512">
<ele>1276.000000</ele>
<time>2018-08-14T10:13:11Z</time>
</trkpt>
<trkpt lat="46.4045568" lon="8.1589840">
<ele>1277.000000</ele>
<time>2018-08-14T10:13:21Z</time>
</trkpt>
<trkpt lat="46.4045056" lon="8.1589528">
<ele>1278.000000</ele>
<time>2018-08-14T10:13:31Z</time>
</trkpt>
<trkpt lat="46.4044928" lon="8.1588520">
<ele>1278.000000</ele>
<time>2018-08-14T10:13:41Z</time>
</trkpt>
<trkpt lat="46.4044352" lon="8.1587544">
<ele>1279.000000</ele>
<time>2018-08-14T10:13:51Z</time>
</trkpt>
<trkpt lat="46.4043584" lon="8.1586736">
<ele>1280.000000</ele>
<time>2018-08-14T10:14:01Z</time>
</trkpt>
<trkpt lat="46.4043040" lon="8.1585296">
<ele>1280.000000</ele>
<time>2018-08-14T10:14:11Z</time>
</trkpt>
<trkpt lat="46.4041792" lon="8.1584352">
<ele>1282.000000</ele>
<time>2018-08-14T10:14:21Z</time>
</trkpt>
<trkpt lat="46.4041376" lon="8.1583192">
<ele>1282.000000</ele>
<time>2018-08-14T10:14:31Z</time>
</trkpt>
<trkpt lat="46.4039872" lon="8.1581648">
<ele>1283.000000</ele>
<time>2018-08-14T10:14:41Z</time>
</trkpt>
<trkpt lat="46.4039648" lon="8.1581192">
<ele>1284.000000</ele>
<time>2018-08-14T10:14:51Z</time>
</trkpt>
<trkpt lat="46.4039104" lon="8.1580792">
<ele>1285.000000</ele>
<time>2018-08-14T10:15:01Z</time>
</trkpt>
<trkpt lat="46.4039648" lon="8.1580080">
<ele>1286.000000</ele>
<time>2018-08-14T10:15:11Z</time>
</trkpt>
<trkpt lat="46.4038784" lon="8.1579224">
<ele>1287.000000</ele>
<time>2018-08-14T10:15:21Z</time>
</trkpt>
<trkpt lat="46.4037216" lon="8.1577800">
<ele>1288.000000</ele>
<time>2018-08-14T10:15:30Z</time>
</trkpt>
<trkpt lat="46.4035936" lon="8.1577160">
<ele>1289.000000</ele>
<time>2018-08-14T10:15:40Z</time>
</trkpt>
<trkpt lat="46.4035904" lon="8.1576880">
<ele>1289.000000</ele>
<time>2018-08-14T10:15:50Z</time>
</trkpt>
<trkpt lat="46.4035040" lon="8.1576776">
<ele>1290.000000</ele>
<time>2018-08-14T10:16:00Z</time>
</trkpt>
<trkpt lat="46.4033856" lon="8.1576064">
<ele>1291.000000</ele>
<time>2018-08-14T10:16:10Z</time>
</trkpt>
<trkpt lat="46.4033600" lon="8.1574968">
<ele>1292.000000</ele>
<time>2018-08-14T10:16:20Z</time>
</trkpt>
<trkpt lat="46.4033056" lon="8.1575128">
<ele>1292.000000</ele>
<time>2018-08-14T10:16:30Z</time>
</trkpt>
<trkpt lat="46.4032256" lon="8.1574992">
<ele>1293.000000</ele>
<time>2018-08-14T10:16:40Z</time>
</trkpt>
<trkpt lat="46.4032288" lon="8.1574744">
<ele>1294.000000</ele>
<time>2018-08-14T10:17:33Z</time>
</trkpt>
<trkpt lat="46.4032096" lon="8.1574680">
<ele>1294.000000</ele>
<time>2018-08-14T10:17:43Z</time>
</trkpt>
<trkpt lat="46.4031776" lon="8.1574232">
<ele>1294.000000</ele>
<time>2018-08-14T10:17:59Z</time>
</trkpt>
<trkpt lat="46.4031712" lon="8.1574144">
<ele>1294.000000</ele>
<time>2018-08-14T10:18:11Z</time>
</trkpt>
<trkpt lat="46.4031424" lon="8.1573712">
<ele>1293.000000</ele>
<time>2018-08-14T10:18:29Z</time>
</trkpt>
<trkpt lat="46.4031296" lon="8.1573480">
<ele>1294.000000</ele>
<time>2018-08-14T10:18:49Z</time>
</trkpt>
<trkpt lat="46.4031264" lon="8.1573256">
<ele>1294.000000</ele>
<time>2018-08-14T10:19:47Z</time>
</trkpt>
<trkpt lat="46.4029856" lon="8.1570848">
<ele>1294.000000</ele>
<time>2018-08-14T10:19:54Z</time>
</trkpt>
<trkpt lat="46.4028288" lon="8.1568816">
<ele>1294.000000</ele>
<time>2018-08-14T10:19:58Z</time>
</trkpt>
<trkpt lat="46.4026944" lon="8.1567160">
<ele>1294.000000</ele>
<time>2018-08-14T10:20:03Z</time>
</trkpt>
<trkpt lat="46.4025504" lon="8.1565384">
<ele>1294.000000</ele>
<time>2018-08-14T10:20:10Z</time>
</trkpt>
<trkpt lat="46.4024320" lon="8.1563600">
<ele>1294.000000</ele>
<time>2018-08-14T10:20:20Z</time>
</trkpt>
<trkpt lat="46.4023712" lon="8.1563424">
<ele>1294.000000</ele>
<time>2018-08-14T10:20:30Z</time>
</trkpt>
<trkpt lat="46.4023968" lon="8.1563512">
<ele>1295.000000</ele>
<time>2018-08-14T10:22:15Z</time>
</trkpt>
<trkpt lat="46.4024160" lon="8.1562960">
<ele>1295.000000</ele>
<time>2018-08-14T10:23:12Z</time>
</trkpt>
<trkpt lat="46.4024192" lon="8.1562952">
<ele>1295.000000</ele>
<time>2018-08-14T10:23:32Z</time>
</trkpt>
<trkpt lat="46.4024224" lon="8.1563360">
<ele>1295.000000</ele>
<time>2018-08-14T10:23:47Z</time>
</trkpt>
<trkpt lat="46.4023936" lon="8.1562616">
<ele>1295.000000</ele>
<time>2018-08-14T10:23:57Z</time>
</trkpt>
<trkpt lat="46.4022400" lon="8.1560880">
<ele>1295.000000</ele>
<time>2018-08-14T10:24:07Z</time>
</trkpt>
<trkpt lat="46.4021632" lon="8.1559208">
<ele>1295.000000</ele>
<time>2018-08-14T10:24:17Z</time>
</trkpt>
<trkpt lat="46.4021792" lon="8.1557744">
<ele>1295.000000</ele>
<time>2018-08-14T10:24:27Z</time>
</trkpt>
<trkpt lat="46.4021120" lon="8.1556664">
<ele>1295.000000</ele>
<time>2018-08-14T10:24:37Z</time>
</trkpt>
<trkpt lat="46.4020768" lon="8.1556064">
<ele>1295.000000</ele>
<time>2018-08-14T10:24:56Z</time>
</trkpt>
<trkpt lat="46.4020256" lon="8.1555216">
<ele>1295.000000</ele>
<time>2018-08-14T10:25:06Z</time>
</trkpt>
<trkpt lat="46.4019008" lon="8.1553360">
<ele>1295.000000</ele>
<time>2018-08-14T10:25:14Z</time>
</trkpt>
<trkpt lat="46.4018240" lon="8.1551848">
<ele>1295.000000</ele>
<time>2018-08-14T10:25:24Z</time>
</trkpt>
<trkpt lat="46.4018016" lon="8.1551544">
<ele>1296.000000</ele>
<time>2018-08-14T10:25:39Z</time>
</trkpt>
<trkpt lat="46.4018208" lon="8.1551208">
<ele>1296.000000</ele>
<time>2018-08-14T10:25:49Z</time>
</trkpt>
<trkpt lat="46.4016864" lon="8.1549896">
<ele>1296.000000</ele>
<time>2018-08-14T10:25:59Z</time>
</trkpt>
<trkpt lat="46.4016000" lon="8.1548528">
<ele>1296.000000</ele>
<time>2018-08-14T10:26:09Z</time>
</trkpt>
<trkpt lat="46.4015936" lon="8.1548368">
<ele>1296.000000</ele>
<time>2018-08-14T10:26:19Z</time>
</trkpt>
<trkpt lat="46.4015840" lon="8.1547744">
<ele>1296.000000</ele>
<time>2018-08-14T10:26:30Z</time>
</trkpt>
<trkpt lat="46.4014976" lon="8.1546096">
<ele>1296.000000</ele>
<time>2018-08-14T10:26:39Z</time>
</trkpt>
<trkpt lat="46.4013472" lon="8.1544672">
<ele>1296.000000</ele>
<time>2018-08-14T10:26:47Z</time>
</trkpt>
<trkpt lat="46.4012608" lon="8.1543544">
<ele>1296.000000</ele>
<time>2018-08-14T10:26:58Z</time>
</trkpt>
<trkpt lat="46.4012512" lon="8.1542880">
<ele>1296.000000</ele>
<time>2018-08-14T10:27:08Z</time>
</trkpt>
<trkpt lat="46.4013216" lon="8.1542488">
<ele>1296.000000</ele>
<time>2018-08-14T10:27:19Z</time>
</trkpt>
<trkpt lat="46.4012384" lon="8.1541840">
<ele>1296.000000</ele>
<time>2018-08-14T10:27:29Z</time>
</trkpt>
<trkpt lat="46.4010848" lon="8.1540304">
<ele>1296.000000</ele>
<time>2018-08-14T10:27:39Z</time>
</trkpt>
<trkpt lat="46.4010272" lon="8.1540168">
<ele>1297.000000</ele>
<time>2018-08-14T10:28:39Z</time>
</trkpt>
<trkpt lat="46.4010208" lon="8.1540080">
<ele>1297.000000</ele>
<time>2018-08-14T10:28:55Z</time>
</trkpt>
<trkpt lat="46.4010048" lon="8.1540128">
<ele>1297.000000</ele>
<time>2018-08-14T10:29:16Z</time>
</trkpt>
<trkpt lat="46.4009792" lon="8.1539208">
<ele>1297.000000</ele>
<time>2018-08-14T10:29:26Z</time>
</trkpt>
<trkpt lat="46.4009056" lon="8.1538496">
<ele>1297.000000</ele>
<time>2018-08-14T10:30:35Z</time>
</trkpt>
<trkpt lat="46.4007488" lon="8.1536696">
<ele>1297.000000</ele>
<time>2018-08-14T10:30:42Z</time>
</trkpt>
<trkpt lat="46.4005472" lon="8.1536128">
<ele>1297.000000</ele>
<time>2018-08-14T10:30:48Z</time>
</trkpt>
<trkpt lat="46.4003712" lon="8.1534912">
<ele>1297.000000</ele>
<time>2018-08-14T10:30:53Z</time>
</trkpt>
<trkpt lat="46.4002144" lon="8.1535264">
<ele>1297.000000</ele>
<time>2018-08-14T10:31:03Z</time>
</trkpt>
<trkpt lat="46.4001344" lon="8.1534616">
<ele>1297.000000</ele>
<time>2018-08-14T10:31:13Z</time>
</trkpt>
<trkpt lat="46.4000128" lon="8.1534624">
<ele>1297.000000</ele>
<time>2018-08-14T10:31:23Z</time>
</trkpt>
<trkpt lat="46.3999872" lon="8.1534416">
<ele>1297.000000</ele>
<time>2018-08-14T10:31:47Z</time>
</trkpt>
<trkpt lat="46.4000832" lon="8.1534232">
<ele>1297.000000</ele>
<time>2018-08-14T10:31:57Z</time>
</trkpt>
<trkpt lat="46.4001120" lon="8.1533232">
<ele>1297.000000</ele>
<time>2018-08-14T10:32:07Z</time>
</trkpt>
<trkpt lat="46.4002912" lon="8.1533176">
<ele>1297.000000</ele>
<time>2018-08-14T10:32:13Z</time>
</trkpt>
<trkpt lat="46.4004704" lon="8.1532360">
<ele>1297.000000</ele>
<time>2018-08-14T10:32:22Z</time>
</trkpt>
<trkpt lat="46.4005408" lon="8.1531480">
<ele>1297.000000</ele>
<time>2018-08-14T10:32:32Z</time>
</trkpt>
<trkpt lat="46.4004128" lon="8.1529344">
<ele>1298.000000</ele>
<time>2018-08-14T10:32:41Z</time>
</trkpt>
<trkpt lat="46.4002560" lon="8.1527760">
<ele>1298.000000</ele>
<time>2018-08-14T10:32:49Z</time>
</trkpt>
<trkpt lat="46.4000704" lon="8.1527216">
<ele>1298.000000</ele>
<time>2018-08-14T10:32:56Z</time>
</trkpt>
<trkpt lat="46.3999296" lon="8.1525480">
<ele>1298.000000</ele>
<time>2018-08-14T10:33:04Z</time>
</trkpt>
<trkpt lat="46.3999264" lon="8.1524784">
<ele>1298.000000</ele>
<time>2018-08-14T10:33:54Z</time>
</trkpt>
<trkpt lat="46.3998720" lon="8.1524032">
<ele>1298.000000</ele>
<time>2018-08-14T10:34:04Z</time>
</trkpt>
<trkpt lat="46.3997184" lon="8.1522424">
<ele>1298.000000</ele>
<time>2018-08-14T10:34:11Z</time>
</trkpt>
<trkpt lat="46.3995584" lon="8.1521080">
<ele>1298.000000</ele>
<time>2018-08-14T10:34:16Z</time>
</trkpt>
<trkpt lat="46.3994496" lon="8.1519576">
<ele>1298.000000</ele>
<time>2018-08-14T10:34:26Z</time>
</trkpt>
<trkpt lat="46.3994080" lon="8.1518544">
<ele>1298.000000</ele>
<time>2018-08-14T10:34:36Z</time>
</trkpt>
<trkpt lat="46.3993600" lon="8.1518656">
<ele>1299.000000</ele>
<time>2018-08-14T10:34:46Z</time>
</trkpt>
<trkpt lat="46.3992512" lon="8.1517560">
<ele>1299.000000</ele>
<time>2018-08-14T10:34:56Z</time>
</trkpt>
<trkpt lat="46.3992032" lon="8.1516736">
<ele>1299.000000</ele>
<time>2018-08-14T10:35:20Z</time>
</trkpt>
<trkpt lat="46.3991328" lon="8.1515864">
<ele>1299.000000</ele>
<time>2018-08-14T10:35:30Z</time>
</trkpt>
<trkpt lat="46.3990784" lon="8.1515064">
<ele>1299.000000</ele>
<time>2018-08-14T10:35:40Z</time>
</trkpt>
<trkpt lat="46.3990368" lon="8.1515160">
<ele>1299.000000</ele>
<time>2018-08-14T10:36:05Z</time>
</trkpt>
<trkpt lat="46.3990272" lon="8.1515176">
<ele>1299.000000</ele>
<time>2018-08-14T10:36:30Z</time>
</trkpt>
<trkpt lat="46.3988832" lon="8.1513424">
<ele>1299.000000</ele>
<time>2018-08-14T10:36:38Z</time>
</trkpt>
<trkpt lat="46.3987840" lon="8.1511744">
<ele>1299.000000</ele>
<time>2018-08-14T10:36:48Z</time>
</trkpt>
<trkpt lat="46.3987456" lon="8.1510960">
<ele>1299.000000</ele>
<time>2018-08-14T10:36:58Z</time>
</trkpt>
<trkpt lat="46.3986400" lon="8.1509808">
<ele>1299.000000</ele>
<time>2018-08-14T10:37:08Z</time>
</trkpt>
<trkpt lat="46.3985888" lon="8.1508944">
<ele>1299.000000</ele>
<time>2018-08-14T10:37:18Z</time>
</trkpt>
<trkpt lat="46.3985440" lon="8.1508936">
<ele>1299.000000</ele>
<time>2018-08-14T10:37:28Z</time>
</trkpt>
<trkpt lat="46.3984832" lon="8.1508872">
<ele>1300.000000</ele>
<time>2018-08-14T10:37:38Z</time>
</trkpt>
<trkpt lat="46.3984032" lon="8.1508408">
<ele>1301.000000</ele>
<time>2018-08-14T10:37:48Z</time>
</trkpt>
<trkpt lat="46.3983488" lon="8.1508016">
<ele>1302.000000</ele>
<time>2018-08-14T10:38:20Z</time>
</trkpt>
<trkpt lat="46.3982688" lon="8.1507000">
<ele>1302.000000</ele>
<time>2018-08-14T10:38:30Z</time>
</trkpt>
<trkpt lat="46.3981472" lon="8.1505464">
<ele>1302.000000</ele>
<time>2018-08-14T10:38:40Z</time>
</trkpt>
<trkpt lat="46.3980864" lon="8.1504448">
<ele>1302.000000</ele>
<time>2018-08-14T10:38:50Z</time>
</trkpt>
<trkpt lat="46.3979904" lon="8.1503360">
<ele>1302.000000</ele>
<time>2018-08-14T10:39:00Z</time>
</trkpt>
<trkpt lat="46.3979104" lon="8.1501960">
<ele>1303.000000</ele>
<time>2018-08-14T10:39:10Z</time>
</trkpt>
<trkpt lat="46.3977920" lon="8.1499392">
<ele>1305.000000</ele>
<time>2018-08-14T10:39:23Z</time>
</trkpt>
<trkpt lat="46.3978080" lon="8.1499640">
<ele>1305.000000</ele>
<time>2018-08-14T10:39:39Z</time>
</trkpt>
<trkpt lat="46.3978048" lon="8.1499616">
<ele>1305.000000</ele>
<time>2018-08-14T10:40:01Z</time>
</trkpt>
<trkpt lat="46.3976928" lon="8.1497792">
<ele>1306.000000</ele>
<time>2018-08-14T10:40:11Z</time>
</trkpt>
<trkpt lat="46.3977472" lon="8.1496384">
<ele>1306.000000</ele>
<time>2018-08-14T10:40:21Z</time>
</trkpt>
<trkpt lat="46.3976608" lon="8.1495384">
<ele>1309.000000</ele>
<time>2018-08-14T10:40:31Z</time>
</trkpt>
<trkpt lat="46.3976896" lon="8.1494424">
<ele>1311.000000</ele>
<time>2018-08-14T10:40:41Z</time>
</trkpt>
<trkpt lat="46.3976768" lon="8.1494128">
<ele>1312.000000</ele>
<time>2018-08-14T10:40:52Z</time>
</trkpt>
<trkpt lat="46.3975648" lon="8.1493040">
<ele>1312.000000</ele>
<time>2018-08-14T10:41:02Z</time>
</trkpt>
<trkpt lat="46.3975776" lon="8.1492480">
<ele>1312.000000</ele>
<time>2018-08-14T10:41:13Z</time>
</trkpt>
<trkpt lat="46.3975840" lon="8.1491496">
<ele>1312.000000</ele>
<time>2018-08-14T10:41:23Z</time>
</trkpt>
<trkpt lat="46.3974976" lon="8.1489984">
<ele>1313.000000</ele>
<time>2018-08-14T10:41:33Z</time>
</trkpt>
<trkpt lat="46.3974912" lon="8.1489680">
<ele>1313.000000</ele>
<time>2018-08-14T10:41:43Z</time>
</trkpt>
<trkpt lat="46.3973984" lon="8.1489128">
<ele>1313.000000</ele>
<time>2018-08-14T10:42:20Z</time>
</trkpt>
<trkpt lat="46.3973632" lon="8.1488312">
<ele>1313.000000</ele>
<time>2018-08-14T10:42:30Z</time>
</trkpt>
<trkpt lat="46.3973088" lon="8.1487712">
<ele>1314.000000</ele>
<time>2018-08-14T10:42:40Z</time>
</trkpt>
<trkpt lat="46.3972160" lon="8.1486824">
<ele>1314.000000</ele>
<time>2018-08-14T10:42:50Z</time>
</trkpt>
<trkpt lat="46.3971840" lon="8.1485712">
<ele>1315.000000</ele>
<time>2018-08-14T10:43:00Z</time>
</trkpt>
<trkpt lat="46.3971744" lon="8.1484528">
<ele>1316.000000</ele>
<time>2018-08-14T10:43:10Z</time>
</trkpt>
<trkpt lat="46.3970496" lon="8.1483032">
<ele>1316.000000</ele>
<time>2018-08-14T10:43:20Z</time>
</trkpt>
<trkpt lat="46.3970176" lon="8.1482760">
<ele>1316.000000</ele>
<time>2018-08-14T10:43:30Z</time>
</trkpt>
<trkpt lat="46.3969696" lon="8.1482184">
<ele>1316.000000</ele>
<time>2018-08-14T10:43:40Z</time>
</trkpt>
<trkpt lat="46.3968800" lon="8.1481136">
<ele>1317.000000</ele>
<time>2018-08-14T10:43:50Z</time>
</trkpt>
<trkpt lat="46.3967776" lon="8.1480360">
<ele>1317.000000</ele>
<time>2018-08-14T10:44:02Z</time>
</trkpt>
<trkpt lat="46.3968224" lon="8.1479880">
<ele>1318.000000</ele>
<time>2018-08-14T10:44:12Z</time>
</trkpt>
<trkpt lat="46.3967136" lon="8.1478800">
<ele>1319.000000</ele>
<time>2018-08-14T10:44:22Z</time>
</trkpt>
<trkpt lat="46.3965760" lon="8.1477040">
<ele>1321.000000</ele>
<time>2018-08-14T10:44:32Z</time>
</trkpt>
<trkpt lat="46.3966016" lon="8.1476496">
<ele>1322.000000</ele>
<time>2018-08-14T10:44:42Z</time>
</trkpt>
<trkpt lat="46.3965120" lon="8.1476504">
<ele>1322.000000</ele>
<time>2018-08-14T10:44:52Z</time>
</trkpt>
<trkpt lat="46.3964384" lon="8.1476384">
<ele>1323.000000</ele>
<time>2018-08-14T10:45:02Z</time>
</trkpt>
<trkpt lat="46.3963552" lon="8.1474896">
<ele>1323.000000</ele>
<time>2018-08-14T10:45:12Z</time>
</trkpt>
<trkpt lat="46.3961920" lon="8.1474960">
<ele>1324.000000</ele>
<time>2018-08-14T10:45:22Z</time>
</trkpt>
<trkpt lat="46.3960480" lon="8.1474208">
<ele>1324.000000</ele>
<time>2018-08-14T10:45:33Z</time>
</trkpt>
<trkpt lat="46.3960736" lon="8.1474048">
<ele>1325.000000</ele>
<time>2018-08-14T10:46:52Z</time>
</trkpt>
<trkpt lat="46.3960672" lon="8.1474136">
<ele>1325.000000</ele>
<time>2018-08-14T10:47:17Z</time>
</trkpt>
<trkpt lat="46.3960576" lon="8.1474384">
<ele>1325.000000</ele>
<time>2018-08-14T10:47:27Z</time>
</trkpt>
<trkpt lat="46.3960768" lon="8.1474432">
<ele>1325.000000</ele>
<time>2018-08-14T10:47:43Z</time>
</trkpt>
<trkpt lat="46.3960832" lon="8.1474472">
<ele>1325.000000</ele>
<time>2018-08-14T10:48:03Z</time>
</trkpt>
<trkpt lat="46.3960800" lon="8.1474496">
<ele>1325.000000</ele>
<time>2018-08-14T10:48:21Z</time>
</trkpt>
<trkpt lat="46.3960928" lon="8.1474544">
<ele>1325.000000</ele>
<time>2018-08-14T10:48:45Z</time>
</trkpt>
<trkpt lat="46.3960928" lon="8.1474560">
<ele>1325.000000</ele>
<time>2018-08-14T10:49:01Z</time>
</trkpt>
<trkpt lat="46.3960832" lon="8.1474560">
<ele>1325.000000</ele>
<time>2018-08-14T10:49:14Z</time>
</trkpt>
<trkpt lat="46.3960832" lon="8.1474664">
<ele>1325.000000</ele>
<time>2018-08-14T10:51:45Z</time>
</trkpt>
<trkpt lat="46.3961024" lon="8.1475032">
<ele>1326.000000</ele>
<time>2018-08-14T10:51:56Z</time>
</trkpt>
<trkpt lat="46.3961152" lon="8.1476008">
<ele>1325.000000</ele>
<time>2018-08-14T10:52:06Z</time>
</trkpt>
<trkpt lat="46.3961536" lon="8.1476184">
<ele>1325.000000</ele>
<time>2018-08-14T10:52:34Z</time>
</trkpt>
<trkpt lat="46.3961600" lon="8.1476056">
<ele>1325.000000</ele>
<time>2018-08-14T10:53:14Z</time>
</trkpt>
<trkpt lat="46.3961600" lon="8.1476056">
<ele>1325.000000</ele>
<time>2018-08-14T10:53:31Z</time>
</trkpt>
<trkpt lat="46.3961344" lon="8.1475848">
<ele>1325.000000</ele>
<time>2018-08-14T10:53:44Z</time>
</trkpt>
<trkpt lat="46.3961856" lon="8.1475648">
<ele>1325.000000</ele>
<time>2018-08-14T10:54:23Z</time>
</trkpt>
<trkpt lat="46.3961824" lon="8.1475608">
<ele>1326.000000</ele>
<time>2018-08-14T10:55:13Z</time>
</trkpt>
<trkpt lat="46.3961728" lon="8.1475584">
<ele>1326.000000</ele>
<time>2018-08-14T10:55:44Z</time>
</trkpt>
<trkpt lat="46.3961728" lon="8.1475584">
<ele>1326.000000</ele>
<time>2018-08-14T10:56:56Z</time>
</trkpt>
<trkpt lat="46.3961760" lon="8.1475728">
<ele>1325.000000</ele>
<time>2018-08-14T10:57:08Z</time>
</trkpt>
<trkpt lat="46.3961760" lon="8.1475712">
<ele>1325.000000</ele>
<time>2018-08-14T10:59:12Z</time>
</trkpt>
<trkpt lat="46.3961632" lon="8.1475656">
<ele>1325.000000</ele>
<time>2018-08-14T10:59:33Z</time>
</trkpt>
<trkpt lat="46.3961760" lon="8.1475680">
<ele>1325.000000</ele>
<time>2018-08-14T11:00:01Z</time>
</trkpt>
<trkpt lat="46.3961760" lon="8.1475680">
<ele>1325.000000</ele>
<time>2018-08-14T11:01:41Z</time>
</trkpt>
<trkpt lat="46.3961664" lon="8.1475656">
<ele>1325.000000</ele>
<time>2018-08-14T11:02:11Z</time>
</trkpt>
<trkpt lat="46.3962432" lon="8.1475792">
<ele>1325.000000</ele>
<time>2018-08-14T11:02:21Z</time>
</trkpt>
<trkpt lat="46.3962784" lon="8.1475880">
<ele>1326.000000</ele>
<time>2018-08-14T11:02:36Z</time>
</trkpt>
<trkpt lat="46.3962848" lon="8.1475896">
<ele>1326.000000</ele>
<time>2018-08-14T11:08:26Z</time>
</trkpt>
<trkpt lat="46.3962624" lon="8.1475744">
<ele>1325.000000</ele>
<time>2018-08-14T11:09:58Z</time>
</trkpt>
<trkpt lat="46.3962656" lon="8.1475648">
<ele>1325.000000</ele>
<time>2018-08-14T11:10:57Z</time>
</trkpt>
<trkpt lat="46.3962656" lon="8.1475584">
<ele>1325.000000</ele>
<time>2018-08-14T11:11:17Z</time>
</trkpt>
<trkpt lat="46.3962400" lon="8.1475408">
<ele>1326.000000</ele>
<time>2018-08-14T11:11:32Z</time>
</trkpt>
<trkpt lat="46.3962272" lon="8.1475384">
<ele>1326.000000</ele>
<time>2018-08-14T11:11:44Z</time>
</trkpt>
<trkpt lat="46.3962272" lon="8.1475384">
<ele>1326.000000</ele>
<time>2018-08-14T11:14:09Z</time>
</trkpt>
<trkpt lat="46.3962240" lon="8.1475056">
<ele>1326.000000</ele>
<time>2018-08-14T11:14:29Z</time>
</trkpt>
<trkpt lat="46.3962208" lon="8.1475112">
<ele>1326.000000</ele>
<time>2018-08-14T11:19:40Z</time>
</trkpt>
<trkpt lat="46.3962112" lon="8.1474912">
<ele>1326.000000</ele>
<time>2018-08-14T11:21:03Z</time>
</trkpt>
<trkpt lat="46.3962176" lon="8.1474928">
<ele>1326.000000</ele>
<time>2018-08-14T11:21:29Z</time>
</trkpt>
<trkpt lat="46.3962272" lon="8.1475528">
<ele>1326.000000</ele>
<time>2018-08-14T11:21:40Z</time>
</trkpt>
<trkpt lat="46.3960928" lon="8.1474760">
<ele>1326.000000</ele>
<time>2018-08-14T11:21:55Z</time>
</trkpt>
<trkpt lat="46.3960928" lon="8.1474544">
<ele>1326.000000</ele>
<time>2018-08-14T11:22:16Z</time>
</trkpt>
<trkpt lat="46.3960864" lon="8.1474512">
<ele>1326.000000</ele>
<time>2018-08-14T11:22:45Z</time>
</trkpt>
<trkpt lat="46.3960832" lon="8.1474600">
<ele>1325.000000</ele>
<time>2018-08-14T11:22:58Z</time>
</trkpt>
<trkpt lat="46.3961280" lon="8.1474712">
<ele>1325.000000</ele>
<time>2018-08-14T11:23:08Z</time>
</trkpt>
<trkpt lat="46.3961440" lon="8.1475296">
<ele>1325.000000</ele>
<time>2018-08-14T11:23:22Z</time>
</trkpt>
<trkpt lat="46.3961408" lon="8.1475328">
<ele>1325.000000</ele>
<time>2018-08-14T11:24:00Z</time>
</trkpt>
<trkpt lat="46.3961344" lon="8.1475248">
<ele>1326.000000</ele>
<time>2018-08-14T11:24:37Z</time>
</trkpt>
<trkpt lat="46.3961216" lon="8.1475408">
<ele>1326.000000</ele>
<time>2018-08-14T11:24:52Z</time>
</trkpt>
<trkpt lat="46.3961216" lon="8.1475296">
<ele>1326.000000</ele>
<time>2018-08-14T11:25:03Z</time>
</trkpt>
<trkpt lat="46.3961216" lon="8.1475248">
<ele>1326.000000</ele>
<time>2018-08-14T11:25:20Z</time>
</trkpt>
<trkpt lat="46.3960928" lon="8.1474848">
<ele>1326.000000</ele>
<time>2018-08-14T11:25:31Z</time>
</trkpt>
<trkpt lat="46.3960352" lon="8.1473512">
<ele>1326.000000</ele>
<time>2018-08-14T11:25:40Z</time>
</trkpt>
<trkpt lat="46.3959136" lon="8.1471376">
<ele>1326.000000</ele>
<time>2018-08-14T11:25:51Z</time>
</trkpt>
<trkpt lat="46.3958880" lon="8.1470440">
<ele>1326.000000</ele>
<time>2018-08-14T11:26:01Z</time>
</trkpt>
<trkpt lat="46.3958048" lon="8.1470264">
<ele>1325.000000</ele>
<time>2018-08-14T11:26:11Z</time>
</trkpt>
<trkpt lat="46.3957600" lon="8.1469704">
<ele>1326.000000</ele>
<time>2018-08-14T11:26:21Z</time>
</trkpt>
<trkpt lat="46.3956352" lon="8.1469256">
<ele>1327.000000</ele>
<time>2018-08-14T11:26:31Z</time>
</trkpt>
<trkpt lat="46.3956352" lon="8.1468896">
<ele>1328.000000</ele>
<time>2018-08-14T11:26:41Z</time>
</trkpt>
<trkpt lat="46.3955488" lon="8.1467536">
<ele>1328.000000</ele>
<time>2018-08-14T11:26:51Z</time>
</trkpt>
<trkpt lat="46.3955488" lon="8.1467184">
<ele>1328.000000</ele>
<time>2018-08-14T11:26:55Z</time>
</trkpt>
<trkpt lat="46.3955392" lon="8.1465960">
<ele>1328.000000</ele>
<time>2018-08-14T11:27:11Z</time>
</trkpt>
<trkpt lat="46.3955520" lon="8.1466376">
<ele>1328.000000</ele>
<time>2018-08-14T11:27:30Z</time>
</trkpt>
<trkpt lat="46.3955392" lon="8.1464712">
<ele>1328.000000</ele>
<time>2018-08-14T11:27:40Z</time>
</trkpt>
<trkpt lat="46.3955040" lon="8.1464064">
<ele>1328.000000</ele>
<time>2018-08-14T11:27:50Z</time>
</trkpt>
<trkpt lat="46.3954496" lon="8.1463344">
<ele>1327.000000</ele>
<time>2018-08-14T11:28:00Z</time>
</trkpt>
<trkpt lat="46.3954592" lon="8.1462192">
<ele>1328.000000</ele>
<time>2018-08-14T11:28:15Z</time>
</trkpt>
<trkpt lat="46.3955424" lon="8.1463840">
<ele>1328.000000</ele>
<time>2018-08-14T11:28:29Z</time>
</trkpt>
<trkpt lat="46.3955232" lon="8.1463912">
<ele>1328.000000</ele>
<time>2018-08-14T11:28:41Z</time>
</trkpt>
<trkpt lat="46.3955168" lon="8.1463992">
<ele>1328.000000</ele>
<time>2018-08-14T11:28:51Z</time>
</trkpt>
<trkpt lat="46.3954464" lon="8.1462192">
<ele>1327.000000</ele>
<time>2018-08-14T11:29:01Z</time>
</trkpt>
<trkpt lat="46.3953888" lon="8.1461160">
<ele>1327.000000</ele>
<time>2018-08-14T11:29:11Z</time>
</trkpt>
<trkpt lat="46.3953024" lon="8.1460408">
<ele>1327.000000</ele>
<time>2018-08-14T11:29:29Z</time>
</trkpt>
<trkpt lat="46.3952480" lon="8.1459664">
<ele>1326.000000</ele>
<time>2018-08-14T11:29:39Z</time>
</trkpt>
<trkpt lat="46.3951104" lon="8.1458200">
<ele>1326.000000</ele>
<time>2018-08-14T11:29:49Z</time>
</trkpt>
<trkpt lat="46.3950624" lon="8.1457264">
<ele>1326.000000</ele>
<time>2018-08-14T11:29:59Z</time>
</trkpt>
<trkpt lat="46.3950464" lon="8.1457016">
<ele>1326.000000</ele>
<time>2018-08-14T11:30:09Z</time>
</trkpt>
<trkpt lat="46.3950432" lon="8.1456816">
<ele>1326.000000</ele>
<time>2018-08-14T11:30:19Z</time>
</trkpt>
<trkpt lat="46.3949536" lon="8.1455504">
<ele>1326.000000</ele>
<time>2018-08-14T11:30:29Z</time>
</trkpt>
<trkpt lat="46.3948672" lon="8.1456192">
<ele>1326.000000</ele>
<time>2018-08-14T11:30:39Z</time>
</trkpt>
<trkpt lat="46.3947360" lon="8.1456112">
<ele>1326.000000</ele>
<time>2018-08-14T11:30:49Z</time>
</trkpt>
<trkpt lat="46.3947168" lon="8.1456232">
<ele>1325.000000</ele>
<time>2018-08-14T11:31:01Z</time>
</trkpt>
<trkpt lat="46.3947136" lon="8.1456240">
<ele>1325.000000</ele>
<time>2018-08-14T11:31:12Z</time>
</trkpt>
<trkpt lat="46.3946368" lon="8.1456664">
<ele>1325.000000</ele>
<time>2018-08-14T11:31:22Z</time>
</trkpt>
<trkpt lat="46.3945952" lon="8.1456728">
<ele>1325.000000</ele>
<time>2018-08-14T11:31:33Z</time>
</trkpt>
<trkpt lat="46.3944480" lon="8.1456568">
<ele>1325.000000</ele>
<time>2018-08-14T11:31:43Z</time>
</trkpt>
<trkpt lat="46.3944256" lon="8.1456376">
<ele>1325.000000</ele>
<time>2018-08-14T11:31:53Z</time>
</trkpt>
<trkpt lat="46.3943936" lon="8.1456712">
<ele>1325.000000</ele>
<time>2018-08-14T11:32:03Z</time>
</trkpt>
<trkpt lat="46.3942880" lon="8.1456296">
<ele>1324.000000</ele>
<time>2018-08-14T11:32:13Z</time>
</trkpt>
<trkpt lat="46.3941728" lon="8.1454480">
<ele>1324.000000</ele>
<time>2018-08-14T11:32:23Z</time>
</trkpt>
<trkpt lat="46.3941120" lon="8.1453984">
<ele>1325.000000</ele>
<time>2018-08-14T11:32:33Z</time>
</trkpt>
<trkpt lat="46.3940480" lon="8.1453784">
<ele>1326.000000</ele>
<time>2018-08-14T11:32:43Z</time>
</trkpt>
<trkpt lat="46.3939936" lon="8.1454208">
<ele>1326.000000</ele>
<time>2018-08-14T11:32:53Z</time>
</trkpt>
<trkpt lat="46.3939008" lon="8.1454584">
<ele>1325.000000</ele>
<time>2018-08-14T11:33:03Z</time>
</trkpt>
<trkpt lat="46.3938688" lon="8.1453608">
<ele>1325.000000</ele>
<time>2018-08-14T11:33:13Z</time>
</trkpt>
<trkpt lat="46.3938080" lon="8.1452512">
<ele>1325.000000</ele>
<time>2018-08-14T11:33:23Z</time>
</trkpt>
<trkpt lat="46.3938208" lon="8.1451600">
<ele>1324.000000</ele>
<time>2018-08-14T11:33:33Z</time>
</trkpt>
<trkpt lat="46.3937792" lon="8.1450424">
<ele>1325.000000</ele>
<time>2018-08-14T11:33:44Z</time>
</trkpt>
<trkpt lat="46.3937984" lon="8.1449568">
<ele>1325.000000</ele>
<time>2018-08-14T11:33:54Z</time>
</trkpt>
<trkpt lat="46.3938400" lon="8.1448344">
<ele>1325.000000</ele>
<time>2018-08-14T11:34:04Z</time>
</trkpt>
<trkpt lat="46.3938496" lon="8.1446944">
<ele>1323.000000</ele>
<time>2018-08-14T11:34:14Z</time>
</trkpt>
<trkpt lat="46.3939360" lon="8.1446160">
<ele>1322.000000</ele>
<time>2018-08-14T11:34:24Z</time>
</trkpt>
<trkpt lat="46.3940160" lon="8.1445048">
<ele>1322.000000</ele>
<time>2018-08-14T11:34:34Z</time>
</trkpt>
<trkpt lat="46.3939520" lon="8.1444528">
<ele>1322.000000</ele>
<time>2018-08-14T11:34:44Z</time>
</trkpt>
<trkpt lat="46.3938400" lon="8.1442440">
<ele>1322.000000</ele>
<time>2018-08-14T11:34:52Z</time>
</trkpt>
<trkpt lat="46.3937440" lon="8.1441192">
<ele>1321.000000</ele>
<time>2018-08-14T11:35:02Z</time>
</trkpt>
<trkpt lat="46.3936320" lon="8.1439600">
<ele>1321.000000</ele>
<time>2018-08-14T11:35:12Z</time>
</trkpt>
<trkpt lat="46.3934816" lon="8.1438744">
<ele>1321.000000</ele>
<time>2018-08-14T11:35:22Z</time>
</trkpt>
<trkpt lat="46.3934816" lon="8.1437872">
<ele>1321.000000</ele>
<time>2018-08-14T11:35:32Z</time>
</trkpt>
<trkpt lat="46.3934016" lon="8.1437696">
<ele>1321.000000</ele>
<time>2018-08-14T11:35:42Z</time>
</trkpt>
<trkpt lat="46.3932576" lon="8.1437224">
<ele>1322.000000</ele>
<time>2018-08-14T11:35:52Z</time>
</trkpt>
<trkpt lat="46.3931680" lon="8.1437248">
<ele>1322.000000</ele>
<time>2018-08-14T11:36:12Z</time>
</trkpt>
<trkpt lat="46.3930976" lon="8.1436976">
<ele>1322.000000</ele>
<time>2018-08-14T11:36:22Z</time>
</trkpt>
<trkpt lat="46.3930656" lon="8.1437064">
<ele>1322.000000</ele>
<time>2018-08-14T11:36:32Z</time>
</trkpt>
<trkpt lat="46.3929696" lon="8.1436552">
<ele>1322.000000</ele>
<time>2018-08-14T11:36:42Z</time>
</trkpt>
<trkpt lat="46.3928224" lon="8.1437616">
<ele>1321.000000</ele>
<time>2018-08-14T11:36:52Z</time>
</trkpt>
<trkpt lat="46.3927296" lon="8.1438528">
<ele>1320.000000</ele>
<time>2018-08-14T11:37:02Z</time>
</trkpt>
<trkpt lat="46.3926976" lon="8.1438608">
<ele>1320.000000</ele>
<time>2018-08-14T11:37:12Z</time>
</trkpt>
<trkpt lat="46.3926656" lon="8.1438408">
<ele>1320.000000</ele>
<time>2018-08-14T11:37:22Z</time>
</trkpt>
<trkpt lat="46.3926048" lon="8.1437160">
<ele>1320.000000</ele>
<time>2018-08-14T11:37:32Z</time>
</trkpt>
<trkpt lat="46.3925120" lon="8.1436480">
<ele>1320.000000</ele>
<time>2018-08-14T11:37:42Z</time>
</trkpt>
<trkpt lat="46.3924640" lon="8.1436064">
<ele>1319.000000</ele>
<time>2018-08-14T11:37:52Z</time>
</trkpt>
<trkpt lat="46.3923936" lon="8.1435312">
<ele>1318.000000</ele>
<time>2018-08-14T11:38:02Z</time>
</trkpt>
<trkpt lat="46.3923488" lon="8.1434576">
<ele>1318.000000</ele>
<time>2018-08-14T11:38:12Z</time>
</trkpt>
<trkpt lat="46.3922496" lon="8.1433712">
<ele>1317.000000</ele>
<time>2018-08-14T11:38:22Z</time>
</trkpt>
<trkpt lat="46.3922464" lon="8.1433744">
<ele>1317.000000</ele>
<time>2018-08-14T11:38:52Z</time>
</trkpt>
<trkpt lat="46.3922016" lon="8.1432808">
<ele>1317.000000</ele>
<time>2018-08-14T11:39:04Z</time>
</trkpt>
<trkpt lat="46.3921088" lon="8.1432024">
<ele>1317.000000</ele>
<time>2018-08-14T11:39:14Z</time>
</trkpt>
<trkpt lat="46.3920480" lon="8.1431024">
<ele>1317.000000</ele>
<time>2018-08-14T11:39:24Z</time>
</trkpt>
<trkpt lat="46.3919680" lon="8.1430000">
<ele>1317.000000</ele>
<time>2018-08-14T11:39:34Z</time>
</trkpt>
<trkpt lat="46.3918528" lon="8.1428832">
<ele>1317.000000</ele>
<time>2018-08-14T11:39:44Z</time>
</trkpt>
<trkpt lat="46.3917152" lon="8.1428144">
<ele>1318.000000</ele>
<time>2018-08-14T11:39:54Z</time>
</trkpt>
<trkpt lat="46.3917536" lon="8.1427976">
<ele>1317.000000</ele>
<time>2018-08-14T11:40:04Z</time>
</trkpt>
<trkpt lat="46.3916096" lon="8.1426256">
<ele>1317.000000</ele>
<time>2018-08-14T11:40:14Z</time>
</trkpt>
<trkpt lat="46.3914976" lon="8.1425880">
<ele>1317.000000</ele>
<time>2018-08-14T11:40:24Z</time>
</trkpt>
<trkpt lat="46.3914336" lon="8.1425632">
<ele>1314.000000</ele>
<time>2018-08-14T11:40:34Z</time>
</trkpt>
<trkpt lat="46.3913920" lon="8.1424472">
<ele>1313.000000</ele>
<time>2018-08-14T11:40:44Z</time>
</trkpt>
<trkpt lat="46.3913600" lon="8.1423512">
<ele>1313.000000</ele>
<time>2018-08-14T11:40:54Z</time>
</trkpt>
<trkpt lat="46.3913536" lon="8.1423424">
<ele>1312.000000</ele>
<time>2018-08-14T11:41:04Z</time>
</trkpt>
<trkpt lat="46.3912160" lon="8.1421944">
<ele>1311.000000</ele>
<time>2018-08-14T11:41:15Z</time>
</trkpt>
<trkpt lat="46.3911520" lon="8.1420504">
<ele>1310.000000</ele>
<time>2018-08-14T11:41:25Z</time>
</trkpt>
<trkpt lat="46.3910688" lon="8.1419560">
<ele>1309.000000</ele>
<time>2018-08-14T11:41:35Z</time>
</trkpt>
<trkpt lat="46.3910208" lon="8.1419184">
<ele>1310.000000</ele>
<time>2018-08-14T11:41:49Z</time>
</trkpt>
<trkpt lat="46.3908736" lon="8.1418048">
<ele>1309.000000</ele>
<time>2018-08-14T11:41:59Z</time>
</trkpt>
<trkpt lat="46.3908224" lon="8.1417096">
<ele>1309.000000</ele>
<time>2018-08-14T11:42:09Z</time>
</trkpt>
<trkpt lat="46.3907424" lon="8.1416000">
<ele>1310.000000</ele>
<time>2018-08-14T11:42:19Z</time>
</trkpt>
<trkpt lat="46.3906752" lon="8.1415040">
<ele>1309.000000</ele>
<time>2018-08-14T11:42:29Z</time>
</trkpt>
<trkpt lat="46.3906176" lon="8.1414312">
<ele>1309.000000</ele>
<time>2018-08-14T11:42:39Z</time>
</trkpt>
<trkpt lat="46.3905472" lon="8.1413944">
<ele>1309.000000</ele>
<time>2018-08-14T11:42:49Z</time>
</trkpt>
<trkpt lat="46.3905184" lon="8.1413168">
<ele>1308.000000</ele>
<time>2018-08-14T11:42:59Z</time>
</trkpt>
<trkpt lat="46.3903808" lon="8.1412608">
<ele>1307.000000</ele>
<time>2018-08-14T11:43:09Z</time>
</trkpt>
<trkpt lat="46.3903456" lon="8.1411656">
<ele>1308.000000</ele>
<time>2018-08-14T11:43:19Z</time>
</trkpt>
<trkpt lat="46.3903808" lon="8.1411480">
<ele>1306.000000</ele>
<time>2018-08-14T11:43:29Z</time>
</trkpt>
<trkpt lat="46.3902784" lon="8.1410544">
<ele>1306.000000</ele>
<time>2018-08-14T11:43:39Z</time>
</trkpt>
<trkpt lat="46.3902432" lon="8.1409696">
<ele>1305.000000</ele>
<time>2018-08-14T11:43:50Z</time>
</trkpt>
<trkpt lat="46.3901472" lon="8.1409128">
<ele>1305.000000</ele>
<time>2018-08-14T11:44:00Z</time>
</trkpt>
<trkpt lat="46.3900864" lon="8.1408240">
<ele>1306.000000</ele>
<time>2018-08-14T11:44:10Z</time>
</trkpt>
<trkpt lat="46.3899904" lon="8.1407768">
<ele>1306.000000</ele>
<time>2018-08-14T11:44:20Z</time>
</trkpt>
<trkpt lat="46.3899040" lon="8.1407376">
<ele>1306.000000</ele>
<time>2018-08-14T11:44:30Z</time>
</trkpt>
<trkpt lat="46.3898080" lon="8.1406880">
<ele>1306.000000</ele>
<time>2018-08-14T11:44:40Z</time>
</trkpt>
<trkpt lat="46.3897120" lon="8.1406992">
<ele>1306.000000</ele>
<time>2018-08-14T11:44:50Z</time>
</trkpt>
<trkpt lat="46.3896704" lon="8.1407480">
<ele>1306.000000</ele>
<time>2018-08-14T11:45:03Z</time>
</trkpt>
<trkpt lat="46.3896256" lon="8.1407592">
<ele>1306.000000</ele>
<time>2018-08-14T11:45:13Z</time>
</trkpt>
<trkpt lat="46.3895136" lon="8.1407712">
<ele>1306.000000</ele>
<time>2018-08-14T11:45:32Z</time>
</trkpt>
<trkpt lat="46.3895264" lon="8.1407328">
<ele>1306.000000</ele>
<time>2018-08-14T11:45:43Z</time>
</trkpt>
<trkpt lat="46.3895424" lon="8.1407416">
<ele>1306.000000</ele>
<time>2018-08-14T11:45:53Z</time>
</trkpt>
<trkpt lat="46.3895520" lon="8.1407496">
<ele>1306.000000</ele>
<time>2018-08-14T11:46:09Z</time>
</trkpt>
<trkpt lat="46.3893824" lon="8.1407512">
<ele>1306.000000</ele>
<time>2018-08-14T11:46:19Z</time>
</trkpt>
<trkpt lat="46.3892832" lon="8.1407728">
<ele>1306.000000</ele>
<time>2018-08-14T11:46:29Z</time>
</trkpt>
<trkpt lat="46.3892096" lon="8.1407768">
<ele>1305.000000</ele>
<time>2018-08-14T11:46:39Z</time>
</trkpt>
<trkpt lat="46.3891104" lon="8.1406640">
<ele>1305.000000</ele>
<time>2018-08-14T11:46:49Z</time>
</trkpt>
<trkpt lat="46.3890272" lon="8.1405880">
<ele>1306.000000</ele>
<time>2018-08-14T11:46:59Z</time>
</trkpt>
<trkpt lat="46.3889536" lon="8.1405280">
<ele>1306.000000</ele>
<time>2018-08-14T11:47:09Z</time>
</trkpt>
<trkpt lat="46.3888672" lon="8.1405344">
<ele>1306.000000</ele>
<time>2018-08-14T11:47:19Z</time>
</trkpt>
<trkpt lat="46.3887648" lon="8.1404960">
<ele>1306.000000</ele>
<time>2018-08-14T11:47:29Z</time>
</trkpt>
<trkpt lat="46.3886752" lon="8.1404480">
<ele>1306.000000</ele>
<time>2018-08-14T11:47:39Z</time>
</trkpt>
<trkpt lat="46.3886080" lon="8.1404000">
<ele>1305.000000</ele>
<time>2018-08-14T11:47:49Z</time>
</trkpt>
<trkpt lat="46.3885120" lon="8.1403272">
<ele>1304.000000</ele>
<time>2018-08-14T11:47:59Z</time>
</trkpt>
<trkpt lat="46.3884288" lon="8.1402712">
<ele>1304.000000</ele>
<time>2018-08-14T11:48:09Z</time>
</trkpt>
<trkpt lat="46.3883328" lon="8.1401960">
<ele>1303.000000</ele>
<time>2018-08-14T11:48:19Z</time>
</trkpt>
<trkpt lat="46.3883168" lon="8.1401016">
<ele>1303.000000</ele>
<time>2018-08-14T11:48:29Z</time>
</trkpt>
<trkpt lat="46.3881824" lon="8.1400144">
<ele>1303.000000</ele>
<time>2018-08-14T11:48:39Z</time>
</trkpt>
<trkpt lat="46.3881344" lon="8.1398584">
<ele>1302.000000</ele>
<time>2018-08-14T11:48:49Z</time>
</trkpt>
<trkpt lat="46.3880768" lon="8.1397608">
<ele>1303.000000</ele>
<time>2018-08-14T11:48:59Z</time>
</trkpt>
<trkpt lat="46.3879648" lon="8.1396296">
<ele>1302.000000</ele>
<time>2018-08-14T11:49:09Z</time>
</trkpt>
<trkpt lat="46.3879296" lon="8.1395280">
<ele>1301.000000</ele>
<time>2018-08-14T11:49:19Z</time>
</trkpt>
<trkpt lat="46.3878208" lon="8.1394176">
<ele>1300.000000</ele>
<time>2018-08-14T11:49:29Z</time>
</trkpt>
<trkpt lat="46.3877568" lon="8.1392744">
<ele>1300.000000</ele>
<time>2018-08-14T11:49:39Z</time>
</trkpt>
<trkpt lat="46.3876768" lon="8.1392864">
<ele>1300.000000</ele>
<time>2018-08-14T11:49:50Z</time>
</trkpt>
<trkpt lat="46.3876544" lon="8.1392704">
<ele>1299.000000</ele>
<time>2018-08-14T11:50:00Z</time>
</trkpt>
<trkpt lat="46.3876672" lon="8.1391760">
<ele>1299.000000</ele>
<time>2018-08-14T11:50:11Z</time>
</trkpt>
<trkpt lat="46.3876864" lon="8.1389864">
<ele>1300.000000</ele>
<time>2018-08-14T11:50:21Z</time>
</trkpt>
<trkpt lat="46.3876320" lon="8.1388264">
<ele>1301.000000</ele>
<time>2018-08-14T11:50:31Z</time>
</trkpt>
<trkpt lat="46.3876160" lon="8.1388016">
<ele>1301.000000</ele>
<time>2018-08-14T11:50:41Z</time>
</trkpt>
<trkpt lat="46.3875392" lon="8.1387416">
<ele>1301.000000</ele>
<time>2018-08-14T11:50:51Z</time>
</trkpt>
<trkpt lat="46.3876928" lon="8.1386176">
<ele>1301.000000</ele>
<time>2018-08-14T11:51:01Z</time>
</trkpt>
<trkpt lat="46.3877312" lon="8.1383912">
<ele>1300.000000</ele>
<time>2018-08-14T11:51:11Z</time>
</trkpt>
<trkpt lat="46.3876480" lon="8.1383344">
<ele>1301.000000</ele>
<time>2018-08-14T11:51:21Z</time>
</trkpt>
<trkpt lat="46.3877024" lon="8.1381872">
<ele>1301.000000</ele>
<time>2018-08-14T11:51:31Z</time>
</trkpt>
<trkpt lat="46.3875392" lon="8.1380680">
<ele>1300.000000</ele>
<time>2018-08-14T11:51:39Z</time>
</trkpt>
<trkpt lat="46.3876352" lon="8.1379712">
<ele>1299.000000</ele>
<time>2018-08-14T11:51:49Z</time>
</trkpt>
<trkpt lat="46.3875808" lon="8.1378792">
<ele>1300.000000</ele>
<time>2018-08-14T11:51:59Z</time>
</trkpt>
<trkpt lat="46.3875488" lon="8.1376408">
<ele>1299.000000</ele>
<time>2018-08-14T11:52:10Z</time>
</trkpt>
<trkpt lat="46.3874688" lon="8.1373928">
<ele>1299.000000</ele>
<time>2018-08-14T11:52:21Z</time>
</trkpt>
<trkpt lat="46.3875648" lon="8.1373664">
<ele>1300.000000</ele>
<time>2018-08-14T11:52:31Z</time>
</trkpt>
<trkpt lat="46.3876480" lon="8.1373080">
<ele>1299.000000</ele>
<time>2018-08-14T11:52:41Z</time>
</trkpt>
<trkpt lat="46.3876192" lon="8.1370992">
<ele>1298.000000</ele>
<time>2018-08-14T11:52:51Z</time>
</trkpt>
<trkpt lat="46.3875488" lon="8.1370056">
<ele>1297.000000</ele>
<time>2018-08-14T11:53:01Z</time>
</trkpt>
<trkpt lat="46.3875008" lon="8.1368128">
<ele>1295.000000</ele>
<time>2018-08-14T11:53:11Z</time>
</trkpt>
<trkpt lat="46.3874688" lon="8.1367000">
<ele>1296.000000</ele>
<time>2018-08-14T11:53:21Z</time>
</trkpt>
<trkpt lat="46.3874400" lon="8.1365376">
<ele>1296.000000</ele>
<time>2018-08-14T11:53:31Z</time>
</trkpt>
<trkpt lat="46.3874272" lon="8.1363544">
<ele>1296.000000</ele>
<time>2018-08-14T11:53:41Z</time>
</trkpt>
<trkpt lat="46.3873984" lon="8.1362784">
<ele>1295.000000</ele>
<time>2018-08-14T11:53:51Z</time>
</trkpt>
<trkpt lat="46.3873408" lon="8.1361624">
<ele>1295.000000</ele>
<time>2018-08-14T11:54:01Z</time>
</trkpt>
<trkpt lat="46.3872896" lon="8.1360608">
<ele>1294.000000</ele>
<time>2018-08-14T11:54:11Z</time>
</trkpt>
<trkpt lat="46.3872160" lon="8.1358960">
<ele>1294.000000</ele>
<time>2018-08-14T11:54:21Z</time>
</trkpt>
<trkpt lat="46.3871360" lon="8.1357344">
<ele>1292.000000</ele>
<time>2018-08-14T11:54:31Z</time>
</trkpt>
<trkpt lat="46.3869792" lon="8.1356144">
<ele>1290.000000</ele>
<time>2018-08-14T11:54:41Z</time>
</trkpt>
<trkpt lat="46.3870176" lon="8.1355160">
<ele>1291.000000</ele>
<time>2018-08-14T11:54:51Z</time>
</trkpt>
<trkpt lat="46.3869504" lon="8.1353976">
<ele>1293.000000</ele>
<time>2018-08-14T11:55:01Z</time>
</trkpt>
<trkpt lat="46.3868416" lon="8.1352616">
<ele>1294.000000</ele>
<time>2018-08-14T11:55:11Z</time>
</trkpt>
<trkpt lat="46.3868640" lon="8.1351728">
<ele>1294.000000</ele>
<time>2018-08-14T11:55:21Z</time>
</trkpt>
<trkpt lat="46.3868480" lon="8.1350376">
<ele>1294.000000</ele>
<time>2018-08-14T11:55:31Z</time>
</trkpt>
<trkpt lat="46.3868640" lon="8.1349432">
<ele>1294.000000</ele>
<time>2018-08-14T11:55:41Z</time>
</trkpt>
<trkpt lat="46.3867392" lon="8.1347424">
<ele>1294.000000</ele>
<time>2018-08-14T11:55:51Z</time>
</trkpt>
<trkpt lat="46.3867424" lon="8.1346128">
<ele>1293.000000</ele>
<time>2018-08-14T11:56:01Z</time>
</trkpt>
<trkpt lat="46.3867296" lon="8.1344232">
<ele>1293.000000</ele>
<time>2018-08-14T11:56:11Z</time>
</trkpt>
<trkpt lat="46.3869120" lon="8.1343416">
<ele>1292.000000</ele>
<time>2018-08-14T11:56:19Z</time>
</trkpt>
<trkpt lat="46.3868384" lon="8.1342328">
<ele>1293.000000</ele>
<time>2018-08-14T11:56:29Z</time>
</trkpt>
<trkpt lat="46.3868736" lon="8.1341096">
<ele>1291.000000</ele>
<time>2018-08-14T11:56:39Z</time>
</trkpt>
<trkpt lat="46.3868320" lon="8.1338624">
<ele>1290.000000</ele>
<time>2018-08-14T11:56:49Z</time>
</trkpt>
<trkpt lat="46.3868192" lon="8.1338176">
<ele>1289.000000</ele>
<time>2018-08-14T11:56:59Z</time>
</trkpt>
<trkpt lat="46.3867616" lon="8.1336616">
<ele>1288.000000</ele>
<time>2018-08-14T11:57:09Z</time>
</trkpt>
<trkpt lat="46.3867456" lon="8.1334744">
<ele>1287.000000</ele>
<time>2018-08-14T11:57:19Z</time>
</trkpt>
<trkpt lat="46.3867264" lon="8.1334048">
<ele>1287.000000</ele>
<time>2018-08-14T11:57:29Z</time>
</trkpt>
<trkpt lat="46.3866144" lon="8.1331952">
<ele>1287.000000</ele>
<time>2018-08-14T11:57:39Z</time>
</trkpt>
<trkpt lat="46.3864544" lon="8.1331600">
<ele>1287.000000</ele>
<time>2018-08-14T11:57:49Z</time>
</trkpt>
<trkpt lat="46.3864448" lon="8.1331512">
<ele>1287.000000</ele>
<time>2018-08-14T11:57:51Z</time>
</trkpt>
<trkpt lat="46.3863968" lon="8.1330568">
<ele>1287.000000</ele>
<time>2018-08-14T11:58:01Z</time>
</trkpt>
<trkpt lat="46.3863040" lon="8.1329592">
<ele>1287.000000</ele>
<time>2018-08-14T11:58:11Z</time>
</trkpt>
<trkpt lat="46.3862816" lon="8.1329440">
<ele>1287.000000</ele>
<time>2018-08-14T11:58:17Z</time>
</trkpt>
<trkpt lat="46.3862944" lon="8.1329568">
<ele>1288.000000</ele>
<time>2018-08-14T11:58:19Z</time>
</trkpt>
<trkpt lat="46.3863552" lon="8.1329776">
<ele>1287.000000</ele>
<time>2018-08-14T11:58:59Z</time>
</trkpt>
<trkpt lat="46.3862560" lon="8.1329056">
<ele>1287.000000</ele>
<time>2018-08-14T11:59:09Z</time>
</trkpt>
<trkpt lat="46.3861440" lon="8.1327712">
<ele>1287.000000</ele>
<time>2018-08-14T11:59:19Z</time>
</trkpt>
<trkpt lat="46.3860544" lon="8.1325528">
<ele>1287.000000</ele>
<time>2018-08-14T11:59:29Z</time>
</trkpt>
<trkpt lat="46.3859712" lon="8.1324688">
<ele>1287.000000</ele>
<time>2018-08-14T11:59:39Z</time>
</trkpt>
<trkpt lat="46.3858688" lon="8.1323880">
<ele>1287.000000</ele>
<time>2018-08-14T11:59:49Z</time>
</trkpt>
<trkpt lat="46.3857344" lon="8.1323080">
<ele>1287.000000</ele>
<time>2018-08-14T11:59:59Z</time>
</trkpt>
<trkpt lat="46.3856128" lon="8.1323240">
<ele>1287.000000</ele>
<time>2018-08-14T12:00:09Z</time>
</trkpt>
<trkpt lat="46.3855072" lon="8.1323544">
<ele>1287.000000</ele>
<time>2018-08-14T12:00:19Z</time>
</trkpt>
<trkpt lat="46.3854752" lon="8.1322776">
<ele>1286.000000</ele>
<time>2018-08-14T12:00:29Z</time>
</trkpt>
<trkpt lat="46.3855200" lon="8.1322440">
<ele>1286.000000</ele>
<time>2018-08-14T12:00:50Z</time>
</trkpt>
<trkpt lat="46.3855136" lon="8.1322416">
<ele>1287.000000</ele>
<time>2018-08-14T12:02:33Z</time>
</trkpt>
<trkpt lat="46.3854720" lon="8.1322040">
<ele>1287.000000</ele>
<time>2018-08-14T12:03:40Z</time>
</trkpt>
<trkpt lat="46.3856704" lon="8.1322712">
<ele>1287.000000</ele>
<time>2018-08-14T12:03:47Z</time>
</trkpt>
<trkpt lat="46.3858496" lon="8.1322792">
<ele>1286.000000</ele>
<time>2018-08-14T12:03:55Z</time>
</trkpt>
<trkpt lat="46.3858560" lon="8.1322664">
<ele>1286.000000</ele>
<time>2018-08-14T12:04:05Z</time>
</trkpt>
<trkpt lat="46.3858048" lon="8.1320136">
<ele>1286.000000</ele>
<time>2018-08-14T12:04:13Z</time>
</trkpt>
<trkpt lat="46.3858336" lon="8.1318912">
<ele>1285.000000</ele>
<time>2018-08-14T12:04:23Z</time>
</trkpt>
<trkpt lat="46.3857600" lon="8.1317576">
<ele>1285.000000</ele>
<time>2018-08-14T12:04:33Z</time>
</trkpt>
<trkpt lat="46.3857472" lon="8.1319296">
<ele>1283.000000</ele>
<time>2018-08-14T12:04:43Z</time>
</trkpt>
<trkpt lat="46.3855616" lon="8.1319048">
<ele>1282.000000</ele>
<time>2018-08-14T12:04:53Z</time>
</trkpt>
<trkpt lat="46.3854624" lon="8.1319112">
<ele>1281.000000</ele>
<time>2018-08-14T12:05:03Z</time>
</trkpt>
<trkpt lat="46.3853408" lon="8.1318280">
<ele>1280.000000</ele>
<time>2018-08-14T12:05:13Z</time>
</trkpt>
<trkpt lat="46.3853568" lon="8.1318608">
<ele>1280.000000</ele>
<time>2018-08-14T12:05:59Z</time>
</trkpt>
<trkpt lat="46.3852000" lon="8.1318128">
<ele>1279.000000</ele>
<time>2018-08-14T12:06:09Z</time>
</trkpt>
<trkpt lat="46.3850432" lon="8.1317552">
<ele>1279.000000</ele>
<time>2018-08-14T12:06:19Z</time>
</trkpt>
<trkpt lat="46.3849440" lon="8.1317728">
<ele>1278.000000</ele>
<time>2018-08-14T12:06:48Z</time>
</trkpt>
<trkpt lat="46.3849632" lon="8.1318608">
<ele>1278.000000</ele>
<time>2018-08-14T12:06:58Z</time>
</trkpt>
<trkpt lat="46.3851168" lon="8.1317400">
<ele>1277.000000</ele>
<time>2018-08-14T12:07:08Z</time>
</trkpt>
<trkpt lat="46.3852992" lon="8.1317080">
<ele>1276.000000</ele>
<time>2018-08-14T12:07:14Z</time>
</trkpt>
<trkpt lat="46.3854336" lon="8.1315344">
<ele>1273.000000</ele>
<time>2018-08-14T12:07:23Z</time>
</trkpt>
<trkpt lat="46.3855712" lon="8.1313112">
<ele>1269.000000</ele>
<time>2018-08-14T12:07:32Z</time>
</trkpt>
<trkpt lat="46.3855360" lon="8.1312832">
<ele>1265.000000</ele>
<time>2018-08-14T12:07:42Z</time>
</trkpt>
<trkpt lat="46.3855296" lon="8.1313584">
<ele>1264.000000</ele>
<time>2018-08-14T12:07:53Z</time>
</trkpt>
<trkpt lat="46.3855136" lon="8.1313456">
<ele>1264.000000</ele>
<time>2018-08-14T12:08:23Z</time>
</trkpt>
<trkpt lat="46.3854976" lon="8.1311424">
<ele>1263.000000</ele>
<time>2018-08-14T12:08:33Z</time>
</trkpt>
<trkpt lat="46.3854432" lon="8.1309192">
<ele>1262.000000</ele>
<time>2018-08-14T12:08:43Z</time>
</trkpt>
<trkpt lat="46.3855136" lon="8.1307296">
<ele>1260.000000</ele>
<time>2018-08-14T12:08:53Z</time>
</trkpt>
<trkpt lat="46.3855584" lon="8.1306632">
<ele>1258.000000</ele>
<time>2018-08-14T12:09:03Z</time>
</trkpt>
<trkpt lat="46.3856544" lon="8.1306000">
<ele>1258.000000</ele>
<time>2018-08-14T12:09:13Z</time>
</trkpt>
<trkpt lat="46.3857216" lon="8.1304848">
<ele>1258.000000</ele>
<time>2018-08-14T12:09:23Z</time>
</trkpt>
<trkpt lat="46.3858784" lon="8.1304312">
<ele>1257.000000</ele>
<time>2018-08-14T12:09:33Z</time>
</trkpt>
<trkpt lat="46.3859072" lon="8.1303128">
<ele>1255.000000</ele>
<time>2018-08-14T12:09:43Z</time>
</trkpt>
<trkpt lat="46.3857664" lon="8.1301528">
<ele>1253.000000</ele>
<time>2018-08-14T12:09:50Z</time>
</trkpt>
<trkpt lat="46.3857152" lon="8.1300296">
<ele>1252.000000</ele>
<time>2018-08-14T12:10:00Z</time>
</trkpt>
<trkpt lat="46.3857344" lon="8.1300528">
<ele>1251.000000</ele>
<time>2018-08-14T12:10:13Z</time>
</trkpt>
<trkpt lat="46.3857344" lon="8.1300480">
<ele>1251.000000</ele>
<time>2018-08-14T12:10:25Z</time>
</trkpt>
<trkpt lat="46.3857376" lon="8.1300432">
<ele>1251.000000</ele>
<time>2018-08-14T12:10:35Z</time>
</trkpt>
<trkpt lat="46.3856416" lon="8.1299744">
<ele>1251.000000</ele>
<time>2018-08-14T12:10:51Z</time>
</trkpt>
<trkpt lat="46.3856352" lon="8.1299496">
<ele>1251.000000</ele>
<time>2018-08-14T12:11:01Z</time>
</trkpt>
<trkpt lat="46.3855808" lon="8.1300096">
<ele>1251.000000</ele>
<time>2018-08-14T12:11:08Z</time>
</trkpt>
<trkpt lat="46.3855520" lon="8.1300592">
<ele>1251.000000</ele>
<time>2018-08-14T12:11:11Z</time>
</trkpt>
<trkpt lat="46.3855360" lon="8.1300992">
<ele>1252.000000</ele>
<time>2018-08-14T12:11:13Z</time>
</trkpt>
<trkpt lat="46.3855744" lon="8.1300728">
<ele>1252.000000</ele>
<time>2018-08-14T12:13:01Z</time>
</trkpt>
<trkpt lat="46.3855008" lon="8.1299648">
<ele>1252.000000</ele>
<time>2018-08-14T12:13:11Z</time>
</trkpt>
<trkpt lat="46.3854432" lon="8.1297872">
<ele>1252.000000</ele>
<time>2018-08-14T12:13:21Z</time>
</trkpt>
<trkpt lat="46.3854560" lon="8.1297576">
<ele>1252.000000</ele>
<time>2018-08-14T12:13:34Z</time>
</trkpt>
<trkpt lat="46.3853408" lon="8.1297176">
<ele>1251.000000</ele>
<time>2018-08-14T12:13:44Z</time>
</trkpt>
<trkpt lat="46.3852352" lon="8.1297928">
<ele>1251.000000</ele>
<time>2018-08-14T12:13:54Z</time>
</trkpt>
<trkpt lat="46.3851168" lon="8.1295880">
<ele>1251.000000</ele>
<time>2018-08-14T12:14:03Z</time>
</trkpt>
<trkpt lat="46.3850016" lon="8.1295512">
<ele>1251.000000</ele>
<time>2018-08-14T12:14:13Z</time>
</trkpt>
<trkpt lat="46.3849408" lon="8.1295744">
<ele>1250.000000</ele>
<time>2018-08-14T12:14:34Z</time>
</trkpt>
<trkpt lat="46.3849440" lon="8.1295744">
<ele>1250.000000</ele>
<time>2018-08-14T12:14:52Z</time>
</trkpt>
<trkpt lat="46.3849664" lon="8.1295512">
<ele>1250.000000</ele>
<time>2018-08-14T12:15:04Z</time>
</trkpt>
<trkpt lat="46.3849440" lon="8.1295112">
<ele>1250.000000</ele>
<time>2018-08-14T12:15:27Z</time>
</trkpt>
<trkpt lat="46.3849376" lon="8.1295664">
<ele>1251.000000</ele>
<time>2018-08-14T12:17:35Z</time>
</trkpt>
<trkpt lat="46.3849408" lon="8.1295680">
<ele>1251.000000</ele>
<time>2018-08-14T12:18:38Z</time>
</trkpt>
<trkpt lat="46.3849440" lon="8.1295616">
<ele>1251.000000</ele>
<time>2018-08-14T12:20:54Z</time>
</trkpt>
<trkpt lat="46.3849472" lon="8.1295712">
<ele>1249.000000</ele>
<time>2018-08-14T12:21:18Z</time>
</trkpt>
<trkpt lat="46.3849536" lon="8.1295728">
<ele>1249.000000</ele>
<time>2018-08-14T12:24:05Z</time>
</trkpt>
<trkpt lat="46.3849440" lon="8.1295728">
<ele>1249.000000</ele>
<time>2018-08-14T12:24:15Z</time>
</trkpt>
<trkpt lat="46.3849440" lon="8.1295776">
<ele>1250.000000</ele>
<time>2018-08-14T12:25:15Z</time>
</trkpt>
<trkpt lat="46.3848448" lon="8.1296216">
<ele>1249.000000</ele>
<time>2018-08-14T12:25:25Z</time>
</trkpt>
<trkpt lat="46.3848384" lon="8.1296216">
<ele>1250.000000</ele>
<time>2018-08-14T12:25:41Z</time>
</trkpt>
<trkpt lat="46.3850112" lon="8.1295592">
<ele>1249.000000</ele>
<time>2018-08-14T12:25:51Z</time>
</trkpt>
<trkpt lat="46.3851008" lon="8.1293328">
<ele>1249.000000</ele>
<time>2018-08-14T12:26:01Z</time>
</trkpt>
<trkpt lat="46.3849664" lon="8.1292384">
<ele>1250.000000</ele>
<time>2018-08-14T12:26:11Z</time>
</trkpt>
<trkpt lat="46.3850016" lon="8.1291672">
<ele>1249.000000</ele>
<time>2018-08-14T12:26:21Z</time>
</trkpt>
<trkpt lat="46.3850016" lon="8.1290960">
<ele>1248.000000</ele>
<time>2018-08-14T12:26:31Z</time>
</trkpt>
<trkpt lat="46.3850432" lon="8.1289616">
<ele>1248.000000</ele>
<time>2018-08-14T12:26:41Z</time>
</trkpt>
<trkpt lat="46.3850304" lon="8.1288864">
<ele>1248.000000</ele>
<time>2018-08-14T12:26:51Z</time>
</trkpt>
<trkpt lat="46.3851264" lon="8.1286456">
<ele>1247.000000</ele>
<time>2018-08-14T12:27:02Z</time>
</trkpt>
<trkpt lat="46.3850752" lon="8.1286360">
<ele>1247.000000</ele>
<time>2018-08-14T12:27:19Z</time>
</trkpt>
<trkpt lat="46.3850560" lon="8.1286112">
<ele>1247.000000</ele>
<time>2018-08-14T12:27:49Z</time>
</trkpt>
<trkpt lat="46.3850944" lon="8.1285280">
<ele>1247.000000</ele>
<time>2018-08-14T12:27:59Z</time>
</trkpt>
<trkpt lat="46.3851168" lon="8.1285312">
<ele>1247.000000</ele>
<time>2018-08-14T12:28:22Z</time>
</trkpt>
<trkpt lat="46.3850592" lon="8.1286208">
<ele>1246.000000</ele>
<time>2018-08-14T12:28:32Z</time>
</trkpt>
<trkpt lat="46.3850400" lon="8.1285656">
<ele>1246.000000</ele>
<time>2018-08-14T12:29:10Z</time>
</trkpt>
<trkpt lat="46.3849568" lon="8.1286112">
<ele>1246.000000</ele>
<time>2018-08-14T12:29:20Z</time>
</trkpt>
<trkpt lat="46.3847840" lon="8.1286448">
<ele>1246.000000</ele>
<time>2018-08-14T12:29:30Z</time>
</trkpt>
<trkpt lat="46.3846464" lon="8.1286584">
<ele>1246.000000</ele>
<time>2018-08-14T12:29:40Z</time>
</trkpt>
<trkpt lat="46.3846592" lon="8.1286432">
<ele>1246.000000</ele>
<time>2018-08-14T12:29:54Z</time>
</trkpt>
<trkpt lat="46.3845632" lon="8.1285392">
<ele>1246.000000</ele>
<time>2018-08-14T12:30:04Z</time>
</trkpt>
<trkpt lat="46.3844544" lon="8.1285008">
<ele>1245.000000</ele>
<time>2018-08-14T12:30:14Z</time>
</trkpt>
<trkpt lat="46.3844288" lon="8.1284424">
<ele>1246.000000</ele>
<time>2018-08-14T12:30:24Z</time>
</trkpt>
<trkpt lat="46.3843648" lon="8.1283728">
<ele>1246.000000</ele>
<time>2018-08-14T12:30:34Z</time>
</trkpt>
<trkpt lat="46.3843104" lon="8.1282064">
<ele>1246.000000</ele>
<time>2018-08-14T12:30:44Z</time>
</trkpt>
<trkpt lat="46.3842688" lon="8.1280712">
<ele>1246.000000</ele>
<time>2018-08-14T12:30:54Z</time>
</trkpt>
<trkpt lat="46.3842400" lon="8.1280640">
<ele>1245.000000</ele>
<time>2018-08-14T12:31:04Z</time>
</trkpt>
<trkpt lat="46.3843072" lon="8.1280328">
<ele>1246.000000</ele>
<time>2018-08-14T12:31:14Z</time>
</trkpt>
<trkpt lat="46.3842880" lon="8.1281176">
<ele>1245.000000</ele>
<time>2018-08-14T12:31:25Z</time>
</trkpt>
<trkpt lat="46.3842976" lon="8.1282288">
<ele>1246.000000</ele>
<time>2018-08-14T12:31:35Z</time>
</trkpt>
<trkpt lat="46.3843008" lon="8.1281568">
<ele>1246.000000</ele>
<time>2018-08-14T12:31:45Z</time>
</trkpt>
<trkpt lat="46.3842848" lon="8.1280416">
<ele>1246.000000</ele>
<time>2018-08-14T12:31:55Z</time>
</trkpt>
<trkpt lat="46.3843200" lon="8.1279544">
<ele>1246.000000</ele>
<time>2018-08-14T12:32:07Z</time>
</trkpt>
<trkpt lat="46.3843072" lon="8.1278856">
<ele>1246.000000</ele>
<time>2018-08-14T12:32:18Z</time>
</trkpt>
<trkpt lat="46.3843200" lon="8.1278592">
<ele>1246.000000</ele>
<time>2018-08-14T12:32:31Z</time>
</trkpt>
<trkpt lat="46.3843104" lon="8.1278560">
<ele>1246.000000</ele>
<time>2018-08-14T12:32:53Z</time>
</trkpt>
<trkpt lat="46.3843712" lon="8.1277672">
<ele>1245.000000</ele>
<time>2018-08-14T12:33:03Z</time>
</trkpt>
<trkpt lat="46.3843808" lon="8.1277176">
<ele>1246.000000</ele>
<time>2018-08-14T12:33:13Z</time>
</trkpt>
<trkpt lat="46.3843808" lon="8.1276216">
<ele>1246.000000</ele>
<time>2018-08-14T12:33:23Z</time>
</trkpt>
<trkpt lat="46.3843776" lon="8.1275152">
<ele>1246.000000</ele>
<time>2018-08-14T12:33:33Z</time>
</trkpt>
<trkpt lat="46.3843360" lon="8.1275016">
<ele>1246.000000</ele>
<time>2018-08-14T12:33:43Z</time>
</trkpt>
<trkpt lat="46.3843840" lon="8.1273480">
<ele>1247.000000</ele>
<time>2018-08-14T12:33:53Z</time>
</trkpt>
<trkpt lat="46.3843904" lon="8.1273368">
<ele>1247.000000</ele>
<time>2018-08-14T12:34:07Z</time>
</trkpt>
<trkpt lat="46.3844096" lon="8.1271696">
<ele>1247.000000</ele>
<time>2018-08-14T12:34:17Z</time>
</trkpt>
<trkpt lat="46.3844288" lon="8.1271296">
<ele>1246.000000</ele>
<time>2018-08-14T12:34:33Z</time>
</trkpt>
<trkpt lat="46.3844480" lon="8.1271232">
<ele>1246.000000</ele>
<time>2018-08-14T12:34:57Z</time>
</trkpt>
<trkpt lat="46.3844416" lon="8.1271248">
<ele>1246.000000</ele>
<time>2018-08-14T12:35:21Z</time>
</trkpt>
<trkpt lat="46.3844768" lon="8.1271160">
<ele>1245.000000</ele>
<time>2018-08-14T12:35:32Z</time>
</trkpt>
<trkpt lat="46.3844192" lon="8.1270584">
<ele>1246.000000</ele>
<time>2018-08-14T12:35:42Z</time>
</trkpt>
<trkpt lat="46.3843072" lon="8.1269664">
<ele>1246.000000</ele>
<time>2018-08-14T12:35:52Z</time>
</trkpt>
<trkpt lat="46.3843040" lon="8.1268880">
<ele>1246.000000</ele>
<time>2018-08-14T12:36:02Z</time>
</trkpt>
<trkpt lat="46.3843072" lon="8.1268080">
<ele>1246.000000</ele>
<time>2018-08-14T12:36:13Z</time>
</trkpt>
<trkpt lat="46.3842688" lon="8.1266440">
<ele>1246.000000</ele>
<time>2018-08-14T12:36:23Z</time>
</trkpt>
<trkpt lat="46.3842112" lon="8.1265192">
<ele>1247.000000</ele>
<time>2018-08-14T12:36:33Z</time>
</trkpt>
<trkpt lat="46.3841184" lon="8.1264848">
<ele>1247.000000</ele>
<time>2018-08-14T12:36:46Z</time>
</trkpt>
<trkpt lat="46.3841184" lon="8.1264880">
<ele>1247.000000</ele>
<time>2018-08-14T12:37:28Z</time>
</trkpt>
<trkpt lat="46.3841056" lon="8.1264680">
<ele>1247.000000</ele>
<time>2018-08-14T12:37:31Z</time>
</trkpt>
<trkpt lat="46.3840992" lon="8.1265328">
<ele>1248.000000</ele>
<time>2018-08-14T12:41:00Z</time>
</trkpt>
<trkpt lat="46.3841632" lon="8.1264544">
<ele>1248.000000</ele>
<time>2018-08-14T12:41:10Z</time>
</trkpt>
<trkpt lat="46.3842496" lon="8.1264192">
<ele>1248.000000</ele>
<time>2018-08-14T12:41:20Z</time>
</trkpt>
<trkpt lat="46.3843168" lon="8.1262112">
<ele>1247.000000</ele>
<time>2018-08-14T12:41:30Z</time>
</trkpt>
<trkpt lat="46.3843456" lon="8.1260816">
<ele>1247.000000</ele>
<time>2018-08-14T12:41:40Z</time>
</trkpt>
<trkpt lat="46.3843552" lon="8.1260480">
<ele>1247.000000</ele>
<time>2018-08-14T12:41:50Z</time>
</trkpt>
<trkpt lat="46.3843296" lon="8.1260168">
<ele>1247.000000</ele>
<time>2018-08-14T12:42:09Z</time>
</trkpt>
<trkpt lat="46.3843296" lon="8.1260168">
<ele>1247.000000</ele>
<time>2018-08-14T12:42:19Z</time>
</trkpt>
<trkpt lat="46.3843296" lon="8.1259744">
<ele>1246.000000</ele>
<time>2018-08-14T12:42:29Z</time>
</trkpt>
<trkpt lat="46.3843488" lon="8.1260664">
<ele>1246.000000</ele>
<time>2018-08-14T12:42:39Z</time>
</trkpt>
<trkpt lat="46.3843808" lon="8.1262600">
<ele>1246.000000</ele>
<time>2018-08-14T12:42:49Z</time>
</trkpt>
<trkpt lat="46.3844384" lon="8.1262248">
<ele>1246.000000</ele>
<time>2018-08-14T12:42:59Z</time>
</trkpt>
<trkpt lat="46.3844832" lon="8.1262464">
<ele>1246.000000</ele>
<time>2018-08-14T12:43:09Z</time>
</trkpt>
<trkpt lat="46.3845792" lon="8.1263848">
<ele>1246.000000</ele>
<time>2018-08-14T12:43:19Z</time>
</trkpt>
<trkpt lat="46.3846656" lon="8.1264608">
<ele>1247.000000</ele>
<time>2018-08-14T12:43:29Z</time>
</trkpt>
<trkpt lat="46.3846848" lon="8.1265232">
<ele>1248.000000</ele>
<time>2018-08-14T12:44:13Z</time>
</trkpt>
<trkpt lat="46.3847008" lon="8.1265496">
<ele>1248.000000</ele>
<time>2018-08-14T12:44:50Z</time>
</trkpt>
<trkpt lat="46.3847008" lon="8.1265048">
<ele>1248.000000</ele>
<time>2018-08-14T12:46:56Z</time>
</trkpt>
<trkpt lat="46.3847040" lon="8.1265008">
<ele>1248.000000</ele>
<time>2018-08-14T12:47:51Z</time>
</trkpt>
<trkpt lat="46.3847040" lon="8.1265008">
<ele>1248.000000</ele>
<time>2018-08-14T12:48:25Z</time>
</trkpt>
<trkpt lat="46.3847168" lon="8.1265080">
<ele>1248.000000</ele>
<time>2018-08-14T12:49:14Z</time>
</trkpt>
<trkpt lat="46.3847232" lon="8.1265256">
<ele>1248.000000</ele>
<time>2018-08-14T12:50:23Z</time>
</trkpt>
<trkpt lat="46.3847232" lon="8.1265248">
<ele>1248.000000</ele>
<time>2018-08-14T12:52:07Z</time>
</trkpt>
<trkpt lat="46.3847232" lon="8.1265232">
<ele>1248.000000</ele>
<time>2018-08-14T12:52:19Z</time>
</trkpt>
<trkpt lat="46.3847264" lon="8.1265056">
<ele>1248.000000</ele>
<time>2018-08-14T12:52:29Z</time>
</trkpt>
<trkpt lat="46.3847200" lon="8.1265160">
<ele>1248.000000</ele>
<time>2018-08-14T12:52:42Z</time>
</trkpt>
<trkpt lat="46.3847200" lon="8.1265128">
<ele>1248.000000</ele>
<time>2018-08-14T12:52:52Z</time>
</trkpt>
<trkpt lat="46.3847168" lon="8.1265160">
<ele>1248.000000</ele>
<time>2018-08-14T12:53:10Z</time>
</trkpt>
<trkpt lat="46.3847200" lon="8.1265144">
<ele>1248.000000</ele>
<time>2018-08-14T12:56:01Z</time>
</trkpt>
<trkpt lat="46.3847200" lon="8.1265112">
<ele>1248.000000</ele>
<time>2018-08-14T12:56:33Z</time>
</trkpt>
<trkpt lat="46.3847040" lon="8.1265128">
<ele>1249.000000</ele>
<time>2018-08-14T12:57:24Z</time>
</trkpt>
<trkpt lat="46.3847072" lon="8.1265032">
<ele>1249.000000</ele>
<time>2018-08-14T13:01:12Z</time>
</trkpt>
<trkpt lat="46.3847232" lon="8.1265728">
<ele>1249.000000</ele>
<time>2018-08-14T13:01:22Z</time>
</trkpt>
<trkpt lat="46.3847744" lon="8.1266280">
<ele>1249.000000</ele>
<time>2018-08-14T13:01:32Z</time>
</trkpt>
<trkpt lat="46.3848000" lon="8.1267216">
<ele>1249.000000</ele>
<time>2018-08-14T13:01:42Z</time>
</trkpt>
<trkpt lat="46.3847776" lon="8.1267624">
<ele>1249.000000</ele>
<time>2018-08-14T13:01:52Z</time>
</trkpt>
<trkpt lat="46.3847616" lon="8.1267712">
<ele>1249.000000</ele>
<time>2018-08-14T13:02:02Z</time>
</trkpt>
<trkpt lat="46.3847744" lon="8.1269112">
<ele>1249.000000</ele>
<time>2018-08-14T13:02:12Z</time>
</trkpt>
<trkpt lat="46.3847744" lon="8.1269496">
<ele>1249.000000</ele>
<time>2018-08-14T13:02:23Z</time>
</trkpt>
<trkpt lat="46.3847744" lon="8.1269600">
<ele>1249.000000</ele>
<time>2018-08-14T13:02:39Z</time>
</trkpt>
<trkpt lat="46.3847680" lon="8.1270176">
<ele>1249.000000</ele>
<time>2018-08-14T13:03:01Z</time>
</trkpt>
<trkpt lat="46.3847648" lon="8.1270312">
<ele>1248.000000</ele>
<time>2018-08-14T13:03:11Z</time>
</trkpt>
<trkpt lat="46.3845152" lon="8.1268624">
<ele>1249.000000</ele>
<time>2018-08-14T13:03:25Z</time>
</trkpt>
<trkpt lat="46.3846624" lon="8.1268688">
<ele>1249.000000</ele>
<time>2018-08-14T13:03:42Z</time>
</trkpt>
<trkpt lat="46.3847168" lon="8.1268976">
<ele>1249.000000</ele>
<time>2018-08-14T13:04:04Z</time>
</trkpt>
<trkpt lat="46.3847584" lon="8.1269064">
<ele>1249.000000</ele>
<time>2018-08-14T13:04:14Z</time>
</trkpt>
<trkpt lat="46.3847648" lon="8.1268776">
<ele>1249.000000</ele>
<time>2018-08-14T13:05:11Z</time>
</trkpt>
<trkpt lat="46.3848224" lon="8.1268416">
<ele>1249.000000</ele>
<time>2018-08-14T13:05:47Z</time>
</trkpt>
<trkpt lat="46.3848000" lon="8.1270096">
<ele>1249.000000</ele>
<time>2018-08-14T13:05:58Z</time>
</trkpt>
<trkpt lat="46.3848000" lon="8.1270312">
<ele>1249.000000</ele>
<time>2018-08-14T13:06:26Z</time>
</trkpt>
<trkpt lat="46.3847680" lon="8.1271208">
<ele>1249.000000</ele>
<time>2018-08-14T13:06:36Z</time>
</trkpt>
<trkpt lat="46.3848160" lon="8.1273104">
<ele>1249.000000</ele>
<time>2018-08-14T13:06:46Z</time>
</trkpt>
<trkpt lat="46.3848800" lon="8.1274512">
<ele>1249.000000</ele>
<time>2018-08-14T13:06:56Z</time>
</trkpt>
<trkpt lat="46.3849248" lon="8.1275864">
<ele>1249.000000</ele>
<time>2018-08-14T13:07:06Z</time>
</trkpt>
<trkpt lat="46.3849376" lon="8.1276472">
<ele>1249.000000</ele>
<time>2018-08-14T13:07:16Z</time>
</trkpt>
<trkpt lat="46.3848928" lon="8.1277144">
<ele>1249.000000</ele>
<time>2018-08-14T13:07:26Z</time>
</trkpt>
<trkpt lat="46.3849120" lon="8.1277272">
<ele>1249.000000</ele>
<time>2018-08-14T13:07:36Z</time>
</trkpt>
<trkpt lat="46.3849376" lon="8.1279048">
<ele>1249.000000</ele>
<time>2018-08-14T13:07:46Z</time>
</trkpt>
<trkpt lat="46.3849984" lon="8.1279696">
<ele>1251.000000</ele>
<time>2018-08-14T13:08:21Z</time>
</trkpt>
<trkpt lat="46.3850560" lon="8.1280816">
<ele>1250.000000</ele>
<time>2018-08-14T13:08:31Z</time>
</trkpt>
<trkpt lat="46.3850752" lon="8.1281128">
<ele>1250.000000</ele>
<time>2018-08-14T13:08:42Z</time>
</trkpt>
<trkpt lat="46.3851200" lon="8.1281840">
<ele>1249.000000</ele>
<time>2018-08-14T13:08:52Z</time>
</trkpt>
<trkpt lat="46.3851392" lon="8.1282192">
<ele>1250.000000</ele>
<time>2018-08-14T13:09:16Z</time>
</trkpt>
<trkpt lat="46.3851616" lon="8.1282528">
<ele>1249.000000</ele>
<time>2018-08-14T13:09:26Z</time>
</trkpt>
<trkpt lat="46.3851456" lon="8.1283400">
<ele>1249.000000</ele>
<time>2018-08-14T13:09:36Z</time>
</trkpt>
<trkpt lat="46.3851552" lon="8.1284008">
<ele>1249.000000</ele>
<time>2018-08-14T13:09:46Z</time>
</trkpt>
<trkpt lat="46.3852192" lon="8.1285496">
<ele>1248.000000</ele>
<time>2018-08-14T13:09:56Z</time>
</trkpt>
<trkpt lat="46.3850816" lon="8.1285160">
<ele>1248.000000</ele>
<time>2018-08-14T13:10:06Z</time>
</trkpt>
<trkpt lat="46.3850304" lon="8.1286256">
<ele>1247.000000</ele>
<time>2018-08-14T13:10:16Z</time>
</trkpt>
<trkpt lat="46.3851136" lon="8.1288080">
<ele>1246.000000</ele>
<time>2018-08-14T13:10:26Z</time>
</trkpt>
<trkpt lat="46.3851008" lon="8.1289664">
<ele>1247.000000</ele>
<time>2018-08-14T13:10:36Z</time>
</trkpt>
<trkpt lat="46.3851104" lon="8.1290512">
<ele>1249.000000</ele>
<time>2018-08-14T13:10:46Z</time>
</trkpt>
<trkpt lat="46.3851552" lon="8.1291448">
<ele>1248.000000</ele>
<time>2018-08-14T13:10:56Z</time>
</trkpt>
<trkpt lat="46.3852032" lon="8.1292744">
<ele>1248.000000</ele>
<time>2018-08-14T13:11:06Z</time>
</trkpt>
<trkpt lat="46.3851968" lon="8.1293608">
<ele>1249.000000</ele>
<time>2018-08-14T13:11:16Z</time>
</trkpt>
<trkpt lat="46.3852736" lon="8.1293904">
<ele>1250.000000</ele>
<time>2018-08-14T13:11:26Z</time>
</trkpt>
<trkpt lat="46.3853888" lon="8.1294992">
<ele>1251.000000</ele>
<time>2018-08-14T13:11:36Z</time>
</trkpt>
<trkpt lat="46.3854208" lon="8.1296080">
<ele>1252.000000</ele>
<time>2018-08-14T13:11:46Z</time>
</trkpt>
<trkpt lat="46.3855104" lon="8.1296664">
<ele>1251.000000</ele>
<time>2018-08-14T13:11:56Z</time>
</trkpt>
<trkpt lat="46.3855616" lon="8.1298544">
<ele>1251.000000</ele>
<time>2018-08-14T13:12:06Z</time>
</trkpt>
<trkpt lat="46.3855968" lon="8.1299608">
<ele>1251.000000</ele>
<time>2018-08-14T13:12:16Z</time>
</trkpt>
<trkpt lat="46.3855744" lon="8.1299480">
<ele>1250.000000</ele>
<time>2018-08-14T13:12:26Z</time>
</trkpt>
<trkpt lat="46.3855584" lon="8.1299808">
<ele>1248.000000</ele>
<time>2018-08-14T13:15:18Z</time>
</trkpt>
<trkpt lat="46.3856000" lon="8.1300128">
<ele>1248.000000</ele>
<time>2018-08-14T13:16:53Z</time>
</trkpt>
<trkpt lat="46.3855904" lon="8.1300008">
<ele>1248.000000</ele>
<time>2018-08-14T13:17:44Z</time>
</trkpt>
<trkpt lat="46.3855872" lon="8.1300032">
<ele>1248.000000</ele>
<time>2018-08-14T13:17:54Z</time>
</trkpt>
<trkpt lat="46.3856320" lon="8.1300080">
<ele>1248.000000</ele>
<time>2018-08-14T13:18:04Z</time>
</trkpt>
<trkpt lat="46.3855968" lon="8.1300296">
<ele>1249.000000</ele>
<time>2018-08-14T13:18:14Z</time>
</trkpt>
<trkpt lat="46.3855936" lon="8.1300280">
<ele>1249.000000</ele>
<time>2018-08-14T13:18:31Z</time>
</trkpt>
<trkpt lat="46.3856064" lon="8.1300192">
<ele>1249.000000</ele>
<time>2018-08-14T13:19:22Z</time>
</trkpt>
<trkpt lat="46.3856192" lon="8.1300328">
<ele>1249.000000</ele>
<time>2018-08-14T13:20:15Z</time>
</trkpt>
<trkpt lat="46.3856160" lon="8.1300328">
<ele>1249.000000</ele>
<time>2018-08-14T13:20:28Z</time>
</trkpt>
<trkpt lat="46.3856128" lon="8.1300312">
<ele>1249.000000</ele>
<time>2018-08-14T13:20:45Z</time>
</trkpt>
<trkpt lat="46.3856992" lon="8.1302680">
<ele>1249.000000</ele>
<time>2018-08-14T13:20:55Z</time>
</trkpt>
<trkpt lat="46.3855808" lon="8.1303688">
<ele>1249.000000</ele>
<time>2018-08-14T13:21:05Z</time>
</trkpt>
<trkpt lat="46.3855296" lon="8.1303952">
<ele>1249.000000</ele>
<time>2018-08-14T13:21:15Z</time>
</trkpt>
<trkpt lat="46.3855200" lon="8.1305560">
<ele>1249.000000</ele>
<time>2018-08-14T13:21:25Z</time>
</trkpt>
<trkpt lat="46.3854080" lon="8.1306712">
<ele>1249.000000</ele>
<time>2018-08-14T13:21:35Z</time>
</trkpt>
<trkpt lat="46.3853408" lon="8.1308016">
<ele>1248.000000</ele>
<time>2018-08-14T13:21:45Z</time>
</trkpt>
<trkpt lat="46.3853920" lon="8.1310192">
<ele>1246.000000</ele>
<time>2018-08-14T13:21:55Z</time>
</trkpt>
<trkpt lat="46.3854432" lon="8.1312624">
<ele>1245.000000</ele>
<time>2018-08-14T13:22:05Z</time>
</trkpt>
<trkpt lat="46.3855104" lon="8.1313880">
<ele>1244.000000</ele>
<time>2018-08-14T13:22:15Z</time>
</trkpt>
<trkpt lat="46.3855200" lon="8.1314928">
<ele>1243.000000</ele>
<time>2018-08-14T13:22:41Z</time>
</trkpt>
<trkpt lat="46.3855392" lon="8.1314608">
<ele>1243.000000</ele>
<time>2018-08-14T13:23:16Z</time>
</trkpt>
<trkpt lat="46.3855072" lon="8.1313856">
<ele>1243.000000</ele>
<time>2018-08-14T13:23:27Z</time>
</trkpt>
<trkpt lat="46.3855616" lon="8.1313320">
<ele>1243.000000</ele>
<time>2018-08-14T13:23:57Z</time>
</trkpt>
<trkpt lat="46.3855520" lon="8.1313232">
<ele>1244.000000</ele>
<time>2018-08-14T13:31:55Z</time>
</trkpt>
<trkpt lat="46.3855488" lon="8.1313248">
<ele>1244.000000</ele>
<time>2018-08-14T13:32:05Z</time>
</trkpt>
<trkpt lat="46.3855520" lon="8.1313232">
<ele>1244.000000</ele>
<time>2018-08-14T13:34:13Z</time>
</trkpt>
<trkpt lat="46.3855520" lon="8.1313208">
<ele>1244.000000</ele>
<time>2018-08-14T13:34:42Z</time>
</trkpt>
<trkpt lat="46.3855552" lon="8.1313296">
<ele>1244.000000</ele>
<time>2018-08-14T13:35:18Z</time>
</trkpt>
<trkpt lat="46.3855488" lon="8.1313384">
<ele>1244.000000</ele>
<time>2018-08-14T13:35:41Z</time>
</trkpt>
<trkpt lat="46.3855392" lon="8.1313320">
<ele>1244.000000</ele>
<time>2018-08-14T13:35:54Z</time>
</trkpt>
<trkpt lat="46.3855328" lon="8.1312344">
<ele>1245.000000</ele>
<time>2018-08-14T13:36:07Z</time>
</trkpt>
<trkpt lat="46.3855360" lon="8.1312464">
<ele>1245.000000</ele>
<time>2018-08-14T13:36:40Z</time>
</trkpt>
<trkpt lat="46.3855392" lon="8.1310880">
<ele>1245.000000</ele>
<time>2018-08-14T13:36:56Z</time>
</trkpt>
<trkpt lat="46.3856096" lon="8.1307760">
<ele>1245.000000</ele>
<time>2018-08-14T13:36:59Z</time>
</trkpt>
<trkpt lat="46.3858560" lon="8.1305808">
<ele>1245.000000</ele>
<time>2018-08-14T13:37:01Z</time>
</trkpt>
<trkpt lat="46.3860640" lon="8.1306696">
<ele>1245.000000</ele>
<time>2018-08-14T13:37:03Z</time>
</trkpt>
<trkpt lat="46.3862496" lon="8.1308344">
<ele>1244.000000</ele>
<time>2018-08-14T13:37:05Z</time>
</trkpt>
<trkpt lat="46.3864320" lon="8.1310488">
<ele>1244.000000</ele>
<time>2018-08-14T13:37:07Z</time>
</trkpt>
<trkpt lat="46.3865888" lon="8.1313248">
<ele>1243.000000</ele>
<time>2018-08-14T13:37:09Z</time>
</trkpt>
<trkpt lat="46.3867424" lon="8.1316432">
<ele>1244.000000</ele>
<time>2018-08-14T13:37:11Z</time>
</trkpt>
<trkpt lat="46.3868992" lon="8.1319360">
<ele>1243.000000</ele>
<time>2018-08-14T13:37:13Z</time>
</trkpt>
<trkpt lat="46.3870272" lon="8.1322568">
<ele>1243.000000</ele>
<time>2018-08-14T13:37:15Z</time>
</trkpt>
<trkpt lat="46.3871008" lon="8.1325544">
<ele>1243.000000</ele>
<time>2018-08-14T13:37:17Z</time>
</trkpt>
<trkpt lat="46.3871264" lon="8.1327712">
<ele>1244.000000</ele>
<time>2018-08-14T13:37:27Z</time>
</trkpt>
<trkpt lat="46.3870656" lon="8.1326424">
<ele>1245.000000</ele>
<time>2018-08-14T13:37:37Z</time>
</trkpt>
<trkpt lat="46.3871072" lon="8.1329168">
<ele>1245.000000</ele>
<time>2018-08-14T13:37:44Z</time>
</trkpt>
<trkpt lat="46.3871488" lon="8.1332776">
<ele>1245.000000</ele>
<time>2018-08-14T13:37:47Z</time>
</trkpt>
<trkpt lat="46.3872256" lon="8.1335720">
<ele>1245.000000</ele>
<time>2018-08-14T13:37:49Z</time>
</trkpt>
<trkpt lat="46.3872768" lon="8.1338880">
<ele>1245.000000</ele>
<time>2018-08-14T13:37:51Z</time>
</trkpt>
<trkpt lat="46.3873664" lon="8.1342248">
<ele>1245.000000</ele>
<time>2018-08-14T13:37:53Z</time>
</trkpt>
<trkpt lat="46.3874752" lon="8.1346016">
<ele>1245.000000</ele>
<time>2018-08-14T13:37:55Z</time>
</trkpt>
<trkpt lat="46.3876128" lon="8.1349656">
<ele>1245.000000</ele>
<time>2018-08-14T13:37:57Z</time>
</trkpt>
<trkpt lat="46.3877824" lon="8.1353528">
<ele>1246.000000</ele>
<time>2018-08-14T13:37:59Z</time>
</trkpt>
<trkpt lat="46.3879520" lon="8.1357144">
<ele>1246.000000</ele>
<time>2018-08-14T13:38:01Z</time>
</trkpt>
<trkpt lat="46.3881184" lon="8.1360600">
<ele>1247.000000</ele>
<time>2018-08-14T13:38:03Z</time>
</trkpt>
<trkpt lat="46.3882368" lon="8.1363896">
<ele>1247.000000</ele>
<time>2018-08-14T13:38:05Z</time>
</trkpt>
<trkpt lat="46.3883296" lon="8.1366888">
<ele>1247.000000</ele>
<time>2018-08-14T13:38:07Z</time>
</trkpt>
<trkpt lat="46.3884320" lon="8.1369200">
<ele>1248.000000</ele>
<time>2018-08-14T13:38:09Z</time>
</trkpt>
<trkpt lat="46.3885408" lon="8.1372616">
<ele>1248.000000</ele>
<time>2018-08-14T13:38:12Z</time>
</trkpt>
<trkpt lat="46.3885536" lon="8.1375296">
<ele>1246.000000</ele>
<time>2018-08-14T13:38:14Z</time>
</trkpt>
<trkpt lat="46.3886944" lon="8.1378768">
<ele>1246.000000</ele>
<time>2018-08-14T13:38:17Z</time>
</trkpt>
<trkpt lat="46.3887968" lon="8.1381560">
<ele>1245.000000</ele>
<time>2018-08-14T13:38:20Z</time>
</trkpt>
<trkpt lat="46.3890080" lon="8.1382448">
<ele>1243.000000</ele>
<time>2018-08-14T13:38:24Z</time>
</trkpt>
<trkpt lat="46.3892128" lon="8.1383632">
<ele>1242.000000</ele>
<time>2018-08-14T13:38:27Z</time>
</trkpt>
<trkpt lat="46.3892544" lon="8.1386944">
<ele>1240.000000</ele>
<time>2018-08-14T13:38:31Z</time>
</trkpt>
<trkpt lat="46.3894080" lon="8.1389360">
<ele>1240.000000</ele>
<time>2018-08-14T13:38:34Z</time>
</trkpt>
<trkpt lat="46.3895584" lon="8.1390896">
<ele>1240.000000</ele>
<time>2018-08-14T13:38:36Z</time>
</trkpt>
<trkpt lat="46.3898048" lon="8.1392184">
<ele>1239.000000</ele>
<time>2018-08-14T13:38:39Z</time>
</trkpt>
<trkpt lat="46.3900192" lon="8.1392976">
<ele>1238.000000</ele>
<time>2018-08-14T13:38:41Z</time>
</trkpt>
<trkpt lat="46.3902048" lon="8.1394424">
<ele>1237.000000</ele>
<time>2018-08-14T13:38:43Z</time>
</trkpt>
<trkpt lat="46.3903648" lon="8.1396208">
<ele>1237.000000</ele>
<time>2018-08-14T13:38:45Z</time>
</trkpt>
<trkpt lat="46.3905472" lon="8.1397912">
<ele>1236.000000</ele>
<time>2018-08-14T13:38:47Z</time>
</trkpt>
<trkpt lat="46.3908608" lon="8.1399816">
<ele>1235.000000</ele>
<time>2018-08-14T13:38:51Z</time>
</trkpt>
<trkpt lat="46.3910240" lon="8.1400928">
<ele>1235.000000</ele>
<time>2018-08-14T13:38:53Z</time>
</trkpt>
<trkpt lat="46.3913216" lon="8.1404464">
<ele>1234.000000</ele>
<time>2018-08-14T13:38:57Z</time>
</trkpt>
<trkpt lat="46.3935104" lon="8.1416128">
<ele>1234.000000</ele>
<time>2018-08-14T13:39:15Z</time>
</trkpt>
<trkpt lat="46.3938976" lon="8.1419632">
<ele>1232.000000</ele>
<time>2018-08-14T13:39:16Z</time>
</trkpt>
<trkpt lat="46.3941952" lon="8.1421280">
<ele>1231.000000</ele>
<time>2018-08-14T13:39:18Z</time>
</trkpt>
<trkpt lat="46.3944384" lon="8.1422312">
<ele>1230.000000</ele>
<time>2018-08-14T13:39:20Z</time>
</trkpt>
<trkpt lat="46.3946816" lon="8.1424000">
<ele>1229.000000</ele>
<time>2018-08-14T13:39:22Z</time>
</trkpt>
<trkpt lat="46.3949216" lon="8.1425560">
<ele>1228.000000</ele>
<time>2018-08-14T13:39:24Z</time>
</trkpt>
<trkpt lat="46.3951680" lon="8.1426712">
<ele>1227.000000</ele>
<time>2018-08-14T13:39:26Z</time>
</trkpt>
<trkpt lat="46.3954016" lon="8.1427440">
<ele>1226.000000</ele>
<time>2018-08-14T13:39:28Z</time>
</trkpt>
<trkpt lat="46.3955808" lon="8.1427968">
<ele>1225.000000</ele>
<time>2018-08-14T13:39:30Z</time>
</trkpt>
<trkpt lat="46.3958176" lon="8.1428864">
<ele>1224.000000</ele>
<time>2018-08-14T13:39:33Z</time>
</trkpt>
<trkpt lat="46.3960032" lon="8.1430280">
<ele>1224.000000</ele>
<time>2018-08-14T13:39:36Z</time>
</trkpt>
<trkpt lat="46.3961408" lon="8.1432712">
<ele>1223.000000</ele>
<time>2018-08-14T13:39:39Z</time>
</trkpt>
<trkpt lat="46.3962144" lon="8.1435464">
<ele>1222.000000</ele>
<time>2018-08-14T13:39:41Z</time>
</trkpt>
<trkpt lat="46.3963168" lon="8.1438264">
<ele>1220.000000</ele>
<time>2018-08-14T13:39:43Z</time>
</trkpt>
<trkpt lat="46.3964160" lon="8.1441128">
<ele>1219.000000</ele>
<time>2018-08-14T13:39:45Z</time>
</trkpt>
<trkpt lat="46.3965120" lon="8.1443824">
<ele>1219.000000</ele>
<time>2018-08-14T13:39:47Z</time>
</trkpt>
<trkpt lat="46.3966336" lon="8.1446064">
<ele>1218.000000</ele>
<time>2018-08-14T13:39:49Z</time>
</trkpt>
<trkpt lat="46.3968768" lon="8.1447784">
<ele>1217.000000</ele>
<time>2018-08-14T13:39:52Z</time>
</trkpt>
<trkpt lat="46.3970688" lon="8.1449096">
<ele>1216.000000</ele>
<time>2018-08-14T13:39:54Z</time>
</trkpt>
<trkpt lat="46.3972640" lon="8.1450440">
<ele>1214.000000</ele>
<time>2018-08-14T13:39:56Z</time>
</trkpt>
<trkpt lat="46.3974656" lon="8.1451560">
<ele>1214.000000</ele>
<time>2018-08-14T13:39:58Z</time>
</trkpt>
<trkpt lat="46.3976480" lon="8.1452672">
<ele>1213.000000</ele>
<time>2018-08-14T13:40:00Z</time>
</trkpt>
<trkpt lat="46.3978272" lon="8.1454280">
<ele>1212.000000</ele>
<time>2018-08-14T13:40:02Z</time>
</trkpt>
<trkpt lat="46.3979936" lon="8.1455896">
<ele>1212.000000</ele>
<time>2018-08-14T13:40:04Z</time>
</trkpt>
<trkpt lat="46.3982048" lon="8.1457640">
<ele>1211.000000</ele>
<time>2018-08-14T13:40:07Z</time>
</trkpt>
<trkpt lat="46.3984096" lon="8.1458960">
<ele>1210.000000</ele>
<time>2018-08-14T13:40:11Z</time>
</trkpt>
<trkpt lat="46.3985952" lon="8.1459560">
<ele>1210.000000</ele>
<time>2018-08-14T13:40:15Z</time>
</trkpt>
<trkpt lat="46.3987840" lon="8.1460696">
<ele>1208.000000</ele>
<time>2018-08-14T13:40:20Z</time>
</trkpt>
<trkpt lat="46.3989472" lon="8.1459576">
<ele>1208.000000</ele>
<time>2018-08-14T13:40:25Z</time>
</trkpt>
<trkpt lat="46.3987648" lon="8.1458528">
<ele>1207.000000</ele>
<time>2018-08-14T13:40:36Z</time>
</trkpt>
<trkpt lat="46.3987360" lon="8.1457824">
<ele>1208.000000</ele>
<time>2018-08-14T13:41:11Z</time>
</trkpt>
<trkpt lat="46.3987840" lon="8.1458664">
<ele>1209.000000</ele>
<time>2018-08-14T13:42:09Z</time>
</trkpt>
<trkpt lat="46.3987072" lon="8.1459512">
<ele>1209.000000</ele>
<time>2018-08-14T13:42:19Z</time>
</trkpt>
<trkpt lat="46.3985760" lon="8.1457480">
<ele>1209.000000</ele>
<time>2018-08-14T13:42:27Z</time>
</trkpt>
<trkpt lat="46.3984800" lon="8.1454784">
<ele>1209.000000</ele>
<time>2018-08-14T13:42:32Z</time>
</trkpt>
<trkpt lat="46.3984032" lon="8.1452360">
<ele>1209.000000</ele>
<time>2018-08-14T13:42:40Z</time>
</trkpt>
<trkpt lat="46.3982976" lon="8.1449832">
<ele>1209.000000</ele>
<time>2018-08-14T13:42:46Z</time>
</trkpt>
<trkpt lat="46.3982720" lon="8.1447160">
<ele>1209.000000</ele>
<time>2018-08-14T13:42:50Z</time>
</trkpt>
<trkpt lat="46.3981504" lon="8.1445448">
<ele>1209.000000</ele>
<time>2018-08-14T13:43:00Z</time>
</trkpt>
<trkpt lat="46.3979744" lon="8.1445560">
<ele>1208.000000</ele>
<time>2018-08-14T13:43:04Z</time>
</trkpt>
<trkpt lat="46.3977344" lon="8.1444280">
<ele>1208.000000</ele>
<time>2018-08-14T13:43:07Z</time>
</trkpt>
<trkpt lat="46.3976288" lon="8.1442040">
<ele>1208.000000</ele>
<time>2018-08-14T13:43:09Z</time>
</trkpt>
<trkpt lat="46.3975168" lon="8.1439408">
<ele>1207.000000</ele>
<time>2018-08-14T13:43:11Z</time>
</trkpt>
<trkpt lat="46.3973856" lon="8.1436528">
<ele>1207.000000</ele>
<time>2018-08-14T13:43:13Z</time>
</trkpt>
<trkpt lat="46.3972576" lon="8.1433448">
<ele>1205.000000</ele>
<time>2018-08-14T13:43:15Z</time>
</trkpt>
<trkpt lat="46.3971328" lon="8.1430312">
<ele>1203.000000</ele>
<time>2018-08-14T13:43:17Z</time>
</trkpt>
<trkpt lat="46.3970496" lon="8.1427080">
<ele>1199.000000</ele>
<time>2018-08-14T13:43:19Z</time>
</trkpt>
<trkpt lat="46.3969792" lon="8.1423552">
<ele>1199.000000</ele>
<time>2018-08-14T13:43:21Z</time>
</trkpt>
<trkpt lat="46.3969088" lon="8.1420456">
<ele>1198.000000</ele>
<time>2018-08-14T13:43:23Z</time>
</trkpt>
<trkpt lat="46.3968064" lon="8.1417424">
<ele>1197.000000</ele>
<time>2018-08-14T13:43:25Z</time>
</trkpt>
<trkpt lat="46.3966976" lon="8.1414496">
<ele>1195.000000</ele>
<time>2018-08-14T13:43:27Z</time>
</trkpt>
<trkpt lat="46.3965536" lon="8.1411680">
<ele>1192.000000</ele>
<time>2018-08-14T13:43:29Z</time>
</trkpt>
<trkpt lat="46.3964000" lon="8.1409000">
<ele>1190.000000</ele>
<time>2018-08-14T13:43:31Z</time>
</trkpt>
<trkpt lat="46.3961952" lon="8.1406664">
<ele>1188.000000</ele>
<time>2018-08-14T13:43:33Z</time>
</trkpt>
<trkpt lat="46.3959328" lon="8.1404680">
<ele>1187.000000</ele>
<time>2018-08-14T13:43:35Z</time>
</trkpt>
<trkpt lat="46.3956480" lon="8.1403208">
<ele>1185.000000</ele>
<time>2018-08-14T13:43:37Z</time>
</trkpt>
<trkpt lat="46.3953280" lon="8.1401728">
<ele>1183.000000</ele>
<time>2018-08-14T13:43:39Z</time>
</trkpt>
<trkpt lat="46.3950496" lon="8.1400040">
<ele>1182.000000</ele>
<time>2018-08-14T13:43:41Z</time>
</trkpt>
<trkpt lat="46.3948096" lon="8.1398560">
<ele>1177.000000</ele>
<time>2018-08-14T13:43:43Z</time>
</trkpt>
<trkpt lat="46.3945184" lon="8.1396736">
<ele>1174.000000</ele>
<time>2018-08-14T13:43:45Z</time>
</trkpt>
<trkpt lat="46.3943488" lon="8.1395680">
<ele>1173.000000</ele>
<time>2018-08-14T13:43:46Z</time>
</trkpt>
<trkpt lat="46.3941888" lon="8.1394624">
<ele>1172.000000</ele>
<time>2018-08-14T13:43:47Z</time>
</trkpt>
<trkpt lat="46.3938944" lon="8.1392616">
<ele>1170.000000</ele>
<time>2018-08-14T13:43:49Z</time>
</trkpt>
<trkpt lat="46.3936192" lon="8.1390728">
<ele>1169.000000</ele>
<time>2018-08-14T13:43:51Z</time>
</trkpt>
<trkpt lat="46.3933472" lon="8.1389112">
<ele>1167.000000</ele>
<time>2018-08-14T13:43:53Z</time>
</trkpt>
<trkpt lat="46.3930944" lon="8.1388200">
<ele>1165.000000</ele>
<time>2018-08-14T13:43:55Z</time>
</trkpt>
<trkpt lat="46.3928512" lon="8.1386840">
<ele>1164.000000</ele>
<time>2018-08-14T13:43:57Z</time>
</trkpt>
<trkpt lat="46.3926912" lon="8.1384896">
<ele>1159.000000</ele>
<time>2018-08-14T13:43:59Z</time>
</trkpt>
<trkpt lat="46.3925120" lon="8.1381776">
<ele>1153.000000</ele>
<time>2018-08-14T13:44:01Z</time>
</trkpt>
<trkpt lat="46.3923520" lon="8.1378528">
<ele>1147.000000</ele>
<time>2018-08-14T13:44:03Z</time>
</trkpt>
<trkpt lat="46.3922240" lon="8.1375128">
<ele>1141.000000</ele>
<time>2018-08-14T13:44:05Z</time>
</trkpt>
<trkpt lat="46.3921280" lon="8.1371744">
<ele>1137.000000</ele>
<time>2018-08-14T13:44:07Z</time>
</trkpt>
<trkpt lat="46.3920480" lon="8.1368944">
<ele>1132.000000</ele>
<time>2018-08-14T13:44:09Z</time>
</trkpt>
<trkpt lat="46.3919360" lon="8.1365976">
<ele>1126.000000</ele>
<time>2018-08-14T13:44:12Z</time>
</trkpt>
<trkpt lat="46.3921600" lon="8.1366512">
<ele>1119.000000</ele>
<time>2018-08-14T13:44:21Z</time>
</trkpt>
<trkpt lat="46.3924064" lon="8.1368208">
<ele>1118.000000</ele>
<time>2018-08-14T13:44:24Z</time>
</trkpt>
<trkpt lat="46.3926240" lon="8.1368696">
<ele>1117.000000</ele>
<time>2018-08-14T13:44:26Z</time>
</trkpt>
<trkpt lat="46.3928480" lon="8.1369544">
<ele>1116.000000</ele>
<time>2018-08-14T13:44:28Z</time>
</trkpt>
<trkpt lat="46.3930336" lon="8.1370448">
<ele>1115.000000</ele>
<time>2018-08-14T13:44:30Z</time>
</trkpt>
<trkpt lat="46.3932640" lon="8.1370008">
<ele>1114.000000</ele>
<time>2018-08-14T13:44:33Z</time>
</trkpt>
<trkpt lat="46.3934176" lon="8.1367960">
<ele>1111.000000</ele>
<time>2018-08-14T13:44:36Z</time>
</trkpt>
<trkpt lat="46.3934816" lon="8.1365512">
<ele>1110.000000</ele>
<time>2018-08-14T13:44:39Z</time>
</trkpt>
<trkpt lat="46.3933728" lon="8.1362656">
<ele>1106.000000</ele>
<time>2018-08-14T13:44:42Z</time>
</trkpt>
<trkpt lat="46.3932544" lon="8.1360576">
<ele>1104.000000</ele>
<time>2018-08-14T13:44:44Z</time>
</trkpt>
<trkpt lat="46.3931264" lon="8.1358544">
<ele>1102.000000</ele>
<time>2018-08-14T13:44:46Z</time>
</trkpt>
<trkpt lat="46.3930016" lon="8.1356656">
<ele>1100.000000</ele>
<time>2018-08-14T13:44:48Z</time>
</trkpt>
<trkpt lat="46.3928512" lon="8.1354824">
<ele>1098.000000</ele>
<time>2018-08-14T13:44:50Z</time>
</trkpt>
<trkpt lat="46.3927104" lon="8.1352712">
<ele>1096.000000</ele>
<time>2018-08-14T13:44:52Z</time>
</trkpt>
<trkpt lat="46.3925696" lon="8.1350544">
<ele>1095.000000</ele>
<time>2018-08-14T13:44:54Z</time>
</trkpt>
<trkpt lat="46.3924000" lon="8.1348784">
<ele>1092.000000</ele>
<time>2018-08-14T13:44:56Z</time>
</trkpt>
<trkpt lat="46.3922336" lon="8.1346672">
<ele>1091.000000</ele>
<time>2018-08-14T13:44:58Z</time>
</trkpt>
<trkpt lat="46.3920736" lon="8.1343944">
<ele>1087.000000</ele>
<time>2018-08-14T13:45:00Z</time>
</trkpt>
<trkpt lat="46.3919264" lon="8.1341248">
<ele>1085.000000</ele>
<time>2018-08-14T13:45:02Z</time>
</trkpt>
<trkpt lat="46.3917760" lon="8.1339112">
<ele>1082.000000</ele>
<time>2018-08-14T13:45:04Z</time>
</trkpt>
<trkpt lat="46.3916096" lon="8.1337392">
<ele>1077.000000</ele>
<time>2018-08-14T13:45:06Z</time>
</trkpt>
<trkpt lat="46.3914592" lon="8.1335208">
<ele>1075.000000</ele>
<time>2018-08-14T13:45:08Z</time>
</trkpt>
<trkpt lat="46.3913344" lon="8.1332328">
<ele>1072.000000</ele>
<time>2018-08-14T13:45:10Z</time>
</trkpt>
<trkpt lat="46.3912608" lon="8.1328920">
<ele>1067.000000</ele>
<time>2018-08-14T13:45:12Z</time>
</trkpt>
<trkpt lat="46.3911680" lon="8.1325264">
<ele>1064.000000</ele>
<time>2018-08-14T13:45:14Z</time>
</trkpt>
<trkpt lat="46.3910432" lon="8.1321696">
<ele>1060.000000</ele>
<time>2018-08-14T13:45:16Z</time>
</trkpt>
<trkpt lat="46.3909376" lon="8.1318160">
<ele>1056.000000</ele>
<time>2018-08-14T13:45:18Z</time>
</trkpt>
<trkpt lat="46.3908448" lon="8.1314632">
<ele>1053.000000</ele>
<time>2018-08-14T13:45:20Z</time>
</trkpt>
<trkpt lat="46.3907232" lon="8.1311296">
<ele>1049.000000</ele>
<time>2018-08-14T13:45:22Z</time>
</trkpt>
<trkpt lat="46.3905312" lon="8.1308192">
<ele>1045.000000</ele>
<time>2018-08-14T13:45:24Z</time>
</trkpt>
<trkpt lat="46.3903328" lon="8.1304808">
<ele>1041.000000</ele>
<time>2018-08-14T13:45:26Z</time>
</trkpt>
<trkpt lat="46.3901664" lon="8.1300976">
<ele>1037.000000</ele>
<time>2018-08-14T13:45:28Z</time>
</trkpt>
<trkpt lat="46.3900256" lon="8.1296976">
<ele>1034.000000</ele>
<time>2018-08-14T13:45:30Z</time>
</trkpt>
<trkpt lat="46.3899200" lon="8.1292880">
<ele>1031.000000</ele>
<time>2018-08-14T13:45:32Z</time>
</trkpt>
<trkpt lat="46.3898432" lon="8.1289024">
<ele>1030.000000</ele>
<time>2018-08-14T13:45:34Z</time>
</trkpt>
<trkpt lat="46.3897888" lon="8.1285680">
<ele>1029.000000</ele>
<time>2018-08-14T13:45:36Z</time>
</trkpt>
<trkpt lat="46.3897696" lon="8.1282800">
<ele>1027.000000</ele>
<time>2018-08-14T13:45:38Z</time>
</trkpt>
<trkpt lat="46.3898368" lon="8.1280392">
<ele>1026.000000</ele>
<time>2018-08-14T13:45:40Z</time>
</trkpt>
<trkpt lat="46.3899904" lon="8.1278592">
<ele>1024.000000</ele>
<time>2018-08-14T13:45:42Z</time>
</trkpt>
<trkpt lat="46.3901952" lon="8.1276560">
<ele>1022.000000</ele>
<time>2018-08-14T13:45:44Z</time>
</trkpt>
<trkpt lat="46.3903840" lon="8.1273912">
<ele>1020.000000</ele>
<time>2018-08-14T13:45:46Z</time>
</trkpt>
<trkpt lat="46.3905792" lon="8.1270784">
<ele>1019.000000</ele>
<time>2018-08-14T13:45:48Z</time>
</trkpt>
<trkpt lat="46.3907552" lon="8.1267792">
<ele>1018.000000</ele>
<time>2018-08-14T13:45:50Z</time>
</trkpt>
<trkpt lat="46.3909504" lon="8.1264880">
<ele>1017.000000</ele>
<time>2018-08-14T13:45:52Z</time>
</trkpt>
<trkpt lat="46.3911200" lon="8.1262424">
<ele>1016.000000</ele>
<time>2018-08-14T13:45:54Z</time>
</trkpt>
<trkpt lat="46.3913280" lon="8.1260264">
<ele>1015.000000</ele>
<time>2018-08-14T13:45:56Z</time>
</trkpt>
<trkpt lat="46.3915200" lon="8.1258496">
<ele>1014.000000</ele>
<time>2018-08-14T13:45:58Z</time>
</trkpt>
<trkpt lat="46.3917088" lon="8.1256800">
<ele>1014.000000</ele>
<time>2018-08-14T13:46:00Z</time>
</trkpt>
<trkpt lat="46.3918336" lon="8.1254664">
<ele>1013.000000</ele>
<time>2018-08-14T13:46:02Z</time>
</trkpt>
<trkpt lat="46.3918752" lon="8.1251944">
<ele>1012.000000</ele>
<time>2018-08-14T13:46:04Z</time>
</trkpt>
<trkpt lat="46.3918880" lon="8.1248800">
<ele>1011.000000</ele>
<time>2018-08-14T13:46:06Z</time>
</trkpt>
<trkpt lat="46.3919360" lon="8.1245912">
<ele>1011.000000</ele>
<time>2018-08-14T13:46:08Z</time>
</trkpt>
<trkpt lat="46.3920480" lon="8.1243408">
<ele>1010.000000</ele>
<time>2018-08-14T13:46:10Z</time>
</trkpt>
<trkpt lat="46.3921920" lon="8.1240624">
<ele>1010.000000</ele>
<time>2018-08-14T13:46:13Z</time>
</trkpt>
<trkpt lat="46.3921952" lon="8.1237480">
<ele>1009.000000</ele>
<time>2018-08-14T13:46:17Z</time>
</trkpt>
<trkpt lat="46.3920928" lon="8.1235144">
<ele>1008.000000</ele>
<time>2018-08-14T13:46:20Z</time>
</trkpt>
<trkpt lat="46.3919840" lon="8.1232624">
<ele>1008.000000</ele>
<time>2018-08-14T13:46:24Z</time>
</trkpt>
<trkpt lat="46.3920224" lon="8.1233016">
<ele>1007.000000</ele>
<time>2018-08-14T13:46:34Z</time>
</trkpt>
<trkpt lat="46.3921728" lon="8.1235064">
<ele>1007.000000</ele>
<time>2018-08-14T13:46:37Z</time>
</trkpt>
<trkpt lat="46.3923712" lon="8.1237608">
<ele>1007.000000</ele>
<time>2018-08-14T13:46:40Z</time>
</trkpt>
<trkpt lat="46.3925056" lon="8.1239392">
<ele>1007.000000</ele>
<time>2018-08-14T13:46:42Z</time>
</trkpt>
<trkpt lat="46.3926624" lon="8.1242264">
<ele>1008.000000</ele>
<time>2018-08-14T13:46:45Z</time>
</trkpt>
<trkpt lat="46.3927456" lon="8.1244968">
<ele>1008.000000</ele>
<time>2018-08-14T13:46:49Z</time>
</trkpt>
<trkpt lat="46.3928256" lon="8.1245728">
<ele>1010.000000</ele>
<time>2018-08-14T13:47:18Z</time>
</trkpt>
<trkpt lat="46.3929216" lon="8.1248176">
<ele>1010.000000</ele>
<time>2018-08-14T13:47:24Z</time>
</trkpt>
<trkpt lat="46.3929952" lon="8.1251480">
<ele>1010.000000</ele>
<time>2018-08-14T13:47:27Z</time>
</trkpt>
<trkpt lat="46.3930656" lon="8.1254312">
<ele>1011.000000</ele>
<time>2018-08-14T13:47:29Z</time>
</trkpt>
<trkpt lat="46.3931808" lon="8.1257160">
<ele>1012.000000</ele>
<time>2018-08-14T13:47:31Z</time>
</trkpt>
<trkpt lat="46.3933568" lon="8.1259768">
<ele>1012.000000</ele>
<time>2018-08-14T13:47:33Z</time>
</trkpt>
<trkpt lat="46.3935904" lon="8.1261824">
<ele>1012.000000</ele>
<time>2018-08-14T13:47:35Z</time>
</trkpt>
<trkpt lat="46.3938400" lon="8.1263760">
<ele>1012.000000</ele>
<time>2018-08-14T13:47:37Z</time>
</trkpt>
<trkpt lat="46.3940864" lon="8.1266632">
<ele>1013.000000</ele>
<time>2018-08-14T13:47:39Z</time>
</trkpt>
<trkpt lat="46.3943200" lon="8.1270136">
<ele>1014.000000</ele>
<time>2018-08-14T13:47:41Z</time>
</trkpt>
<trkpt lat="46.3944480" lon="8.1271928">
<ele>1014.000000</ele>
<time>2018-08-14T13:47:42Z</time>
</trkpt>
<trkpt lat="46.3946912" lon="8.1275488">
<ele>1013.000000</ele>
<time>2018-08-14T13:47:44Z</time>
</trkpt>
<trkpt lat="46.3949440" lon="8.1278984">
<ele>1014.000000</ele>
<time>2018-08-14T13:47:46Z</time>
</trkpt>
<trkpt lat="46.3951840" lon="8.1282400">
<ele>1015.000000</ele>
<time>2018-08-14T13:47:48Z</time>
</trkpt>
<trkpt lat="46.3954176" lon="8.1285656">
<ele>1015.000000</ele>
<time>2018-08-14T13:47:50Z</time>
</trkpt>
<trkpt lat="46.3956448" lon="8.1288824">
<ele>1016.000000</ele>
<time>2018-08-14T13:47:52Z</time>
</trkpt>
<trkpt lat="46.3958400" lon="8.1292080">
<ele>1017.000000</ele>
<time>2018-08-14T13:47:54Z</time>
</trkpt>
<trkpt lat="46.3959680" lon="8.1295640">
<ele>1019.000000</ele>
<time>2018-08-14T13:47:56Z</time>
</trkpt>
<trkpt lat="46.3960608" lon="8.1299344">
<ele>1020.000000</ele>
<time>2018-08-14T13:47:58Z</time>
</trkpt>
<trkpt lat="46.3961536" lon="8.1302816">
<ele>1021.000000</ele>
<time>2018-08-14T13:48:00Z</time>
</trkpt>
<trkpt lat="46.3962592" lon="8.1306112">
<ele>1022.000000</ele>
<time>2018-08-14T13:48:02Z</time>
</trkpt>
<trkpt lat="46.3963840" lon="8.1309264">
<ele>1023.000000</ele>
<time>2018-08-14T13:48:04Z</time>
</trkpt>
<trkpt lat="46.3965152" lon="8.1312144">
<ele>1022.000000</ele>
<time>2018-08-14T13:48:06Z</time>
</trkpt>
<trkpt lat="46.3966400" lon="8.1314744">
<ele>1023.000000</ele>
<time>2018-08-14T13:48:08Z</time>
</trkpt>
<trkpt lat="46.3967520" lon="8.1317040">
<ele>1022.000000</ele>
<time>2018-08-14T13:48:10Z</time>
</trkpt>
<trkpt lat="46.3968384" lon="8.1320248">
<ele>1023.000000</ele>
<time>2018-08-14T13:48:13Z</time>
</trkpt>
<trkpt lat="46.3969376" lon="8.1322792">
<ele>1022.000000</ele>
<time>2018-08-14T13:48:17Z</time>
</trkpt>
<trkpt lat="46.3971008" lon="8.1321648">
<ele>1023.000000</ele>
<time>2018-08-14T13:48:22Z</time>
</trkpt>
<trkpt lat="46.3972512" lon="8.1322976">
<ele>1025.000000</ele>
<time>2018-08-14T13:48:26Z</time>
</trkpt>
<trkpt lat="46.3973472" lon="8.1325864">
<ele>1026.000000</ele>
<time>2018-08-14T13:48:30Z</time>
</trkpt>
<trkpt lat="46.3975488" lon="8.1328128">
<ele>1027.000000</ele>
<time>2018-08-14T13:48:33Z</time>
</trkpt>
<trkpt lat="46.3977248" lon="8.1329296">
<ele>1027.000000</ele>
<time>2018-08-14T13:48:35Z</time>
</trkpt>
<trkpt lat="46.3979040" lon="8.1330312">
<ele>1027.000000</ele>
<time>2018-08-14T13:48:37Z</time>
</trkpt>
<trkpt lat="46.3980736" lon="8.1331216">
<ele>1028.000000</ele>
<time>2018-08-14T13:48:39Z</time>
</trkpt>
<trkpt lat="46.3982784" lon="8.1332160">
<ele>1029.000000</ele>
<time>2018-08-14T13:48:42Z</time>
</trkpt>
<trkpt lat="46.3983488" lon="8.1332760">
<ele>1034.000000</ele>
<time>2018-08-14T13:48:53Z</time>
</trkpt>
<trkpt lat="46.3983392" lon="8.1332224">
<ele>1038.000000</ele>
<time>2018-08-14T13:49:06Z</time>
</trkpt>
<trkpt lat="46.3982464" lon="8.1331464">
<ele>1038.000000</ele>
<time>2018-08-14T13:49:16Z</time>
</trkpt>
<trkpt lat="46.3981376" lon="8.1330544">
<ele>1038.000000</ele>
<time>2018-08-14T13:49:26Z</time>
</trkpt>
<trkpt lat="46.3980384" lon="8.1330128">
<ele>1038.000000</ele>
<time>2018-08-14T13:49:36Z</time>
</trkpt>
<trkpt lat="46.3980320" lon="8.1328648">
<ele>1038.000000</ele>
<time>2018-08-14T13:49:46Z</time>
</trkpt>
<trkpt lat="46.3979072" lon="8.1327760">
<ele>1039.000000</ele>
<time>2018-08-14T13:49:56Z</time>
</trkpt>
<trkpt lat="46.3978752" lon="8.1326360">
<ele>1039.000000</ele>
<time>2018-08-14T13:50:06Z</time>
</trkpt>
<trkpt lat="46.3978112" lon="8.1325248">
<ele>1040.000000</ele>
<time>2018-08-14T13:50:16Z</time>
</trkpt>
<trkpt lat="46.3976864" lon="8.1325216">
<ele>1039.000000</ele>
<time>2018-08-14T13:50:26Z</time>
</trkpt>
<trkpt lat="46.3975872" lon="8.1324752">
<ele>1040.000000</ele>
<time>2018-08-14T13:50:36Z</time>
</trkpt>
<trkpt lat="46.3975264" lon="8.1323496">
<ele>1041.000000</ele>
<time>2018-08-14T13:50:46Z</time>
</trkpt>
<trkpt lat="46.3976064" lon="8.1322176">
<ele>1041.000000</ele>
<time>2018-08-14T13:50:56Z</time>
</trkpt>
<trkpt lat="46.3977632" lon="8.1321656">
<ele>1042.000000</ele>
<time>2018-08-14T13:51:06Z</time>
</trkpt>
<trkpt lat="46.3977504" lon="8.1319272">
<ele>1040.000000</ele>
<time>2018-08-14T13:51:16Z</time>
</trkpt>
<trkpt lat="46.3977120" lon="8.1317616">
<ele>1040.000000</ele>
<time>2018-08-14T13:51:26Z</time>
</trkpt>
<trkpt lat="46.3976640" lon="8.1315992">
<ele>1040.000000</ele>
<time>2018-08-14T13:51:36Z</time>
</trkpt>
<trkpt lat="46.3975904" lon="8.1315368">
<ele>1040.000000</ele>
<time>2018-08-14T13:52:47Z</time>
</trkpt>
<trkpt lat="46.3976256" lon="8.1317576">
<ele>1039.000000</ele>
<time>2018-08-14T13:52:57Z</time>
</trkpt>
<trkpt lat="46.3975968" lon="8.1319112">
<ele>1039.000000</ele>
<time>2018-08-14T13:53:07Z</time>
</trkpt>
<trkpt lat="46.3974528" lon="8.1319400">
<ele>1041.000000</ele>
<time>2018-08-14T13:53:17Z</time>
</trkpt>
<trkpt lat="46.3973312" lon="8.1319608">
<ele>1042.000000</ele>
<time>2018-08-14T13:53:27Z</time>
</trkpt>
<trkpt lat="46.3972512" lon="8.1319272">
<ele>1042.000000</ele>
<time>2018-08-14T13:53:37Z</time>
</trkpt>
<trkpt lat="46.3971648" lon="8.1317960">
<ele>1042.000000</ele>
<time>2018-08-14T13:53:47Z</time>
</trkpt>
<trkpt lat="46.3970400" lon="8.1317680">
<ele>1043.000000</ele>
<time>2018-08-14T13:53:57Z</time>
</trkpt>
<trkpt lat="46.3969280" lon="8.1316960">
<ele>1041.000000</ele>
<time>2018-08-14T13:54:07Z</time>
</trkpt>
<trkpt lat="46.3968544" lon="8.1315944">
<ele>1043.000000</ele>
<time>2018-08-14T13:54:17Z</time>
</trkpt>
<trkpt lat="46.3968512" lon="8.1316296">
<ele>1040.000000</ele>
<time>2018-08-14T13:54:34Z</time>
</trkpt>
<trkpt lat="46.3968480" lon="8.1316568">
<ele>1040.000000</ele>
<time>2018-08-14T13:54:45Z</time>
</trkpt>
<trkpt lat="46.3968512" lon="8.1314632">
<ele>1040.000000</ele>
<time>2018-08-14T13:54:55Z</time>
</trkpt>
<trkpt lat="46.3967904" lon="8.1312424">
<ele>1040.000000</ele>
<time>2018-08-14T13:55:05Z</time>
</trkpt>
<trkpt lat="46.3967360" lon="8.1311496">
<ele>1038.000000</ele>
<time>2018-08-14T13:55:15Z</time>
</trkpt>
<trkpt lat="46.3968000" lon="8.1311064">
<ele>1037.000000</ele>
<time>2018-08-14T13:55:25Z</time>
</trkpt>
<trkpt lat="46.3968096" lon="8.1327432">
<ele>1199.000000</ele>
<time>2018-08-14T14:01:47Z</time>
</trkpt>
<trkpt lat="46.3967360" lon="8.1321848">
<ele>1210.000000</ele>
<time>2018-08-14T14:01:49Z</time>
</trkpt>
<trkpt lat="46.3967392" lon="8.1317952">
<ele>1194.000000</ele>
<time>2018-08-14T14:01:55Z</time>
</trkpt>
<trkpt lat="46.3968512" lon="8.1317328">
<ele>1184.000000</ele>
<time>2018-08-14T14:02:05Z</time>
</trkpt>
<trkpt lat="46.3968384" lon="8.1317288">
<ele>1184.000000</ele>
<time>2018-08-14T14:02:30Z</time>
</trkpt>
<trkpt lat="46.3967616" lon="8.1317128">
<ele>1184.000000</ele>
<time>2018-08-14T14:02:40Z</time>
</trkpt>
<trkpt lat="46.3967136" lon="8.1316096">
<ele>1183.000000</ele>
<time>2018-08-14T14:02:52Z</time>
</trkpt>
<trkpt lat="46.3967520" lon="8.1316824">
<ele>1182.000000</ele>
<time>2018-08-14T14:03:02Z</time>
</trkpt>
<trkpt lat="46.3967904" lon="8.1317488">
<ele>1181.000000</ele>
<time>2018-08-14T14:03:12Z</time>
</trkpt>
<trkpt lat="46.3968128" lon="8.1317896">
<ele>1177.000000</ele>
<time>2018-08-14T14:03:22Z</time>
</trkpt>
<trkpt lat="46.3968480" lon="8.1318328">
<ele>1163.000000</ele>
<time>2018-08-14T14:03:36Z</time>
</trkpt>
<trkpt lat="46.3968288" lon="8.1318128">
<ele>1145.000000</ele>
<time>2018-08-14T14:03:51Z</time>
</trkpt>
<trkpt lat="46.3968320" lon="8.1318960">
<ele>1125.000000</ele>
<time>2018-08-14T14:04:01Z</time>
</trkpt>
<trkpt lat="46.3968928" lon="8.1319744">
<ele>1105.000000</ele>
<time>2018-08-14T14:04:11Z</time>
</trkpt>
<trkpt lat="46.3969760" lon="8.1319984">
<ele>1093.000000</ele>
<time>2018-08-14T14:04:21Z</time>
</trkpt>
<trkpt lat="46.3970592" lon="8.1320096">
<ele>1080.000000</ele>
<time>2018-08-14T14:04:31Z</time>
</trkpt>
<trkpt lat="46.3971328" lon="8.1320296">
<ele>1069.000000</ele>
<time>2018-08-14T14:04:41Z</time>
</trkpt>
<trkpt lat="46.3972256" lon="8.1320856">
<ele>1059.000000</ele>
<time>2018-08-14T14:04:51Z</time>
</trkpt>
<trkpt lat="46.3973088" lon="8.1321208">
<ele>1066.000000</ele>
<time>2018-08-14T14:05:01Z</time>
</trkpt>
<trkpt lat="46.3973504" lon="8.1321184">
<ele>1061.000000</ele>
<time>2018-08-14T14:05:11Z</time>
</trkpt>
<trkpt lat="46.3974176" lon="8.1320944">
<ele>1057.000000</ele>
<time>2018-08-14T14:05:21Z</time>
</trkpt>
<trkpt lat="46.3975360" lon="8.1320312">
<ele>1051.000000</ele>
<time>2018-08-14T14:05:31Z</time>
</trkpt>
<trkpt lat="46.3976544" lon="8.1319624">
<ele>1049.000000</ele>
<time>2018-08-14T14:05:41Z</time>
</trkpt>
<trkpt lat="46.3976704" lon="8.1318016">
<ele>1052.000000</ele>
<time>2018-08-14T14:05:51Z</time>
</trkpt>
<trkpt lat="46.3976064" lon="8.1315616">
<ele>1052.000000</ele>
<time>2018-08-14T14:06:01Z</time>
</trkpt>
<trkpt lat="46.3975520" lon="8.1314792">
<ele>1050.000000</ele>
<time>2018-08-14T14:06:11Z</time>
</trkpt>
<trkpt lat="46.3974848" lon="8.1313408">
<ele>1049.000000</ele>
<time>2018-08-14T14:06:21Z</time>
</trkpt>
<trkpt lat="46.3974272" lon="8.1311896">
<ele>1048.000000</ele>
<time>2018-08-14T14:06:31Z</time>
</trkpt>
<trkpt lat="46.3973472" lon="8.1310576">
<ele>1050.000000</ele>
<time>2018-08-14T14:06:41Z</time>
</trkpt>
<trkpt lat="46.3972512" lon="8.1310088">
<ele>1050.000000</ele>
<time>2018-08-14T14:06:51Z</time>
</trkpt>
<trkpt lat="46.3972000" lon="8.1308928">
<ele>1050.000000</ele>
<time>2018-08-14T14:07:01Z</time>
</trkpt>
<trkpt lat="46.3972640" lon="8.1307944">
<ele>1051.000000</ele>
<time>2018-08-14T14:07:11Z</time>
</trkpt>
<trkpt lat="46.3973056" lon="8.1307456">
<ele>1050.000000</ele>
<time>2018-08-14T14:07:21Z</time>
</trkpt>
<trkpt lat="46.3973536" lon="8.1306000">
<ele>1049.000000</ele>
<time>2018-08-14T14:07:31Z</time>
</trkpt>
<trkpt lat="46.3974656" lon="8.1306456">
<ele>1049.000000</ele>
<time>2018-08-14T14:07:41Z</time>
</trkpt>
<trkpt lat="46.3974688" lon="8.1307792">
<ele>1049.000000</ele>
<time>2018-08-14T14:07:51Z</time>
</trkpt>
<trkpt lat="46.3975232" lon="8.1308944">
<ele>1048.000000</ele>
<time>2018-08-14T14:08:01Z</time>
</trkpt>
<trkpt lat="46.3975296" lon="8.1310528">
<ele>1049.000000</ele>
<time>2018-08-14T14:08:11Z</time>
</trkpt>
<trkpt lat="46.3976128" lon="8.1311416">
<ele>1049.000000</ele>
<time>2018-08-14T14:08:21Z</time>
</trkpt>
<trkpt lat="46.3976832" lon="8.1312200">
<ele>1050.000000</ele>
<time>2018-08-14T14:08:31Z</time>
</trkpt>
<trkpt lat="0.0000000" lon="0.1048576">
<ele>0.000000</ele>
<time>2000-00-00T00:00:00Z</time>
</trkpt>
<trkpt lat="1.0944512" lon="1.4155776">
<ele>0.000000</ele>
<time>2000-00-00T00:00:00Z</time>
</trkpt>
<trkpt lat="1.0993408" lon="8.1264640">
<ele>1052.000000</ele>
<time>2000-00-00T00:00:00Z</time>
</trkpt>
<trkpt lat="46.3979136" lon="8.1315944">
<ele>1055.000000</ele>
<time>2018-08-14T14:09:11Z</time>
</trkpt>
<trkpt lat="46.3979808" lon="8.1316640">
<ele>1056.000000</ele>
<time>2018-08-14T14:09:21Z</time>
</trkpt>
<trkpt lat="46.3980672" lon="8.1317288">
<ele>1059.000000</ele>
<time>2018-08-14T14:09:31Z</time>
</trkpt>
<trkpt lat="46.3981632" lon="8.1317664">
<ele>1059.000000</ele>
<time>2018-08-14T14:09:41Z</time>
</trkpt>
<trkpt lat="46.3982720" lon="8.1317952">
<ele>1060.000000</ele>
<time>2018-08-14T14:09:51Z</time>
</trkpt>
<trkpt lat="46.3983584" lon="8.1318760">
<ele>1062.000000</ele>
<time>2018-08-14T14:10:01Z</time>
</trkpt>
<trkpt lat="46.3984608" lon="8.1317600">
<ele>1063.000000</ele>
<time>2018-08-14T14:10:11Z</time>
</trkpt>
<trkpt lat="46.3985408" lon="8.1317912">
<ele>1064.000000</ele>
<time>2018-08-14T14:10:21Z</time>
</trkpt>
<trkpt lat="46.3986656" lon="8.1318360">
<ele>1065.000000</ele>
<time>2018-08-14T14:10:31Z</time>
</trkpt>
<trkpt lat="46.3987264" lon="8.1317816">
<ele>1066.000000</ele>
<time>2018-08-14T14:10:41Z</time>
</trkpt>
<trkpt lat="46.3988288" lon="8.1318128">
<ele>1068.000000</ele>
<time>2018-08-14T14:10:51Z</time>
</trkpt>
<trkpt lat="46.3989376" lon="8.1318152">
<ele>1069.000000</ele>
<time>2018-08-14T14:11:01Z</time>
</trkpt>
</trkseg>
</trk>
<trk>
<name>Track 5</name>
<number>5</number>
<trkseg>
<trkpt lat="46.3962720" lon="8.0477696">
<ele>2337.000000</ele>
<time>2018-08-15T08:12:53Z</time>
</trkpt>
<trkpt lat="46.3962720" lon="8.0477632">
<ele>2337.000000</ele>
<time>2018-08-15T08:12:54Z</time>
</trkpt>
<trkpt lat="46.3962752" lon="8.0477544">
<ele>2337.000000</ele>
<time>2018-08-15T08:13:40Z</time>
</trkpt>
<trkpt lat="46.3962752" lon="8.0477648">
<ele>2337.000000</ele>
<time>2018-08-15T08:13:50Z</time>
</trkpt>
<trkpt lat="46.3962752" lon="8.0477696">
<ele>2337.000000</ele>
<time>2018-08-15T08:14:14Z</time>
</trkpt>
<trkpt lat="46.3962368" lon="8.0477632">
<ele>2337.000000</ele>
<time>2018-08-15T08:14:40Z</time>
</trkpt>
<trkpt lat="46.3962464" lon="8.0477744">
<ele>2337.000000</ele>
<time>2018-08-15T08:14:53Z</time>
</trkpt>
<trkpt lat="46.3962464" lon="8.0477848">
<ele>2337.000000</ele>
<time>2018-08-15T08:15:13Z</time>
</trkpt>
<trkpt lat="46.3962432" lon="8.0477808">
<ele>2337.000000</ele>
<time>2018-08-15T08:16:24Z</time>
</trkpt>
<trkpt lat="46.3962400" lon="8.0477856">
<ele>2337.000000</ele>
<time>2018-08-15T08:17:30Z</time>
</trkpt>
<trkpt lat="46.3962400" lon="8.0477808">
<ele>2337.000000</ele>
<time>2018-08-15T08:18:04Z</time>
</trkpt>
<trkpt lat="46.3962400" lon="8.0477856">
<ele>2337.000000</ele>
<time>2018-08-15T08:18:45Z</time>
</trkpt>
<trkpt lat="46.3962176" lon="8.0477928">
<ele>2336.000000</ele>
<time>2018-08-15T08:18:55Z</time>
</trkpt>
<trkpt lat="46.3962272" lon="8.0477992">
<ele>2336.000000</ele>
<time>2018-08-15T08:19:05Z</time>
</trkpt>
<trkpt lat="46.3962400" lon="8.0477960">
<ele>2336.000000</ele>
<time>2018-08-15T08:19:23Z</time>
</trkpt>
<trkpt lat="46.3962464" lon="8.0478080">
<ele>2336.000000</ele>
<time>2018-08-15T08:19:44Z</time>
</trkpt>
<trkpt lat="46.3962528" lon="8.0478112">
<ele>2336.000000</ele>
<time>2018-08-15T08:20:21Z</time>
</trkpt>
<trkpt lat="46.3962464" lon="8.0478984">
<ele>2336.000000</ele>
<time>2018-08-15T08:20:31Z</time>
</trkpt>
<trkpt lat="46.3962112" lon="8.0480176">
<ele>2336.000000</ele>
<time>2018-08-15T08:20:41Z</time>
</trkpt>
<trkpt lat="46.3962272" lon="8.0481064">
<ele>2337.000000</ele>
<time>2018-08-15T08:20:51Z</time>
</trkpt>
<trkpt lat="46.3962528" lon="8.0481280">
<ele>2337.000000</ele>
<time>2018-08-15T08:21:36Z</time>
</trkpt>
<trkpt lat="46.3962560" lon="8.0481288">
<ele>2337.000000</ele>
<time>2018-08-15T08:21:56Z</time>
</trkpt>
<trkpt lat="46.3962560" lon="8.0481312">
<ele>2337.000000</ele>
<time>2018-08-15T08:22:20Z</time>
</trkpt>
<trkpt lat="46.3963200" lon="8.0482216">
<ele>2336.000000</ele>
<time>2018-08-15T08:22:30Z</time>
</trkpt>
<trkpt lat="46.3963808" lon="8.0483328">
<ele>2337.000000</ele>
<time>2018-08-15T08:22:40Z</time>
</trkpt>
<trkpt lat="46.3964096" lon="8.0484408">
<ele>2338.000000</ele>
<time>2018-08-15T08:22:50Z</time>
</trkpt>
<trkpt lat="46.3964192" lon="8.0485008">
<ele>2338.000000</ele>
<time>2018-08-15T08:23:00Z</time>
</trkpt>
<trkpt lat="46.3964768" lon="8.0485744">
<ele>2338.000000</ele>
<time>2018-08-15T08:23:10Z</time>
</trkpt>
<trkpt lat="46.3965344" lon="8.0486248">
<ele>2336.000000</ele>
<time>2018-08-15T08:23:20Z</time>
</trkpt>
<trkpt lat="46.3965824" lon="8.0487232">
<ele>2336.000000</ele>
<time>2018-08-15T08:23:30Z</time>
</trkpt>
<trkpt lat="46.3966432" lon="8.0488352">
<ele>2336.000000</ele>
<time>2018-08-15T08:23:40Z</time>
</trkpt>
<trkpt lat="46.3966784" lon="8.0489512">
<ele>2336.000000</ele>
<time>2018-08-15T08:23:50Z</time>
</trkpt>
<trkpt lat="46.3967104" lon="8.0490648">
<ele>2336.000000</ele>
<time>2018-08-15T08:24:00Z</time>
</trkpt>
<trkpt lat="46.3967424" lon="8.0491744">
<ele>2336.000000</ele>
<time>2018-08-15T08:24:10Z</time>
</trkpt>
<trkpt lat="46.3967776" lon="8.0493080">
<ele>2334.000000</ele>
<time>2018-08-15T08:24:20Z</time>
</trkpt>
<trkpt lat="46.3968160" lon="8.0494512">
<ele>2336.000000</ele>
<time>2018-08-15T08:24:30Z</time>
</trkpt>
<trkpt lat="46.3968672" lon="8.0495688">
<ele>2336.000000</ele>
<time>2018-08-15T08:24:40Z</time>
</trkpt>
<trkpt lat="46.3969312" lon="8.0496424">
<ele>2336.000000</ele>
<time>2018-08-15T08:24:50Z</time>
</trkpt>
<trkpt lat="46.3970176" lon="8.0496816">
<ele>2337.000000</ele>
<time>2018-08-15T08:25:00Z</time>
</trkpt>
<trkpt lat="46.3970368" lon="8.0496872">
<ele>2336.000000</ele>
<time>2018-08-15T08:25:12Z</time>
</trkpt>
<trkpt lat="46.3969184" lon="8.0496512">
<ele>2335.000000</ele>
<time>2018-08-15T08:25:22Z</time>
</trkpt>
<trkpt lat="46.3969920" lon="8.0497296">
<ele>2333.000000</ele>
<time>2018-08-15T08:25:32Z</time>
</trkpt>
<trkpt lat="46.3970080" lon="8.0499184">
<ele>2331.000000</ele>
<time>2018-08-15T08:25:42Z</time>
</trkpt>
<trkpt lat="46.3971200" lon="8.0499992">
<ele>2330.000000</ele>
<time>2018-08-15T08:25:52Z</time>
</trkpt>
<trkpt lat="46.3971872" lon="8.0501528">
<ele>2329.000000</ele>
<time>2018-08-15T08:26:02Z</time>
</trkpt>
<trkpt lat="46.3972576" lon="8.0502560">
<ele>2327.000000</ele>
<time>2018-08-15T08:26:12Z</time>
</trkpt>
<trkpt lat="46.3972992" lon="8.0503664">
<ele>2326.000000</ele>
<time>2018-08-15T08:26:22Z</time>
</trkpt>
<trkpt lat="46.3973632" lon="8.0504624">
<ele>2326.000000</ele>
<time>2018-08-15T08:26:32Z</time>
</trkpt>
<trkpt lat="46.3974176" lon="8.0505848">
<ele>2323.000000</ele>
<time>2018-08-15T08:26:42Z</time>
</trkpt>
<trkpt lat="46.3974848" lon="8.0507192">
<ele>2322.000000</ele>
<time>2018-08-15T08:26:52Z</time>
</trkpt>
<trkpt lat="46.3975264" lon="8.0508768">
<ele>2320.000000</ele>
<time>2018-08-15T08:27:02Z</time>
</trkpt>
<trkpt lat="46.3975840" lon="8.0509960">
<ele>2320.000000</ele>
<time>2018-08-15T08:27:12Z</time>
</trkpt>
<trkpt lat="46.3975776" lon="8.0510448">
<ele>2319.000000</ele>
<time>2018-08-15T08:27:25Z</time>
</trkpt>
<trkpt lat="46.3975840" lon="8.0510376">
<ele>2319.000000</ele>
<time>2018-08-15T08:28:13Z</time>
</trkpt>
<trkpt lat="46.3975904" lon="8.0510448">
<ele>2319.000000</ele>
<time>2018-08-15T08:28:34Z</time>
</trkpt>
<trkpt lat="46.3976448" lon="8.0510824">
<ele>2319.000000</ele>
<time>2018-08-15T08:28:44Z</time>
</trkpt>
<trkpt lat="46.3976448" lon="8.0512448">
<ele>2317.000000</ele>
<time>2018-08-15T08:28:54Z</time>
</trkpt>
<trkpt lat="46.3977312" lon="8.0513560">
<ele>2317.000000</ele>
<time>2018-08-15T08:29:04Z</time>
</trkpt>
<trkpt lat="46.3977312" lon="8.0515112">
<ele>2314.000000</ele>
<time>2018-08-15T08:29:14Z</time>
</trkpt>
<trkpt lat="46.3977248" lon="8.0516360">
<ele>2310.000000</ele>
<time>2018-08-15T08:29:24Z</time>
</trkpt>
<trkpt lat="46.3977888" lon="8.0517296">
<ele>2308.000000</ele>
<time>2018-08-15T08:29:34Z</time>
</trkpt>
<trkpt lat="46.3978432" lon="8.0518800">
<ele>2307.000000</ele>
<time>2018-08-15T08:29:44Z</time>
</trkpt>
<trkpt lat="46.3978688" lon="8.0520192">
<ele>2307.000000</ele>
<time>2018-08-15T08:29:54Z</time>
</trkpt>
<trkpt lat="46.3979648" lon="8.0521056">
<ele>2306.000000</ele>
<time>2018-08-15T08:30:04Z</time>
</trkpt>
<trkpt lat="46.3980576" lon="8.0521544">
<ele>2307.000000</ele>
<time>2018-08-15T08:30:14Z</time>
</trkpt>
<trkpt lat="46.3981248" lon="8.0522696">
<ele>2305.000000</ele>
<time>2018-08-15T08:30:24Z</time>
</trkpt>
<trkpt lat="46.3981792" lon="8.0523928">
<ele>2304.000000</ele>
<time>2018-08-15T08:30:34Z</time>
</trkpt>
<trkpt lat="46.3982176" lon="8.0525728">
<ele>2303.000000</ele>
<time>2018-08-15T08:30:44Z</time>
</trkpt>
<trkpt lat="46.3982592" lon="8.0527232">
<ele>2301.000000</ele>
<time>2018-08-15T08:30:54Z</time>
</trkpt>
<trkpt lat="46.3982880" lon="8.0528616">
<ele>2301.000000</ele>
<time>2018-08-15T08:31:04Z</time>
</trkpt>
<trkpt lat="46.3983360" lon="8.0529976">
<ele>2300.000000</ele>
<time>2018-08-15T08:31:14Z</time>
</trkpt>
<trkpt lat="46.3983872" lon="8.0531416">
<ele>2300.000000</ele>
<time>2018-08-15T08:31:24Z</time>
</trkpt>
<trkpt lat="46.3985024" lon="8.0532200">
<ele>2299.000000</ele>
<time>2018-08-15T08:31:34Z</time>
</trkpt>
<trkpt lat="46.3985600" lon="8.0533112">
<ele>2299.000000</ele>
<time>2018-08-15T08:31:44Z</time>
</trkpt>
<trkpt lat="46.3986272" lon="8.0534448">
<ele>2299.000000</ele>
<time>2018-08-15T08:31:54Z</time>
</trkpt>
<trkpt lat="46.3986496" lon="8.0535328">
<ele>2299.000000</ele>
<time>2018-08-15T08:32:04Z</time>
</trkpt>
<trkpt lat="46.3987168" lon="8.0536464">
<ele>2298.000000</ele>
<time>2018-08-15T08:32:14Z</time>
</trkpt>
<trkpt lat="46.3987968" lon="8.0537824">
<ele>2298.000000</ele>
<time>2018-08-15T08:32:24Z</time>
</trkpt>
<trkpt lat="46.3988384" lon="8.0539048">
<ele>2298.000000</ele>
<time>2018-08-15T08:32:34Z</time>
</trkpt>
<trkpt lat="46.3988928" lon="8.0540512">
<ele>2299.000000</ele>
<time>2018-08-15T08:32:44Z</time>
</trkpt>
<trkpt lat="46.3989376" lon="8.0541848">
<ele>2299.000000</ele>
<time>2018-08-15T08:32:54Z</time>
</trkpt>
<trkpt lat="46.3989824" lon="8.0543216">
<ele>2298.000000</ele>
<time>2018-08-15T08:33:04Z</time>
</trkpt>
<trkpt lat="46.3990720" lon="8.0543976">
<ele>2298.000000</ele>
<time>2018-08-15T08:33:14Z</time>
</trkpt>
<trkpt lat="46.3991616" lon="8.0544880">
<ele>2297.000000</ele>
<time>2018-08-15T08:33:24Z</time>
</trkpt>
<trkpt lat="46.3992512" lon="8.0545976">
<ele>2297.000000</ele>
<time>2018-08-15T08:33:34Z</time>
</trkpt>
<trkpt lat="46.3993568" lon="8.0546408">
<ele>2297.000000</ele>
<time>2018-08-15T08:33:44Z</time>
</trkpt>
<trkpt lat="46.3994432" lon="8.0547312">
<ele>2295.000000</ele>
<time>2018-08-15T08:33:54Z</time>
</trkpt>
<trkpt lat="46.3994976" lon="8.0548560">
<ele>2295.000000</ele>
<time>2018-08-15T08:34:04Z</time>
</trkpt>
<trkpt lat="46.3995328" lon="8.0549880">
<ele>2295.000000</ele>
<time>2018-08-15T08:34:14Z</time>
</trkpt>
<trkpt lat="46.3995872" lon="8.0551288">
<ele>2295.000000</ele>
<time>2018-08-15T08:34:24Z</time>
</trkpt>
<trkpt lat="46.3996352" lon="8.0552616">
<ele>2295.000000</ele>
<time>2018-08-15T08:34:34Z</time>
</trkpt>
<trkpt lat="46.3996672" lon="8.0554136">
<ele>2294.000000</ele>
<time>2018-08-15T08:34:44Z</time>
</trkpt>
<trkpt lat="46.3996928" lon="8.0555480">
<ele>2296.000000</ele>
<time>2018-08-15T08:34:54Z</time>
</trkpt>
<trkpt lat="46.3997088" lon="8.0557064">
<ele>2299.000000</ele>
<time>2018-08-15T08:35:04Z</time>
</trkpt>
<trkpt lat="46.3997600" lon="8.0557696">
<ele>2301.000000</ele>
<time>2018-08-15T08:35:14Z</time>
</trkpt>
<trkpt lat="46.3998144" lon="8.0557792">
<ele>2299.000000</ele>
<time>2018-08-15T08:36:00Z</time>
</trkpt>
<trkpt lat="46.3998016" lon="8.0557792">
<ele>2299.000000</ele>
<time>2018-08-15T08:37:11Z</time>
</trkpt>
<trkpt lat="46.3997664" lon="8.0558360">
<ele>2299.000000</ele>
<time>2018-08-15T08:37:21Z</time>
</trkpt>
<trkpt lat="46.3998336" lon="8.0559448">
<ele>2298.000000</ele>
<time>2018-08-15T08:37:34Z</time>
</trkpt>
<trkpt lat="46.3998400" lon="8.0559552">
<ele>2298.000000</ele>
<time>2018-08-15T08:37:46Z</time>
</trkpt>
<trkpt lat="46.3998464" lon="8.0559560">
<ele>2298.000000</ele>
<time>2018-08-15T08:38:05Z</time>
</trkpt>
<trkpt lat="46.3998528" lon="8.0559896">
<ele>2298.000000</ele>
<time>2018-08-15T08:38:16Z</time>
</trkpt>
<trkpt lat="46.3999328" lon="8.0561064">
<ele>2298.000000</ele>
<time>2018-08-15T08:38:26Z</time>
</trkpt>
<trkpt lat="46.4000288" lon="8.0561680">
<ele>2296.000000</ele>
<time>2018-08-15T08:38:36Z</time>
</trkpt>
<trkpt lat="46.4000768" lon="8.0563232">
<ele>2294.000000</ele>
<time>2018-08-15T08:38:46Z</time>
</trkpt>
<trkpt lat="46.4001120" lon="8.0564528">
<ele>2294.000000</ele>
<time>2018-08-15T08:38:56Z</time>
</trkpt>
<trkpt lat="46.4001696" lon="8.0565816">
<ele>2292.000000</ele>
<time>2018-08-15T08:39:06Z</time>
</trkpt>
<trkpt lat="46.4002464" lon="8.0566816">
<ele>2291.000000</ele>
<time>2018-08-15T08:39:16Z</time>
</trkpt>
<trkpt lat="46.4003104" lon="8.0568024">
<ele>2291.000000</ele>
<time>2018-08-15T08:39:26Z</time>
</trkpt>
<trkpt lat="46.4003552" lon="8.0569632">
<ele>2292.000000</ele>
<time>2018-08-15T08:39:36Z</time>
</trkpt>
<trkpt lat="46.4004768" lon="8.0570360">
<ele>2291.000000</ele>
<time>2018-08-15T08:39:46Z</time>
</trkpt>
<trkpt lat="46.4005312" lon="8.0571544">
<ele>2290.000000</ele>
<time>2018-08-15T08:39:56Z</time>
</trkpt>
<trkpt lat="46.4005856" lon="8.0572640">
<ele>2291.000000</ele>
<time>2018-08-15T08:40:06Z</time>
</trkpt>
<trkpt lat="46.4006464" lon="8.0573488">
<ele>2290.000000</ele>
<time>2018-08-15T08:40:16Z</time>
</trkpt>
<trkpt lat="46.4006880" lon="8.0575208">
<ele>2291.000000</ele>
<time>2018-08-15T08:40:26Z</time>
</trkpt>
<trkpt lat="46.4007040" lon="8.0577232">
<ele>2289.000000</ele>
<time>2018-08-15T08:40:36Z</time>
</trkpt>
<trkpt lat="46.4007712" lon="8.0578496">
<ele>2287.000000</ele>
<time>2018-08-15T08:40:46Z</time>
</trkpt>
<trkpt lat="46.4008224" lon="8.0580080">
<ele>2286.000000</ele>
<time>2018-08-15T08:40:56Z</time>
</trkpt>
<trkpt lat="46.4008800" lon="8.0581672">
<ele>2284.000000</ele>
<time>2018-08-15T08:41:06Z</time>
</trkpt>
<trkpt lat="46.4009376" lon="8.0582800">
<ele>2284.000000</ele>
<time>2018-08-15T08:41:16Z</time>
</trkpt>
<trkpt lat="46.4009728" lon="8.0584528">
<ele>2283.000000</ele>
<time>2018-08-15T08:41:26Z</time>
</trkpt>
<trkpt lat="46.4010848" lon="8.0584640">
<ele>2283.000000</ele>
<time>2018-08-15T08:41:36Z</time>
</trkpt>
<trkpt lat="46.4011520" lon="8.0583856">
<ele>2284.000000</ele>
<time>2018-08-15T08:41:46Z</time>
</trkpt>
<trkpt lat="46.4011488" lon="8.0585312">
<ele>2285.000000</ele>
<time>2018-08-15T08:41:56Z</time>
</trkpt>
<trkpt lat="46.4011584" lon="8.0585664">
<ele>2285.000000</ele>
<time>2018-08-15T08:42:23Z</time>
</trkpt>
<trkpt lat="46.4011680" lon="8.0586296">
<ele>2285.000000</ele>
<time>2018-08-15T08:42:33Z</time>
</trkpt>
<trkpt lat="46.4011904" lon="8.0587800">
<ele>2285.000000</ele>
<time>2018-08-15T08:42:43Z</time>
</trkpt>
<trkpt lat="46.4012480" lon="8.0588296">
<ele>2286.000000</ele>
<time>2018-08-15T08:42:53Z</time>
</trkpt>
<trkpt lat="46.4012384" lon="8.0588760">
<ele>2286.000000</ele>
<time>2018-08-15T08:43:41Z</time>
</trkpt>
<trkpt lat="46.4012704" lon="8.0590280">
<ele>2286.000000</ele>
<time>2018-08-15T08:43:51Z</time>
</trkpt>
<trkpt lat="46.4013216" lon="8.0591520">
<ele>2286.000000</ele>
<time>2018-08-15T08:44:01Z</time>
</trkpt>
<trkpt lat="46.4013344" lon="8.0592832">
<ele>2286.000000</ele>
<time>2018-08-15T08:44:11Z</time>
</trkpt>
<trkpt lat="46.4014208" lon="8.0593592">
<ele>2286.000000</ele>
<time>2018-08-15T08:44:21Z</time>
</trkpt>
<trkpt lat="46.4014496" lon="8.0594624">
<ele>2290.000000</ele>
<time>2018-08-15T08:44:31Z</time>
</trkpt>
<trkpt lat="46.4014656" lon="8.0595776">
<ele>2290.000000</ele>
<time>2018-08-15T08:44:41Z</time>
</trkpt>
<trkpt lat="46.4014688" lon="8.0597256">
<ele>2291.000000</ele>
<time>2018-08-15T08:44:51Z</time>
</trkpt>
<trkpt lat="46.4015872" lon="8.0597344">
<ele>2292.000000</ele>
<time>2018-08-15T08:45:01Z</time>
</trkpt>
<trkpt lat="46.4016064" lon="8.0598896">
<ele>2292.000000</ele>
<time>2018-08-15T08:45:11Z</time>
</trkpt>
<trkpt lat="46.4016224" lon="8.0600464">
<ele>2293.000000</ele>
<time>2018-08-15T08:45:21Z</time>
</trkpt>
<trkpt lat="46.4016320" lon="8.0601800">
<ele>2294.000000</ele>
<time>2018-08-15T08:45:31Z</time>
</trkpt>
<trkpt lat="46.4016384" lon="8.0603096">
<ele>2294.000000</ele>
<time>2018-08-15T08:45:41Z</time>
</trkpt>
<trkpt lat="46.4016384" lon="8.0604008">
<ele>2298.000000</ele>
<time>2018-08-15T08:45:51Z</time>
</trkpt>
<trkpt lat="46.4017024" lon="8.0604608">
<ele>2298.000000</ele>
<time>2018-08-15T08:46:01Z</time>
</trkpt>
<trkpt lat="46.4017408" lon="8.0605696">
<ele>2302.000000</ele>
<time>2018-08-15T08:46:11Z</time>
</trkpt>
<trkpt lat="46.4017984" lon="8.0606144">
<ele>2306.000000</ele>
<time>2018-08-15T08:46:21Z</time>
</trkpt>
<trkpt lat="46.4017824" lon="8.0607232">
<ele>2308.000000</ele>
<time>2018-08-15T08:46:31Z</time>
</trkpt>
<trkpt lat="46.4017920" lon="8.0608400">
<ele>2307.000000</ele>
<time>2018-08-15T08:46:41Z</time>
</trkpt>
<trkpt lat="46.4018368" lon="8.0609200">
<ele>2306.000000</ele>
<time>2018-08-15T08:46:51Z</time>
</trkpt>
<trkpt lat="46.4018976" lon="8.0609512">
<ele>2306.000000</ele>
<time>2018-08-15T08:47:01Z</time>
</trkpt>
<trkpt lat="46.4019360" lon="8.0610400">
<ele>2309.000000</ele>
<time>2018-08-15T08:47:11Z</time>
</trkpt>
<trkpt lat="46.4019712" lon="8.0611184">
<ele>2309.000000</ele>
<time>2018-08-15T08:47:21Z</time>
</trkpt>
<trkpt lat="46.4020576" lon="8.0611384">
<ele>2311.000000</ele>
<time>2018-08-15T08:47:31Z</time>
</trkpt>
<trkpt lat="46.4020992" lon="8.0612184">
<ele>2313.000000</ele>
<time>2018-08-15T08:47:41Z</time>
</trkpt>
<trkpt lat="46.4021504" lon="8.0613512">
<ele>2311.000000</ele>
<time>2018-08-15T08:47:51Z</time>
</trkpt>
<trkpt lat="46.4022304" lon="8.0614776">
<ele>2312.000000</ele>
<time>2018-08-15T08:48:01Z</time>
</trkpt>
<trkpt lat="46.4023040" lon="8.0615728">
<ele>2312.000000</ele>
<time>2018-08-15T08:48:11Z</time>
</trkpt>
<trkpt lat="46.4023488" lon="8.0616512">
<ele>2311.000000</ele>
<time>2018-08-15T08:48:21Z</time>
</trkpt>
<trkpt lat="46.4024032" lon="8.0617200">
<ele>2314.000000</ele>
<time>2018-08-15T08:48:31Z</time>
</trkpt>
<trkpt lat="46.4024128" lon="8.0618128">
<ele>2317.000000</ele>
<time>2018-08-15T08:48:41Z</time>
</trkpt>
<trkpt lat="46.4024544" lon="8.0618792">
<ele>2318.000000</ele>
<time>2018-08-15T08:48:51Z</time>
</trkpt>
<trkpt lat="46.4025280" lon="8.0619384">
<ele>2318.000000</ele>
<time>2018-08-15T08:49:01Z</time>
</trkpt>
<trkpt lat="46.4025376" lon="8.0620640">
<ele>2318.000000</ele>
<time>2018-08-15T08:49:12Z</time>
</trkpt>
<trkpt lat="46.4025600" lon="8.0620328">
<ele>2320.000000</ele>
<time>2018-08-15T08:52:02Z</time>
</trkpt>
<trkpt lat="46.4026464" lon="8.0620712">
<ele>2320.000000</ele>
<time>2018-08-15T08:52:12Z</time>
</trkpt>
<trkpt lat="46.4027104" lon="8.0621744">
<ele>2320.000000</ele>
<time>2018-08-15T08:52:22Z</time>
</trkpt>
<trkpt lat="46.4026656" lon="8.0623760">
<ele>2319.000000</ele>
<time>2018-08-15T08:52:32Z</time>
</trkpt>
<trkpt lat="46.4027584" lon="8.0623824">
<ele>2321.000000</ele>
<time>2018-08-15T08:52:42Z</time>
</trkpt>
<trkpt lat="46.4028000" lon="8.0624960">
<ele>2321.000000</ele>
<time>2018-08-15T08:52:52Z</time>
</trkpt>
<trkpt lat="46.4028288" lon="8.0626648">
<ele>2320.000000</ele>
<time>2018-08-15T08:53:02Z</time>
</trkpt>
<trkpt lat="46.4028704" lon="8.0627968">
<ele>2319.000000</ele>
<time>2018-08-15T08:53:12Z</time>
</trkpt>
<trkpt lat="46.4028576" lon="8.0628928">
<ele>2319.000000</ele>
<time>2018-08-15T08:53:22Z</time>
</trkpt>
<trkpt lat="46.4028512" lon="8.0629952">
<ele>2320.000000</ele>
<time>2018-08-15T08:53:32Z</time>
</trkpt>
<trkpt lat="46.4029184" lon="8.0630048">
<ele>2320.000000</ele>
<time>2018-08-15T08:53:43Z</time>
</trkpt>
<trkpt lat="46.4029440" lon="8.0630624">
<ele>2321.000000</ele>
<time>2018-08-15T08:53:53Z</time>
</trkpt>
<trkpt lat="46.4029312" lon="8.0631296">
<ele>2323.000000</ele>
<time>2018-08-15T08:54:03Z</time>
</trkpt>
<trkpt lat="46.4029760" lon="8.0631760">
<ele>2325.000000</ele>
<time>2018-08-15T08:54:13Z</time>
</trkpt>
<trkpt lat="46.4030144" lon="8.0631912">
<ele>2331.000000</ele>
<time>2018-08-15T08:54:23Z</time>
</trkpt>
<trkpt lat="46.4030496" lon="8.0631896">
<ele>2335.000000</ele>
<time>2018-08-15T08:54:33Z</time>
</trkpt>
<trkpt lat="46.4030656" lon="8.0632544">
<ele>2337.000000</ele>
<time>2018-08-15T08:54:45Z</time>
</trkpt>
<trkpt lat="46.4030464" lon="8.0633048">
<ele>2338.000000</ele>
<time>2018-08-15T08:54:55Z</time>
</trkpt>
<trkpt lat="46.4029920" lon="8.0633792">
<ele>2339.000000</ele>
<time>2018-08-15T08:55:05Z</time>
</trkpt>
<trkpt lat="46.4029664" lon="8.0634880">
<ele>2343.000000</ele>
<time>2018-08-15T08:55:15Z</time>
</trkpt>
<trkpt lat="46.4029568" lon="8.0636016">
<ele>2345.000000</ele>
<time>2018-08-15T08:55:25Z</time>
</trkpt>
<trkpt lat="46.4030624" lon="8.0636112">
<ele>2344.000000</ele>
<time>2018-08-15T08:55:35Z</time>
</trkpt>
<trkpt lat="46.4030688" lon="8.0636088">
<ele>2344.000000</ele>
<time>2018-08-15T08:56:14Z</time>
</trkpt>
<trkpt lat="46.4030912" lon="8.0636488">
<ele>2345.000000</ele>
<time>2018-08-15T08:56:27Z</time>
</trkpt>
<trkpt lat="46.4031168" lon="8.0637216">
<ele>2349.000000</ele>
<time>2018-08-15T08:56:37Z</time>
</trkpt>
<trkpt lat="46.4031744" lon="8.0638096">
<ele>2353.000000</ele>
<time>2018-08-15T08:56:47Z</time>
</trkpt>
<trkpt lat="46.4032288" lon="8.0638464">
<ele>2356.000000</ele>
<time>2018-08-15T08:56:57Z</time>
</trkpt>
<trkpt lat="46.4032896" lon="8.0638896">
<ele>2356.000000</ele>
<time>2018-08-15T08:57:07Z</time>
</trkpt>
<trkpt lat="46.4033120" lon="8.0639632">
<ele>2360.000000</ele>
<time>2018-08-15T08:57:17Z</time>
</trkpt>
<trkpt lat="46.4033024" lon="8.0640832">
<ele>2361.000000</ele>
<time>2018-08-15T08:57:27Z</time>
</trkpt>
<trkpt lat="46.4033440" lon="8.0641096">
<ele>2364.000000</ele>
<time>2018-08-15T08:57:37Z</time>
</trkpt>
<trkpt lat="46.4033696" lon="8.0641912">
<ele>2367.000000</ele>
<time>2018-08-15T08:57:47Z</time>
</trkpt>
<trkpt lat="46.4033760" lon="8.0642616">
<ele>2368.000000</ele>
<time>2018-08-15T08:57:57Z</time>
</trkpt>
<trkpt lat="46.4034528" lon="8.0642744">
<ele>2367.000000</ele>
<time>2018-08-15T08:58:07Z</time>
</trkpt>
<trkpt lat="46.4035200" lon="8.0642888">
<ele>2368.000000</ele>
<time>2018-08-15T08:58:17Z</time>
</trkpt>
<trkpt lat="46.4035680" lon="8.0643216">
<ele>2368.000000</ele>
<time>2018-08-15T08:58:27Z</time>
</trkpt>
<trkpt lat="46.4036288" lon="8.0643400">
<ele>2369.000000</ele>
<time>2018-08-15T08:58:37Z</time>
</trkpt>
<trkpt lat="46.4036224" lon="8.0644016">
<ele>2371.000000</ele>
<time>2018-08-15T08:58:47Z</time>
</trkpt>
<trkpt lat="46.4036384" lon="8.0644496">
<ele>2371.000000</ele>
<time>2018-08-15T08:58:57Z</time>
</trkpt>
<trkpt lat="46.4036256" lon="8.0644224">
<ele>2373.000000</ele>
<time>2018-08-15T08:59:07Z</time>
</trkpt>
<trkpt lat="46.4035872" lon="8.0645160">
<ele>2376.000000</ele>
<time>2018-08-15T08:59:17Z</time>
</trkpt>
<trkpt lat="46.4036320" lon="8.0645448">
<ele>2375.000000</ele>
<time>2018-08-15T08:59:27Z</time>
</trkpt>
<trkpt lat="46.4036064" lon="8.0646496">
<ele>2375.000000</ele>
<time>2018-08-15T08:59:37Z</time>
</trkpt>
<trkpt lat="46.4036000" lon="8.0647160">
<ele>2376.000000</ele>
<time>2018-08-15T08:59:47Z</time>
</trkpt>
<trkpt lat="46.4036480" lon="8.0647480">
<ele>2377.000000</ele>
<time>2018-08-15T08:59:57Z</time>
</trkpt>
<trkpt lat="46.4036864" lon="8.0647496">
<ele>2378.000000</ele>
<time>2018-08-15T09:00:10Z</time>
</trkpt>
<trkpt lat="46.4036800" lon="8.0648304">
<ele>2379.000000</ele>
<time>2018-08-15T09:00:20Z</time>
</trkpt>
<trkpt lat="46.4036896" lon="8.0649040">
<ele>2380.000000</ele>
<time>2018-08-15T09:00:30Z</time>
</trkpt>
<trkpt lat="46.4037216" lon="8.0649432">
<ele>2381.000000</ele>
<time>2018-08-15T09:00:40Z</time>
</trkpt>
<trkpt lat="46.4037472" lon="8.0649680">
<ele>2382.000000</ele>
<time>2018-08-15T09:00:50Z</time>
</trkpt>
<trkpt lat="46.4038080" lon="8.0649928">
<ele>2383.000000</ele>
<time>2018-08-15T09:01:00Z</time>
</trkpt>
<trkpt lat="46.4038656" lon="8.0650464">
<ele>2383.000000</ele>
<time>2018-08-15T09:01:10Z</time>
</trkpt>
<trkpt lat="46.4039488" lon="8.0650280">
<ele>2385.000000</ele>
<time>2018-08-15T09:01:20Z</time>
</trkpt>
<trkpt lat="46.4039648" lon="8.0650728">
<ele>2390.000000</ele>
<time>2018-08-15T09:01:30Z</time>
</trkpt>
<trkpt lat="46.4040000" lon="8.0651600">
<ele>2393.000000</ele>
<time>2018-08-15T09:01:40Z</time>
</trkpt>
<trkpt lat="46.4040448" lon="8.0653208">
<ele>2394.000000</ele>
<time>2018-08-15T09:01:50Z</time>
</trkpt>
<trkpt lat="46.4040768" lon="8.0653728">
<ele>2395.000000</ele>
<time>2018-08-15T09:02:07Z</time>
</trkpt>
<trkpt lat="46.4040640" lon="8.0654744">
<ele>2393.000000</ele>
<time>2018-08-15T09:02:17Z</time>
</trkpt>
<trkpt lat="46.4040160" lon="8.0655928">
<ele>2393.000000</ele>
<time>2018-08-15T09:02:27Z</time>
</trkpt>
<trkpt lat="46.4040160" lon="8.0656776">
<ele>2395.000000</ele>
<time>2018-08-15T09:02:37Z</time>
</trkpt>
<trkpt lat="46.4040032" lon="8.0657728">
<ele>2395.000000</ele>
<time>2018-08-15T09:02:47Z</time>
</trkpt>
<trkpt lat="46.4040160" lon="8.0658528">
<ele>2396.000000</ele>
<time>2018-08-15T09:02:57Z</time>
</trkpt>
<trkpt lat="46.4040288" lon="8.0659312">
<ele>2399.000000</ele>
<time>2018-08-15T09:03:07Z</time>
</trkpt>
<trkpt lat="46.4041184" lon="8.0659560">
<ele>2398.000000</ele>
<time>2018-08-15T09:03:17Z</time>
</trkpt>
<trkpt lat="46.4041024" lon="8.0660080">
<ele>2402.000000</ele>
<time>2018-08-15T09:03:27Z</time>
</trkpt>
<trkpt lat="46.4040896" lon="8.0660496">
<ele>2406.000000</ele>
<time>2018-08-15T09:03:37Z</time>
</trkpt>
<trkpt lat="46.4042240" lon="8.0660312">
<ele>2407.000000</ele>
<time>2018-08-15T09:03:47Z</time>
</trkpt>
<trkpt lat="46.4042176" lon="8.0659600">
<ele>2407.000000</ele>
<time>2018-08-15T09:03:57Z</time>
</trkpt>
<trkpt lat="46.4041984" lon="8.0660096">
<ele>2411.000000</ele>
<time>2018-08-15T09:04:07Z</time>
</trkpt>
<trkpt lat="46.4042560" lon="8.0659872">
<ele>2411.000000</ele>
<time>2018-08-15T09:04:17Z</time>
</trkpt>
<trkpt lat="46.4043424" lon="8.0659448">
<ele>2411.000000</ele>
<time>2018-08-15T09:04:27Z</time>
</trkpt>
<trkpt lat="46.4043776" lon="8.0659664">
<ele>2412.000000</ele>
<time>2018-08-15T09:04:37Z</time>
</trkpt>
<trkpt lat="46.4043744" lon="8.0660296">
<ele>2418.000000</ele>
<time>2018-08-15T09:04:47Z</time>
</trkpt>
<trkpt lat="46.4044192" lon="8.0660608">
<ele>2418.000000</ele>
<time>2018-08-15T09:04:57Z</time>
</trkpt>
<trkpt lat="46.4044960" lon="8.0660848">
<ele>2416.000000</ele>
<time>2018-08-15T09:05:07Z</time>
</trkpt>
<trkpt lat="46.4045760" lon="8.0661080">
<ele>2415.000000</ele>
<time>2018-08-15T09:05:17Z</time>
</trkpt>
<trkpt lat="46.4046592" lon="8.0660608">
<ele>2412.000000</ele>
<time>2018-08-15T09:05:27Z</time>
</trkpt>
<trkpt lat="46.4046624" lon="8.0661256">
<ele>2414.000000</ele>
<time>2018-08-15T09:05:37Z</time>
</trkpt>
<trkpt lat="46.4046848" lon="8.0661632">
<ele>2417.000000</ele>
<time>2018-08-15T09:05:47Z</time>
</trkpt>
<trkpt lat="46.4046752" lon="8.0662256">
<ele>2419.000000</ele>
<time>2018-08-15T09:06:00Z</time>
</trkpt>
<trkpt lat="46.4046752" lon="8.0662240">
<ele>2420.000000</ele>
<time>2018-08-15T09:06:17Z</time>
</trkpt>
<trkpt lat="46.4046400" lon="8.0662304">
<ele>2421.000000</ele>
<time>2018-08-15T09:06:27Z</time>
</trkpt>
<trkpt lat="46.4046528" lon="8.0663144">
<ele>2421.000000</ele>
<time>2018-08-15T09:06:37Z</time>
</trkpt>
<trkpt lat="46.4046336" lon="8.0664464">
<ele>2422.000000</ele>
<time>2018-08-15T09:06:47Z</time>
</trkpt>
<trkpt lat="46.4047712" lon="8.0664016">
<ele>2422.000000</ele>
<time>2018-08-15T09:06:57Z</time>
</trkpt>
<trkpt lat="46.4048352" lon="8.0663960">
<ele>2423.000000</ele>
<time>2018-08-15T09:07:07Z</time>
</trkpt>
<trkpt lat="46.4048992" lon="8.0664128">
<ele>2424.000000</ele>
<time>2018-08-15T09:07:17Z</time>
</trkpt>
<trkpt lat="46.4049088" lon="8.0664424">
<ele>2426.000000</ele>
<time>2018-08-15T09:07:27Z</time>
</trkpt>
<trkpt lat="46.4048992" lon="8.0664600">
<ele>2426.000000</ele>
<time>2018-08-15T09:07:37Z</time>
</trkpt>
<trkpt lat="46.4048704" lon="8.0665296">
<ele>2427.000000</ele>
<time>2018-08-15T09:07:47Z</time>
</trkpt>
<trkpt lat="46.4048256" lon="8.0665128">
<ele>2432.000000</ele>
<time>2018-08-15T09:07:57Z</time>
</trkpt>
<trkpt lat="46.4047744" lon="8.0664624">
<ele>2435.000000</ele>
<time>2018-08-15T09:08:07Z</time>
</trkpt>
<trkpt lat="46.4047232" lon="8.0665200">
<ele>2435.000000</ele>
<time>2018-08-15T09:08:17Z</time>
</trkpt>
<trkpt lat="46.4046624" lon="8.0665152">
<ele>2437.000000</ele>
<time>2018-08-15T09:08:27Z</time>
</trkpt>
<trkpt lat="46.4046720" lon="8.0665864">
<ele>2438.000000</ele>
<time>2018-08-15T09:08:37Z</time>
</trkpt>
<trkpt lat="46.4046944" lon="8.0666208">
<ele>2439.000000</ele>
<time>2018-08-15T09:08:56Z</time>
</trkpt>
<trkpt lat="46.4047264" lon="8.0666944">
<ele>2438.000000</ele>
<time>2018-08-15T09:09:06Z</time>
</trkpt>
<trkpt lat="46.4047552" lon="8.0667712">
<ele>2441.000000</ele>
<time>2018-08-15T09:09:16Z</time>
</trkpt>
<trkpt lat="46.4048000" lon="8.0668808">
<ele>2442.000000</ele>
<time>2018-08-15T09:09:26Z</time>
</trkpt>
<trkpt lat="46.4048512" lon="8.0669144">
<ele>2440.000000</ele>
<time>2018-08-15T09:09:36Z</time>
</trkpt>
<trkpt lat="46.4048704" lon="8.0669696">
<ele>2441.000000</ele>
<time>2018-08-15T09:09:46Z</time>
</trkpt>
<trkpt lat="46.4048896" lon="8.0670464">
<ele>2442.000000</ele>
<time>2018-08-15T09:09:56Z</time>
</trkpt>
<trkpt lat="46.4048736" lon="8.0671016">
<ele>2446.000000</ele>
<time>2018-08-15T09:10:06Z</time>
</trkpt>
<trkpt lat="46.4048608" lon="8.0671616">
<ele>2451.000000</ele>
<time>2018-08-15T09:10:16Z</time>
</trkpt>
<trkpt lat="46.4048640" lon="8.0672376">
<ele>2452.000000</ele>
<time>2018-08-15T09:10:26Z</time>
</trkpt>
<trkpt lat="46.4049184" lon="8.0673272">
<ele>2452.000000</ele>
<time>2018-08-15T09:10:36Z</time>
</trkpt>
<trkpt lat="46.4049184" lon="8.0674256">
<ele>2452.000000</ele>
<time>2018-08-15T09:10:46Z</time>
</trkpt>
<trkpt lat="46.4049824" lon="8.0674712">
<ele>2452.000000</ele>
<time>2018-08-15T09:10:56Z</time>
</trkpt>
<trkpt lat="46.4049952" lon="8.0675328">
<ele>2454.000000</ele>
<time>2018-08-15T09:11:06Z</time>
</trkpt>
<trkpt lat="46.4050880" lon="8.0675608">
<ele>2454.000000</ele>
<time>2018-08-15T09:11:16Z</time>
</trkpt>
<trkpt lat="46.4051520" lon="8.0676504">
<ele>2454.000000</ele>
<time>2018-08-15T09:11:26Z</time>
</trkpt>
<trkpt lat="46.4052032" lon="8.0677512">
<ele>2454.000000</ele>
<time>2018-08-15T09:11:36Z</time>
</trkpt>
<trkpt lat="46.4052672" lon="8.0678616">
<ele>2454.000000</ele>
<time>2018-08-15T09:11:46Z</time>
</trkpt>
<trkpt lat="46.4053120" lon="8.0679600">
<ele>2454.000000</ele>
<time>2018-08-15T09:11:56Z</time>
</trkpt>
<trkpt lat="46.4053504" lon="8.0680048">
<ele>2455.000000</ele>
<time>2018-08-15T09:12:06Z</time>
</trkpt>
<trkpt lat="46.4054144" lon="8.0680376">
<ele>2457.000000</ele>
<time>2018-08-15T09:12:16Z</time>
</trkpt>
<trkpt lat="46.4054560" lon="8.0680808">
<ele>2459.000000</ele>
<time>2018-08-15T09:12:26Z</time>
</trkpt>
<trkpt lat="46.4054720" lon="8.0681448">
<ele>2464.000000</ele>
<time>2018-08-15T09:12:36Z</time>
</trkpt>
<trkpt lat="46.4054848" lon="8.0681928">
<ele>2466.000000</ele>
<time>2018-08-15T09:12:46Z</time>
</trkpt>
<trkpt lat="46.4055360" lon="8.0682432">
<ele>2464.000000</ele>
<time>2018-08-15T09:12:56Z</time>
</trkpt>
<trkpt lat="46.4056480" lon="8.0682328">
<ele>2464.000000</ele>
<time>2018-08-15T09:13:06Z</time>
</trkpt>
<trkpt lat="46.4057312" lon="8.0682296">
<ele>2463.000000</ele>
<time>2018-08-15T09:13:16Z</time>
</trkpt>
<trkpt lat="46.4058272" lon="8.0682128">
<ele>2462.000000</ele>
<time>2018-08-15T09:13:26Z</time>
</trkpt>
<trkpt lat="46.4058720" lon="8.0682160">
<ele>2461.000000</ele>
<time>2018-08-15T09:13:36Z</time>
</trkpt>
<trkpt lat="46.4059456" lon="8.0682384">
<ele>2462.000000</ele>
<time>2018-08-15T09:13:46Z</time>
</trkpt>
<trkpt lat="46.4059872" lon="8.0682544">
<ele>2463.000000</ele>
<time>2018-08-15T09:13:56Z</time>
</trkpt>
<trkpt lat="46.4060544" lon="8.0683296">
<ele>2464.000000</ele>
<time>2018-08-15T09:14:06Z</time>
</trkpt>
<trkpt lat="46.4060320" lon="8.0683832">
<ele>2469.000000</ele>
<time>2018-08-15T09:14:16Z</time>
</trkpt>
<trkpt lat="46.4060544" lon="8.0685128">
<ele>2469.000000</ele>
<time>2018-08-15T09:14:26Z</time>
</trkpt>
<trkpt lat="46.4060928" lon="8.0686464">
<ele>2470.000000</ele>
<time>2018-08-15T09:14:36Z</time>
</trkpt>
<trkpt lat="46.4061248" lon="8.0687008">
<ele>2471.000000</ele>
<time>2018-08-15T09:14:46Z</time>
</trkpt>
<trkpt lat="46.4061696" lon="8.0687936">
<ele>2473.000000</ele>
<time>2018-08-15T09:14:56Z</time>
</trkpt>
<trkpt lat="46.4062048" lon="8.0688992">
<ele>2473.000000</ele>
<time>2018-08-15T09:15:06Z</time>
</trkpt>
<trkpt lat="46.4062816" lon="8.0689992">
<ele>2474.000000</ele>
<time>2018-08-15T09:15:16Z</time>
</trkpt>
<trkpt lat="46.4063424" lon="8.0690744">
<ele>2475.000000</ele>
<time>2018-08-15T09:15:26Z</time>
</trkpt>
<trkpt lat="46.4063744" lon="8.0691864">
<ele>2476.000000</ele>
<time>2018-08-15T09:15:36Z</time>
</trkpt>
<trkpt lat="46.4064192" lon="8.0693152">
<ele>2477.000000</ele>
<time>2018-08-15T09:15:46Z</time>
</trkpt>
<trkpt lat="46.4064704" lon="8.0694472">
<ele>2477.000000</ele>
<time>2018-08-15T09:15:56Z</time>
</trkpt>
<trkpt lat="46.4065120" lon="8.0695608">
<ele>2476.000000</ele>
<time>2018-08-15T09:16:06Z</time>
</trkpt>
<trkpt lat="46.4065504" lon="8.0696384">
<ele>2479.000000</ele>
<time>2018-08-15T09:16:16Z</time>
</trkpt>
<trkpt lat="46.4065824" lon="8.0697912">
<ele>2480.000000</ele>
<time>2018-08-15T09:16:26Z</time>
</trkpt>
<trkpt lat="46.4066272" lon="8.0699312">
<ele>2481.000000</ele>
<time>2018-08-15T09:16:36Z</time>
</trkpt>
<trkpt lat="46.4066592" lon="8.0700296">
<ele>2482.000000</ele>
<time>2018-08-15T09:16:46Z</time>
</trkpt>
<trkpt lat="46.4066976" lon="8.0701312">
<ele>2485.000000</ele>
<time>2018-08-15T09:16:56Z</time>
</trkpt>
<trkpt lat="46.4067584" lon="8.0702320">
<ele>2487.000000</ele>
<time>2018-08-15T09:17:06Z</time>
</trkpt>
<trkpt lat="46.4068352" lon="8.0702992">
<ele>2489.000000</ele>
<time>2018-08-15T09:17:16Z</time>
</trkpt>
<trkpt lat="46.4068576" lon="8.0703056">
<ele>2487.000000</ele>
<time>2018-08-15T09:17:26Z</time>
</trkpt>
<trkpt lat="46.4069152" lon="8.0704080">
<ele>2488.000000</ele>
<time>2018-08-15T09:17:36Z</time>
</trkpt>
<trkpt lat="46.4069856" lon="8.0704792">
<ele>2489.000000</ele>
<time>2018-08-15T09:17:46Z</time>
</trkpt>
<trkpt lat="46.4070592" lon="8.0705680">
<ele>2489.000000</ele>
<time>2018-08-15T09:17:56Z</time>
</trkpt>
<trkpt lat="46.4071360" lon="8.0706088">
<ele>2491.000000</ele>
<time>2018-08-15T09:18:06Z</time>
</trkpt>
<trkpt lat="46.4072128" lon="8.0706912">
<ele>2491.000000</ele>
<time>2018-08-15T09:18:16Z</time>
</trkpt>
<trkpt lat="46.4072800" lon="8.0707128">
<ele>2491.000000</ele>
<time>2018-08-15T09:18:26Z</time>
</trkpt>
<trkpt lat="46.4073792" lon="8.0707280">
<ele>2491.000000</ele>
<time>2018-08-15T09:18:36Z</time>
</trkpt>
<trkpt lat="46.4073856" lon="8.0707016">
<ele>2491.000000</ele>
<time>2018-08-15T09:18:50Z</time>
</trkpt>
<trkpt lat="46.4074144" lon="8.0706480">
<ele>2491.000000</ele>
<time>2018-08-15T09:19:00Z</time>
</trkpt>
<trkpt lat="46.4074912" lon="8.0705568">
<ele>2491.000000</ele>
<time>2018-08-15T09:19:10Z</time>
</trkpt>
<trkpt lat="46.4075424" lon="8.0705544">
<ele>2491.000000</ele>
<time>2018-08-15T09:19:20Z</time>
</trkpt>
<trkpt lat="46.4075936" lon="8.0705640">
<ele>2491.000000</ele>
<time>2018-08-15T09:19:30Z</time>
</trkpt>
<trkpt lat="46.4076512" lon="8.0705912">
<ele>2491.000000</ele>
<time>2018-08-15T09:19:40Z</time>
</trkpt>
<trkpt lat="46.4077632" lon="8.0705760">
<ele>2490.000000</ele>
<time>2018-08-15T09:19:50Z</time>
</trkpt>
<trkpt lat="46.4079168" lon="8.0704992">
<ele>2489.000000</ele>
<time>2018-08-15T09:20:00Z</time>
</trkpt>
<trkpt lat="46.4079008" lon="8.0703680">
<ele>2488.000000</ele>
<time>2018-08-15T09:20:10Z</time>
</trkpt>
<trkpt lat="46.4079680" lon="8.0703408">
<ele>2487.000000</ele>
<time>2018-08-15T09:20:20Z</time>
</trkpt>
<trkpt lat="46.4080576" lon="8.0702384">
<ele>2486.000000</ele>
<time>2018-08-15T09:20:30Z</time>
</trkpt>
<trkpt lat="46.4080960" lon="8.0701464">
<ele>2484.000000</ele>
<time>2018-08-15T09:20:40Z</time>
</trkpt>
<trkpt lat="46.4081888" lon="8.0701312">
<ele>2483.000000</ele>
<time>2018-08-15T09:20:50Z</time>
</trkpt>
<trkpt lat="46.4082720" lon="8.0701112">
<ele>2484.000000</ele>
<time>2018-08-15T09:21:00Z</time>
</trkpt>
<trkpt lat="46.4082880" lon="8.0700296">
<ele>2482.000000</ele>
<time>2018-08-15T09:21:10Z</time>
</trkpt>
<trkpt lat="46.4083648" lon="8.0699848">
<ele>2481.000000</ele>
<time>2018-08-15T09:21:20Z</time>
</trkpt>
<trkpt lat="46.4083968" lon="8.0699712">
<ele>2480.000000</ele>
<time>2018-08-15T09:21:31Z</time>
</trkpt>
<trkpt lat="46.4084128" lon="8.0699816">
<ele>2480.000000</ele>
<time>2018-08-15T09:21:41Z</time>
</trkpt>
<trkpt lat="46.4084064" lon="8.0699576">
<ele>2480.000000</ele>
<time>2018-08-15T09:22:31Z</time>
</trkpt>
<trkpt lat="46.4084672" lon="8.0699176">
<ele>2480.000000</ele>
<time>2018-08-15T09:22:41Z</time>
</trkpt>
<trkpt lat="46.4085504" lon="8.0699464">
<ele>2479.000000</ele>
<time>2018-08-15T09:22:51Z</time>
</trkpt>
<trkpt lat="46.4086368" lon="8.0699152">
<ele>2479.000000</ele>
<time>2018-08-15T09:23:01Z</time>
</trkpt>
<trkpt lat="46.4086880" lon="8.0699112">
<ele>2478.000000</ele>
<time>2018-08-15T09:23:11Z</time>
</trkpt>
<trkpt lat="46.4087456" lon="8.0699280">
<ele>2478.000000</ele>
<time>2018-08-15T09:23:21Z</time>
</trkpt>
<trkpt lat="46.4088288" lon="8.0698528">
<ele>2477.000000</ele>
<time>2018-08-15T09:23:31Z</time>
</trkpt>
<trkpt lat="46.4089696" lon="8.0698592">
<ele>2476.000000</ele>
<time>2018-08-15T09:23:41Z</time>
</trkpt>
<trkpt lat="46.4090144" lon="8.0697640">
<ele>2475.000000</ele>
<time>2018-08-15T09:23:51Z</time>
</trkpt>
<trkpt lat="46.4090208" lon="8.0698264">
<ele>2473.000000</ele>
<time>2018-08-15T09:24:01Z</time>
</trkpt>
<trkpt lat="46.4091200" lon="8.0698144">
<ele>2472.000000</ele>
<time>2018-08-15T09:24:11Z</time>
</trkpt>
<trkpt lat="46.4091808" lon="8.0698976">
<ele>2471.000000</ele>
<time>2018-08-15T09:24:21Z</time>
</trkpt>
<trkpt lat="46.4092448" lon="8.0698312">
<ele>2470.000000</ele>
<time>2018-08-15T09:24:31Z</time>
</trkpt>
<trkpt lat="46.4092832" lon="8.0697640">
<ele>2468.000000</ele>
<time>2018-08-15T09:24:41Z</time>
</trkpt>
<trkpt lat="46.4092992" lon="8.0697504">
<ele>2465.000000</ele>
<time>2018-08-15T09:24:51Z</time>
</trkpt>
<trkpt lat="46.4093408" lon="8.0697056">
<ele>2464.000000</ele>
<time>2018-08-15T09:25:01Z</time>
</trkpt>
<trkpt lat="46.4094240" lon="8.0697576">
<ele>2462.000000</ele>
<time>2018-08-15T09:25:12Z</time>
</trkpt>
<trkpt lat="46.4094816" lon="8.0698216">
<ele>2462.000000</ele>
<time>2018-08-15T09:25:22Z</time>
</trkpt>
<trkpt lat="46.4095584" lon="8.0698816">
<ele>2461.000000</ele>
<time>2018-08-15T09:25:32Z</time>
</trkpt>
<trkpt lat="46.4096384" lon="8.0697680">
<ele>2461.000000</ele>
<time>2018-08-15T09:25:42Z</time>
</trkpt>
<trkpt lat="46.4097184" lon="8.0697928">
<ele>2459.000000</ele>
<time>2018-08-15T09:25:52Z</time>
</trkpt>
<trkpt lat="46.4096224" lon="8.0696880">
<ele>2457.000000</ele>
<time>2018-08-15T09:26:02Z</time>
</trkpt>
<trkpt lat="46.4096576" lon="8.0696792">
<ele>2454.000000</ele>
<time>2018-08-15T09:26:12Z</time>
</trkpt>
<trkpt lat="46.4096960" lon="8.0697240">
<ele>2453.000000</ele>
<time>2018-08-15T09:26:22Z</time>
</trkpt>
<trkpt lat="46.4097600" lon="8.0697576">
<ele>2451.000000</ele>
<time>2018-08-15T09:26:32Z</time>
</trkpt>
<trkpt lat="46.4098176" lon="8.0697128">
<ele>2449.000000</ele>
<time>2018-08-15T09:26:42Z</time>
</trkpt>
<trkpt lat="46.4098304" lon="8.0697480">
<ele>2449.000000</ele>
<time>2018-08-15T09:27:30Z</time>
</trkpt>
<trkpt lat="46.4099136" lon="8.0696408">
<ele>2449.000000</ele>
<time>2018-08-15T09:27:40Z</time>
</trkpt>
<trkpt lat="46.4099200" lon="8.0696448">
<ele>2449.000000</ele>
<time>2018-08-15T09:28:08Z</time>
</trkpt>
<trkpt lat="46.4099456" lon="8.0696344">
<ele>2449.000000</ele>
<time>2018-08-15T09:28:18Z</time>
</trkpt>
<trkpt lat="46.4100544" lon="8.0696384">
<ele>2449.000000</ele>
<time>2018-08-15T09:28:28Z</time>
</trkpt>
<trkpt lat="46.4101056" lon="8.0697192">
<ele>2448.000000</ele>
<time>2018-08-15T09:28:38Z</time>
</trkpt>
<trkpt lat="46.4101216" lon="8.0697464">
<ele>2448.000000</ele>
<time>2018-08-15T09:28:48Z</time>
</trkpt>
<trkpt lat="46.4101728" lon="8.0697616">
<ele>2448.000000</ele>
<time>2018-08-15T09:28:58Z</time>
</trkpt>
<trkpt lat="46.4101920" lon="8.0697528">
<ele>2447.000000</ele>
<time>2018-08-15T09:29:12Z</time>
</trkpt>
<trkpt lat="46.4102240" lon="8.0697144">
<ele>2448.000000</ele>
<time>2018-08-15T09:29:22Z</time>
</trkpt>
<trkpt lat="46.4103040" lon="8.0697416">
<ele>2447.000000</ele>
<time>2018-08-15T09:29:32Z</time>
</trkpt>
<trkpt lat="46.4103264" lon="8.0697232">
<ele>2447.000000</ele>
<time>2018-08-15T09:29:42Z</time>
</trkpt>
<trkpt lat="46.4103584" lon="8.0697944">
<ele>2447.000000</ele>
<time>2018-08-15T09:29:52Z</time>
</trkpt>
<trkpt lat="46.4103968" lon="8.0698712">
<ele>2446.000000</ele>
<time>2018-08-15T09:30:02Z</time>
</trkpt>
<trkpt lat="46.4104224" lon="8.0698496">
<ele>2446.000000</ele>
<time>2018-08-15T09:30:13Z</time>
</trkpt>
<trkpt lat="46.4105088" lon="8.0698528">
<ele>2446.000000</ele>
<time>2018-08-15T09:30:23Z</time>
</trkpt>
<trkpt lat="46.4105568" lon="8.0698840">
<ele>2446.000000</ele>
<time>2018-08-15T09:30:33Z</time>
</trkpt>
<trkpt lat="46.4105952" lon="8.0699216">
<ele>2445.000000</ele>
<time>2018-08-15T09:30:43Z</time>
</trkpt>
<trkpt lat="46.4106592" lon="8.0699080">
<ele>2446.000000</ele>
<time>2018-08-15T09:30:53Z</time>
</trkpt>
<trkpt lat="46.4107424" lon="8.0699240">
<ele>2445.000000</ele>
<time>2018-08-15T09:31:03Z</time>
</trkpt>
<trkpt lat="46.4107744" lon="8.0699176">
<ele>2445.000000</ele>
<time>2018-08-15T09:31:13Z</time>
</trkpt>
<trkpt lat="46.4108576" lon="8.0699560">
<ele>2444.000000</ele>
<time>2018-08-15T09:31:23Z</time>
</trkpt>
<trkpt lat="46.4109760" lon="8.0699328">
<ele>2444.000000</ele>
<time>2018-08-15T09:31:33Z</time>
</trkpt>
<trkpt lat="46.4110144" lon="8.0699464">
<ele>2443.000000</ele>
<time>2018-08-15T09:31:43Z</time>
</trkpt>
<trkpt lat="46.4110496" lon="8.0699376">
<ele>2443.000000</ele>
<time>2018-08-15T09:32:02Z</time>
</trkpt>
<trkpt lat="46.4110496" lon="8.0699360">
<ele>2443.000000</ele>
<time>2018-08-15T09:32:19Z</time>
</trkpt>
<trkpt lat="46.4110560" lon="8.0699224">
<ele>2443.000000</ele>
<time>2018-08-15T09:32:38Z</time>
</trkpt>
<trkpt lat="46.4110592" lon="8.0699224">
<ele>2443.000000</ele>
<time>2018-08-15T09:33:06Z</time>
</trkpt>
<trkpt lat="46.4110656" lon="8.0699240">
<ele>2443.000000</ele>
<time>2018-08-15T09:33:16Z</time>
</trkpt>
<trkpt lat="46.4110400" lon="8.0699312">
<ele>2443.000000</ele>
<time>2018-08-15T09:34:23Z</time>
</trkpt>
<trkpt lat="46.4110496" lon="8.0699424">
<ele>2442.000000</ele>
<time>2018-08-15T09:34:39Z</time>
</trkpt>
<trkpt lat="46.4110368" lon="8.0699312">
<ele>2442.000000</ele>
<time>2018-08-15T09:34:49Z</time>
</trkpt>
<trkpt lat="46.4110208" lon="8.0698912">
<ele>2443.000000</ele>
<time>2018-08-15T09:35:10Z</time>
</trkpt>
<trkpt lat="46.4110208" lon="8.0698944">
<ele>2443.000000</ele>
<time>2018-08-15T09:35:37Z</time>
</trkpt>
<trkpt lat="46.4110272" lon="8.0699088">
<ele>2442.000000</ele>
<time>2018-08-15T09:35:47Z</time>
</trkpt>
<trkpt lat="46.4110272" lon="8.0698976">
<ele>2442.000000</ele>
<time>2018-08-15T09:35:57Z</time>
</trkpt>
<trkpt lat="46.4110336" lon="8.0698944">
<ele>2442.000000</ele>
<time>2018-08-15T09:36:19Z</time>
</trkpt>
<trkpt lat="46.4110272" lon="8.0698976">
<ele>2442.000000</ele>
<time>2018-08-15T09:36:41Z</time>
</trkpt>
<trkpt lat="46.4110528" lon="8.0700128">
<ele>2441.000000</ele>
<time>2018-08-15T09:36:51Z</time>
</trkpt>
<trkpt lat="46.4111552" lon="8.0701272">
<ele>2440.000000</ele>
<time>2018-08-15T09:37:01Z</time>
</trkpt>
<trkpt lat="46.4112128" lon="8.0701208">
<ele>2438.000000</ele>
<time>2018-08-15T09:37:11Z</time>
</trkpt>
<trkpt lat="46.4112480" lon="8.0701464">
<ele>2437.000000</ele>
<time>2018-08-15T09:37:21Z</time>
</trkpt>
<trkpt lat="46.4113248" lon="8.0702880">
<ele>2439.000000</ele>
<time>2018-08-15T09:37:31Z</time>
</trkpt>
<trkpt lat="46.4113792" lon="8.0703344">
<ele>2438.000000</ele>
<time>2018-08-15T09:37:41Z</time>
</trkpt>
<trkpt lat="46.4113472" lon="8.0703432">
<ele>2441.000000</ele>
<time>2018-08-15T09:37:51Z</time>
</trkpt>
<trkpt lat="46.4113984" lon="8.0704256">
<ele>2442.000000</ele>
<time>2018-08-15T09:38:01Z</time>
</trkpt>
<trkpt lat="46.4114656" lon="8.0704344">
<ele>2441.000000</ele>
<time>2018-08-15T09:38:11Z</time>
</trkpt>
<trkpt lat="46.4115648" lon="8.0705392">
<ele>2441.000000</ele>
<time>2018-08-15T09:38:21Z</time>
</trkpt>
<trkpt lat="46.4115648" lon="8.0705696">
<ele>2439.000000</ele>
<time>2018-08-15T09:38:31Z</time>
</trkpt>
<trkpt lat="46.4116512" lon="8.0706616">
<ele>2440.000000</ele>
<time>2018-08-15T09:38:41Z</time>
</trkpt>
<trkpt lat="46.4117088" lon="8.0707416">
<ele>2439.000000</ele>
<time>2018-08-15T09:38:51Z</time>
</trkpt>
<trkpt lat="46.4117312" lon="8.0708112">
<ele>2441.000000</ele>
<time>2018-08-15T09:39:01Z</time>
</trkpt>
<trkpt lat="46.4117952" lon="8.0709360">
<ele>2442.000000</ele>
<time>2018-08-15T09:39:11Z</time>
</trkpt>
<trkpt lat="46.4119520" lon="8.0708896">
<ele>2442.000000</ele>
<time>2018-08-15T09:39:21Z</time>
</trkpt>
<trkpt lat="46.4119616" lon="8.0708984">
<ele>2440.000000</ele>
<time>2018-08-15T09:39:31Z</time>
</trkpt>
<trkpt lat="46.4120000" lon="8.0709048">
<ele>2440.000000</ele>
<time>2018-08-15T09:39:51Z</time>
</trkpt>
<trkpt lat="46.4120672" lon="8.0708912">
<ele>2439.000000</ele>
<time>2018-08-15T09:40:01Z</time>
</trkpt>
<trkpt lat="46.4121056" lon="8.0709264">
<ele>2439.000000</ele>
<time>2018-08-15T09:40:11Z</time>
</trkpt>
<trkpt lat="46.4122304" lon="8.0710560">
<ele>2438.000000</ele>
<time>2018-08-15T09:40:21Z</time>
</trkpt>
<trkpt lat="46.4122496" lon="8.0709728">
<ele>2438.000000</ele>
<time>2018-08-15T09:40:48Z</time>
</trkpt>
<trkpt lat="46.4122528" lon="8.0709712">
<ele>2439.000000</ele>
<time>2018-08-15T09:41:00Z</time>
</trkpt>
<trkpt lat="46.4123488" lon="8.0710032">
<ele>2438.000000</ele>
<time>2018-08-15T09:41:10Z</time>
</trkpt>
<trkpt lat="46.4124480" lon="8.0712192">
<ele>2438.000000</ele>
<time>2018-08-15T09:41:20Z</time>
</trkpt>
<trkpt lat="46.4125088" lon="8.0713240">
<ele>2438.000000</ele>
<time>2018-08-15T09:41:36Z</time>
</trkpt>
<trkpt lat="46.4125152" lon="8.0713280">
<ele>2437.000000</ele>
<time>2018-08-15T09:41:46Z</time>
</trkpt>
<trkpt lat="46.4126176" lon="8.0713024">
<ele>2437.000000</ele>
<time>2018-08-15T09:41:56Z</time>
</trkpt>
<trkpt lat="46.4127744" lon="8.0713800">
<ele>2437.000000</ele>
<time>2018-08-15T09:42:06Z</time>
</trkpt>
<trkpt lat="46.4127360" lon="8.0713624">
<ele>2437.000000</ele>
<time>2018-08-15T09:42:16Z</time>
</trkpt>
<trkpt lat="46.4127200" lon="8.0713480">
<ele>2436.000000</ele>
<time>2018-08-15T09:42:26Z</time>
</trkpt>
<trkpt lat="46.4128256" lon="8.0714280">
<ele>2435.000000</ele>
<time>2018-08-15T09:42:36Z</time>
</trkpt>
<trkpt lat="46.4128928" lon="8.0714560">
<ele>2434.000000</ele>
<time>2018-08-15T09:42:46Z</time>
</trkpt>
<trkpt lat="46.4130560" lon="8.0715544">
<ele>2434.000000</ele>
<time>2018-08-15T09:42:55Z</time>
</trkpt>
<trkpt lat="46.4129408" lon="8.0715248">
<ele>2433.000000</ele>
<time>2018-08-15T09:43:05Z</time>
</trkpt>
<trkpt lat="46.4130560" lon="8.0716248">
<ele>2432.000000</ele>
<time>2018-08-15T09:43:15Z</time>
</trkpt>
<trkpt lat="46.4132096" lon="8.0716760">
<ele>2432.000000</ele>
<time>2018-08-15T09:43:25Z</time>
</trkpt>
<trkpt lat="46.4132992" lon="8.0717296">
<ele>2432.000000</ele>
<time>2018-08-15T09:43:35Z</time>
</trkpt>
<trkpt lat="46.4133344" lon="8.0717280">
<ele>2429.000000</ele>
<time>2018-08-15T09:43:45Z</time>
</trkpt>
<trkpt lat="46.4133728" lon="8.0717360">
<ele>2428.000000</ele>
<time>2018-08-15T09:43:55Z</time>
</trkpt>
<trkpt lat="46.4134144" lon="8.0717696">
<ele>2426.000000</ele>
<time>2018-08-15T09:44:05Z</time>
</trkpt>
<trkpt lat="46.4135616" lon="8.0717560">
<ele>2425.000000</ele>
<time>2018-08-15T09:44:15Z</time>
</trkpt>
<trkpt lat="46.4135968" lon="8.0717656">
<ele>2424.000000</ele>
<time>2018-08-15T09:44:25Z</time>
</trkpt>
<trkpt lat="46.4136544" lon="8.0717344">
<ele>2423.000000</ele>
<time>2018-08-15T09:44:35Z</time>
</trkpt>
<trkpt lat="46.4136928" lon="8.0718176">
<ele>2423.000000</ele>
<time>2018-08-15T09:44:45Z</time>
</trkpt>
<trkpt lat="46.4137376" lon="8.0717968">
<ele>2423.000000</ele>
<time>2018-08-15T09:44:55Z</time>
</trkpt>
<trkpt lat="46.4136608" lon="8.0716880">
<ele>2422.000000</ele>
<time>2018-08-15T09:45:05Z</time>
</trkpt>
<trkpt lat="46.4136768" lon="8.0716384">
<ele>2421.000000</ele>
<time>2018-08-15T09:45:15Z</time>
</trkpt>
<trkpt lat="46.4137376" lon="8.0716712">
<ele>2421.000000</ele>
<time>2018-08-15T09:45:25Z</time>
</trkpt>
<trkpt lat="46.4138112" lon="8.0716312">
<ele>2420.000000</ele>
<time>2018-08-15T09:45:35Z</time>
</trkpt>
<trkpt lat="46.4138688" lon="8.0716648">
<ele>2419.000000</ele>
<time>2018-08-15T09:45:45Z</time>
</trkpt>
<trkpt lat="46.4139488" lon="8.0717328">
<ele>2418.000000</ele>
<time>2018-08-15T09:45:55Z</time>
</trkpt>
<trkpt lat="46.4140384" lon="8.0717608">
<ele>2416.000000</ele>
<time>2018-08-15T09:46:05Z</time>
</trkpt>
<trkpt lat="46.4141376" lon="8.0717544">
<ele>2413.000000</ele>
<time>2018-08-15T09:46:15Z</time>
</trkpt>
<trkpt lat="46.4141952" lon="8.0717792">
<ele>2411.000000</ele>
<time>2018-08-15T09:46:25Z</time>
</trkpt>
<trkpt lat="46.4143424" lon="8.0718504">
<ele>2409.000000</ele>
<time>2018-08-15T09:46:36Z</time>
</trkpt>
<trkpt lat="46.4143936" lon="8.0718832">
<ele>2408.000000</ele>
<time>2018-08-15T09:46:46Z</time>
</trkpt>
<trkpt lat="46.4145216" lon="8.0718080">
<ele>2407.000000</ele>
<time>2018-08-15T09:46:56Z</time>
</trkpt>
<trkpt lat="46.4145824" lon="8.0718968">
<ele>2406.000000</ele>
<time>2018-08-15T09:47:06Z</time>
</trkpt>
<trkpt lat="46.4145408" lon="8.0717984">
<ele>2406.000000</ele>
<time>2018-08-15T09:47:17Z</time>
</trkpt>
<trkpt lat="46.4145664" lon="8.0717856">
<ele>2406.000000</ele>
<time>2018-08-15T09:47:27Z</time>
</trkpt>
<trkpt lat="46.4146624" lon="8.0718328">
<ele>2406.000000</ele>
<time>2018-08-15T09:47:37Z</time>
</trkpt>
<trkpt lat="46.4146720" lon="8.0718216">
<ele>2406.000000</ele>
<time>2018-08-15T09:47:47Z</time>
</trkpt>
<trkpt lat="46.4146464" lon="8.0718032">
<ele>2406.000000</ele>
<time>2018-08-15T09:48:14Z</time>
</trkpt>
<trkpt lat="46.4146688" lon="8.0717632">
<ele>2406.000000</ele>
<time>2018-08-15T09:48:24Z</time>
</trkpt>
<trkpt lat="46.4146240" lon="8.0716512">
<ele>2405.000000</ele>
<time>2018-08-15T09:48:34Z</time>
</trkpt>
<trkpt lat="46.4146272" lon="8.0716496">
<ele>2405.000000</ele>
<time>2018-08-15T09:48:36Z</time>
</trkpt>
<trkpt lat="46.4146336" lon="8.0716648">
<ele>2405.000000</ele>
<time>2018-08-15T09:48:39Z</time>
</trkpt>
<trkpt lat="46.4146432" lon="8.0716648">
<ele>2405.000000</ele>
<time>2018-08-15T09:48:40Z</time>
</trkpt>
<trkpt lat="46.4147200" lon="8.0717592">
<ele>2404.000000</ele>
<time>2018-08-15T09:48:50Z</time>
</trkpt>
<trkpt lat="46.4147904" lon="8.0718008">
<ele>2402.000000</ele>
<time>2018-08-15T09:49:00Z</time>
</trkpt>
<trkpt lat="46.4148896" lon="8.0718680">
<ele>2400.000000</ele>
<time>2018-08-15T09:49:10Z</time>
</trkpt>
<trkpt lat="46.4149984" lon="8.0719112">
<ele>2395.000000</ele>
<time>2018-08-15T09:49:20Z</time>
</trkpt>
<trkpt lat="46.4151232" lon="8.0720128">
<ele>2391.000000</ele>
<time>2018-08-15T09:49:30Z</time>
</trkpt>
<trkpt lat="46.4152096" lon="8.0721216">
<ele>2388.000000</ele>
<time>2018-08-15T09:49:40Z</time>
</trkpt>
<trkpt lat="46.4153184" lon="8.0721352">
<ele>2386.000000</ele>
<time>2018-08-15T09:49:50Z</time>
</trkpt>
<trkpt lat="46.4153984" lon="8.0722128">
<ele>2382.000000</ele>
<time>2018-08-15T09:50:00Z</time>
</trkpt>
<trkpt lat="46.4154880" lon="8.0722912">
<ele>2380.000000</ele>
<time>2018-08-15T09:50:10Z</time>
</trkpt>
<trkpt lat="46.4156384" lon="8.0723312">
<ele>2377.000000</ele>
<time>2018-08-15T09:50:20Z</time>
</trkpt>
<trkpt lat="46.4157056" lon="8.0723592">
<ele>2374.000000</ele>
<time>2018-08-15T09:50:30Z</time>
</trkpt>
<trkpt lat="46.4157728" lon="8.0723696">
<ele>2372.000000</ele>
<time>2018-08-15T09:50:40Z</time>
</trkpt>
<trkpt lat="46.4158720" lon="8.0723320">
<ele>2371.000000</ele>
<time>2018-08-15T09:50:50Z</time>
</trkpt>
<trkpt lat="46.4159968" lon="8.0723760">
<ele>2368.000000</ele>
<time>2018-08-15T09:51:00Z</time>
</trkpt>
<trkpt lat="46.4160352" lon="8.0723032">
<ele>2366.000000</ele>
<time>2018-08-15T09:51:10Z</time>
</trkpt>
<trkpt lat="46.4160832" lon="8.0723144">
<ele>2364.000000</ele>
<time>2018-08-15T09:51:20Z</time>
</trkpt>
<trkpt lat="46.4161792" lon="8.0723160">
<ele>2363.000000</ele>
<time>2018-08-15T09:51:30Z</time>
</trkpt>
<trkpt lat="46.4162944" lon="8.0723456">
<ele>2362.000000</ele>
<time>2018-08-15T09:51:41Z</time>
</trkpt>
<trkpt lat="46.4163808" lon="8.0723960">
<ele>2361.000000</ele>
<time>2018-08-15T09:51:51Z</time>
</trkpt>
<trkpt lat="46.4165088" lon="8.0724296">
<ele>2360.000000</ele>
<time>2018-08-15T09:52:01Z</time>
</trkpt>
<trkpt lat="46.4165824" lon="8.0724632">
<ele>2360.000000</ele>
<time>2018-08-15T09:52:11Z</time>
</trkpt>
<trkpt lat="46.4166944" lon="8.0725128">
<ele>2359.000000</ele>
<time>2018-08-15T09:52:21Z</time>
</trkpt>
<trkpt lat="46.4168064" lon="8.0725456">
<ele>2358.000000</ele>
<time>2018-08-15T09:52:31Z</time>
</trkpt>
<trkpt lat="46.4168992" lon="8.0725576">
<ele>2358.000000</ele>
<time>2018-08-15T09:52:41Z</time>
</trkpt>
<trkpt lat="46.4169568" lon="8.0725376">
<ele>2358.000000</ele>
<time>2018-08-15T09:52:56Z</time>
</trkpt>
<trkpt lat="46.4169856" lon="8.0725456">
<ele>2358.000000</ele>
<time>2018-08-15T09:53:09Z</time>
</trkpt>
<trkpt lat="46.4170720" lon="8.0725864">
<ele>2358.000000</ele>
<time>2018-08-15T09:53:19Z</time>
</trkpt>
<trkpt lat="46.4171648" lon="8.0726192">
<ele>2358.000000</ele>
<time>2018-08-15T09:53:29Z</time>
</trkpt>
<trkpt lat="46.4172224" lon="8.0726616">
<ele>2358.000000</ele>
<time>2018-08-15T09:53:40Z</time>
</trkpt>
<trkpt lat="46.4173088" lon="8.0726864">
<ele>2358.000000</ele>
<time>2018-08-15T09:53:50Z</time>
</trkpt>
<trkpt lat="46.4173952" lon="8.0727160">
<ele>2357.000000</ele>
<time>2018-08-15T09:54:00Z</time>
</trkpt>
<trkpt lat="46.4174848" lon="8.0727728">
<ele>2358.000000</ele>
<time>2018-08-15T09:54:10Z</time>
</trkpt>
<trkpt lat="46.4175680" lon="8.0727760">
<ele>2357.000000</ele>
<time>2018-08-15T09:54:20Z</time>
</trkpt>
<trkpt lat="46.4176672" lon="8.0728672">
<ele>2357.000000</ele>
<time>2018-08-15T09:54:30Z</time>
</trkpt>
<trkpt lat="46.4177792" lon="8.0728696">
<ele>2356.000000</ele>
<time>2018-08-15T09:54:40Z</time>
</trkpt>
<trkpt lat="46.4178656" lon="8.0728624">
<ele>2356.000000</ele>
<time>2018-08-15T09:54:50Z</time>
</trkpt>
<trkpt lat="46.4179456" lon="8.0728512">
<ele>2356.000000</ele>
<time>2018-08-15T09:55:00Z</time>
</trkpt>
<trkpt lat="46.4180288" lon="8.0728512">
<ele>2355.000000</ele>
<time>2018-08-15T09:55:10Z</time>
</trkpt>
<trkpt lat="46.4181152" lon="8.0728824">
<ele>2355.000000</ele>
<time>2018-08-15T09:55:20Z</time>
</trkpt>
<trkpt lat="46.4181856" lon="8.0729400">
<ele>2354.000000</ele>
<time>2018-08-15T09:55:30Z</time>
</trkpt>
<trkpt lat="46.4182784" lon="8.0729744">
<ele>2354.000000</ele>
<time>2018-08-15T09:55:40Z</time>
</trkpt>
<trkpt lat="46.4183488" lon="8.0730200">
<ele>2355.000000</ele>
<time>2018-08-15T09:55:50Z</time>
</trkpt>
<trkpt lat="46.4184640" lon="8.0730584">
<ele>2354.000000</ele>
<time>2018-08-15T09:56:00Z</time>
</trkpt>
<trkpt lat="46.4185280" lon="8.0730560">
<ele>2354.000000</ele>
<time>2018-08-15T09:56:10Z</time>
</trkpt>
<trkpt lat="46.4186400" lon="8.0730928">
<ele>2355.000000</ele>
<time>2018-08-15T09:56:20Z</time>
</trkpt>
<trkpt lat="46.4187040" lon="8.0732048">
<ele>2355.000000</ele>
<time>2018-08-15T09:56:30Z</time>
</trkpt>
<trkpt lat="46.4187840" lon="8.0732744">
<ele>2355.000000</ele>
<time>2018-08-15T09:56:40Z</time>
</trkpt>
<trkpt lat="46.4188768" lon="8.0732704">
<ele>2355.000000</ele>
<time>2018-08-15T09:56:50Z</time>
</trkpt>
<trkpt lat="46.4189248" lon="8.0732976">
<ele>2355.000000</ele>
<time>2018-08-15T09:57:00Z</time>
</trkpt>
<trkpt lat="46.4190144" lon="8.0733568">
<ele>2356.000000</ele>
<time>2018-08-15T09:57:10Z</time>
</trkpt>
<trkpt lat="46.4191296" lon="8.0734392">
<ele>2356.000000</ele>
<time>2018-08-15T09:57:20Z</time>
</trkpt>
<trkpt lat="46.4192224" lon="8.0734976">
<ele>2356.000000</ele>
<time>2018-08-15T09:57:30Z</time>
</trkpt>
<trkpt lat="46.4193312" lon="8.0735200">
<ele>2356.000000</ele>
<time>2018-08-15T09:57:40Z</time>
</trkpt>
<trkpt lat="46.4193920" lon="8.0735672">
<ele>2355.000000</ele>
<time>2018-08-15T09:57:50Z</time>
</trkpt>
<trkpt lat="46.4195104" lon="8.0736128">
<ele>2355.000000</ele>
<time>2018-08-15T09:58:00Z</time>
</trkpt>
<trkpt lat="46.4196000" lon="8.0736472">
<ele>2354.000000</ele>
<time>2018-08-15T09:58:10Z</time>
</trkpt>
<trkpt lat="46.4196800" lon="8.0737096">
<ele>2354.000000</ele>
<time>2018-08-15T09:58:20Z</time>
</trkpt>
<trkpt lat="46.4197888" lon="8.0737896">
<ele>2354.000000</ele>
<time>2018-08-15T09:58:30Z</time>
</trkpt>
<trkpt lat="46.4198912" lon="8.0738456">
<ele>2354.000000</ele>
<time>2018-08-15T09:58:40Z</time>
</trkpt>
<trkpt lat="46.4199776" lon="8.0739496">
<ele>2354.000000</ele>
<time>2018-08-15T09:58:50Z</time>
</trkpt>
<trkpt lat="46.4200448" lon="8.0739880">
<ele>2354.000000</ele>
<time>2018-08-15T09:59:00Z</time>
</trkpt>
<trkpt lat="46.4201472" lon="8.0740512">
<ele>2354.000000</ele>
<time>2018-08-15T09:59:10Z</time>
</trkpt>
<trkpt lat="46.4202464" lon="8.0741800">
<ele>2354.000000</ele>
<time>2018-08-15T09:59:20Z</time>
</trkpt>
<trkpt lat="46.4203424" lon="8.0741816">
<ele>2354.000000</ele>
<time>2018-08-15T09:59:30Z</time>
</trkpt>
<trkpt lat="46.4203744" lon="8.0742448">
<ele>2355.000000</ele>
<time>2018-08-15T09:59:40Z</time>
</trkpt>
<trkpt lat="46.4204544" lon="8.0742864">
<ele>2355.000000</ele>
<time>2018-08-15T09:59:50Z</time>
</trkpt>
<trkpt lat="46.4205472" lon="8.0743496">
<ele>2354.000000</ele>
<time>2018-08-15T10:00:00Z</time>
</trkpt>
<trkpt lat="46.4206592" lon="8.0744072">
<ele>2354.000000</ele>
<time>2018-08-15T10:00:10Z</time>
</trkpt>
<trkpt lat="46.4207520" lon="8.0744200">
<ele>2353.000000</ele>
<time>2018-08-15T10:00:20Z</time>
</trkpt>
<trkpt lat="46.4208064" lon="8.0743376">
<ele>2352.000000</ele>
<time>2018-08-15T10:00:30Z</time>
</trkpt>
<trkpt lat="46.4209024" lon="8.0743296">
<ele>2350.000000</ele>
<time>2018-08-15T10:00:40Z</time>
</trkpt>
<trkpt lat="46.4209472" lon="8.0743176">
<ele>2348.000000</ele>
<time>2018-08-15T10:00:50Z</time>
</trkpt>
<trkpt lat="46.4209984" lon="8.0742824">
<ele>2348.000000</ele>
<time>2018-08-15T10:01:00Z</time>
</trkpt>
<trkpt lat="46.4210784" lon="8.0742976">
<ele>2348.000000</ele>
<time>2018-08-15T10:01:10Z</time>
</trkpt>
<trkpt lat="46.4212000" lon="8.0743408">
<ele>2347.000000</ele>
<time>2018-08-15T10:01:20Z</time>
</trkpt>
<trkpt lat="46.4212768" lon="8.0742664">
<ele>2345.000000</ele>
<time>2018-08-15T10:01:30Z</time>
</trkpt>
<trkpt lat="46.4213760" lon="8.0742560">
<ele>2344.000000</ele>
<time>2018-08-15T10:01:40Z</time>
</trkpt>
<trkpt lat="46.4214368" lon="8.0742160">
<ele>2344.000000</ele>
<time>2018-08-15T10:01:50Z</time>
</trkpt>
<trkpt lat="46.4216064" lon="8.0743360">
<ele>2344.000000</ele>
<time>2018-08-15T10:01:58Z</time>
</trkpt>
<trkpt lat="46.4215840" lon="8.0742264">
<ele>2342.000000</ele>
<time>2018-08-15T10:02:08Z</time>
</trkpt>
<trkpt lat="46.4216800" lon="8.0742824">
<ele>2342.000000</ele>
<time>2018-08-15T10:02:18Z</time>
</trkpt>
<trkpt lat="46.4216160" lon="8.0741760">
<ele>2341.000000</ele>
<time>2018-08-15T10:02:28Z</time>
</trkpt>
<trkpt lat="46.4216000" lon="8.0740096">
<ele>2341.000000</ele>
<time>2018-08-15T10:02:38Z</time>
</trkpt>
<trkpt lat="46.4215808" lon="8.0739832">
<ele>2339.000000</ele>
<time>2018-08-15T10:02:48Z</time>
</trkpt>
<trkpt lat="46.4216064" lon="8.0739912">
<ele>2338.000000</ele>
<time>2018-08-15T10:02:58Z</time>
</trkpt>
<trkpt lat="46.4216256" lon="8.0740216">
<ele>2337.000000</ele>
<time>2018-08-15T10:03:08Z</time>
</trkpt>
<trkpt lat="46.4217184" lon="8.0740416">
<ele>2338.000000</ele>
<time>2018-08-15T10:03:18Z</time>
</trkpt>
<trkpt lat="46.4217984" lon="8.0741224">
<ele>2337.000000</ele>
<time>2018-08-15T10:03:28Z</time>
</trkpt>
<trkpt lat="46.4219424" lon="8.0741880">
<ele>2335.000000</ele>
<time>2018-08-15T10:03:38Z</time>
</trkpt>
<trkpt lat="46.4220608" lon="8.0741680">
<ele>2332.000000</ele>
<time>2018-08-15T10:03:48Z</time>
</trkpt>
<trkpt lat="46.4221280" lon="8.0741680">
<ele>2332.000000</ele>
<time>2018-08-15T10:03:58Z</time>
</trkpt>
<trkpt lat="46.4222336" lon="8.0741848">
<ele>2330.000000</ele>
<time>2018-08-15T10:04:08Z</time>
</trkpt>
<trkpt lat="46.4223200" lon="8.0742464">
<ele>2329.000000</ele>
<time>2018-08-15T10:04:18Z</time>
</trkpt>
<trkpt lat="46.4223968" lon="8.0742760">
<ele>2329.000000</ele>
<time>2018-08-15T10:04:28Z</time>
</trkpt>
<trkpt lat="46.4224992" lon="8.0742896">
<ele>2327.000000</ele>
<time>2018-08-15T10:04:38Z</time>
</trkpt>
<trkpt lat="46.4225664" lon="8.0743800">
<ele>2327.000000</ele>
<time>2018-08-15T10:04:48Z</time>
</trkpt>
<trkpt lat="46.4226528" lon="8.0744112">
<ele>2327.000000</ele>
<time>2018-08-15T10:04:58Z</time>
</trkpt>
<trkpt lat="46.4227072" lon="8.0744648">
<ele>2326.000000</ele>
<time>2018-08-15T10:05:08Z</time>
</trkpt>
<trkpt lat="46.4227584" lon="8.0745656">
<ele>2327.000000</ele>
<time>2018-08-15T10:05:18Z</time>
</trkpt>
<trkpt lat="46.4227936" lon="8.0745808">
<ele>2327.000000</ele>
<time>2018-08-15T10:05:28Z</time>
</trkpt>
<trkpt lat="46.4228224" lon="8.0746128">
<ele>2327.000000</ele>
<time>2018-08-15T10:05:38Z</time>
</trkpt>
<trkpt lat="46.4228960" lon="8.0746528">
<ele>2327.000000</ele>
<time>2018-08-15T10:05:48Z</time>
</trkpt>
<trkpt lat="46.4229824" lon="8.0746168">
<ele>2327.000000</ele>
<time>2018-08-15T10:05:58Z</time>
</trkpt>
<trkpt lat="46.4230208" lon="8.0746168">
<ele>2327.000000</ele>
<time>2018-08-15T10:06:08Z</time>
</trkpt>
<trkpt lat="46.4231008" lon="8.0746256">
<ele>2328.000000</ele>
<time>2018-08-15T10:06:19Z</time>
</trkpt>
<trkpt lat="46.4231744" lon="8.0746128">
<ele>2328.000000</ele>
<time>2018-08-15T10:06:29Z</time>
</trkpt>
<trkpt lat="46.4231136" lon="8.0745608">
<ele>2328.000000</ele>
<time>2018-08-15T10:06:39Z</time>
</trkpt>
<trkpt lat="46.4230944" lon="8.0745232">
<ele>2329.000000</ele>
<time>2018-08-15T10:06:51Z</time>
</trkpt>
<trkpt lat="46.4230208" lon="8.0744048">
<ele>2328.000000</ele>
<time>2018-08-15T10:07:01Z</time>
</trkpt>
<trkpt lat="46.4229312" lon="8.0743376">
<ele>2328.000000</ele>
<time>2018-08-15T10:07:11Z</time>
</trkpt>
<trkpt lat="46.4228480" lon="8.0742160">
<ele>2327.000000</ele>
<time>2018-08-15T10:07:21Z</time>
</trkpt>
<trkpt lat="46.4229536" lon="8.0743560">
<ele>2325.000000</ele>
<time>2018-08-15T10:07:31Z</time>
</trkpt>
<trkpt lat="46.4230112" lon="8.0744032">
<ele>2325.000000</ele>
<time>2018-08-15T10:07:43Z</time>
</trkpt>
<trkpt lat="46.4231328" lon="8.0744848">
<ele>2324.000000</ele>
<time>2018-08-15T10:07:54Z</time>
</trkpt>
<trkpt lat="46.4232448" lon="8.0745008">
<ele>2323.000000</ele>
<time>2018-08-15T10:08:04Z</time>
</trkpt>
<trkpt lat="46.4233408" lon="8.0745432">
<ele>2322.000000</ele>
<time>2018-08-15T10:08:14Z</time>
</trkpt>
<trkpt lat="46.4234272" lon="8.0745808">
<ele>2320.000000</ele>
<time>2018-08-15T10:08:24Z</time>
</trkpt>
<trkpt lat="46.4235232" lon="8.0746968">
<ele>2318.000000</ele>
<time>2018-08-15T10:08:34Z</time>
</trkpt>
<trkpt lat="46.4235840" lon="8.0747216">
<ele>2318.000000</ele>
<time>2018-08-15T10:08:44Z</time>
</trkpt>
<trkpt lat="46.4236960" lon="8.0747640">
<ele>2317.000000</ele>
<time>2018-08-15T10:08:54Z</time>
</trkpt>
<trkpt lat="46.4237504" lon="8.0748160">
<ele>2315.000000</ele>
<time>2018-08-15T10:09:04Z</time>
</trkpt>
<trkpt lat="46.4238688" lon="8.0748328">
<ele>2315.000000</ele>
<time>2018-08-15T10:09:14Z</time>
</trkpt>
<trkpt lat="46.4239200" lon="8.0749112">
<ele>2315.000000</ele>
<time>2018-08-15T10:09:24Z</time>
</trkpt>
<trkpt lat="46.4240256" lon="8.0749928">
<ele>2316.000000</ele>
<time>2018-08-15T10:09:34Z</time>
</trkpt>
<trkpt lat="46.4241248" lon="8.0750264">
<ele>2316.000000</ele>
<time>2018-08-15T10:09:44Z</time>
</trkpt>
<trkpt lat="46.4241344" lon="8.0750760">
<ele>2316.000000</ele>
<time>2018-08-15T10:09:54Z</time>
</trkpt>
<trkpt lat="46.4242080" lon="8.0751344">
<ele>2316.000000</ele>
<time>2018-08-15T10:10:04Z</time>
</trkpt>
<trkpt lat="46.4242848" lon="8.0752608">
<ele>2315.000000</ele>
<time>2018-08-15T10:10:14Z</time>
</trkpt>
<trkpt lat="46.4243936" lon="8.0752728">
<ele>2314.000000</ele>
<time>2018-08-15T10:10:24Z</time>
</trkpt>
<trkpt lat="46.4244800" lon="8.0753680">
<ele>2312.000000</ele>
<time>2018-08-15T10:10:34Z</time>
</trkpt>
<trkpt lat="46.4245408" lon="8.0754264">
<ele>2311.000000</ele>
<time>2018-08-15T10:10:44Z</time>
</trkpt>
<trkpt lat="46.4245600" lon="8.0754344">
<ele>2310.000000</ele>
<time>2018-08-15T10:10:54Z</time>
</trkpt>
<trkpt lat="46.4246816" lon="8.0755240">
<ele>2309.000000</ele>
<time>2018-08-15T10:11:04Z</time>
</trkpt>
<trkpt lat="46.4247360" lon="8.0755816">
<ele>2308.000000</ele>
<time>2018-08-15T10:11:14Z</time>
</trkpt>
<trkpt lat="46.4247808" lon="8.0756216">
<ele>2306.000000</ele>
<time>2018-08-15T10:11:24Z</time>
</trkpt>
<trkpt lat="46.4248576" lon="8.0757008">
<ele>2305.000000</ele>
<time>2018-08-15T10:11:34Z</time>
</trkpt>
<trkpt lat="46.4248992" lon="8.0757272">
<ele>2304.000000</ele>
<time>2018-08-15T10:11:44Z</time>
</trkpt>
<trkpt lat="46.4249888" lon="8.0757744">
<ele>2301.000000</ele>
<time>2018-08-15T10:11:54Z</time>
</trkpt>
<trkpt lat="46.4250464" lon="8.0759512">
<ele>2302.000000</ele>
<time>2018-08-15T10:12:04Z</time>
</trkpt>
<trkpt lat="46.4250912" lon="8.0758832">
<ele>2301.000000</ele>
<time>2018-08-15T10:12:15Z</time>
</trkpt>
<trkpt lat="46.4251936" lon="8.0759144">
<ele>2301.000000</ele>
<time>2018-08-15T10:12:25Z</time>
</trkpt>
<trkpt lat="46.4252288" lon="8.0759592">
<ele>2300.000000</ele>
<time>2018-08-15T10:12:35Z</time>
</trkpt>
<trkpt lat="46.4252128" lon="8.0759544">
<ele>2301.000000</ele>
<time>2018-08-15T10:12:45Z</time>
</trkpt>
<trkpt lat="46.4251872" lon="8.0759656">
<ele>2302.000000</ele>
<time>2018-08-15T10:12:56Z</time>
</trkpt>
<trkpt lat="46.4251968" lon="8.0758992">
<ele>2305.000000</ele>
<time>2018-08-15T10:13:06Z</time>
</trkpt>
<trkpt lat="46.4251648" lon="8.0759528">
<ele>2306.000000</ele>
<time>2018-08-15T10:13:16Z</time>
</trkpt>
<trkpt lat="46.4251456" lon="8.0759712">
<ele>2307.000000</ele>
<time>2018-08-15T10:13:26Z</time>
</trkpt>
<trkpt lat="46.4250912" lon="8.0759880">
<ele>2305.000000</ele>
<time>2018-08-15T10:13:39Z</time>
</trkpt>
<trkpt lat="46.4250944" lon="8.0759880">
<ele>2305.000000</ele>
<time>2018-08-15T10:13:49Z</time>
</trkpt>
<trkpt lat="46.4250976" lon="8.0759944">
<ele>2306.000000</ele>
<time>2018-08-15T10:14:37Z</time>
</trkpt>
<trkpt lat="46.4251104" lon="8.0759928">
<ele>2306.000000</ele>
<time>2018-08-15T10:17:52Z</time>
</trkpt>
<trkpt lat="46.4251072" lon="8.0759944">
<ele>2306.000000</ele>
<time>2018-08-15T10:21:53Z</time>
</trkpt>
<trkpt lat="46.4251072" lon="8.0759760">
<ele>2306.000000</ele>
<time>2018-08-15T10:22:14Z</time>
</trkpt>
<trkpt lat="46.4251072" lon="8.0759792">
<ele>2305.000000</ele>
<time>2018-08-15T10:25:42Z</time>
</trkpt>
<trkpt lat="46.4251072" lon="8.0759792">
<ele>2305.000000</ele>
<time>2018-08-15T10:25:52Z</time>
</trkpt>
<trkpt lat="46.4251008" lon="8.0759880">
<ele>2305.000000</ele>
<time>2018-08-15T10:27:57Z</time>
</trkpt>
<trkpt lat="46.4251008" lon="8.0759896">
<ele>2306.000000</ele>
<time>2018-08-15T10:32:54Z</time>
</trkpt>
<trkpt lat="46.4251008" lon="8.0759792">
<ele>2306.000000</ele>
<time>2018-08-15T10:35:15Z</time>
</trkpt>
<trkpt lat="46.4251008" lon="8.0759808">
<ele>2306.000000</ele>
<time>2018-08-15T10:39:26Z</time>
</trkpt>
<trkpt lat="46.4250976" lon="8.0759848">
<ele>2306.000000</ele>
<time>2018-08-15T10:40:12Z</time>
</trkpt>
<trkpt lat="46.4250944" lon="8.0759848">
<ele>2306.000000</ele>
<time>2018-08-15T10:40:42Z</time>
</trkpt>
<trkpt lat="46.4250912" lon="8.0759880">
<ele>2305.000000</ele>
<time>2018-08-15T10:45:19Z</time>
</trkpt>
<trkpt lat="46.4250912" lon="8.0759880">
<ele>2305.000000</ele>
<time>2018-08-15T10:45:31Z</time>
</trkpt>
<trkpt lat="46.4250880" lon="8.0760168">
<ele>2305.000000</ele>
<time>2018-08-15T10:45:42Z</time>
</trkpt>
<trkpt lat="46.4250944" lon="8.0760176">
<ele>2304.000000</ele>
<time>2018-08-15T10:46:19Z</time>
</trkpt>
<trkpt lat="46.4251008" lon="8.0760168">
<ele>2304.000000</ele>
<time>2018-08-15T10:47:54Z</time>
</trkpt>
<trkpt lat="46.4251008" lon="8.0760168">
<ele>2304.000000</ele>
<time>2018-08-15T10:50:13Z</time>
</trkpt>
<trkpt lat="46.4250976" lon="8.0760168">
<ele>2304.000000</ele>
<time>2018-08-15T10:50:25Z</time>
</trkpt>
<trkpt lat="46.4250464" lon="8.0758496">
<ele>2304.000000</ele>
<time>2018-08-15T10:50:35Z</time>
</trkpt>
<trkpt lat="46.4250368" lon="8.0757712">
<ele>2304.000000</ele>
<time>2018-08-15T10:50:45Z</time>
</trkpt>
<trkpt lat="46.4250816" lon="8.0757960">
<ele>2304.000000</ele>
<time>2018-08-15T10:50:55Z</time>
</trkpt>
<trkpt lat="46.4251552" lon="8.0758136">
<ele>2304.000000</ele>
<time>2018-08-15T10:51:05Z</time>
</trkpt>
<trkpt lat="46.4252320" lon="8.0759056">
<ele>2304.000000</ele>
<time>2018-08-15T10:51:15Z</time>
</trkpt>
<trkpt lat="46.4252448" lon="8.0759928">
<ele>2306.000000</ele>
<time>2018-08-15T10:51:25Z</time>
</trkpt>
<trkpt lat="46.4253088" lon="8.0760576">
<ele>2310.000000</ele>
<time>2018-08-15T10:51:35Z</time>
</trkpt>
<trkpt lat="46.4254048" lon="8.0760696">
<ele>2309.000000</ele>
<time>2018-08-15T10:51:45Z</time>
</trkpt>
<trkpt lat="46.4254656" lon="8.0761296">
<ele>2309.000000</ele>
<time>2018-08-15T10:51:55Z</time>
</trkpt>
<trkpt lat="46.4255424" lon="8.0761976">
<ele>2311.000000</ele>
<time>2018-08-15T10:52:05Z</time>
</trkpt>
<trkpt lat="46.4256320" lon="8.0762352">
<ele>2310.000000</ele>
<time>2018-08-15T10:52:15Z</time>
</trkpt>
<trkpt lat="46.4257152" lon="8.0763160">
<ele>2311.000000</ele>
<time>2018-08-15T10:52:25Z</time>
</trkpt>
<trkpt lat="46.4258048" lon="8.0764008">
<ele>2314.000000</ele>
<time>2018-08-15T10:52:35Z</time>
</trkpt>
<trkpt lat="46.4258816" lon="8.0765096">
<ele>2315.000000</ele>
<time>2018-08-15T10:52:45Z</time>
</trkpt>
<trkpt lat="46.4259296" lon="8.0766632">
<ele>2313.000000</ele>
<time>2018-08-15T10:52:55Z</time>
</trkpt>
<trkpt lat="46.4260096" lon="8.0767280">
<ele>2314.000000</ele>
<time>2018-08-15T10:53:05Z</time>
</trkpt>
<trkpt lat="46.4260736" lon="8.0768080">
<ele>2313.000000</ele>
<time>2018-08-15T10:53:15Z</time>
</trkpt>
<trkpt lat="46.4261376" lon="8.0768896">
<ele>2314.000000</ele>
<time>2018-08-15T10:53:25Z</time>
</trkpt>
<trkpt lat="46.4261792" lon="8.0769976">
<ele>2312.000000</ele>
<time>2018-08-15T10:53:35Z</time>
</trkpt>
<trkpt lat="46.4262464" lon="8.0769712">
<ele>2309.000000</ele>
<time>2018-08-15T10:53:50Z</time>
</trkpt>
<trkpt lat="46.4263616" lon="8.0770112">
<ele>2309.000000</ele>
<time>2018-08-15T10:54:00Z</time>
</trkpt>
<trkpt lat="46.4264320" lon="8.0771648">
<ele>2308.000000</ele>
<time>2018-08-15T10:54:10Z</time>
</trkpt>
<trkpt lat="46.4265056" lon="8.0771872">
<ele>2309.000000</ele>
<time>2018-08-15T10:54:20Z</time>
</trkpt>
<trkpt lat="46.4265504" lon="8.0773632">
<ele>2309.000000</ele>
<time>2018-08-15T10:54:30Z</time>
</trkpt>
<trkpt lat="46.4266208" lon="8.0774928">
<ele>2310.000000</ele>
<time>2018-08-15T10:54:40Z</time>
</trkpt>
<trkpt lat="46.4267264" lon="8.0775432">
<ele>2310.000000</ele>
<time>2018-08-15T10:54:50Z</time>
</trkpt>
<trkpt lat="46.4268096" lon="8.0775280">
<ele>2312.000000</ele>
<time>2018-08-15T10:55:00Z</time>
</trkpt>
<trkpt lat="46.4268832" lon="8.0775880">
<ele>2310.000000</ele>
<time>2018-08-15T10:55:10Z</time>
</trkpt>
<trkpt lat="46.4269216" lon="8.0776824">
<ele>2311.000000</ele>
<time>2018-08-15T10:55:20Z</time>
</trkpt>
<trkpt lat="46.4269952" lon="8.0777160">
<ele>2314.000000</ele>
<time>2018-08-15T10:55:30Z</time>
</trkpt>
<trkpt lat="46.4270560" lon="8.0777480">
<ele>2319.000000</ele>
<time>2018-08-15T10:55:40Z</time>
</trkpt>
<trkpt lat="46.4271008" lon="8.0778008">
<ele>2321.000000</ele>
<time>2018-08-15T10:55:50Z</time>
</trkpt>
<trkpt lat="46.4271520" lon="8.0778560">
<ele>2324.000000</ele>
<time>2018-08-15T10:56:00Z</time>
</trkpt>
<trkpt lat="46.4272032" lon="8.0779000">
<ele>2326.000000</ele>
<time>2018-08-15T10:56:10Z</time>
</trkpt>
<trkpt lat="46.4272512" lon="8.0779496">
<ele>2327.000000</ele>
<time>2018-08-15T10:56:20Z</time>
</trkpt>
<trkpt lat="46.4272832" lon="8.0780160">
<ele>2331.000000</ele>
<time>2018-08-15T10:56:30Z</time>
</trkpt>
<trkpt lat="46.4273152" lon="8.0780808">
<ele>2334.000000</ele>
<time>2018-08-15T10:56:40Z</time>
</trkpt>
<trkpt lat="46.4273440" lon="8.0781640">
<ele>2336.000000</ele>
<time>2018-08-15T10:56:50Z</time>
</trkpt>
<trkpt lat="46.4273696" lon="8.0782376">
<ele>2340.000000</ele>
<time>2018-08-15T10:57:00Z</time>
</trkpt>
<trkpt lat="46.4274144" lon="8.0783360">
<ele>2340.000000</ele>
<time>2018-08-15T10:57:10Z</time>
</trkpt>
<trkpt lat="46.4274688" lon="8.0784000">
<ele>2337.000000</ele>
<time>2018-08-15T10:57:20Z</time>
</trkpt>
<trkpt lat="46.4275168" lon="8.0784576">
<ele>2337.000000</ele>
<time>2018-08-15T10:57:30Z</time>
</trkpt>
<trkpt lat="46.4275520" lon="8.0785208">
<ele>2338.000000</ele>
<time>2018-08-15T10:57:40Z</time>
</trkpt>
<trkpt lat="46.4275776" lon="8.0786208">
<ele>2342.000000</ele>
<time>2018-08-15T10:57:50Z</time>
</trkpt>
<trkpt lat="46.4275968" lon="8.0786728">
<ele>2344.000000</ele>
<time>2018-08-15T10:58:00Z</time>
</trkpt>
<trkpt lat="46.4276032" lon="8.0787112">
<ele>2344.000000</ele>
<time>2018-08-15T10:58:10Z</time>
</trkpt>
<trkpt lat="46.4276896" lon="8.0787944">
<ele>2345.000000</ele>
<time>2018-08-15T10:58:20Z</time>
</trkpt>
<trkpt lat="46.4277344" lon="8.0788544">
<ele>2345.000000</ele>
<time>2018-08-15T10:58:30Z</time>
</trkpt>
<trkpt lat="46.4277664" lon="8.0789376">
<ele>2347.000000</ele>
<time>2018-08-15T10:58:40Z</time>
</trkpt>
<trkpt lat="46.4278176" lon="8.0790024">
<ele>2348.000000</ele>
<time>2018-08-15T10:58:50Z</time>
</trkpt>
<trkpt lat="46.4278464" lon="8.0790552">
<ele>2349.000000</ele>
<time>2018-08-15T10:59:00Z</time>
</trkpt>
<trkpt lat="46.4278592" lon="8.0791296">
<ele>2351.000000</ele>
<time>2018-08-15T10:59:10Z</time>
</trkpt>
<trkpt lat="46.4279136" lon="8.0792144">
<ele>2350.000000</ele>
<time>2018-08-15T10:59:20Z</time>
</trkpt>
<trkpt lat="46.4279712" lon="8.0792896">
<ele>2352.000000</ele>
<time>2018-08-15T10:59:30Z</time>
</trkpt>
<trkpt lat="46.4280000" lon="8.0793784">
<ele>2353.000000</ele>
<time>2018-08-15T10:59:40Z</time>
</trkpt>
<trkpt lat="46.4280512" lon="8.0794680">
<ele>2352.000000</ele>
<time>2018-08-15T10:59:50Z</time>
</trkpt>
<trkpt lat="46.4281056" lon="8.0795896">
<ele>2354.000000</ele>
<time>2018-08-15T11:00:00Z</time>
</trkpt>
<trkpt lat="46.4281600" lon="8.0796928">
<ele>2355.000000</ele>
<time>2018-08-15T11:00:10Z</time>
</trkpt>
<trkpt lat="46.4282432" lon="8.0797528">
<ele>2355.000000</ele>
<time>2018-08-15T11:00:20Z</time>
</trkpt>
<trkpt lat="46.4282752" lon="8.0797912">
<ele>2354.000000</ele>
<time>2018-08-15T11:00:30Z</time>
</trkpt>
<trkpt lat="46.4283296" lon="8.0798752">
<ele>2354.000000</ele>
<time>2018-08-15T11:00:40Z</time>
</trkpt>
<trkpt lat="46.4283296" lon="8.0799896">
<ele>2354.000000</ele>
<time>2018-08-15T11:00:50Z</time>
</trkpt>
<trkpt lat="46.4283744" lon="8.0800464">
<ele>2354.000000</ele>
<time>2018-08-15T11:01:00Z</time>
</trkpt>
<trkpt lat="46.4284032" lon="8.0800512">
<ele>2355.000000</ele>
<time>2018-08-15T11:01:10Z</time>
</trkpt>
<trkpt lat="46.4284896" lon="8.0801880">
<ele>2356.000000</ele>
<time>2018-08-15T11:01:20Z</time>
</trkpt>
<trkpt lat="46.4285344" lon="8.0802280">
<ele>2357.000000</ele>
<time>2018-08-15T11:01:30Z</time>
</trkpt>
<trkpt lat="46.4285472" lon="8.0803328">
<ele>2358.000000</ele>
<time>2018-08-15T11:01:40Z</time>
</trkpt>
<trkpt lat="46.4285632" lon="8.0804488">
<ele>2362.000000</ele>
<time>2018-08-15T11:01:50Z</time>
</trkpt>
<trkpt lat="46.4286240" lon="8.0805296">
<ele>2364.000000</ele>
<time>2018-08-15T11:02:00Z</time>
</trkpt>
<trkpt lat="46.4286752" lon="8.0806208">
<ele>2364.000000</ele>
<time>2018-08-15T11:02:10Z</time>
</trkpt>
<trkpt lat="46.4287200" lon="8.0806864">
<ele>2366.000000</ele>
<time>2018-08-15T11:02:20Z</time>
</trkpt>
<trkpt lat="46.4287424" lon="8.0808192">
<ele>2367.000000</ele>
<time>2018-08-15T11:02:30Z</time>
</trkpt>
<trkpt lat="46.4287712" lon="8.0809544">
<ele>2369.000000</ele>
<time>2018-08-15T11:02:40Z</time>
</trkpt>
<trkpt lat="46.4287936" lon="8.0810232">
<ele>2372.000000</ele>
<time>2018-08-15T11:02:50Z</time>
</trkpt>
<trkpt lat="46.4288064" lon="8.0811040">
<ele>2374.000000</ele>
<time>2018-08-15T11:03:00Z</time>
</trkpt>
<trkpt lat="46.4288064" lon="8.0812024">
<ele>2375.000000</ele>
<time>2018-08-15T11:03:10Z</time>
</trkpt>
<trkpt lat="46.4288032" lon="8.0813712">
<ele>2376.000000</ele>
<time>2018-08-15T11:03:20Z</time>
</trkpt>
<trkpt lat="46.4288480" lon="8.0814224">
<ele>2375.000000</ele>
<time>2018-08-15T11:03:30Z</time>
</trkpt>
<trkpt lat="46.4288640" lon="8.0815056">
<ele>2376.000000</ele>
<time>2018-08-15T11:03:40Z</time>
</trkpt>
<trkpt lat="46.4289248" lon="8.0816232">
<ele>2375.000000</ele>
<time>2018-08-15T11:03:50Z</time>
</trkpt>
<trkpt lat="46.4289504" lon="8.0817768">
<ele>2375.000000</ele>
<time>2018-08-15T11:04:00Z</time>
</trkpt>
<trkpt lat="46.4289792" lon="8.0818888">
<ele>2375.000000</ele>
<time>2018-08-15T11:04:10Z</time>
</trkpt>
<trkpt lat="46.4289024" lon="8.0820624">
<ele>2372.000000</ele>
<time>2018-08-15T11:04:20Z</time>
</trkpt>
<trkpt lat="46.4289248" lon="8.0821464">
<ele>2372.000000</ele>
<time>2018-08-15T11:04:30Z</time>
</trkpt>
<trkpt lat="46.4289536" lon="8.0822744">
<ele>2371.000000</ele>
<time>2018-08-15T11:04:40Z</time>
</trkpt>
<trkpt lat="46.4290112" lon="8.0823632">
<ele>2370.000000</ele>
<time>2018-08-15T11:04:50Z</time>
</trkpt>
<trkpt lat="46.4290336" lon="8.0824632">
<ele>2371.000000</ele>
<time>2018-08-15T11:05:00Z</time>
</trkpt>
<trkpt lat="46.4290848" lon="8.0825560">
<ele>2372.000000</ele>
<time>2018-08-15T11:05:10Z</time>
</trkpt>
<trkpt lat="46.4291456" lon="8.0826264">
<ele>2376.000000</ele>
<time>2018-08-15T11:05:20Z</time>
</trkpt>
<trkpt lat="46.4291968" lon="8.0826680">
<ele>2376.000000</ele>
<time>2018-08-15T11:05:30Z</time>
</trkpt>
<trkpt lat="46.4292992" lon="8.0827128">
<ele>2376.000000</ele>
<time>2018-08-15T11:05:40Z</time>
</trkpt>
<trkpt lat="46.4293216" lon="8.0828160">
<ele>2378.000000</ele>
<time>2018-08-15T11:05:50Z</time>
</trkpt>
<trkpt lat="46.4293472" lon="8.0828272">
<ele>2379.000000</ele>
<time>2018-08-15T11:05:58Z</time>
</trkpt>
<trkpt lat="46.4293216" lon="8.0828336">
<ele>2379.000000</ele>
<time>2018-08-15T11:06:00Z</time>
</trkpt>
<trkpt lat="46.4293408" lon="8.0828760">
<ele>2379.000000</ele>
<time>2018-08-15T11:06:03Z</time>
</trkpt>
<trkpt lat="46.4293696" lon="8.0828928">
<ele>2379.000000</ele>
<time>2018-08-15T11:06:42Z</time>
</trkpt>
<trkpt lat="46.4293664" lon="8.0828944">
<ele>2378.000000</ele>
<time>2018-08-15T11:06:59Z</time>
</trkpt>
<trkpt lat="46.4294016" lon="8.0829184">
<ele>2378.000000</ele>
<time>2018-08-15T11:07:09Z</time>
</trkpt>
<trkpt lat="46.4294944" lon="8.0830344">
<ele>2378.000000</ele>
<time>2018-08-15T11:07:19Z</time>
</trkpt>
<trkpt lat="46.4295968" lon="8.0830320">
<ele>2378.000000</ele>
<time>2018-08-15T11:07:29Z</time>
</trkpt>
<trkpt lat="46.4296928" lon="8.0830816">
<ele>2379.000000</ele>
<time>2018-08-15T11:07:39Z</time>
</trkpt>
<trkpt lat="46.4297728" lon="8.0831728">
<ele>2379.000000</ele>
<time>2018-08-15T11:07:49Z</time>
</trkpt>
<trkpt lat="46.4298816" lon="8.0832040">
<ele>2379.000000</ele>
<time>2018-08-15T11:07:59Z</time>
</trkpt>
<trkpt lat="46.4299648" lon="8.0832624">
<ele>2379.000000</ele>
<time>2018-08-15T11:08:09Z</time>
</trkpt>
<trkpt lat="46.4300320" lon="8.0832824">
<ele>2379.000000</ele>
<time>2018-08-15T11:08:19Z</time>
</trkpt>
<trkpt lat="46.4300960" lon="8.0833040">
<ele>2379.000000</ele>
<time>2018-08-15T11:08:29Z</time>
</trkpt>
<trkpt lat="46.4301920" lon="8.0833528">
<ele>2379.000000</ele>
<time>2018-08-15T11:08:39Z</time>
</trkpt>
<trkpt lat="46.4302624" lon="8.0834096">
<ele>2379.000000</ele>
<time>2018-08-15T11:08:49Z</time>
</trkpt>
<trkpt lat="46.4303360" lon="8.0834600">
<ele>2379.000000</ele>
<time>2018-08-15T11:08:59Z</time>
</trkpt>
<trkpt lat="46.4304192" lon="8.0835064">
<ele>2378.000000</ele>
<time>2018-08-15T11:09:09Z</time>
</trkpt>
<trkpt lat="46.4305120" lon="8.0835680">
<ele>2378.000000</ele>
<time>2018-08-15T11:09:19Z</time>
</trkpt>
<trkpt lat="46.4305504" lon="8.0836432">
<ele>2378.000000</ele>
<time>2018-08-15T11:09:29Z</time>
</trkpt>
<trkpt lat="46.4306112" lon="8.0837160">
<ele>2378.000000</ele>
<time>2018-08-15T11:09:39Z</time>
</trkpt>
<trkpt lat="46.4306304" lon="8.0837096">
<ele>2377.000000</ele>
<time>2018-08-15T11:09:59Z</time>
</trkpt>
<trkpt lat="46.4306784" lon="8.0837456">
<ele>2377.000000</ele>
<time>2018-08-15T11:10:09Z</time>
</trkpt>
<trkpt lat="46.4307264" lon="8.0838792">
<ele>2375.000000</ele>
<time>2018-08-15T11:10:19Z</time>
</trkpt>
<trkpt lat="46.4307776" lon="8.0839168">
<ele>2375.000000</ele>
<time>2018-08-15T11:10:29Z</time>
</trkpt>
<trkpt lat="46.4308512" lon="8.0840200">
<ele>2373.000000</ele>
<time>2018-08-15T11:10:39Z</time>
</trkpt>
<trkpt lat="46.4309184" lon="8.0841496">
<ele>2373.000000</ele>
<time>2018-08-15T11:10:49Z</time>
</trkpt>
<trkpt lat="46.4310080" lon="8.0842344">
<ele>2372.000000</ele>
<time>2018-08-15T11:10:59Z</time>
</trkpt>
<trkpt lat="46.4310880" lon="8.0842600">
<ele>2371.000000</ele>
<time>2018-08-15T11:11:09Z</time>
</trkpt>
<trkpt lat="46.4311648" lon="8.0843248">
<ele>2373.000000</ele>
<time>2018-08-15T11:11:19Z</time>
</trkpt>
<trkpt lat="46.4312512" lon="8.0843760">
<ele>2374.000000</ele>
<time>2018-08-15T11:11:29Z</time>
</trkpt>
<trkpt lat="46.4313568" lon="8.0844032">
<ele>2374.000000</ele>
<time>2018-08-15T11:11:39Z</time>
</trkpt>
<trkpt lat="46.4314336" lon="8.0844864">
<ele>2373.000000</ele>
<time>2018-08-15T11:11:49Z</time>
</trkpt>
<trkpt lat="46.4315424" lon="8.0845528">
<ele>2372.000000</ele>
<time>2018-08-15T11:11:59Z</time>
</trkpt>
<trkpt lat="46.4316192" lon="8.0846576">
<ele>2371.000000</ele>
<time>2018-08-15T11:12:09Z</time>
</trkpt>
<trkpt lat="46.4316864" lon="8.0846712">
<ele>2369.000000</ele>
<time>2018-08-15T11:12:20Z</time>
</trkpt>
<trkpt lat="46.4317792" lon="8.0847576">
<ele>2369.000000</ele>
<time>2018-08-15T11:12:30Z</time>
</trkpt>
<trkpt lat="46.4318592" lon="8.0848464">
<ele>2368.000000</ele>
<time>2018-08-15T11:12:40Z</time>
</trkpt>
<trkpt lat="46.4319648" lon="8.0848960">
<ele>2368.000000</ele>
<time>2018-08-15T11:12:50Z</time>
</trkpt>
<trkpt lat="46.4320960" lon="8.0848800">
<ele>2368.000000</ele>
<time>2018-08-15T11:13:00Z</time>
</trkpt>
<trkpt lat="46.4321824" lon="8.0849096">
<ele>2368.000000</ele>
<time>2018-08-15T11:13:10Z</time>
</trkpt>
<trkpt lat="46.4323264" lon="8.0848824">
<ele>2367.000000</ele>
<time>2018-08-15T11:13:20Z</time>
</trkpt>
<trkpt lat="46.4323680" lon="8.0848696">
<ele>2366.000000</ele>
<time>2018-08-15T11:13:30Z</time>
</trkpt>
<trkpt lat="46.4324960" lon="8.0848624">
<ele>2365.000000</ele>
<time>2018-08-15T11:13:40Z</time>
</trkpt>
<trkpt lat="46.4325984" lon="8.0848576">
<ele>2364.000000</ele>
<time>2018-08-15T11:13:50Z</time>
</trkpt>
<trkpt lat="46.4327232" lon="8.0848760">
<ele>2364.000000</ele>
<time>2018-08-15T11:14:00Z</time>
</trkpt>
<trkpt lat="46.4328192" lon="8.0848976">
<ele>2364.000000</ele>
<time>2018-08-15T11:14:10Z</time>
</trkpt>
<trkpt lat="46.4329376" lon="8.0849264">
<ele>2364.000000</ele>
<time>2018-08-15T11:14:20Z</time>
</trkpt>
<trkpt lat="46.4330400" lon="8.0849856">
<ele>2363.000000</ele>
<time>2018-08-15T11:14:30Z</time>
</trkpt>
<trkpt lat="46.4331392" lon="8.0850384">
<ele>2364.000000</ele>
<time>2018-08-15T11:14:40Z</time>
</trkpt>
<trkpt lat="46.4332320" lon="8.0850448">
<ele>2364.000000</ele>
<time>2018-08-15T11:14:50Z</time>
</trkpt>
<trkpt lat="46.4332928" lon="8.0851096">
<ele>2364.000000</ele>
<time>2018-08-15T11:15:00Z</time>
</trkpt>
<trkpt lat="46.4333760" lon="8.0851448">
<ele>2365.000000</ele>
<time>2018-08-15T11:15:10Z</time>
</trkpt>
<trkpt lat="46.4334976" lon="8.0851992">
<ele>2366.000000</ele>
<time>2018-08-15T11:15:20Z</time>
</trkpt>
<trkpt lat="46.4335872" lon="8.0852480">
<ele>2366.000000</ele>
<time>2018-08-15T11:15:30Z</time>
</trkpt>
<trkpt lat="46.4336384" lon="8.0853328">
<ele>2367.000000</ele>
<time>2018-08-15T11:15:40Z</time>
</trkpt>
<trkpt lat="46.4337056" lon="8.0853952">
<ele>2368.000000</ele>
<time>2018-08-15T11:15:50Z</time>
</trkpt>
<trkpt lat="46.4337856" lon="8.0854112">
<ele>2367.000000</ele>
<time>2018-08-15T11:16:00Z</time>
</trkpt>
<trkpt lat="46.4338848" lon="8.0854600">
<ele>2368.000000</ele>
<time>2018-08-15T11:16:10Z</time>
</trkpt>
<trkpt lat="46.4339680" lon="8.0855024">
<ele>2370.000000</ele>
<time>2018-08-15T11:16:20Z</time>
</trkpt>
<trkpt lat="46.4340288" lon="8.0855208">
<ele>2370.000000</ele>
<time>2018-08-15T11:16:30Z</time>
</trkpt>
<trkpt lat="46.4340352" lon="8.0855496">
<ele>2370.000000</ele>
<time>2018-08-15T11:16:40Z</time>
</trkpt>
<trkpt lat="46.4341312" lon="8.0855760">
<ele>2371.000000</ele>
<time>2018-08-15T11:16:50Z</time>
</trkpt>
<trkpt lat="46.4342080" lon="8.0856184">
<ele>2372.000000</ele>
<time>2018-08-15T11:17:00Z</time>
</trkpt>
<trkpt lat="46.4343296" lon="8.0856272">
<ele>2372.000000</ele>
<time>2018-08-15T11:17:10Z</time>
</trkpt>
<trkpt lat="46.4344128" lon="8.0856208">
<ele>2372.000000</ele>
<time>2018-08-15T11:17:20Z</time>
</trkpt>
<trkpt lat="46.4344864" lon="8.0856648">
<ele>2372.000000</ele>
<time>2018-08-15T11:17:30Z</time>
</trkpt>
<trkpt lat="46.4345344" lon="8.0857328">
<ele>2373.000000</ele>
<time>2018-08-15T11:17:40Z</time>
</trkpt>
<trkpt lat="46.4346432" lon="8.0858008">
<ele>2374.000000</ele>
<time>2018-08-15T11:17:50Z</time>
</trkpt>
<trkpt lat="46.4347488" lon="8.0858120">
<ele>2374.000000</ele>
<time>2018-08-15T11:18:00Z</time>
</trkpt>
<trkpt lat="46.4348608" lon="8.0858144">
<ele>2374.000000</ele>
<time>2018-08-15T11:18:10Z</time>
</trkpt>
<trkpt lat="46.4349504" lon="8.0858344">
<ele>2373.000000</ele>
<time>2018-08-15T11:18:20Z</time>
</trkpt>
<trkpt lat="46.4350464" lon="8.0858368">
<ele>2375.000000</ele>
<time>2018-08-15T11:18:31Z</time>
</trkpt>
<trkpt lat="46.4351488" lon="8.0858504">
<ele>2374.000000</ele>
<time>2018-08-15T11:18:41Z</time>
</trkpt>
<trkpt lat="46.4352352" lon="8.0858840">
<ele>2373.000000</ele>
<time>2018-08-15T11:18:51Z</time>
</trkpt>
<trkpt lat="46.4353248" lon="8.0858832">
<ele>2374.000000</ele>
<time>2018-08-15T11:19:02Z</time>
</trkpt>
<trkpt lat="46.4354272" lon="8.0859528">
<ele>2374.000000</ele>
<time>2018-08-15T11:19:12Z</time>
</trkpt>
<trkpt lat="46.4355200" lon="8.0859280">
<ele>2375.000000</ele>
<time>2018-08-15T11:19:22Z</time>
</trkpt>
<trkpt lat="46.4355840" lon="8.0859616">
<ele>2376.000000</ele>
<time>2018-08-15T11:19:32Z</time>
</trkpt>
<trkpt lat="46.4356928" lon="8.0859568">
<ele>2376.000000</ele>
<time>2018-08-15T11:19:42Z</time>
</trkpt>
<trkpt lat="46.4357888" lon="8.0859640">
<ele>2376.000000</ele>
<time>2018-08-15T11:19:52Z</time>
</trkpt>
<trkpt lat="46.4358496" lon="8.0859696">
<ele>2376.000000</ele>
<time>2018-08-15T11:20:02Z</time>
</trkpt>
<trkpt lat="46.4359520" lon="8.0859464">
<ele>2377.000000</ele>
<time>2018-08-15T11:20:12Z</time>
</trkpt>
<trkpt lat="46.4360320" lon="8.0859896">
<ele>2377.000000</ele>
<time>2018-08-15T11:20:22Z</time>
</trkpt>
<trkpt lat="46.4361664" lon="8.0860544">
<ele>2376.000000</ele>
<time>2018-08-15T11:20:32Z</time>
</trkpt>
<trkpt lat="46.4362688" lon="8.0861152">
<ele>2377.000000</ele>
<time>2018-08-15T11:20:42Z</time>
</trkpt>
<trkpt lat="46.4363744" lon="8.0860928">
<ele>2377.000000</ele>
<time>2018-08-15T11:20:52Z</time>
</trkpt>
<trkpt lat="46.4364768" lon="8.0861312">
<ele>2377.000000</ele>
<time>2018-08-15T11:21:02Z</time>
</trkpt>
<trkpt lat="46.4365568" lon="8.0861800">
<ele>2377.000000</ele>
<time>2018-08-15T11:21:12Z</time>
</trkpt>
<trkpt lat="46.4366080" lon="8.0862760">
<ele>2378.000000</ele>
<time>2018-08-15T11:21:22Z</time>
</trkpt>
<trkpt lat="46.4366912" lon="8.0863224">
<ele>2378.000000</ele>
<time>2018-08-15T11:21:32Z</time>
</trkpt>
<trkpt lat="46.4367552" lon="8.0863432">
<ele>2379.000000</ele>
<time>2018-08-15T11:21:42Z</time>
</trkpt>
<trkpt lat="46.4368512" lon="8.0863648">
<ele>2380.000000</ele>
<time>2018-08-15T11:21:52Z</time>
</trkpt>
<trkpt lat="46.4369568" lon="8.0864632">
<ele>2379.000000</ele>
<time>2018-08-15T11:22:02Z</time>
</trkpt>
<trkpt lat="46.4370496" lon="8.0864712">
<ele>2379.000000</ele>
<time>2018-08-15T11:22:12Z</time>
</trkpt>
<trkpt lat="46.4371520" lon="8.0864856">
<ele>2381.000000</ele>
<time>2018-08-15T11:22:22Z</time>
</trkpt>
<trkpt lat="46.4372608" lon="8.0865576">
<ele>2381.000000</ele>
<time>2018-08-15T11:22:32Z</time>
</trkpt>
<trkpt lat="46.4373792" lon="8.0865592">
<ele>2379.000000</ele>
<time>2018-08-15T11:22:42Z</time>
</trkpt>
<trkpt lat="46.4374688" lon="8.0865928">
<ele>2379.000000</ele>
<time>2018-08-15T11:22:52Z</time>
</trkpt>
<trkpt lat="46.4375616" lon="8.0866568">
<ele>2378.000000</ele>
<time>2018-08-15T11:23:02Z</time>
</trkpt>
<trkpt lat="46.4376704" lon="8.0866816">
<ele>2378.000000</ele>
<time>2018-08-15T11:23:12Z</time>
</trkpt>
<trkpt lat="46.4377472" lon="8.0867880">
<ele>2377.000000</ele>
<time>2018-08-15T11:23:22Z</time>
</trkpt>
<trkpt lat="46.4378400" lon="8.0867528">
<ele>2375.000000</ele>
<time>2018-08-15T11:23:32Z</time>
</trkpt>
<trkpt lat="46.4379168" lon="8.0867792">
<ele>2375.000000</ele>
<time>2018-08-15T11:23:42Z</time>
</trkpt>
<trkpt lat="46.4380032" lon="8.0867032">
<ele>2374.000000</ele>
<time>2018-08-15T11:23:52Z</time>
</trkpt>
<trkpt lat="46.4381088" lon="8.0867488">
<ele>2372.000000</ele>
<time>2018-08-15T11:24:02Z</time>
</trkpt>
<trkpt lat="46.4382144" lon="8.0867712">
<ele>2371.000000</ele>
<time>2018-08-15T11:24:12Z</time>
</trkpt>
<trkpt lat="46.4383072" lon="8.0868616">
<ele>2371.000000</ele>
<time>2018-08-15T11:24:22Z</time>
</trkpt>
<trkpt lat="46.4384224" lon="8.0868464">
<ele>2370.000000</ele>
<time>2018-08-15T11:24:32Z</time>
</trkpt>
<trkpt lat="46.4385376" lon="8.0868896">
<ele>2369.000000</ele>
<time>2018-08-15T11:24:42Z</time>
</trkpt>
<trkpt lat="46.4386688" lon="8.0869000">
<ele>2367.000000</ele>
<time>2018-08-15T11:24:52Z</time>
</trkpt>
<trkpt lat="46.4387392" lon="8.0869560">
<ele>2365.000000</ele>
<time>2018-08-15T11:25:02Z</time>
</trkpt>
<trkpt lat="46.4388320" lon="8.0869696">
<ele>2364.000000</ele>
<time>2018-08-15T11:25:12Z</time>
</trkpt>
<trkpt lat="46.4389472" lon="8.0869848">
<ele>2362.000000</ele>
<time>2018-08-15T11:25:23Z</time>
</trkpt>
<trkpt lat="46.4390080" lon="8.0870672">
<ele>2361.000000</ele>
<time>2018-08-15T11:25:34Z</time>
</trkpt>
<trkpt lat="46.4390400" lon="8.0870696">
<ele>2358.000000</ele>
<time>2018-08-15T11:25:44Z</time>
</trkpt>
<trkpt lat="46.4390976" lon="8.0871048">
<ele>2356.000000</ele>
<time>2018-08-15T11:25:55Z</time>
</trkpt>
<trkpt lat="46.4391584" lon="8.0870984">
<ele>2354.000000</ele>
<time>2018-08-15T11:26:05Z</time>
</trkpt>
<trkpt lat="46.4391936" lon="8.0871232">
<ele>2352.000000</ele>
<time>2018-08-15T11:26:15Z</time>
</trkpt>
<trkpt lat="46.4392000" lon="8.0871432">
<ele>2352.000000</ele>
<time>2018-08-15T11:26:25Z</time>
</trkpt>
<trkpt lat="46.4391968" lon="8.0872816">
<ele>2352.000000</ele>
<time>2018-08-15T11:26:35Z</time>
</trkpt>
<trkpt lat="46.4391936" lon="8.0872768">
<ele>2352.000000</ele>
<time>2018-08-15T11:28:32Z</time>
</trkpt>
<trkpt lat="46.4391808" lon="8.0872728">
<ele>2352.000000</ele>
<time>2018-08-15T11:28:59Z</time>
</trkpt>
<trkpt lat="46.4391936" lon="8.0872432">
<ele>2351.000000</ele>
<time>2018-08-15T11:29:09Z</time>
</trkpt>
<trkpt lat="46.4392768" lon="8.0871896">
<ele>2351.000000</ele>
<time>2018-08-15T11:29:20Z</time>
</trkpt>
<trkpt lat="46.4392096" lon="8.0871408">
<ele>2350.000000</ele>
<time>2018-08-15T11:29:36Z</time>
</trkpt>
<trkpt lat="46.4392320" lon="8.0871208">
<ele>2350.000000</ele>
<time>2018-08-15T11:29:51Z</time>
</trkpt>
<trkpt lat="46.4392288" lon="8.0871096">
<ele>2349.000000</ele>
<time>2018-08-15T11:30:31Z</time>
</trkpt>
<trkpt lat="46.4392256" lon="8.0871280">
<ele>2349.000000</ele>
<time>2018-08-15T11:30:41Z</time>
</trkpt>
<trkpt lat="46.4392160" lon="8.0871248">
<ele>2349.000000</ele>
<time>2018-08-15T11:31:02Z</time>
</trkpt>
<trkpt lat="46.4392128" lon="8.0871248">
<ele>2349.000000</ele>
<time>2018-08-15T11:31:34Z</time>
</trkpt>
<trkpt lat="46.4392064" lon="8.0871128">
<ele>2349.000000</ele>
<time>2018-08-15T11:32:08Z</time>
</trkpt>
<trkpt lat="46.4391968" lon="8.0871112">
<ele>2350.000000</ele>
<time>2018-08-15T11:32:38Z</time>
</trkpt>
<trkpt lat="46.4392064" lon="8.0871232">
<ele>2350.000000</ele>
<time>2018-08-15T11:32:56Z</time>
</trkpt>
<trkpt lat="46.4392064" lon="8.0871312">
<ele>2350.000000</ele>
<time>2018-08-15T11:34:14Z</time>
</trkpt>
<trkpt lat="46.4391712" lon="8.0871856">
<ele>2350.000000</ele>
<time>2018-08-15T11:34:24Z</time>
</trkpt>
<trkpt lat="46.4391680" lon="8.0872608">
<ele>2348.000000</ele>
<time>2018-08-15T11:34:36Z</time>
</trkpt>
<trkpt lat="46.4391712" lon="8.0872656">
<ele>2348.000000</ele>
<time>2018-08-15T11:34:55Z</time>
</trkpt>
<trkpt lat="46.4391872" lon="8.0874032">
<ele>2348.000000</ele>
<time>2018-08-15T11:35:05Z</time>
</trkpt>
<trkpt lat="46.4392064" lon="8.0874912">
<ele>2347.000000</ele>
<time>2018-08-15T11:35:15Z</time>
</trkpt>
<trkpt lat="46.4392576" lon="8.0875776">
<ele>2346.000000</ele>
<time>2018-08-15T11:35:25Z</time>
</trkpt>
<trkpt lat="46.4392704" lon="8.0876672">
<ele>2345.000000</ele>
<time>2018-08-15T11:35:35Z</time>
</trkpt>
<trkpt lat="46.4392448" lon="8.0877472">
<ele>2344.000000</ele>
<time>2018-08-15T11:35:45Z</time>
</trkpt>
<trkpt lat="46.4392544" lon="8.0878792">
<ele>2341.000000</ele>
<time>2018-08-15T11:35:55Z</time>
</trkpt>
<trkpt lat="46.4393280" lon="8.0879208">
<ele>2339.000000</ele>
<time>2018-08-15T11:36:05Z</time>
</trkpt>
<trkpt lat="46.4393120" lon="8.0879840">
<ele>2336.000000</ele>
<time>2018-08-15T11:36:35Z</time>
</trkpt>
<trkpt lat="46.4393248" lon="8.0880496">
<ele>2334.000000</ele>
<time>2018-08-15T11:36:48Z</time>
</trkpt>
<trkpt lat="46.4393152" lon="8.0880896">
<ele>2333.000000</ele>
<time>2018-08-15T11:37:27Z</time>
</trkpt>
<trkpt lat="46.4393440" lon="8.0881424">
<ele>2332.000000</ele>
<time>2018-08-15T11:37:38Z</time>
</trkpt>
<trkpt lat="46.4393440" lon="8.0882376">
<ele>2330.000000</ele>
<time>2018-08-15T11:37:48Z</time>
</trkpt>
<trkpt lat="46.4393728" lon="8.0883128">
<ele>2328.000000</ele>
<time>2018-08-15T11:37:58Z</time>
</trkpt>
<trkpt lat="46.4394144" lon="8.0884000">
<ele>2326.000000</ele>
<time>2018-08-15T11:38:08Z</time>
</trkpt>
<trkpt lat="46.4394176" lon="8.0884296">
<ele>2324.000000</ele>
<time>2018-08-15T11:38:18Z</time>
</trkpt>
<trkpt lat="46.4394240" lon="8.0885080">
<ele>2321.000000</ele>
<time>2018-08-15T11:38:28Z</time>
</trkpt>
<trkpt lat="46.4394848" lon="8.0885184">
<ele>2319.000000</ele>
<time>2018-08-15T11:38:38Z</time>
</trkpt>
<trkpt lat="46.4395136" lon="8.0885112">
<ele>2319.000000</ele>
<time>2018-08-15T11:38:50Z</time>
</trkpt>
<trkpt lat="46.4395264" lon="8.0885760">
<ele>2319.000000</ele>
<time>2018-08-15T11:39:00Z</time>
</trkpt>
<trkpt lat="46.4395744" lon="8.0885448">
<ele>2318.000000</ele>
<time>2018-08-15T11:39:10Z</time>
</trkpt>
<trkpt lat="46.4395872" lon="8.0885632">
<ele>2317.000000</ele>
<time>2018-08-15T11:39:30Z</time>
</trkpt>
<trkpt lat="46.4395328" lon="8.0886456">
<ele>2316.000000</ele>
<time>2018-08-15T11:39:40Z</time>
</trkpt>
<trkpt lat="46.4395936" lon="8.0886928">
<ele>2315.000000</ele>
<time>2018-08-15T11:39:50Z</time>
</trkpt>
<trkpt lat="46.4396768" lon="8.0887576">
<ele>2313.000000</ele>
<time>2018-08-15T11:40:00Z</time>
</trkpt>
<trkpt lat="46.4397312" lon="8.0887968">
<ele>2312.000000</ele>
<time>2018-08-15T11:40:10Z</time>
</trkpt>
<trkpt lat="46.4397408" lon="8.0888280">
<ele>2310.000000</ele>
<time>2018-08-15T11:40:20Z</time>
</trkpt>
<trkpt lat="46.4397856" lon="8.0888960">
<ele>2310.000000</ele>
<time>2018-08-15T11:40:30Z</time>
</trkpt>
<trkpt lat="46.4397824" lon="8.0889064">
<ele>2310.000000</ele>
<time>2018-08-15T11:40:40Z</time>
</trkpt>
<trkpt lat="46.4398080" lon="8.0889952">
<ele>2309.000000</ele>
<time>2018-08-15T11:40:50Z</time>
</trkpt>
<trkpt lat="46.4398272" lon="8.0891664">
<ele>2308.000000</ele>
<time>2018-08-15T11:41:00Z</time>
</trkpt>
<trkpt lat="46.4399072" lon="8.0892560">
<ele>2306.000000</ele>
<time>2018-08-15T11:41:10Z</time>
</trkpt>
<trkpt lat="46.4398880" lon="8.0894344">
<ele>2303.000000</ele>
<time>2018-08-15T11:41:20Z</time>
</trkpt>
<trkpt lat="46.4400192" lon="8.0894280">
<ele>2302.000000</ele>
<time>2018-08-15T11:41:33Z</time>
</trkpt>
<trkpt lat="46.4400288" lon="8.0894344">
<ele>2302.000000</ele>
<time>2018-08-15T11:41:44Z</time>
</trkpt>
<trkpt lat="46.4400480" lon="8.0895560">
<ele>2302.000000</ele>
<time>2018-08-15T11:41:54Z</time>
</trkpt>
<trkpt lat="46.4400480" lon="8.0897176">
<ele>2302.000000</ele>
<time>2018-08-15T11:42:04Z</time>
</trkpt>
<trkpt lat="46.4401184" lon="8.0898384">
<ele>2302.000000</ele>
<time>2018-08-15T11:42:14Z</time>
</trkpt>
<trkpt lat="46.4400896" lon="8.0900096">
<ele>2302.000000</ele>
<time>2018-08-15T11:42:24Z</time>
</trkpt>
<trkpt lat="46.4401440" lon="8.0900744">
<ele>2302.000000</ele>
<time>2018-08-15T11:42:42Z</time>
</trkpt>
<trkpt lat="46.4401632" lon="8.0900480">
<ele>2302.000000</ele>
<time>2018-08-15T11:43:09Z</time>
</trkpt>
<trkpt lat="46.4401600" lon="8.0900456">
<ele>2301.000000</ele>
<time>2018-08-15T11:43:20Z</time>
</trkpt>
<trkpt lat="46.4403296" lon="8.0901176">
<ele>2301.000000</ele>
<time>2018-08-15T11:43:30Z</time>
</trkpt>
<trkpt lat="46.4403040" lon="8.0903696">
<ele>2300.000000</ele>
<time>2018-08-15T11:43:39Z</time>
</trkpt>
<trkpt lat="46.4404480" lon="8.0904360">
<ele>2300.000000</ele>
<time>2018-08-15T11:43:49Z</time>
</trkpt>
<trkpt lat="46.4405312" lon="8.0904960">
<ele>2300.000000</ele>
<time>2018-08-15T11:43:59Z</time>
</trkpt>
<trkpt lat="46.4405600" lon="8.0906480">
<ele>2299.000000</ele>
<time>2018-08-15T11:44:09Z</time>
</trkpt>
<trkpt lat="46.4405440" lon="8.0907728">
<ele>2299.000000</ele>
<time>2018-08-15T11:44:19Z</time>
</trkpt>
<trkpt lat="46.4405472" lon="8.0909192">
<ele>2298.000000</ele>
<time>2018-08-15T11:44:29Z</time>
</trkpt>
<trkpt lat="46.4405600" lon="8.0910560">
<ele>2297.000000</ele>
<time>2018-08-15T11:44:39Z</time>
</trkpt>
<trkpt lat="46.4405952" lon="8.0911648">
<ele>2296.000000</ele>
<time>2018-08-15T11:44:49Z</time>
</trkpt>
<trkpt lat="46.4405760" lon="8.0913096">
<ele>2297.000000</ele>
<time>2018-08-15T11:44:59Z</time>
</trkpt>
<trkpt lat="46.4405760" lon="8.0914520">
<ele>2297.000000</ele>
<time>2018-08-15T11:45:09Z</time>
</trkpt>
</trkseg>
</trk>
</gpx>
